<?xml version="1.0" encoding="UTF-8" standalone="no" ?>
<gpx xmlns="http://www.topografix.com/GPX/1/1" xmlns:xsi="http://www.w3.org/2001/XMLSchema-instance" xsi:schemaLocation="http://www.topografix.com/GPX/1/1 http://www.topografix.com/GPX/1/1/gpx.xsd" version="1.1" creator="VisuGPX - https://www.visugpx.com">
  <metadata>
    <name>LA ROCHERUDE - 12KM</name>
  </metadata>
  <trk>
    <name><![CDATA[Reco solo Rocherude - 5 mai. A vos agendas ;-)]]></name>
    <trkseg>
      <trkpt lat="44.24718" lon="4.83035">
        <ele>129.5</ele>
        <time>2024-03-12T11:11:51Z</time>
      </trkpt>
      <trkpt lat="44.24717" lon="4.83037">
        <ele>129.6</ele>
        <time>2024-03-12T11:11:52Z</time>
      </trkpt>
      <trkpt lat="44.24715" lon="4.8304">
        <ele>129.6</ele>
        <time>2024-03-12T11:11:53Z</time>
      </trkpt>
      <trkpt lat="44.24714" lon="4.83042">
        <ele>129.6</ele>
        <time>2024-03-12T11:11:54Z</time>
      </trkpt>
      <trkpt lat="44.24712" lon="4.83045">
        <ele>129.6</ele>
        <time>2024-03-12T11:11:55Z</time>
      </trkpt>
      <trkpt lat="44.2471" lon="4.83047">
        <ele>129.6</ele>
        <time>2024-03-12T11:11:56Z</time>
      </trkpt>
      <trkpt lat="44.24709" lon="4.8305">
        <ele>129.6</ele>
        <time>2024-03-12T11:11:57Z</time>
      </trkpt>
      <trkpt lat="44.24707" lon="4.83052">
        <ele>129.6</ele>
        <time>2024-03-12T11:11:58Z</time>
      </trkpt>
      <trkpt lat="44.24705" lon="4.83055">
        <ele>129.7</ele>
        <time>2024-03-12T11:11:59Z</time>
      </trkpt>
      <trkpt lat="44.24703" lon="4.83059">
        <ele>129.7</ele>
        <time>2024-03-12T11:12:00Z</time>
      </trkpt>
      <trkpt lat="44.24701" lon="4.83063">
        <ele>129.7</ele>
        <time>2024-03-12T11:12:01Z</time>
      </trkpt>
      <trkpt lat="44.24698" lon="4.83067">
        <ele>129.7</ele>
        <time>2024-03-12T11:12:02Z</time>
      </trkpt>
      <trkpt lat="44.24696" lon="4.83071">
        <ele>129.8</ele>
        <time>2024-03-12T11:12:03Z</time>
      </trkpt>
      <trkpt lat="44.24694" lon="4.83075">
        <ele>129.8</ele>
        <time>2024-03-12T11:12:04Z</time>
      </trkpt>
      <trkpt lat="44.24692" lon="4.83079">
        <ele>129.8</ele>
        <time>2024-03-12T11:12:05Z</time>
      </trkpt>
      <trkpt lat="44.2469" lon="4.83083">
        <ele>129.8</ele>
        <time>2024-03-12T11:12:06Z</time>
      </trkpt>
      <trkpt lat="44.24687" lon="4.83088">
        <ele>129.9</ele>
        <time>2024-03-12T11:12:07Z</time>
      </trkpt>
      <trkpt lat="44.24685" lon="4.83092">
        <ele>129.9</ele>
        <time>2024-03-12T11:12:08Z</time>
      </trkpt>
      <trkpt lat="44.24682" lon="4.83097">
        <ele>129.9</ele>
        <time>2024-03-12T11:12:09Z</time>
      </trkpt>
      <trkpt lat="44.2468" lon="4.83101">
        <ele>130</ele>
        <time>2024-03-12T11:12:10Z</time>
      </trkpt>
      <trkpt lat="44.24677" lon="4.83106">
        <ele>130</ele>
        <time>2024-03-12T11:12:11Z</time>
      </trkpt>
      <trkpt lat="44.24675" lon="4.83111">
        <ele>130</ele>
        <time>2024-03-12T11:12:12Z</time>
      </trkpt>
      <trkpt lat="44.24672" lon="4.83115">
        <ele>130.1</ele>
        <time>2024-03-12T11:12:13Z</time>
      </trkpt>
      <trkpt lat="44.2467" lon="4.8312">
        <ele>130.1</ele>
        <time>2024-03-12T11:12:14Z</time>
      </trkpt>
      <trkpt lat="44.24668" lon="4.83124">
        <ele>130.1</ele>
        <time>2024-03-12T11:12:15Z</time>
      </trkpt>
      <trkpt lat="44.24666" lon="4.83129">
        <ele>130.1</ele>
        <time>2024-03-12T11:12:16Z</time>
      </trkpt>
      <trkpt lat="44.24664" lon="4.83133">
        <ele>130.1</ele>
        <time>2024-03-12T11:12:17Z</time>
      </trkpt>
      <trkpt lat="44.24662" lon="4.83138">
        <ele>130.1</ele>
        <time>2024-03-12T11:12:18Z</time>
      </trkpt>
      <trkpt lat="44.24661" lon="4.83143">
        <ele>130.2</ele>
        <time>2024-03-12T11:12:19Z</time>
      </trkpt>
      <trkpt lat="44.24659" lon="4.83147">
        <ele>130.2</ele>
        <time>2024-03-12T11:12:20Z</time>
      </trkpt>
      <trkpt lat="44.24657" lon="4.83152">
        <ele>130.2</ele>
        <time>2024-03-12T11:12:21Z</time>
      </trkpt>
      <trkpt lat="44.24654" lon="4.83156">
        <ele>130.2</ele>
        <time>2024-03-12T11:12:22Z</time>
      </trkpt>
      <trkpt lat="44.24652" lon="4.83161">
        <ele>130.2</ele>
        <time>2024-03-12T11:12:23Z</time>
      </trkpt>
      <trkpt lat="44.2465" lon="4.83165">
        <ele>130.3</ele>
        <time>2024-03-12T11:12:24Z</time>
      </trkpt>
      <trkpt lat="44.24648" lon="4.83169">
        <ele>130.3</ele>
        <time>2024-03-12T11:12:25Z</time>
      </trkpt>
      <trkpt lat="44.24645" lon="4.83173">
        <ele>130.3</ele>
        <time>2024-03-12T11:12:26Z</time>
      </trkpt>
      <trkpt lat="44.24643" lon="4.83177">
        <ele>130.3</ele>
        <time>2024-03-12T11:12:27Z</time>
      </trkpt>
      <trkpt lat="44.24641" lon="4.83181">
        <ele>130.3</ele>
        <time>2024-03-12T11:12:28Z</time>
      </trkpt>
      <trkpt lat="44.2464" lon="4.83186">
        <ele>130.4</ele>
        <time>2024-03-12T11:12:29Z</time>
      </trkpt>
      <trkpt lat="44.24638" lon="4.8319">
        <ele>130.4</ele>
        <time>2024-03-12T11:12:30Z</time>
      </trkpt>
      <trkpt lat="44.24636" lon="4.83195">
        <ele>130.4</ele>
        <time>2024-03-12T11:12:31Z</time>
      </trkpt>
      <trkpt lat="44.24635" lon="4.83199">
        <ele>130.4</ele>
        <time>2024-03-12T11:12:32Z</time>
      </trkpt>
      <trkpt lat="44.24632" lon="4.83203">
        <ele>130.4</ele>
        <time>2024-03-12T11:12:33Z</time>
      </trkpt>
      <trkpt lat="44.2463" lon="4.83207">
        <ele>130.4</ele>
        <time>2024-03-12T11:12:34Z</time>
      </trkpt>
      <trkpt lat="44.24629" lon="4.83211">
        <ele>130.4</ele>
        <time>2024-03-12T11:12:35Z</time>
      </trkpt>
      <trkpt lat="44.24627" lon="4.83215">
        <ele>130.4</ele>
        <time>2024-03-12T11:12:36Z</time>
      </trkpt>
      <trkpt lat="44.24625" lon="4.8322">
        <ele>130.4</ele>
        <time>2024-03-12T11:12:37Z</time>
      </trkpt>
      <trkpt lat="44.24623" lon="4.83224">
        <ele>130.4</ele>
        <time>2024-03-12T11:12:38Z</time>
      </trkpt>
      <trkpt lat="44.24622" lon="4.83228">
        <ele>130.4</ele>
        <time>2024-03-12T11:12:39Z</time>
      </trkpt>
      <trkpt lat="44.24621" lon="4.83233">
        <ele>130.4</ele>
        <time>2024-03-12T11:12:40Z</time>
      </trkpt>
      <trkpt lat="44.24619" lon="4.83237">
        <ele>130.4</ele>
        <time>2024-03-12T11:12:41Z</time>
      </trkpt>
      <trkpt lat="44.24617" lon="4.83242">
        <ele>130.4</ele>
        <time>2024-03-12T11:12:42Z</time>
      </trkpt>
      <trkpt lat="44.24615" lon="4.83246">
        <ele>130.3</ele>
        <time>2024-03-12T11:12:43Z</time>
      </trkpt>
      <trkpt lat="44.24613" lon="4.8325">
        <ele>130.3</ele>
        <time>2024-03-12T11:12:44Z</time>
      </trkpt>
      <trkpt lat="44.24611" lon="4.83254">
        <ele>130.3</ele>
        <time>2024-03-12T11:12:45Z</time>
      </trkpt>
      <trkpt lat="44.24609" lon="4.83258">
        <ele>130.3</ele>
        <time>2024-03-12T11:12:46Z</time>
      </trkpt>
      <trkpt lat="44.24607" lon="4.83262">
        <ele>130.3</ele>
        <time>2024-03-12T11:12:47Z</time>
      </trkpt>
      <trkpt lat="44.24605" lon="4.83266">
        <ele>130.2</ele>
        <time>2024-03-12T11:12:48Z</time>
      </trkpt>
      <trkpt lat="44.24603" lon="4.8327">
        <ele>130.2</ele>
        <time>2024-03-12T11:12:49Z</time>
      </trkpt>
      <trkpt lat="44.24601" lon="4.83275">
        <ele>130.2</ele>
        <time>2024-03-12T11:12:50Z</time>
      </trkpt>
      <trkpt lat="44.24599" lon="4.83279">
        <ele>130.2</ele>
        <time>2024-03-12T11:12:51Z</time>
      </trkpt>
      <trkpt lat="44.24598" lon="4.83283">
        <ele>130.1</ele>
        <time>2024-03-12T11:12:52Z</time>
      </trkpt>
      <trkpt lat="44.24597" lon="4.83288">
        <ele>130.1</ele>
        <time>2024-03-12T11:12:53Z</time>
      </trkpt>
      <trkpt lat="44.24595" lon="4.83292">
        <ele>130</ele>
        <time>2024-03-12T11:12:54Z</time>
      </trkpt>
      <trkpt lat="44.24594" lon="4.83297">
        <ele>130</ele>
        <time>2024-03-12T11:12:55Z</time>
      </trkpt>
      <trkpt lat="44.24592" lon="4.83301">
        <ele>130</ele>
        <time>2024-03-12T11:12:56Z</time>
      </trkpt>
      <trkpt lat="44.2459" lon="4.83306">
        <ele>129.9</ele>
        <time>2024-03-12T11:12:57Z</time>
      </trkpt>
      <trkpt lat="44.24589" lon="4.83311">
        <ele>129.8</ele>
        <time>2024-03-12T11:12:58Z</time>
      </trkpt>
      <trkpt lat="44.24587" lon="4.83315">
        <ele>129.8</ele>
        <time>2024-03-12T11:12:59Z</time>
      </trkpt>
      <trkpt lat="44.24586" lon="4.8332">
        <ele>129.7</ele>
        <time>2024-03-12T11:13:00Z</time>
      </trkpt>
      <trkpt lat="44.24585" lon="4.83325">
        <ele>129.6</ele>
        <time>2024-03-12T11:13:01Z</time>
      </trkpt>
      <trkpt lat="44.24584" lon="4.8333">
        <ele>129.5</ele>
        <time>2024-03-12T11:13:02Z</time>
      </trkpt>
      <trkpt lat="44.24583" lon="4.83335">
        <ele>129.4</ele>
        <time>2024-03-12T11:13:03Z</time>
      </trkpt>
      <trkpt lat="44.24582" lon="4.8334">
        <ele>129.4</ele>
        <time>2024-03-12T11:13:04Z</time>
      </trkpt>
      <trkpt lat="44.24581" lon="4.83344">
        <ele>129.2</ele>
        <time>2024-03-12T11:13:05Z</time>
      </trkpt>
      <trkpt lat="44.24581" lon="4.83352">
        <ele>129.1</ele>
        <time>2024-03-12T11:13:06Z</time>
      </trkpt>
      <trkpt lat="44.2458" lon="4.83354">
        <ele>129</ele>
        <time>2024-03-12T11:13:07Z</time>
      </trkpt>
      <trkpt lat="44.24579" lon="4.83359">
        <ele>128.9</ele>
        <time>2024-03-12T11:13:08Z</time>
      </trkpt>
      <trkpt lat="44.24578" lon="4.83364">
        <ele>128.8</ele>
        <time>2024-03-12T11:13:09Z</time>
      </trkpt>
      <trkpt lat="44.24577" lon="4.83368">
        <ele>128.7</ele>
        <time>2024-03-12T11:13:10Z</time>
      </trkpt>
      <trkpt lat="44.24575" lon="4.83373">
        <ele>128.6</ele>
        <time>2024-03-12T11:13:11Z</time>
      </trkpt>
      <trkpt lat="44.24574" lon="4.83377">
        <ele>128.5</ele>
        <time>2024-03-12T11:13:12Z</time>
      </trkpt>
      <trkpt lat="44.24573" lon="4.83382">
        <ele>128.3</ele>
        <time>2024-03-12T11:13:13Z</time>
      </trkpt>
      <trkpt lat="44.24572" lon="4.83387">
        <ele>128.2</ele>
        <time>2024-03-12T11:13:14Z</time>
      </trkpt>
      <trkpt lat="44.24571" lon="4.83391">
        <ele>128.1</ele>
        <time>2024-03-12T11:13:15Z</time>
      </trkpt>
      <trkpt lat="44.2457" lon="4.83396">
        <ele>128</ele>
        <time>2024-03-12T11:13:16Z</time>
      </trkpt>
      <trkpt lat="44.24569" lon="4.83401">
        <ele>127.8</ele>
        <time>2024-03-12T11:13:17Z</time>
      </trkpt>
      <trkpt lat="44.24569" lon="4.83406">
        <ele>127.7</ele>
        <time>2024-03-12T11:13:18Z</time>
      </trkpt>
      <trkpt lat="44.24568" lon="4.83411">
        <ele>127.6</ele>
        <time>2024-03-12T11:13:19Z</time>
      </trkpt>
      <trkpt lat="44.24567" lon="4.83416">
        <ele>127.4</ele>
        <time>2024-03-12T11:13:20Z</time>
      </trkpt>
      <trkpt lat="44.24567" lon="4.83421">
        <ele>127.3</ele>
        <time>2024-03-12T11:13:21Z</time>
      </trkpt>
      <trkpt lat="44.24566" lon="4.83425">
        <ele>127.2</ele>
        <time>2024-03-12T11:13:22Z</time>
      </trkpt>
      <trkpt lat="44.24565" lon="4.8343">
        <ele>127.1</ele>
        <time>2024-03-12T11:13:23Z</time>
      </trkpt>
      <trkpt lat="44.24565" lon="4.83435">
        <ele>127</ele>
        <time>2024-03-12T11:13:24Z</time>
      </trkpt>
      <trkpt lat="44.24565" lon="4.8344">
        <ele>126.9</ele>
        <time>2024-03-12T11:13:25Z</time>
      </trkpt>
      <trkpt lat="44.24565" lon="4.83445">
        <ele>126.8</ele>
        <time>2024-03-12T11:13:26Z</time>
      </trkpt>
      <trkpt lat="44.24564" lon="4.8345">
        <ele>126.6</ele>
        <time>2024-03-12T11:13:27Z</time>
      </trkpt>
      <trkpt lat="44.24563" lon="4.83455">
        <ele>126.5</ele>
        <time>2024-03-12T11:13:28Z</time>
      </trkpt>
      <trkpt lat="44.24563" lon="4.8346">
        <ele>126.4</ele>
        <time>2024-03-12T11:13:29Z</time>
      </trkpt>
      <trkpt lat="44.24562" lon="4.83465">
        <ele>126.2</ele>
        <time>2024-03-12T11:13:30Z</time>
      </trkpt>
      <trkpt lat="44.24562" lon="4.83471">
        <ele>126.1</ele>
        <time>2024-03-12T11:13:31Z</time>
      </trkpt>
      <trkpt lat="44.24561" lon="4.83476">
        <ele>126</ele>
        <time>2024-03-12T11:13:32Z</time>
      </trkpt>
      <trkpt lat="44.24561" lon="4.83481">
        <ele>125.8</ele>
        <time>2024-03-12T11:13:33Z</time>
      </trkpt>
      <trkpt lat="44.24561" lon="4.83486">
        <ele>125.7</ele>
        <time>2024-03-12T11:13:34Z</time>
      </trkpt>
      <trkpt lat="44.24561" lon="4.83491">
        <ele>125.6</ele>
        <time>2024-03-12T11:13:35Z</time>
      </trkpt>
      <trkpt lat="44.2456" lon="4.83496">
        <ele>125.4</ele>
        <time>2024-03-12T11:13:36Z</time>
      </trkpt>
      <trkpt lat="44.2456" lon="4.83501">
        <ele>125.3</ele>
        <time>2024-03-12T11:13:37Z</time>
      </trkpt>
      <trkpt lat="44.24559" lon="4.83506">
        <ele>125.1</ele>
        <time>2024-03-12T11:13:38Z</time>
      </trkpt>
      <trkpt lat="44.24558" lon="4.83511">
        <ele>125</ele>
        <time>2024-03-12T11:13:39Z</time>
      </trkpt>
      <trkpt lat="44.24557" lon="4.83516">
        <ele>124.9</ele>
        <time>2024-03-12T11:13:40Z</time>
      </trkpt>
      <trkpt lat="44.24556" lon="4.83521">
        <ele>124.7</ele>
        <time>2024-03-12T11:13:41Z</time>
      </trkpt>
      <trkpt lat="44.24555" lon="4.83526">
        <ele>124.6</ele>
        <time>2024-03-12T11:13:42Z</time>
      </trkpt>
      <trkpt lat="44.24554" lon="4.83531">
        <ele>124.5</ele>
        <time>2024-03-12T11:13:43Z</time>
      </trkpt>
      <trkpt lat="44.24553" lon="4.83535">
        <ele>124.3</ele>
        <time>2024-03-12T11:13:44Z</time>
      </trkpt>
      <trkpt lat="44.24552" lon="4.8354">
        <ele>124.2</ele>
        <time>2024-03-12T11:13:45Z</time>
      </trkpt>
      <trkpt lat="44.24551" lon="4.83545">
        <ele>124.1</ele>
        <time>2024-03-12T11:13:46Z</time>
      </trkpt>
      <trkpt lat="44.2455" lon="4.8355">
        <ele>124</ele>
        <time>2024-03-12T11:13:47Z</time>
      </trkpt>
      <trkpt lat="44.24549" lon="4.83554">
        <ele>123.8</ele>
        <time>2024-03-12T11:13:48Z</time>
      </trkpt>
      <trkpt lat="44.24547" lon="4.83558">
        <ele>123.8</ele>
        <time>2024-03-12T11:13:49Z</time>
      </trkpt>
      <trkpt lat="44.24545" lon="4.83561">
        <ele>123.7</ele>
        <time>2024-03-12T11:13:50Z</time>
      </trkpt>
      <trkpt lat="44.24543" lon="4.83562">
        <ele>123.6</ele>
        <time>2024-03-12T11:13:51Z</time>
      </trkpt>
      <trkpt lat="44.24541" lon="4.83562">
        <ele>123.7</ele>
        <time>2024-03-12T11:13:52Z</time>
      </trkpt>
      <trkpt lat="44.2454" lon="4.83561">
        <ele>123.8</ele>
        <time>2024-03-12T11:13:53Z</time>
      </trkpt>
      <trkpt lat="44.24539" lon="4.83558">
        <ele>124</ele>
        <time>2024-03-12T11:13:54Z</time>
      </trkpt>
      <trkpt lat="44.24538" lon="4.83554">
        <ele>124.2</ele>
        <time>2024-03-12T11:13:55Z</time>
      </trkpt>
      <trkpt lat="44.24538" lon="4.83549">
        <ele>124.4</ele>
        <time>2024-03-12T11:13:56Z</time>
      </trkpt>
      <trkpt lat="44.24537" lon="4.83544">
        <ele>124.6</ele>
        <time>2024-03-12T11:13:57Z</time>
      </trkpt>
      <trkpt lat="44.24537" lon="4.83539">
        <ele>124.9</ele>
        <time>2024-03-12T11:13:58Z</time>
      </trkpt>
      <trkpt lat="44.24537" lon="4.83534">
        <ele>125.2</ele>
        <time>2024-03-12T11:13:59Z</time>
      </trkpt>
      <trkpt lat="44.24537" lon="4.83529">
        <ele>125.5</ele>
        <time>2024-03-12T11:14:00Z</time>
      </trkpt>
      <trkpt lat="44.24537" lon="4.83524">
        <ele>125.8</ele>
        <time>2024-03-12T11:14:01Z</time>
      </trkpt>
      <trkpt lat="44.24536" lon="4.8352">
        <ele>126.1</ele>
        <time>2024-03-12T11:14:02Z</time>
      </trkpt>
      <trkpt lat="44.24536" lon="4.83515">
        <ele>126.4</ele>
        <time>2024-03-12T11:14:03Z</time>
      </trkpt>
      <trkpt lat="44.24535" lon="4.83511">
        <ele>126.7</ele>
        <time>2024-03-12T11:14:04Z</time>
      </trkpt>
      <trkpt lat="44.24535" lon="4.83507">
        <ele>127</ele>
        <time>2024-03-12T11:14:05Z</time>
      </trkpt>
      <trkpt lat="44.24535" lon="4.83503">
        <ele>127.3</ele>
        <time>2024-03-12T11:14:06Z</time>
      </trkpt>
      <trkpt lat="44.24535" lon="4.835">
        <ele>127.5</ele>
        <time>2024-03-12T11:14:07Z</time>
      </trkpt>
      <trkpt lat="44.24534" lon="4.83496">
        <ele>127.8</ele>
        <time>2024-03-12T11:14:08Z</time>
      </trkpt>
      <trkpt lat="44.24533" lon="4.83494">
        <ele>128</ele>
        <time>2024-03-12T11:14:09Z</time>
      </trkpt>
      <trkpt lat="44.24532" lon="4.83491">
        <ele>128.3</ele>
        <time>2024-03-12T11:14:10Z</time>
      </trkpt>
      <trkpt lat="44.2453" lon="4.83488">
        <ele>128.6</ele>
        <time>2024-03-12T11:14:11Z</time>
      </trkpt>
      <trkpt lat="44.24528" lon="4.83486">
        <ele>128.9</ele>
        <time>2024-03-12T11:14:12Z</time>
      </trkpt>
      <trkpt lat="44.24526" lon="4.83484">
        <ele>129.2</ele>
        <time>2024-03-12T11:14:13Z</time>
      </trkpt>
      <trkpt lat="44.24524" lon="4.83481">
        <ele>129.5</ele>
        <time>2024-03-12T11:14:14Z</time>
      </trkpt>
      <trkpt lat="44.24522" lon="4.83479">
        <ele>129.8</ele>
        <time>2024-03-12T11:14:15Z</time>
      </trkpt>
      <trkpt lat="44.2452" lon="4.83477">
        <ele>130.1</ele>
        <time>2024-03-12T11:14:16Z</time>
      </trkpt>
      <trkpt lat="44.24517" lon="4.83475">
        <ele>130.5</ele>
        <time>2024-03-12T11:14:17Z</time>
      </trkpt>
      <trkpt lat="44.24515" lon="4.83473">
        <ele>130.8</ele>
        <time>2024-03-12T11:14:18Z</time>
      </trkpt>
      <trkpt lat="44.24513" lon="4.83471">
        <ele>131.1</ele>
        <time>2024-03-12T11:14:19Z</time>
      </trkpt>
      <trkpt lat="44.24511" lon="4.83469">
        <ele>131.4</ele>
        <time>2024-03-12T11:14:20Z</time>
      </trkpt>
      <trkpt lat="44.24508" lon="4.83467">
        <ele>131.8</ele>
        <time>2024-03-12T11:14:21Z</time>
      </trkpt>
      <trkpt lat="44.24506" lon="4.83465">
        <ele>132.1</ele>
        <time>2024-03-12T11:14:22Z</time>
      </trkpt>
      <trkpt lat="44.24503" lon="4.83463">
        <ele>132.5</ele>
        <time>2024-03-12T11:14:23Z</time>
      </trkpt>
      <trkpt lat="44.245" lon="4.83461">
        <ele>132.8</ele>
        <time>2024-03-12T11:14:24Z</time>
      </trkpt>
      <trkpt lat="44.24498" lon="4.83459">
        <ele>133.1</ele>
        <time>2024-03-12T11:14:25Z</time>
      </trkpt>
      <trkpt lat="44.24496" lon="4.83456">
        <ele>133.3</ele>
        <time>2024-03-12T11:14:26Z</time>
      </trkpt>
      <trkpt lat="44.24493" lon="4.83453">
        <ele>133.6</ele>
        <time>2024-03-12T11:14:27Z</time>
      </trkpt>
      <trkpt lat="44.24491" lon="4.83451">
        <ele>133.9</ele>
        <time>2024-03-12T11:14:28Z</time>
      </trkpt>
      <trkpt lat="44.24489" lon="4.83448">
        <ele>134.1</ele>
        <time>2024-03-12T11:14:29Z</time>
      </trkpt>
      <trkpt lat="44.24487" lon="4.83445">
        <ele>134.4</ele>
        <time>2024-03-12T11:14:30Z</time>
      </trkpt>
      <trkpt lat="44.24485" lon="4.83442">
        <ele>134.6</ele>
        <time>2024-03-12T11:14:31Z</time>
      </trkpt>
      <trkpt lat="44.24483" lon="4.83439">
        <ele>134.9</ele>
        <time>2024-03-12T11:14:32Z</time>
      </trkpt>
      <trkpt lat="44.24481" lon="4.83436">
        <ele>135.1</ele>
        <time>2024-03-12T11:14:33Z</time>
      </trkpt>
      <trkpt lat="44.2448" lon="4.83434">
        <ele>135.3</ele>
        <time>2024-03-12T11:14:34Z</time>
      </trkpt>
      <trkpt lat="44.24479" lon="4.83431">
        <ele>135.5</ele>
        <time>2024-03-12T11:14:35Z</time>
      </trkpt>
      <trkpt lat="44.24478" lon="4.83429">
        <ele>135.7</ele>
        <time>2024-03-12T11:14:36Z</time>
      </trkpt>
      <trkpt lat="44.24478" lon="4.83429">
        <ele>135.7</ele>
        <time>2024-03-12T11:14:37Z</time>
      </trkpt>
      <trkpt lat="44.24476" lon="4.83425">
        <ele>136.1</ele>
        <time>2024-03-12T11:14:38Z</time>
      </trkpt>
      <trkpt lat="44.24476" lon="4.83425">
        <ele>136.1</ele>
        <time>2024-03-12T11:14:39Z</time>
      </trkpt>
      <trkpt lat="44.24474" lon="4.83422">
        <ele>136.4</ele>
        <time>2024-03-12T11:14:40Z</time>
      </trkpt>
      <trkpt lat="44.24474" lon="4.83422">
        <ele>136.4</ele>
        <time>2024-03-12T11:14:41Z</time>
      </trkpt>
      <trkpt lat="44.24471" lon="4.8342">
        <ele>136.9</ele>
        <time>2024-03-12T11:14:42Z</time>
      </trkpt>
      <trkpt lat="44.24469" lon="4.83419">
        <ele>137.2</ele>
        <time>2024-03-12T11:14:43Z</time>
      </trkpt>
      <trkpt lat="44.24467" lon="4.83417">
        <ele>137.7</ele>
        <time>2024-03-12T11:14:44Z</time>
      </trkpt>
      <trkpt lat="44.24464" lon="4.83416">
        <ele>138.1</ele>
        <time>2024-03-12T11:14:45Z</time>
      </trkpt>
      <trkpt lat="44.24462" lon="4.83413">
        <ele>138.6</ele>
        <time>2024-03-12T11:14:46Z</time>
      </trkpt>
      <trkpt lat="44.2446" lon="4.83411">
        <ele>139.1</ele>
        <time>2024-03-12T11:14:47Z</time>
      </trkpt>
      <trkpt lat="44.24458" lon="4.83409">
        <ele>139.6</ele>
        <time>2024-03-12T11:14:48Z</time>
      </trkpt>
      <trkpt lat="44.24456" lon="4.83406">
        <ele>140.1</ele>
        <time>2024-03-12T11:14:49Z</time>
      </trkpt>
      <trkpt lat="44.24454" lon="4.83404">
        <ele>140.6</ele>
        <time>2024-03-12T11:14:50Z</time>
      </trkpt>
      <trkpt lat="44.24453" lon="4.83402">
        <ele>141</ele>
        <time>2024-03-12T11:14:51Z</time>
      </trkpt>
      <trkpt lat="44.24451" lon="4.83399">
        <ele>141.5</ele>
        <time>2024-03-12T11:14:52Z</time>
      </trkpt>
      <trkpt lat="44.2445" lon="4.83397">
        <ele>142</ele>
        <time>2024-03-12T11:14:53Z</time>
      </trkpt>
      <trkpt lat="44.24448" lon="4.83394">
        <ele>142.5</ele>
        <time>2024-03-12T11:14:54Z</time>
      </trkpt>
      <trkpt lat="44.24447" lon="4.83391">
        <ele>143</ele>
        <time>2024-03-12T11:14:55Z</time>
      </trkpt>
      <trkpt lat="44.24446" lon="4.83389">
        <ele>143.5</ele>
        <time>2024-03-12T11:14:56Z</time>
      </trkpt>
      <trkpt lat="44.24445" lon="4.83386">
        <ele>143.9</ele>
        <time>2024-03-12T11:14:57Z</time>
      </trkpt>
      <trkpt lat="44.24444" lon="4.83383">
        <ele>144.4</ele>
        <time>2024-03-12T11:14:58Z</time>
      </trkpt>
      <trkpt lat="44.24443" lon="4.83379">
        <ele>145</ele>
        <time>2024-03-12T11:14:59Z</time>
      </trkpt>
      <trkpt lat="44.24442" lon="4.83376">
        <ele>145.5</ele>
        <time>2024-03-12T11:15:00Z</time>
      </trkpt>
      <trkpt lat="44.24441" lon="4.83373">
        <ele>146</ele>
        <time>2024-03-12T11:15:01Z</time>
      </trkpt>
      <trkpt lat="44.2444" lon="4.8337">
        <ele>146.4</ele>
        <time>2024-03-12T11:15:02Z</time>
      </trkpt>
      <trkpt lat="44.24439" lon="4.83367">
        <ele>146.9</ele>
        <time>2024-03-12T11:15:03Z</time>
      </trkpt>
      <trkpt lat="44.24438" lon="4.83364">
        <ele>147.3</ele>
        <time>2024-03-12T11:15:04Z</time>
      </trkpt>
      <trkpt lat="44.24438" lon="4.83361">
        <ele>147.7</ele>
        <time>2024-03-12T11:15:05Z</time>
      </trkpt>
      <trkpt lat="44.24437" lon="4.83359">
        <ele>148</ele>
        <time>2024-03-12T11:15:06Z</time>
      </trkpt>
      <trkpt lat="44.24436" lon="4.83356">
        <ele>148.3</ele>
        <time>2024-03-12T11:15:07Z</time>
      </trkpt>
      <trkpt lat="44.24436" lon="4.83353">
        <ele>148.6</ele>
        <time>2024-03-12T11:15:08Z</time>
      </trkpt>
      <trkpt lat="44.24435" lon="4.83351">
        <ele>149</ele>
        <time>2024-03-12T11:15:09Z</time>
      </trkpt>
      <trkpt lat="44.24434" lon="4.83348">
        <ele>149.2</ele>
        <time>2024-03-12T11:15:10Z</time>
      </trkpt>
      <trkpt lat="44.24434" lon="4.83345">
        <ele>149.5</ele>
        <time>2024-03-12T11:15:11Z</time>
      </trkpt>
      <trkpt lat="44.24434" lon="4.83341">
        <ele>149.8</ele>
        <time>2024-03-12T11:15:12Z</time>
      </trkpt>
      <trkpt lat="44.24433" lon="4.83338">
        <ele>150.1</ele>
        <time>2024-03-12T11:15:13Z</time>
      </trkpt>
      <trkpt lat="44.24433" lon="4.83335">
        <ele>150.4</ele>
        <time>2024-03-12T11:15:14Z</time>
      </trkpt>
      <trkpt lat="44.24432" lon="4.83331">
        <ele>150.7</ele>
        <time>2024-03-12T11:15:15Z</time>
      </trkpt>
      <trkpt lat="44.24432" lon="4.83328">
        <ele>150.9</ele>
        <time>2024-03-12T11:15:16Z</time>
      </trkpt>
      <trkpt lat="44.24432" lon="4.83325">
        <ele>151.2</ele>
        <time>2024-03-12T11:15:17Z</time>
      </trkpt>
      <trkpt lat="44.24431" lon="4.83321">
        <ele>151.4</ele>
        <time>2024-03-12T11:15:18Z</time>
      </trkpt>
      <trkpt lat="44.24431" lon="4.83318">
        <ele>151.6</ele>
        <time>2024-03-12T11:15:19Z</time>
      </trkpt>
      <trkpt lat="44.24431" lon="4.83316">
        <ele>151.8</ele>
        <time>2024-03-12T11:15:20Z</time>
      </trkpt>
      <trkpt lat="44.2443" lon="4.83313">
        <ele>152</ele>
        <time>2024-03-12T11:15:21Z</time>
      </trkpt>
      <trkpt lat="44.24429" lon="4.8331">
        <ele>152.3</ele>
        <time>2024-03-12T11:15:22Z</time>
      </trkpt>
      <trkpt lat="44.24428" lon="4.83306">
        <ele>152.5</ele>
        <time>2024-03-12T11:15:23Z</time>
      </trkpt>
      <trkpt lat="44.24427" lon="4.83303">
        <ele>152.8</ele>
        <time>2024-03-12T11:15:24Z</time>
      </trkpt>
      <trkpt lat="44.24426" lon="4.833">
        <ele>153.1</ele>
        <time>2024-03-12T11:15:25Z</time>
      </trkpt>
      <trkpt lat="44.24425" lon="4.83296">
        <ele>153.4</ele>
        <time>2024-03-12T11:15:26Z</time>
      </trkpt>
      <trkpt lat="44.24424" lon="4.83293">
        <ele>153.6</ele>
        <time>2024-03-12T11:15:27Z</time>
      </trkpt>
      <trkpt lat="44.24424" lon="4.8329">
        <ele>153.9</ele>
        <time>2024-03-12T11:15:28Z</time>
      </trkpt>
      <trkpt lat="44.24423" lon="4.83287">
        <ele>154.2</ele>
        <time>2024-03-12T11:15:29Z</time>
      </trkpt>
      <trkpt lat="44.24422" lon="4.83284">
        <ele>154.5</ele>
        <time>2024-03-12T11:15:30Z</time>
      </trkpt>
      <trkpt lat="44.24422" lon="4.8328">
        <ele>154.7</ele>
        <time>2024-03-12T11:15:31Z</time>
      </trkpt>
      <trkpt lat="44.24422" lon="4.83277">
        <ele>155.1</ele>
        <time>2024-03-12T11:15:32Z</time>
      </trkpt>
      <trkpt lat="44.24422" lon="4.83274">
        <ele>155.4</ele>
        <time>2024-03-12T11:15:33Z</time>
      </trkpt>
      <trkpt lat="44.24421" lon="4.83271">
        <ele>155.7</ele>
        <time>2024-03-12T11:15:34Z</time>
      </trkpt>
      <trkpt lat="44.2442" lon="4.83267">
        <ele>156</ele>
        <time>2024-03-12T11:15:35Z</time>
      </trkpt>
      <trkpt lat="44.24419" lon="4.83265">
        <ele>156.3</ele>
        <time>2024-03-12T11:15:36Z</time>
      </trkpt>
      <trkpt lat="44.24418" lon="4.83262">
        <ele>156.6</ele>
        <time>2024-03-12T11:15:37Z</time>
      </trkpt>
      <trkpt lat="44.24416" lon="4.83261">
        <ele>156.8</ele>
        <time>2024-03-12T11:15:38Z</time>
      </trkpt>
      <trkpt lat="44.24414" lon="4.8326">
        <ele>157.1</ele>
        <time>2024-03-12T11:15:39Z</time>
      </trkpt>
      <trkpt lat="44.24412" lon="4.8326">
        <ele>157.4</ele>
        <time>2024-03-12T11:15:40Z</time>
      </trkpt>
      <trkpt lat="44.2441" lon="4.83261">
        <ele>157.6</ele>
        <time>2024-03-12T11:15:41Z</time>
      </trkpt>
      <trkpt lat="44.24408" lon="4.83263">
        <ele>157.6</ele>
        <time>2024-03-12T11:15:42Z</time>
      </trkpt>
      <trkpt lat="44.24406" lon="4.83265">
        <ele>157.4</ele>
        <time>2024-03-12T11:15:43Z</time>
      </trkpt>
      <trkpt lat="44.24404" lon="4.83267">
        <ele>157.3</ele>
        <time>2024-03-12T11:15:44Z</time>
      </trkpt>
      <trkpt lat="44.24401" lon="4.8327">
        <ele>157.1</ele>
        <time>2024-03-12T11:15:45Z</time>
      </trkpt>
      <trkpt lat="44.24398" lon="4.83272">
        <ele>157</ele>
        <time>2024-03-12T11:15:46Z</time>
      </trkpt>
      <trkpt lat="44.24396" lon="4.83275">
        <ele>156.8</ele>
        <time>2024-03-12T11:15:47Z</time>
      </trkpt>
      <trkpt lat="44.24393" lon="4.83279">
        <ele>156.7</ele>
        <time>2024-03-12T11:15:48Z</time>
      </trkpt>
      <trkpt lat="44.2439" lon="4.83282">
        <ele>156.5</ele>
        <time>2024-03-12T11:15:49Z</time>
      </trkpt>
      <trkpt lat="44.24388" lon="4.83286">
        <ele>156.4</ele>
        <time>2024-03-12T11:15:50Z</time>
      </trkpt>
      <trkpt lat="44.24386" lon="4.8329">
        <ele>156.2</ele>
        <time>2024-03-12T11:15:51Z</time>
      </trkpt>
      <trkpt lat="44.24385" lon="4.83294">
        <ele>156.1</ele>
        <time>2024-03-12T11:15:52Z</time>
      </trkpt>
      <trkpt lat="44.24383" lon="4.83298">
        <ele>155.9</ele>
        <time>2024-03-12T11:15:53Z</time>
      </trkpt>
      <trkpt lat="44.24381" lon="4.83302">
        <ele>155.7</ele>
        <time>2024-03-12T11:15:54Z</time>
      </trkpt>
      <trkpt lat="44.24379" lon="4.83306">
        <ele>155.5</ele>
        <time>2024-03-12T11:15:55Z</time>
      </trkpt>
      <trkpt lat="44.24378" lon="4.8331">
        <ele>155.2</ele>
        <time>2024-03-12T11:15:56Z</time>
      </trkpt>
      <trkpt lat="44.24376" lon="4.83314">
        <ele>155</ele>
        <time>2024-03-12T11:15:57Z</time>
      </trkpt>
      <trkpt lat="44.24375" lon="4.83319">
        <ele>154.8</ele>
        <time>2024-03-12T11:15:58Z</time>
      </trkpt>
      <trkpt lat="44.24374" lon="4.83323">
        <ele>154.5</ele>
        <time>2024-03-12T11:15:59Z</time>
      </trkpt>
      <trkpt lat="44.24373" lon="4.83327">
        <ele>154.3</ele>
        <time>2024-03-12T11:16:00Z</time>
      </trkpt>
      <trkpt lat="44.24372" lon="4.83332">
        <ele>154.1</ele>
        <time>2024-03-12T11:16:01Z</time>
      </trkpt>
      <trkpt lat="44.24371" lon="4.83336">
        <ele>153.8</ele>
        <time>2024-03-12T11:16:02Z</time>
      </trkpt>
      <trkpt lat="44.24369" lon="4.8334">
        <ele>153.6</ele>
        <time>2024-03-12T11:16:03Z</time>
      </trkpt>
      <trkpt lat="44.24368" lon="4.83344">
        <ele>153.4</ele>
        <time>2024-03-12T11:16:04Z</time>
      </trkpt>
      <trkpt lat="44.24367" lon="4.83349">
        <ele>153.2</ele>
        <time>2024-03-12T11:16:05Z</time>
      </trkpt>
      <trkpt lat="44.24365" lon="4.83353">
        <ele>152.9</ele>
        <time>2024-03-12T11:16:06Z</time>
      </trkpt>
      <trkpt lat="44.24364" lon="4.83358">
        <ele>152.7</ele>
        <time>2024-03-12T11:16:07Z</time>
      </trkpt>
      <trkpt lat="44.24362" lon="4.83362">
        <ele>152.4</ele>
        <time>2024-03-12T11:16:08Z</time>
      </trkpt>
      <trkpt lat="44.2436" lon="4.83367">
        <ele>152.2</ele>
        <time>2024-03-12T11:16:09Z</time>
      </trkpt>
      <trkpt lat="44.24359" lon="4.83371">
        <ele>151.9</ele>
        <time>2024-03-12T11:16:10Z</time>
      </trkpt>
      <trkpt lat="44.24357" lon="4.83375">
        <ele>151.6</ele>
        <time>2024-03-12T11:16:11Z</time>
      </trkpt>
      <trkpt lat="44.24356" lon="4.83379">
        <ele>151.4</ele>
        <time>2024-03-12T11:16:12Z</time>
      </trkpt>
      <trkpt lat="44.24355" lon="4.83383">
        <ele>151.1</ele>
        <time>2024-03-12T11:16:13Z</time>
      </trkpt>
      <trkpt lat="44.24353" lon="4.83387">
        <ele>150.9</ele>
        <time>2024-03-12T11:16:14Z</time>
      </trkpt>
      <trkpt lat="44.24352" lon="4.83391">
        <ele>150.6</ele>
        <time>2024-03-12T11:16:15Z</time>
      </trkpt>
      <trkpt lat="44.2435" lon="4.83395">
        <ele>150.4</ele>
        <time>2024-03-12T11:16:16Z</time>
      </trkpt>
      <trkpt lat="44.24349" lon="4.83399">
        <ele>150.2</ele>
        <time>2024-03-12T11:16:17Z</time>
      </trkpt>
      <trkpt lat="44.24347" lon="4.83403">
        <ele>150</ele>
        <time>2024-03-12T11:16:18Z</time>
      </trkpt>
      <trkpt lat="44.24345" lon="4.83407">
        <ele>149.8</ele>
        <time>2024-03-12T11:16:19Z</time>
      </trkpt>
      <trkpt lat="44.24342" lon="4.8341">
        <ele>149.7</ele>
        <time>2024-03-12T11:16:20Z</time>
      </trkpt>
      <trkpt lat="44.2434" lon="4.83414">
        <ele>149.6</ele>
        <time>2024-03-12T11:16:21Z</time>
      </trkpt>
      <trkpt lat="44.24338" lon="4.83418">
        <ele>149.6</ele>
        <time>2024-03-12T11:16:22Z</time>
      </trkpt>
      <trkpt lat="44.24335" lon="4.83421">
        <ele>149.6</ele>
        <time>2024-03-12T11:16:23Z</time>
      </trkpt>
      <trkpt lat="44.24333" lon="4.83424">
        <ele>149.6</ele>
        <time>2024-03-12T11:16:24Z</time>
      </trkpt>
      <trkpt lat="44.24331" lon="4.83427">
        <ele>149.6</ele>
        <time>2024-03-12T11:16:25Z</time>
      </trkpt>
      <trkpt lat="44.24327" lon="4.8343">
        <ele>149.6</ele>
        <time>2024-03-12T11:16:26Z</time>
      </trkpt>
      <trkpt lat="44.24325" lon="4.83433">
        <ele>149.7</ele>
        <time>2024-03-12T11:16:27Z</time>
      </trkpt>
      <trkpt lat="44.24322" lon="4.83435">
        <ele>149.8</ele>
        <time>2024-03-12T11:16:28Z</time>
      </trkpt>
      <trkpt lat="44.24319" lon="4.83437">
        <ele>149.9</ele>
        <time>2024-03-12T11:16:29Z</time>
      </trkpt>
      <trkpt lat="44.24317" lon="4.8344">
        <ele>149.9</ele>
        <time>2024-03-12T11:16:30Z</time>
      </trkpt>
      <trkpt lat="44.24315" lon="4.83442">
        <ele>150</ele>
        <time>2024-03-12T11:16:31Z</time>
      </trkpt>
      <trkpt lat="44.24313" lon="4.83444">
        <ele>150.1</ele>
        <time>2024-03-12T11:16:32Z</time>
      </trkpt>
      <trkpt lat="44.24311" lon="4.83447">
        <ele>150.2</ele>
        <time>2024-03-12T11:16:33Z</time>
      </trkpt>
      <trkpt lat="44.24309" lon="4.8345">
        <ele>150.3</ele>
        <time>2024-03-12T11:16:34Z</time>
      </trkpt>
      <trkpt lat="44.24307" lon="4.83452">
        <ele>150.4</ele>
        <time>2024-03-12T11:16:35Z</time>
      </trkpt>
      <trkpt lat="44.24305" lon="4.83455">
        <ele>150.4</ele>
        <time>2024-03-12T11:16:36Z</time>
      </trkpt>
      <trkpt lat="44.24303" lon="4.83458">
        <ele>150.5</ele>
        <time>2024-03-12T11:16:37Z</time>
      </trkpt>
      <trkpt lat="44.24301" lon="4.83461">
        <ele>150.6</ele>
        <time>2024-03-12T11:16:38Z</time>
      </trkpt>
      <trkpt lat="44.243" lon="4.83464">
        <ele>150.7</ele>
        <time>2024-03-12T11:16:39Z</time>
      </trkpt>
      <trkpt lat="44.24298" lon="4.83468">
        <ele>150.8</ele>
        <time>2024-03-12T11:16:40Z</time>
      </trkpt>
      <trkpt lat="44.24295" lon="4.83471">
        <ele>151</ele>
        <time>2024-03-12T11:16:41Z</time>
      </trkpt>
      <trkpt lat="44.24293" lon="4.83474">
        <ele>151.1</ele>
        <time>2024-03-12T11:16:42Z</time>
      </trkpt>
      <trkpt lat="44.24291" lon="4.83477">
        <ele>151.2</ele>
        <time>2024-03-12T11:16:43Z</time>
      </trkpt>
      <trkpt lat="44.24289" lon="4.8348">
        <ele>151.3</ele>
        <time>2024-03-12T11:16:44Z</time>
      </trkpt>
      <trkpt lat="44.24287" lon="4.83483">
        <ele>151.4</ele>
        <time>2024-03-12T11:16:45Z</time>
      </trkpt>
      <trkpt lat="44.24285" lon="4.83486">
        <ele>151.5</ele>
        <time>2024-03-12T11:16:46Z</time>
      </trkpt>
      <trkpt lat="44.24283" lon="4.83489">
        <ele>151.7</ele>
        <time>2024-03-12T11:16:47Z</time>
      </trkpt>
      <trkpt lat="44.24281" lon="4.83492">
        <ele>151.8</ele>
        <time>2024-03-12T11:16:48Z</time>
      </trkpt>
      <trkpt lat="44.24279" lon="4.83495">
        <ele>151.9</ele>
        <time>2024-03-12T11:16:49Z</time>
      </trkpt>
      <trkpt lat="44.24277" lon="4.83498">
        <ele>151.9</ele>
        <time>2024-03-12T11:16:50Z</time>
      </trkpt>
      <trkpt lat="44.24275" lon="4.83501">
        <ele>152</ele>
        <time>2024-03-12T11:16:51Z</time>
      </trkpt>
      <trkpt lat="44.24273" lon="4.83505">
        <ele>152.1</ele>
        <time>2024-03-12T11:16:52Z</time>
      </trkpt>
      <trkpt lat="44.24271" lon="4.83509">
        <ele>152.1</ele>
        <time>2024-03-12T11:16:53Z</time>
      </trkpt>
      <trkpt lat="44.24271" lon="4.83512">
        <ele>152.1</ele>
        <time>2024-03-12T11:16:54Z</time>
      </trkpt>
      <trkpt lat="44.24269" lon="4.83516">
        <ele>152.1</ele>
        <time>2024-03-12T11:16:55Z</time>
      </trkpt>
      <trkpt lat="44.24269" lon="4.83519">
        <ele>152.2</ele>
        <time>2024-03-12T11:16:56Z</time>
      </trkpt>
      <trkpt lat="44.24269" lon="4.83523">
        <ele>152.2</ele>
        <time>2024-03-12T11:16:57Z</time>
      </trkpt>
      <trkpt lat="44.24268" lon="4.83527">
        <ele>152.2</ele>
        <time>2024-03-12T11:16:58Z</time>
      </trkpt>
      <trkpt lat="44.24267" lon="4.83531">
        <ele>152.3</ele>
        <time>2024-03-12T11:16:59Z</time>
      </trkpt>
      <trkpt lat="44.24267" lon="4.83534">
        <ele>152.3</ele>
        <time>2024-03-12T11:17:00Z</time>
      </trkpt>
      <trkpt lat="44.24266" lon="4.83538">
        <ele>152.3</ele>
        <time>2024-03-12T11:17:01Z</time>
      </trkpt>
      <trkpt lat="44.24266" lon="4.83542">
        <ele>152.4</ele>
        <time>2024-03-12T11:17:02Z</time>
      </trkpt>
      <trkpt lat="44.24266" lon="4.83546">
        <ele>152.4</ele>
        <time>2024-03-12T11:17:03Z</time>
      </trkpt>
      <trkpt lat="44.24266" lon="4.83551">
        <ele>152.4</ele>
        <time>2024-03-12T11:17:04Z</time>
      </trkpt>
      <trkpt lat="44.24266" lon="4.83555">
        <ele>152.5</ele>
        <time>2024-03-12T11:17:05Z</time>
      </trkpt>
      <trkpt lat="44.24266" lon="4.8356">
        <ele>152.5</ele>
        <time>2024-03-12T11:17:06Z</time>
      </trkpt>
      <trkpt lat="44.24266" lon="4.83564">
        <ele>152.6</ele>
        <time>2024-03-12T11:17:07Z</time>
      </trkpt>
      <trkpt lat="44.24266" lon="4.83569">
        <ele>152.7</ele>
        <time>2024-03-12T11:17:08Z</time>
      </trkpt>
      <trkpt lat="44.24267" lon="4.83573">
        <ele>152.8</ele>
        <time>2024-03-12T11:17:09Z</time>
      </trkpt>
      <trkpt lat="44.24267" lon="4.83578">
        <ele>152.8</ele>
        <time>2024-03-12T11:17:10Z</time>
      </trkpt>
      <trkpt lat="44.24266" lon="4.83582">
        <ele>152.8</ele>
        <time>2024-03-12T11:17:11Z</time>
      </trkpt>
      <trkpt lat="44.24266" lon="4.83586">
        <ele>152.6</ele>
        <time>2024-03-12T11:17:12Z</time>
      </trkpt>
      <trkpt lat="44.24265" lon="4.8359">
        <ele>152.5</ele>
        <time>2024-03-12T11:17:13Z</time>
      </trkpt>
      <trkpt lat="44.24264" lon="4.83593">
        <ele>152.3</ele>
        <time>2024-03-12T11:17:14Z</time>
      </trkpt>
      <trkpt lat="44.24263" lon="4.83597">
        <ele>152.2</ele>
        <time>2024-03-12T11:17:15Z</time>
      </trkpt>
      <trkpt lat="44.24261" lon="4.83601">
        <ele>152</ele>
        <time>2024-03-12T11:17:16Z</time>
      </trkpt>
      <trkpt lat="44.2426" lon="4.83604">
        <ele>151.9</ele>
        <time>2024-03-12T11:17:17Z</time>
      </trkpt>
      <trkpt lat="44.24257" lon="4.83607">
        <ele>151.7</ele>
        <time>2024-03-12T11:17:18Z</time>
      </trkpt>
      <trkpt lat="44.24255" lon="4.8361">
        <ele>151.6</ele>
        <time>2024-03-12T11:17:19Z</time>
      </trkpt>
      <trkpt lat="44.24252" lon="4.83613">
        <ele>151.6</ele>
        <time>2024-03-12T11:17:20Z</time>
      </trkpt>
      <trkpt lat="44.2425" lon="4.83616">
        <ele>151.6</ele>
        <time>2024-03-12T11:17:21Z</time>
      </trkpt>
      <trkpt lat="44.24247" lon="4.83618">
        <ele>151.6</ele>
        <time>2024-03-12T11:17:22Z</time>
      </trkpt>
      <trkpt lat="44.24245" lon="4.83621">
        <ele>151.6</ele>
        <time>2024-03-12T11:17:23Z</time>
      </trkpt>
      <trkpt lat="44.24243" lon="4.83624">
        <ele>151.6</ele>
        <time>2024-03-12T11:17:24Z</time>
      </trkpt>
      <trkpt lat="44.24242" lon="4.83627">
        <ele>151.7</ele>
        <time>2024-03-12T11:17:25Z</time>
      </trkpt>
      <trkpt lat="44.24241" lon="4.8363">
        <ele>151.7</ele>
        <time>2024-03-12T11:17:26Z</time>
      </trkpt>
      <trkpt lat="44.2424" lon="4.83633">
        <ele>151.8</ele>
        <time>2024-03-12T11:17:27Z</time>
      </trkpt>
      <trkpt lat="44.24239" lon="4.83636">
        <ele>151.9</ele>
        <time>2024-03-12T11:17:28Z</time>
      </trkpt>
      <trkpt lat="44.24237" lon="4.83638">
        <ele>151.9</ele>
        <time>2024-03-12T11:17:29Z</time>
      </trkpt>
      <trkpt lat="44.24236" lon="4.83641">
        <ele>152</ele>
        <time>2024-03-12T11:17:30Z</time>
      </trkpt>
      <trkpt lat="44.24234" lon="4.83643">
        <ele>152.1</ele>
        <time>2024-03-12T11:17:31Z</time>
      </trkpt>
      <trkpt lat="44.24233" lon="4.83645">
        <ele>152.1</ele>
        <time>2024-03-12T11:17:32Z</time>
      </trkpt>
      <trkpt lat="44.24232" lon="4.83647">
        <ele>152.2</ele>
        <time>2024-03-12T11:17:33Z</time>
      </trkpt>
      <trkpt lat="44.2423" lon="4.8365">
        <ele>152.3</ele>
        <time>2024-03-12T11:17:34Z</time>
      </trkpt>
      <trkpt lat="44.24229" lon="4.83653">
        <ele>152.4</ele>
        <time>2024-03-12T11:17:35Z</time>
      </trkpt>
      <trkpt lat="44.24228" lon="4.83656">
        <ele>152.5</ele>
        <time>2024-03-12T11:17:36Z</time>
      </trkpt>
      <trkpt lat="44.24226" lon="4.8366">
        <ele>152.5</ele>
        <time>2024-03-12T11:17:37Z</time>
      </trkpt>
      <trkpt lat="44.24226" lon="4.83664">
        <ele>152.6</ele>
        <time>2024-03-12T11:17:38Z</time>
      </trkpt>
      <trkpt lat="44.24224" lon="4.83668">
        <ele>152.6</ele>
        <time>2024-03-12T11:17:39Z</time>
      </trkpt>
      <trkpt lat="44.24224" lon="4.83673">
        <ele>152.5</ele>
        <time>2024-03-12T11:17:40Z</time>
      </trkpt>
      <trkpt lat="44.24223" lon="4.83677">
        <ele>152.4</ele>
        <time>2024-03-12T11:17:41Z</time>
      </trkpt>
      <trkpt lat="44.24221" lon="4.83682">
        <ele>152.2</ele>
        <time>2024-03-12T11:17:42Z</time>
      </trkpt>
      <trkpt lat="44.24219" lon="4.83686">
        <ele>151.9</ele>
        <time>2024-03-12T11:17:43Z</time>
      </trkpt>
      <trkpt lat="44.24217" lon="4.8369">
        <ele>151.6</ele>
        <time>2024-03-12T11:17:44Z</time>
      </trkpt>
      <trkpt lat="44.24214" lon="4.83693">
        <ele>151.2</ele>
        <time>2024-03-12T11:17:45Z</time>
      </trkpt>
      <trkpt lat="44.24212" lon="4.83696">
        <ele>150.7</ele>
        <time>2024-03-12T11:17:46Z</time>
      </trkpt>
      <trkpt lat="44.24208" lon="4.83699">
        <ele>150.3</ele>
        <time>2024-03-12T11:17:47Z</time>
      </trkpt>
      <trkpt lat="44.24204" lon="4.83701">
        <ele>149.8</ele>
        <time>2024-03-12T11:17:48Z</time>
      </trkpt>
      <trkpt lat="44.24201" lon="4.83704">
        <ele>149.5</ele>
        <time>2024-03-12T11:17:49Z</time>
      </trkpt>
      <trkpt lat="44.24198" lon="4.83707">
        <ele>149.1</ele>
        <time>2024-03-12T11:17:50Z</time>
      </trkpt>
      <trkpt lat="44.24195" lon="4.8371">
        <ele>148.8</ele>
        <time>2024-03-12T11:17:51Z</time>
      </trkpt>
      <trkpt lat="44.24192" lon="4.83713">
        <ele>148.6</ele>
        <time>2024-03-12T11:17:52Z</time>
      </trkpt>
      <trkpt lat="44.2419" lon="4.83716">
        <ele>148.3</ele>
        <time>2024-03-12T11:17:53Z</time>
      </trkpt>
      <trkpt lat="44.24188" lon="4.83719">
        <ele>148</ele>
        <time>2024-03-12T11:17:54Z</time>
      </trkpt>
      <trkpt lat="44.24186" lon="4.83722">
        <ele>147.8</ele>
        <time>2024-03-12T11:17:55Z</time>
      </trkpt>
      <trkpt lat="44.24184" lon="4.83725">
        <ele>147.6</ele>
        <time>2024-03-12T11:17:56Z</time>
      </trkpt>
      <trkpt lat="44.24182" lon="4.83728">
        <ele>147.4</ele>
        <time>2024-03-12T11:17:57Z</time>
      </trkpt>
      <trkpt lat="44.2418" lon="4.83731">
        <ele>147.2</ele>
        <time>2024-03-12T11:17:58Z</time>
      </trkpt>
      <trkpt lat="44.24178" lon="4.83734">
        <ele>146.9</ele>
        <time>2024-03-12T11:17:59Z</time>
      </trkpt>
      <trkpt lat="44.24175" lon="4.83737">
        <ele>146.7</ele>
        <time>2024-03-12T11:18:00Z</time>
      </trkpt>
      <trkpt lat="44.24173" lon="4.8374">
        <ele>146.5</ele>
        <time>2024-03-12T11:18:01Z</time>
      </trkpt>
      <trkpt lat="44.24171" lon="4.83744">
        <ele>146.2</ele>
        <time>2024-03-12T11:18:02Z</time>
      </trkpt>
      <trkpt lat="44.24169" lon="4.83748">
        <ele>146</ele>
        <time>2024-03-12T11:18:03Z</time>
      </trkpt>
      <trkpt lat="44.24167" lon="4.83751">
        <ele>145.8</ele>
        <time>2024-03-12T11:18:04Z</time>
      </trkpt>
      <trkpt lat="44.24165" lon="4.83755">
        <ele>145.6</ele>
        <time>2024-03-12T11:18:05Z</time>
      </trkpt>
      <trkpt lat="44.24164" lon="4.83758">
        <ele>145.3</ele>
        <time>2024-03-12T11:18:06Z</time>
      </trkpt>
      <trkpt lat="44.24162" lon="4.83762">
        <ele>145.1</ele>
        <time>2024-03-12T11:18:07Z</time>
      </trkpt>
      <trkpt lat="44.2416" lon="4.83765">
        <ele>145</ele>
        <time>2024-03-12T11:18:08Z</time>
      </trkpt>
      <trkpt lat="44.24157" lon="4.83768">
        <ele>144.8</ele>
        <time>2024-03-12T11:18:09Z</time>
      </trkpt>
      <trkpt lat="44.24155" lon="4.83771">
        <ele>144.6</ele>
        <time>2024-03-12T11:18:10Z</time>
      </trkpt>
      <trkpt lat="44.24152" lon="4.83774">
        <ele>144.4</ele>
        <time>2024-03-12T11:18:11Z</time>
      </trkpt>
      <trkpt lat="44.2415" lon="4.83777">
        <ele>144.3</ele>
        <time>2024-03-12T11:18:12Z</time>
      </trkpt>
      <trkpt lat="44.24148" lon="4.8378">
        <ele>144.2</ele>
        <time>2024-03-12T11:18:13Z</time>
      </trkpt>
      <trkpt lat="44.24146" lon="4.83782">
        <ele>144.2</ele>
        <time>2024-03-12T11:18:14Z</time>
      </trkpt>
      <trkpt lat="44.24143" lon="4.83784">
        <ele>144.2</ele>
        <time>2024-03-12T11:18:15Z</time>
      </trkpt>
      <trkpt lat="44.24141" lon="4.83785">
        <ele>144.1</ele>
        <time>2024-03-12T11:18:16Z</time>
      </trkpt>
      <trkpt lat="44.24139" lon="4.83786">
        <ele>144.1</ele>
        <time>2024-03-12T11:18:17Z</time>
      </trkpt>
      <trkpt lat="44.24137" lon="4.83787">
        <ele>144.1</ele>
        <time>2024-03-12T11:18:18Z</time>
      </trkpt>
      <trkpt lat="44.24134" lon="4.83788">
        <ele>144.1</ele>
        <time>2024-03-12T11:18:19Z</time>
      </trkpt>
      <trkpt lat="44.24132" lon="4.83788">
        <ele>144.2</ele>
        <time>2024-03-12T11:18:20Z</time>
      </trkpt>
      <trkpt lat="44.24129" lon="4.83789">
        <ele>144.2</ele>
        <time>2024-03-12T11:18:21Z</time>
      </trkpt>
      <trkpt lat="44.24126" lon="4.8379">
        <ele>144.2</ele>
        <time>2024-03-12T11:18:22Z</time>
      </trkpt>
      <trkpt lat="44.24124" lon="4.83791">
        <ele>144.3</ele>
        <time>2024-03-12T11:18:23Z</time>
      </trkpt>
      <trkpt lat="44.24121" lon="4.83792">
        <ele>144.3</ele>
        <time>2024-03-12T11:18:24Z</time>
      </trkpt>
      <trkpt lat="44.24118" lon="4.83794">
        <ele>144.4</ele>
        <time>2024-03-12T11:18:25Z</time>
      </trkpt>
      <trkpt lat="44.24115" lon="4.83795">
        <ele>144.4</ele>
        <time>2024-03-12T11:18:26Z</time>
      </trkpt>
      <trkpt lat="44.24112" lon="4.83797">
        <ele>144.4</ele>
        <time>2024-03-12T11:18:27Z</time>
      </trkpt>
      <trkpt lat="44.24109" lon="4.83798">
        <ele>144.5</ele>
        <time>2024-03-12T11:18:28Z</time>
      </trkpt>
      <trkpt lat="44.24106" lon="4.83799">
        <ele>144.3</ele>
        <time>2024-03-12T11:18:29Z</time>
      </trkpt>
      <trkpt lat="44.24103" lon="4.838">
        <ele>143.8</ele>
        <time>2024-03-12T11:18:30Z</time>
      </trkpt>
      <trkpt lat="44.241" lon="4.83802">
        <ele>143.3</ele>
        <time>2024-03-12T11:18:31Z</time>
      </trkpt>
      <trkpt lat="44.24098" lon="4.83804">
        <ele>142.9</ele>
        <time>2024-03-12T11:18:32Z</time>
      </trkpt>
      <trkpt lat="44.24096" lon="4.83806">
        <ele>142.5</ele>
        <time>2024-03-12T11:18:33Z</time>
      </trkpt>
      <trkpt lat="44.24094" lon="4.8381">
        <ele>141.9</ele>
        <time>2024-03-12T11:18:34Z</time>
      </trkpt>
      <trkpt lat="44.24093" lon="4.83814">
        <ele>141.2</ele>
        <time>2024-03-12T11:18:35Z</time>
      </trkpt>
      <trkpt lat="44.24091" lon="4.83818">
        <ele>140.3</ele>
        <time>2024-03-12T11:18:36Z</time>
      </trkpt>
      <trkpt lat="44.24089" lon="4.83822">
        <ele>139.3</ele>
        <time>2024-03-12T11:18:37Z</time>
      </trkpt>
      <trkpt lat="44.24087" lon="4.83826">
        <ele>138.3</ele>
        <time>2024-03-12T11:18:38Z</time>
      </trkpt>
      <trkpt lat="44.24084" lon="4.83829">
        <ele>137.4</ele>
        <time>2024-03-12T11:18:39Z</time>
      </trkpt>
      <trkpt lat="44.24081" lon="4.83831">
        <ele>136.6</ele>
        <time>2024-03-12T11:18:40Z</time>
      </trkpt>
      <trkpt lat="44.24078" lon="4.83833">
        <ele>136.5</ele>
        <time>2024-03-12T11:18:41Z</time>
      </trkpt>
      <trkpt lat="44.24076" lon="4.83833">
        <ele>136.5</ele>
        <time>2024-03-12T11:18:42Z</time>
      </trkpt>
      <trkpt lat="44.24073" lon="4.83832">
        <ele>136.6</ele>
        <time>2024-03-12T11:18:43Z</time>
      </trkpt>
      <trkpt lat="44.2407" lon="4.83832">
        <ele>136.8</ele>
        <time>2024-03-12T11:18:44Z</time>
      </trkpt>
      <trkpt lat="44.24068" lon="4.83831">
        <ele>136.9</ele>
        <time>2024-03-12T11:18:45Z</time>
      </trkpt>
      <trkpt lat="44.24065" lon="4.83831">
        <ele>137</ele>
        <time>2024-03-12T11:18:46Z</time>
      </trkpt>
      <trkpt lat="44.24061" lon="4.8383">
        <ele>137.2</ele>
        <time>2024-03-12T11:18:47Z</time>
      </trkpt>
      <trkpt lat="44.24059" lon="4.83831">
        <ele>137.3</ele>
        <time>2024-03-12T11:18:48Z</time>
      </trkpt>
      <trkpt lat="44.24055" lon="4.83831">
        <ele>137.5</ele>
        <time>2024-03-12T11:18:49Z</time>
      </trkpt>
      <trkpt lat="44.24052" lon="4.83831">
        <ele>137.7</ele>
        <time>2024-03-12T11:18:50Z</time>
      </trkpt>
      <trkpt lat="44.24048" lon="4.83832">
        <ele>137.8</ele>
        <time>2024-03-12T11:18:51Z</time>
      </trkpt>
      <trkpt lat="44.24045" lon="4.83832">
        <ele>138</ele>
        <time>2024-03-12T11:18:52Z</time>
      </trkpt>
      <trkpt lat="44.24042" lon="4.83832">
        <ele>138.1</ele>
        <time>2024-03-12T11:18:53Z</time>
      </trkpt>
      <trkpt lat="44.24039" lon="4.83832">
        <ele>138.3</ele>
        <time>2024-03-12T11:18:54Z</time>
      </trkpt>
      <trkpt lat="44.24037" lon="4.83833">
        <ele>138.4</ele>
        <time>2024-03-12T11:18:55Z</time>
      </trkpt>
      <trkpt lat="44.24035" lon="4.83834">
        <ele>138.5</ele>
        <time>2024-03-12T11:18:56Z</time>
      </trkpt>
      <trkpt lat="44.24033" lon="4.83835">
        <ele>138.7</ele>
        <time>2024-03-12T11:18:57Z</time>
      </trkpt>
      <trkpt lat="44.24031" lon="4.83837">
        <ele>138.4</ele>
        <time>2024-03-12T11:18:58Z</time>
      </trkpt>
      <trkpt lat="44.24031" lon="4.8384">
        <ele>138.7</ele>
        <time>2024-03-12T11:18:59Z</time>
      </trkpt>
      <trkpt lat="44.2403" lon="4.83844">
        <ele>138.5</ele>
        <time>2024-03-12T11:19:00Z</time>
      </trkpt>
      <trkpt lat="44.2403" lon="4.83847">
        <ele>138.3</ele>
        <time>2024-03-12T11:19:01Z</time>
      </trkpt>
      <trkpt lat="44.2403" lon="4.83851">
        <ele>138.2</ele>
        <time>2024-03-12T11:19:02Z</time>
      </trkpt>
      <trkpt lat="44.2403" lon="4.83855">
        <ele>138</ele>
        <time>2024-03-12T11:19:03Z</time>
      </trkpt>
      <trkpt lat="44.2403" lon="4.83858">
        <ele>137.9</ele>
        <time>2024-03-12T11:19:04Z</time>
      </trkpt>
      <trkpt lat="44.24029" lon="4.83861">
        <ele>138</ele>
        <time>2024-03-12T11:19:05Z</time>
      </trkpt>
      <trkpt lat="44.24029" lon="4.83864">
        <ele>137.8</ele>
        <time>2024-03-12T11:19:06Z</time>
      </trkpt>
      <trkpt lat="44.24029" lon="4.83867">
        <ele>137.7</ele>
        <time>2024-03-12T11:19:07Z</time>
      </trkpt>
      <trkpt lat="44.24027" lon="4.83869">
        <ele>138</ele>
        <time>2024-03-12T11:19:08Z</time>
      </trkpt>
      <trkpt lat="44.24027" lon="4.83872">
        <ele>137.9</ele>
        <time>2024-03-12T11:19:09Z</time>
      </trkpt>
      <trkpt lat="44.24026" lon="4.83875">
        <ele>138</ele>
        <time>2024-03-12T11:19:10Z</time>
      </trkpt>
      <trkpt lat="44.24026" lon="4.83875">
        <ele>138.1</ele>
        <time>2024-03-12T11:19:11Z</time>
      </trkpt>
      <trkpt lat="44.24025" lon="4.83879">
        <ele>138.3</ele>
        <time>2024-03-12T11:19:12Z</time>
      </trkpt>
      <trkpt lat="44.24025" lon="4.83879">
        <ele>138.4</ele>
        <time>2024-03-12T11:19:13Z</time>
      </trkpt>
      <trkpt lat="44.24023" lon="4.83882">
        <ele>138.3</ele>
        <time>2024-03-12T11:19:14Z</time>
      </trkpt>
      <trkpt lat="44.24023" lon="4.83882">
        <ele>138.3</ele>
        <time>2024-03-12T11:19:15Z</time>
      </trkpt>
      <trkpt lat="44.24021" lon="4.83884">
        <ele>138.6</ele>
        <time>2024-03-12T11:19:16Z</time>
      </trkpt>
      <trkpt lat="44.24019" lon="4.83884">
        <ele>138.9</ele>
        <time>2024-03-12T11:19:17Z</time>
      </trkpt>
      <trkpt lat="44.24017" lon="4.83884">
        <ele>139</ele>
        <time>2024-03-12T11:19:18Z</time>
      </trkpt>
      <trkpt lat="44.24017" lon="4.83884">
        <ele>139.1</ele>
        <time>2024-03-12T11:19:19Z</time>
      </trkpt>
      <trkpt lat="44.24014" lon="4.83882">
        <ele>139.5</ele>
        <time>2024-03-12T11:19:20Z</time>
      </trkpt>
      <trkpt lat="44.24014" lon="4.83882">
        <ele>139.6</ele>
        <time>2024-03-12T11:19:21Z</time>
      </trkpt>
      <trkpt lat="44.24012" lon="4.8388">
        <ele>139.9</ele>
        <time>2024-03-12T11:19:22Z</time>
      </trkpt>
      <trkpt lat="44.24012" lon="4.8388">
        <ele>140</ele>
        <time>2024-03-12T11:19:23Z</time>
      </trkpt>
      <trkpt lat="44.24011" lon="4.83878">
        <ele>140.2</ele>
        <time>2024-03-12T11:19:24Z</time>
      </trkpt>
      <trkpt lat="44.24011" lon="4.83878">
        <ele>140.3</ele>
        <time>2024-03-12T11:19:25Z</time>
      </trkpt>
      <trkpt lat="44.24011" lon="4.83878">
        <ele>140.4</ele>
        <time>2024-03-12T11:19:26Z</time>
      </trkpt>
      <trkpt lat="44.24009" lon="4.83875">
        <ele>140.7</ele>
        <time>2024-03-12T11:19:27Z</time>
      </trkpt>
      <trkpt lat="44.24009" lon="4.83875">
        <ele>140.8</ele>
        <time>2024-03-12T11:19:28Z</time>
      </trkpt>
      <trkpt lat="44.24009" lon="4.83875">
        <ele>140.8</ele>
        <time>2024-03-12T11:19:29Z</time>
      </trkpt>
      <trkpt lat="44.24008" lon="4.83873">
        <ele>141.1</ele>
        <time>2024-03-12T11:19:30Z</time>
      </trkpt>
      <trkpt lat="44.24008" lon="4.83873">
        <ele>141.1</ele>
        <time>2024-03-12T11:19:31Z</time>
      </trkpt>
      <trkpt lat="44.24006" lon="4.83872">
        <ele>141.5</ele>
        <time>2024-03-12T11:19:32Z</time>
      </trkpt>
      <trkpt lat="44.24006" lon="4.83872">
        <ele>141.6</ele>
        <time>2024-03-12T11:19:33Z</time>
      </trkpt>
      <trkpt lat="44.24003" lon="4.83874">
        <ele>141.9</ele>
        <time>2024-03-12T11:19:34Z</time>
      </trkpt>
      <trkpt lat="44.24003" lon="4.83874">
        <ele>142</ele>
        <time>2024-03-12T11:19:35Z</time>
      </trkpt>
      <trkpt lat="44.24" lon="4.83876">
        <ele>142.3</ele>
        <time>2024-03-12T11:19:36Z</time>
      </trkpt>
      <trkpt lat="44.24" lon="4.83876">
        <ele>142.3</ele>
        <time>2024-03-12T11:19:37Z</time>
      </trkpt>
      <trkpt lat="44.23997" lon="4.83879">
        <ele>142.6</ele>
        <time>2024-03-12T11:19:38Z</time>
      </trkpt>
      <trkpt lat="44.23996" lon="4.83881">
        <ele>142.7</ele>
        <time>2024-03-12T11:19:39Z</time>
      </trkpt>
      <trkpt lat="44.23996" lon="4.83881">
        <ele>142.8</ele>
        <time>2024-03-12T11:19:40Z</time>
      </trkpt>
      <trkpt lat="44.23994" lon="4.83885">
        <ele>143.1</ele>
        <time>2024-03-12T11:19:41Z</time>
      </trkpt>
      <trkpt lat="44.23992" lon="4.83886">
        <ele>143.2</ele>
        <time>2024-03-12T11:19:42Z</time>
      </trkpt>
      <trkpt lat="44.23992" lon="4.83886">
        <ele>143.2</ele>
        <time>2024-03-12T11:19:43Z</time>
      </trkpt>
      <trkpt lat="44.23988" lon="4.8389">
        <ele>144</ele>
        <time>2024-03-12T11:19:44Z</time>
      </trkpt>
      <trkpt lat="44.23987" lon="4.8389">
        <ele>144</ele>
        <time>2024-03-12T11:19:45Z</time>
      </trkpt>
      <trkpt lat="44.23984" lon="4.8389">
        <ele>144.6</ele>
        <time>2024-03-12T11:19:46Z</time>
      </trkpt>
      <trkpt lat="44.23982" lon="4.8389">
        <ele>145.2</ele>
        <time>2024-03-12T11:19:47Z</time>
      </trkpt>
      <trkpt lat="44.2398" lon="4.8389">
        <ele>145.3</ele>
        <time>2024-03-12T11:19:48Z</time>
      </trkpt>
      <trkpt lat="44.2398" lon="4.8389">
        <ele>145.3</ele>
        <time>2024-03-12T11:19:49Z</time>
      </trkpt>
      <trkpt lat="44.23977" lon="4.8389">
        <ele>146</ele>
        <time>2024-03-12T11:19:50Z</time>
      </trkpt>
      <trkpt lat="44.23977" lon="4.8389">
        <ele>146.1</ele>
        <time>2024-03-12T11:19:51Z</time>
      </trkpt>
      <trkpt lat="44.23974" lon="4.8389">
        <ele>146.7</ele>
        <time>2024-03-12T11:19:52Z</time>
      </trkpt>
      <trkpt lat="44.23974" lon="4.8389">
        <ele>146.8</ele>
        <time>2024-03-12T11:19:53Z</time>
      </trkpt>
      <trkpt lat="44.23971" lon="4.83891">
        <ele>147.5</ele>
        <time>2024-03-12T11:19:54Z</time>
      </trkpt>
      <trkpt lat="44.23971" lon="4.83891">
        <ele>147.6</ele>
        <time>2024-03-12T11:19:55Z</time>
      </trkpt>
      <trkpt lat="44.23968" lon="4.83891">
        <ele>148.3</ele>
        <time>2024-03-12T11:19:56Z</time>
      </trkpt>
      <trkpt lat="44.23966" lon="4.83891">
        <ele>149</ele>
        <time>2024-03-12T11:19:57Z</time>
      </trkpt>
      <trkpt lat="44.23964" lon="4.83891">
        <ele>149.1</ele>
        <time>2024-03-12T11:19:58Z</time>
      </trkpt>
      <trkpt lat="44.23961" lon="4.83891">
        <ele>149.8</ele>
        <time>2024-03-12T11:19:59Z</time>
      </trkpt>
      <trkpt lat="44.23959" lon="4.83891">
        <ele>150.4</ele>
        <time>2024-03-12T11:20:00Z</time>
      </trkpt>
      <trkpt lat="44.23957" lon="4.83892">
        <ele>151</ele>
        <time>2024-03-12T11:20:01Z</time>
      </trkpt>
      <trkpt lat="44.23954" lon="4.83892">
        <ele>151.6</ele>
        <time>2024-03-12T11:20:02Z</time>
      </trkpt>
      <trkpt lat="44.23954" lon="4.83892">
        <ele>151.6</ele>
        <time>2024-03-12T11:20:03Z</time>
      </trkpt>
      <trkpt lat="44.23951" lon="4.83892">
        <ele>152.3</ele>
        <time>2024-03-12T11:20:04Z</time>
      </trkpt>
      <trkpt lat="44.23949" lon="4.83893">
        <ele>152.4</ele>
        <time>2024-03-12T11:20:05Z</time>
      </trkpt>
      <trkpt lat="44.23947" lon="4.83894">
        <ele>152.9</ele>
        <time>2024-03-12T11:20:06Z</time>
      </trkpt>
      <trkpt lat="44.23947" lon="4.83894">
        <ele>152.9</ele>
        <time>2024-03-12T11:20:07Z</time>
      </trkpt>
      <trkpt lat="44.23944" lon="4.83896">
        <ele>153.2</ele>
        <time>2024-03-12T11:20:08Z</time>
      </trkpt>
      <trkpt lat="44.23944" lon="4.83896">
        <ele>153.2</ele>
        <time>2024-03-12T11:20:09Z</time>
      </trkpt>
      <trkpt lat="44.23942" lon="4.83898">
        <ele>153.4</ele>
        <time>2024-03-12T11:20:10Z</time>
      </trkpt>
      <trkpt lat="44.23942" lon="4.83898">
        <ele>153.4</ele>
        <time>2024-03-12T11:20:11Z</time>
      </trkpt>
      <trkpt lat="44.2394" lon="4.83901">
        <ele>153.6</ele>
        <time>2024-03-12T11:20:12Z</time>
      </trkpt>
      <trkpt lat="44.2394" lon="4.83901">
        <ele>153.6</ele>
        <time>2024-03-12T11:20:13Z</time>
      </trkpt>
      <trkpt lat="44.23938" lon="4.83904">
        <ele>153.8</ele>
        <time>2024-03-12T11:20:14Z</time>
      </trkpt>
      <trkpt lat="44.23938" lon="4.83904">
        <ele>153.8</ele>
        <time>2024-03-12T11:20:15Z</time>
      </trkpt>
      <trkpt lat="44.23936" lon="4.83907">
        <ele>154</ele>
        <time>2024-03-12T11:20:16Z</time>
      </trkpt>
      <trkpt lat="44.23936" lon="4.83907">
        <ele>154</ele>
        <time>2024-03-12T11:20:17Z</time>
      </trkpt>
      <trkpt lat="44.23934" lon="4.83911">
        <ele>154.1</ele>
        <time>2024-03-12T11:20:18Z</time>
      </trkpt>
      <trkpt lat="44.23932" lon="4.83913">
        <ele>154.2</ele>
        <time>2024-03-12T11:20:19Z</time>
      </trkpt>
      <trkpt lat="44.23932" lon="4.83913">
        <ele>154.2</ele>
        <time>2024-03-12T11:20:20Z</time>
      </trkpt>
      <trkpt lat="44.23929" lon="4.83915">
        <ele>154.4</ele>
        <time>2024-03-12T11:20:21Z</time>
      </trkpt>
      <trkpt lat="44.23926" lon="4.83915">
        <ele>154.5</ele>
        <time>2024-03-12T11:20:22Z</time>
      </trkpt>
      <trkpt lat="44.23924" lon="4.83916">
        <ele>154.6</ele>
        <time>2024-03-12T11:20:23Z</time>
      </trkpt>
      <trkpt lat="44.23922" lon="4.83917">
        <ele>154.7</ele>
        <time>2024-03-12T11:20:24Z</time>
      </trkpt>
      <trkpt lat="44.2392" lon="4.83918">
        <ele>154.8</ele>
        <time>2024-03-12T11:20:25Z</time>
      </trkpt>
      <trkpt lat="44.23918" lon="4.83919">
        <ele>154.9</ele>
        <time>2024-03-12T11:20:26Z</time>
      </trkpt>
      <trkpt lat="44.23917" lon="4.8392">
        <ele>155</ele>
        <time>2024-03-12T11:20:27Z</time>
      </trkpt>
      <trkpt lat="44.23917" lon="4.8392">
        <ele>155</ele>
        <time>2024-03-12T11:20:28Z</time>
      </trkpt>
      <trkpt lat="44.23914" lon="4.83922">
        <ele>155.1</ele>
        <time>2024-03-12T11:20:29Z</time>
      </trkpt>
      <trkpt lat="44.23914" lon="4.83922">
        <ele>155.1</ele>
        <time>2024-03-12T11:20:30Z</time>
      </trkpt>
      <trkpt lat="44.2391" lon="4.83924">
        <ele>155.3</ele>
        <time>2024-03-12T11:20:31Z</time>
      </trkpt>
      <trkpt lat="44.2391" lon="4.83924">
        <ele>155.3</ele>
        <time>2024-03-12T11:20:32Z</time>
      </trkpt>
      <trkpt lat="44.23908" lon="4.83926">
        <ele>155.5</ele>
        <time>2024-03-12T11:20:33Z</time>
      </trkpt>
      <trkpt lat="44.23906" lon="4.83928">
        <ele>155.6</ele>
        <time>2024-03-12T11:20:34Z</time>
      </trkpt>
      <trkpt lat="44.23905" lon="4.8393">
        <ele>155.7</ele>
        <time>2024-03-12T11:20:35Z</time>
      </trkpt>
      <trkpt lat="44.23904" lon="4.83932">
        <ele>155.8</ele>
        <time>2024-03-12T11:20:36Z</time>
      </trkpt>
      <trkpt lat="44.23902" lon="4.83935">
        <ele>155.9</ele>
        <time>2024-03-12T11:20:37Z</time>
      </trkpt>
      <trkpt lat="44.23901" lon="4.83938">
        <ele>156.1</ele>
        <time>2024-03-12T11:20:38Z</time>
      </trkpt>
      <trkpt lat="44.239" lon="4.8394">
        <ele>156.2</ele>
        <time>2024-03-12T11:20:39Z</time>
      </trkpt>
      <trkpt lat="44.23898" lon="4.83943">
        <ele>156.3</ele>
        <time>2024-03-12T11:20:40Z</time>
      </trkpt>
      <trkpt lat="44.23897" lon="4.83947">
        <ele>156.5</ele>
        <time>2024-03-12T11:20:41Z</time>
      </trkpt>
      <trkpt lat="44.23896" lon="4.8395">
        <ele>156.6</ele>
        <time>2024-03-12T11:20:42Z</time>
      </trkpt>
      <trkpt lat="44.23895" lon="4.83953">
        <ele>156.7</ele>
        <time>2024-03-12T11:20:43Z</time>
      </trkpt>
      <trkpt lat="44.23894" lon="4.83957">
        <ele>156.9</ele>
        <time>2024-03-12T11:20:44Z</time>
      </trkpt>
      <trkpt lat="44.23893" lon="4.8396">
        <ele>157.1</ele>
        <time>2024-03-12T11:20:45Z</time>
      </trkpt>
      <trkpt lat="44.23891" lon="4.83963">
        <ele>157.2</ele>
        <time>2024-03-12T11:20:46Z</time>
      </trkpt>
      <trkpt lat="44.23889" lon="4.83966">
        <ele>157.4</ele>
        <time>2024-03-12T11:20:47Z</time>
      </trkpt>
      <trkpt lat="44.23886" lon="4.83969">
        <ele>157.6</ele>
        <time>2024-03-12T11:20:48Z</time>
      </trkpt>
      <trkpt lat="44.23884" lon="4.83971">
        <ele>157.7</ele>
        <time>2024-03-12T11:20:49Z</time>
      </trkpt>
      <trkpt lat="44.23882" lon="4.83972">
        <ele>157.9</ele>
        <time>2024-03-12T11:20:50Z</time>
      </trkpt>
      <trkpt lat="44.23879" lon="4.83973">
        <ele>158.1</ele>
        <time>2024-03-12T11:20:51Z</time>
      </trkpt>
      <trkpt lat="44.23876" lon="4.83974">
        <ele>158.3</ele>
        <time>2024-03-12T11:20:52Z</time>
      </trkpt>
      <trkpt lat="44.23874" lon="4.83974">
        <ele>158.5</ele>
        <time>2024-03-12T11:20:53Z</time>
      </trkpt>
      <trkpt lat="44.2387" lon="4.83973">
        <ele>158.7</ele>
        <time>2024-03-12T11:20:54Z</time>
      </trkpt>
      <trkpt lat="44.23867" lon="4.83973">
        <ele>158.9</ele>
        <time>2024-03-12T11:20:55Z</time>
      </trkpt>
      <trkpt lat="44.23864" lon="4.83973">
        <ele>159.2</ele>
        <time>2024-03-12T11:20:56Z</time>
      </trkpt>
      <trkpt lat="44.23861" lon="4.83973">
        <ele>159.4</ele>
        <time>2024-03-12T11:20:57Z</time>
      </trkpt>
      <trkpt lat="44.23858" lon="4.83972">
        <ele>159.6</ele>
        <time>2024-03-12T11:20:58Z</time>
      </trkpt>
      <trkpt lat="44.23855" lon="4.83972">
        <ele>159.8</ele>
        <time>2024-03-12T11:20:59Z</time>
      </trkpt>
      <trkpt lat="44.23853" lon="4.83971">
        <ele>160.1</ele>
        <time>2024-03-12T11:21:00Z</time>
      </trkpt>
      <trkpt lat="44.2385" lon="4.83971">
        <ele>160.3</ele>
        <time>2024-03-12T11:21:01Z</time>
      </trkpt>
      <trkpt lat="44.23847" lon="4.8397">
        <ele>160.5</ele>
        <time>2024-03-12T11:21:02Z</time>
      </trkpt>
      <trkpt lat="44.23845" lon="4.83969">
        <ele>160.7</ele>
        <time>2024-03-12T11:21:03Z</time>
      </trkpt>
      <trkpt lat="44.23842" lon="4.83968">
        <ele>160.9</ele>
        <time>2024-03-12T11:21:04Z</time>
      </trkpt>
      <trkpt lat="44.23839" lon="4.83968">
        <ele>161.2</ele>
        <time>2024-03-12T11:21:05Z</time>
      </trkpt>
      <trkpt lat="44.23837" lon="4.83967">
        <ele>161.4</ele>
        <time>2024-03-12T11:21:06Z</time>
      </trkpt>
      <trkpt lat="44.23834" lon="4.83966">
        <ele>161.6</ele>
        <time>2024-03-12T11:21:07Z</time>
      </trkpt>
      <trkpt lat="44.23831" lon="4.83965">
        <ele>161.9</ele>
        <time>2024-03-12T11:21:08Z</time>
      </trkpt>
      <trkpt lat="44.23828" lon="4.83965">
        <ele>162.1</ele>
        <time>2024-03-12T11:21:09Z</time>
      </trkpt>
      <trkpt lat="44.23825" lon="4.83964">
        <ele>162.4</ele>
        <time>2024-03-12T11:21:10Z</time>
      </trkpt>
      <trkpt lat="44.23822" lon="4.83964">
        <ele>162.6</ele>
        <time>2024-03-12T11:21:11Z</time>
      </trkpt>
      <trkpt lat="44.23819" lon="4.83964">
        <ele>162.9</ele>
        <time>2024-03-12T11:21:12Z</time>
      </trkpt>
      <trkpt lat="44.23816" lon="4.83964">
        <ele>163.1</ele>
        <time>2024-03-12T11:21:13Z</time>
      </trkpt>
      <trkpt lat="44.23813" lon="4.83963">
        <ele>163.4</ele>
        <time>2024-03-12T11:21:14Z</time>
      </trkpt>
      <trkpt lat="44.2381" lon="4.83963">
        <ele>163.6</ele>
        <time>2024-03-12T11:21:15Z</time>
      </trkpt>
      <trkpt lat="44.23807" lon="4.83963">
        <ele>163.9</ele>
        <time>2024-03-12T11:21:16Z</time>
      </trkpt>
      <trkpt lat="44.23804" lon="4.83963">
        <ele>164.2</ele>
        <time>2024-03-12T11:21:17Z</time>
      </trkpt>
      <trkpt lat="44.23801" lon="4.83962">
        <ele>164.5</ele>
        <time>2024-03-12T11:21:18Z</time>
      </trkpt>
      <trkpt lat="44.23798" lon="4.83962">
        <ele>164.8</ele>
        <time>2024-03-12T11:21:19Z</time>
      </trkpt>
      <trkpt lat="44.23796" lon="4.83961">
        <ele>165</ele>
        <time>2024-03-12T11:21:20Z</time>
      </trkpt>
      <trkpt lat="44.23793" lon="4.83961">
        <ele>165.3</ele>
        <time>2024-03-12T11:21:21Z</time>
      </trkpt>
      <trkpt lat="44.23791" lon="4.8396">
        <ele>165.5</ele>
        <time>2024-03-12T11:21:22Z</time>
      </trkpt>
      <trkpt lat="44.23789" lon="4.83959">
        <ele>165.7</ele>
        <time>2024-03-12T11:21:23Z</time>
      </trkpt>
      <trkpt lat="44.23786" lon="4.83958">
        <ele>165.9</ele>
        <time>2024-03-12T11:21:24Z</time>
      </trkpt>
      <trkpt lat="44.23784" lon="4.83957">
        <ele>166.1</ele>
        <time>2024-03-12T11:21:25Z</time>
      </trkpt>
      <trkpt lat="44.23781" lon="4.83956">
        <ele>166.4</ele>
        <time>2024-03-12T11:21:26Z</time>
      </trkpt>
      <trkpt lat="44.23779" lon="4.83956">
        <ele>166.5</ele>
        <time>2024-03-12T11:21:27Z</time>
      </trkpt>
      <trkpt lat="44.23777" lon="4.83955">
        <ele>166.8</ele>
        <time>2024-03-12T11:21:28Z</time>
      </trkpt>
      <trkpt lat="44.23774" lon="4.83955">
        <ele>166.9</ele>
        <time>2024-03-12T11:21:29Z</time>
      </trkpt>
      <trkpt lat="44.23771" lon="4.83955">
        <ele>167.2</ele>
        <time>2024-03-12T11:21:30Z</time>
      </trkpt>
      <trkpt lat="44.23769" lon="4.83954">
        <ele>167.3</ele>
        <time>2024-03-12T11:21:31Z</time>
      </trkpt>
      <trkpt lat="44.23766" lon="4.83954">
        <ele>167.5</ele>
        <time>2024-03-12T11:21:32Z</time>
      </trkpt>
      <trkpt lat="44.23764" lon="4.83954">
        <ele>167.6</ele>
        <time>2024-03-12T11:21:33Z</time>
      </trkpt>
      <trkpt lat="44.23761" lon="4.83953">
        <ele>167.8</ele>
        <time>2024-03-12T11:21:34Z</time>
      </trkpt>
      <trkpt lat="44.23759" lon="4.83953">
        <ele>167.9</ele>
        <time>2024-03-12T11:21:35Z</time>
      </trkpt>
      <trkpt lat="44.23757" lon="4.83952">
        <ele>168</ele>
        <time>2024-03-12T11:21:36Z</time>
      </trkpt>
      <trkpt lat="44.23755" lon="4.83951">
        <ele>168.2</ele>
        <time>2024-03-12T11:21:37Z</time>
      </trkpt>
      <trkpt lat="44.23752" lon="4.8395">
        <ele>168.3</ele>
        <time>2024-03-12T11:21:38Z</time>
      </trkpt>
      <trkpt lat="44.23749" lon="4.8395">
        <ele>168.5</ele>
        <time>2024-03-12T11:21:39Z</time>
      </trkpt>
      <trkpt lat="44.23747" lon="4.83949">
        <ele>168.6</ele>
        <time>2024-03-12T11:21:40Z</time>
      </trkpt>
      <trkpt lat="44.23743" lon="4.83948">
        <ele>168.8</ele>
        <time>2024-03-12T11:21:41Z</time>
      </trkpt>
      <trkpt lat="44.23741" lon="4.83948">
        <ele>168.9</ele>
        <time>2024-03-12T11:21:42Z</time>
      </trkpt>
      <trkpt lat="44.23737" lon="4.83947">
        <ele>169.1</ele>
        <time>2024-03-12T11:21:43Z</time>
      </trkpt>
      <trkpt lat="44.23735" lon="4.83947">
        <ele>169.2</ele>
        <time>2024-03-12T11:21:44Z</time>
      </trkpt>
      <trkpt lat="44.23732" lon="4.83947">
        <ele>169.4</ele>
        <time>2024-03-12T11:21:45Z</time>
      </trkpt>
      <trkpt lat="44.23729" lon="4.83946">
        <ele>169.4</ele>
        <time>2024-03-12T11:21:46Z</time>
      </trkpt>
      <trkpt lat="44.23725" lon="4.83946">
        <ele>169.4</ele>
        <time>2024-03-12T11:21:47Z</time>
      </trkpt>
      <trkpt lat="44.23723" lon="4.83946">
        <ele>169.4</ele>
        <time>2024-03-12T11:21:48Z</time>
      </trkpt>
      <trkpt lat="44.23719" lon="4.83945">
        <ele>169.4</ele>
        <time>2024-03-12T11:21:49Z</time>
      </trkpt>
      <trkpt lat="44.23716" lon="4.83945">
        <ele>169.4</ele>
        <time>2024-03-12T11:21:50Z</time>
      </trkpt>
      <trkpt lat="44.23712" lon="4.83944">
        <ele>170.6</ele>
        <time>2024-03-12T11:21:51Z</time>
      </trkpt>
      <trkpt lat="44.23709" lon="4.83943">
        <ele>171.7</ele>
        <time>2024-03-12T11:21:52Z</time>
      </trkpt>
      <trkpt lat="44.23705" lon="4.83942">
        <ele>171.8</ele>
        <time>2024-03-12T11:21:53Z</time>
      </trkpt>
      <trkpt lat="44.23701" lon="4.83941">
        <ele>172</ele>
        <time>2024-03-12T11:21:54Z</time>
      </trkpt>
      <trkpt lat="44.23697" lon="4.8394">
        <ele>172.1</ele>
        <time>2024-03-12T11:21:55Z</time>
      </trkpt>
      <trkpt lat="44.23693" lon="4.83939">
        <ele>172.2</ele>
        <time>2024-03-12T11:21:56Z</time>
      </trkpt>
      <trkpt lat="44.23691" lon="4.83937">
        <ele>172.2</ele>
        <time>2024-03-12T11:21:57Z</time>
      </trkpt>
      <trkpt lat="44.23687" lon="4.83935">
        <ele>172.2</ele>
        <time>2024-03-12T11:21:58Z</time>
      </trkpt>
      <trkpt lat="44.23685" lon="4.83932">
        <ele>172.2</ele>
        <time>2024-03-12T11:21:59Z</time>
      </trkpt>
      <trkpt lat="44.23682" lon="4.83928">
        <ele>172</ele>
        <time>2024-03-12T11:22:00Z</time>
      </trkpt>
      <trkpt lat="44.23679" lon="4.83924">
        <ele>171.9</ele>
        <time>2024-03-12T11:22:01Z</time>
      </trkpt>
      <trkpt lat="44.23677" lon="4.8392">
        <ele>171.8</ele>
        <time>2024-03-12T11:22:02Z</time>
      </trkpt>
      <trkpt lat="44.23675" lon="4.83915">
        <ele>171.6</ele>
        <time>2024-03-12T11:22:03Z</time>
      </trkpt>
      <trkpt lat="44.23673" lon="4.83911">
        <ele>171.5</ele>
        <time>2024-03-12T11:22:04Z</time>
      </trkpt>
      <trkpt lat="44.23671" lon="4.83907">
        <ele>171.4</ele>
        <time>2024-03-12T11:22:05Z</time>
      </trkpt>
      <trkpt lat="44.2367" lon="4.83902">
        <ele>171.3</ele>
        <time>2024-03-12T11:22:06Z</time>
      </trkpt>
      <trkpt lat="44.2367" lon="4.83898">
        <ele>171.3</ele>
        <time>2024-03-12T11:22:07Z</time>
      </trkpt>
      <trkpt lat="44.23669" lon="4.83893">
        <ele>171.2</ele>
        <time>2024-03-12T11:22:08Z</time>
      </trkpt>
      <trkpt lat="44.2367" lon="4.83888">
        <ele>171.2</ele>
        <time>2024-03-12T11:22:09Z</time>
      </trkpt>
      <trkpt lat="44.2367" lon="4.83883">
        <ele>171.2</ele>
        <time>2024-03-12T11:22:10Z</time>
      </trkpt>
      <trkpt lat="44.2367" lon="4.83878">
        <ele>171.1</ele>
        <time>2024-03-12T11:22:11Z</time>
      </trkpt>
      <trkpt lat="44.2367" lon="4.83874">
        <ele>171.1</ele>
        <time>2024-03-12T11:22:12Z</time>
      </trkpt>
      <trkpt lat="44.2367" lon="4.83869">
        <ele>171.1</ele>
        <time>2024-03-12T11:22:13Z</time>
      </trkpt>
      <trkpt lat="44.23671" lon="4.83865">
        <ele>171</ele>
        <time>2024-03-12T11:22:14Z</time>
      </trkpt>
      <trkpt lat="44.23671" lon="4.83861">
        <ele>171</ele>
        <time>2024-03-12T11:22:15Z</time>
      </trkpt>
      <trkpt lat="44.23672" lon="4.83858">
        <ele>171</ele>
        <time>2024-03-12T11:22:16Z</time>
      </trkpt>
      <trkpt lat="44.23673" lon="4.83854">
        <ele>171</ele>
        <time>2024-03-12T11:22:17Z</time>
      </trkpt>
      <trkpt lat="44.23674" lon="4.83851">
        <ele>170.9</ele>
        <time>2024-03-12T11:22:18Z</time>
      </trkpt>
      <trkpt lat="44.23675" lon="4.83848">
        <ele>171</ele>
        <time>2024-03-12T11:22:19Z</time>
      </trkpt>
      <trkpt lat="44.23676" lon="4.83844">
        <ele>171.2</ele>
        <time>2024-03-12T11:22:20Z</time>
      </trkpt>
      <trkpt lat="44.23677" lon="4.83841">
        <ele>171.4</ele>
        <time>2024-03-12T11:22:21Z</time>
      </trkpt>
      <trkpt lat="44.23677" lon="4.83838">
        <ele>171.5</ele>
        <time>2024-03-12T11:22:22Z</time>
      </trkpt>
      <trkpt lat="44.23677" lon="4.83835">
        <ele>171.8</ele>
        <time>2024-03-12T11:22:23Z</time>
      </trkpt>
      <trkpt lat="44.23677" lon="4.83835">
        <ele>171.8</ele>
        <time>2024-03-12T11:22:24Z</time>
      </trkpt>
      <trkpt lat="44.23677" lon="4.83831">
        <ele>172.2</ele>
        <time>2024-03-12T11:22:25Z</time>
      </trkpt>
      <trkpt lat="44.23677" lon="4.83831">
        <ele>172.2</ele>
        <time>2024-03-12T11:22:26Z</time>
      </trkpt>
      <trkpt lat="44.23674" lon="4.83828">
        <ele>172.8</ele>
        <time>2024-03-12T11:22:27Z</time>
      </trkpt>
      <trkpt lat="44.23674" lon="4.83828">
        <ele>172.8</ele>
        <time>2024-03-12T11:22:28Z</time>
      </trkpt>
      <trkpt lat="44.23673" lon="4.83826">
        <ele>173.2</ele>
        <time>2024-03-12T11:22:29Z</time>
      </trkpt>
      <trkpt lat="44.23673" lon="4.83826">
        <ele>173.2</ele>
        <time>2024-03-12T11:22:30Z</time>
      </trkpt>
      <trkpt lat="44.23671" lon="4.83824">
        <ele>173.7</ele>
        <time>2024-03-12T11:22:31Z</time>
      </trkpt>
      <trkpt lat="44.23671" lon="4.83824">
        <ele>173.7</ele>
        <time>2024-03-12T11:22:32Z</time>
      </trkpt>
      <trkpt lat="44.23669" lon="4.83822">
        <ele>174.2</ele>
        <time>2024-03-12T11:22:33Z</time>
      </trkpt>
      <trkpt lat="44.23669" lon="4.83822">
        <ele>174.2</ele>
        <time>2024-03-12T11:22:34Z</time>
      </trkpt>
      <trkpt lat="44.23667" lon="4.83819">
        <ele>175</ele>
        <time>2024-03-12T11:22:35Z</time>
      </trkpt>
      <trkpt lat="44.23665" lon="4.83818">
        <ele>175.5</ele>
        <time>2024-03-12T11:22:36Z</time>
      </trkpt>
      <trkpt lat="44.23663" lon="4.83817">
        <ele>176.1</ele>
        <time>2024-03-12T11:22:37Z</time>
      </trkpt>
      <trkpt lat="44.23661" lon="4.83815">
        <ele>176.7</ele>
        <time>2024-03-12T11:22:38Z</time>
      </trkpt>
      <trkpt lat="44.2366" lon="4.83813">
        <ele>177.3</ele>
        <time>2024-03-12T11:22:39Z</time>
      </trkpt>
      <trkpt lat="44.23658" lon="4.83812">
        <ele>177.9</ele>
        <time>2024-03-12T11:22:40Z</time>
      </trkpt>
      <trkpt lat="44.23655" lon="4.8381">
        <ele>178.5</ele>
        <time>2024-03-12T11:22:41Z</time>
      </trkpt>
      <trkpt lat="44.23653" lon="4.83808">
        <ele>179.1</ele>
        <time>2024-03-12T11:22:42Z</time>
      </trkpt>
      <trkpt lat="44.23652" lon="4.83806">
        <ele>179.6</ele>
        <time>2024-03-12T11:22:43Z</time>
      </trkpt>
      <trkpt lat="44.2365" lon="4.83804">
        <ele>180.1</ele>
        <time>2024-03-12T11:22:44Z</time>
      </trkpt>
      <trkpt lat="44.23649" lon="4.83803">
        <ele>180.6</ele>
        <time>2024-03-12T11:22:45Z</time>
      </trkpt>
      <trkpt lat="44.23649" lon="4.83803">
        <ele>180.6</ele>
        <time>2024-03-12T11:22:46Z</time>
      </trkpt>
      <trkpt lat="44.23646" lon="4.83799">
        <ele>181.4</ele>
        <time>2024-03-12T11:22:47Z</time>
      </trkpt>
      <trkpt lat="44.23646" lon="4.83799">
        <ele>181.4</ele>
        <time>2024-03-12T11:22:48Z</time>
      </trkpt>
      <trkpt lat="44.23644" lon="4.83796">
        <ele>182.2</ele>
        <time>2024-03-12T11:22:49Z</time>
      </trkpt>
      <trkpt lat="44.23642" lon="4.83795">
        <ele>182.6</ele>
        <time>2024-03-12T11:22:50Z</time>
      </trkpt>
      <trkpt lat="44.23642" lon="4.83795">
        <ele>182.6</ele>
        <time>2024-03-12T11:22:51Z</time>
      </trkpt>
      <trkpt lat="44.2364" lon="4.83792">
        <ele>183.3</ele>
        <time>2024-03-12T11:22:52Z</time>
      </trkpt>
      <trkpt lat="44.2364" lon="4.83792">
        <ele>183.3</ele>
        <time>2024-03-12T11:22:53Z</time>
      </trkpt>
      <trkpt lat="44.23638" lon="4.83787">
        <ele>184.1</ele>
        <time>2024-03-12T11:22:54Z</time>
      </trkpt>
      <trkpt lat="44.23637" lon="4.83785">
        <ele>184.5</ele>
        <time>2024-03-12T11:22:55Z</time>
      </trkpt>
      <trkpt lat="44.23637" lon="4.83785">
        <ele>184.5</ele>
        <time>2024-03-12T11:22:56Z</time>
      </trkpt>
      <trkpt lat="44.23635" lon="4.83782">
        <ele>185.2</ele>
        <time>2024-03-12T11:22:57Z</time>
      </trkpt>
      <trkpt lat="44.23635" lon="4.83782">
        <ele>185.2</ele>
        <time>2024-03-12T11:22:58Z</time>
      </trkpt>
      <trkpt lat="44.23633" lon="4.8378">
        <ele>185.7</ele>
        <time>2024-03-12T11:22:59Z</time>
      </trkpt>
      <trkpt lat="44.23633" lon="4.8378">
        <ele>185.7</ele>
        <time>2024-03-12T11:23:00Z</time>
      </trkpt>
      <trkpt lat="44.23631" lon="4.83781">
        <ele>185.8</ele>
        <time>2024-03-12T11:23:01Z</time>
      </trkpt>
      <trkpt lat="44.23631" lon="4.83781">
        <ele>185.8</ele>
        <time>2024-03-12T11:23:02Z</time>
      </trkpt>
      <trkpt lat="44.23629" lon="4.83785">
        <ele>185.9</ele>
        <time>2024-03-12T11:23:03Z</time>
      </trkpt>
      <trkpt lat="44.23628" lon="4.83787">
        <ele>186.1</ele>
        <time>2024-03-12T11:23:04Z</time>
      </trkpt>
      <trkpt lat="44.23626" lon="4.83789">
        <ele>186.2</ele>
        <time>2024-03-12T11:23:05Z</time>
      </trkpt>
      <trkpt lat="44.23625" lon="4.83792">
        <ele>186.4</ele>
        <time>2024-03-12T11:23:06Z</time>
      </trkpt>
      <trkpt lat="44.23623" lon="4.83794">
        <ele>186.5</ele>
        <time>2024-03-12T11:23:07Z</time>
      </trkpt>
      <trkpt lat="44.23622" lon="4.83797">
        <ele>186.7</ele>
        <time>2024-03-12T11:23:08Z</time>
      </trkpt>
      <trkpt lat="44.23621" lon="4.83799">
        <ele>186.9</ele>
        <time>2024-03-12T11:23:09Z</time>
      </trkpt>
      <trkpt lat="44.2362" lon="4.83801">
        <ele>187</ele>
        <time>2024-03-12T11:23:10Z</time>
      </trkpt>
      <trkpt lat="44.2362" lon="4.83801">
        <ele>187</ele>
        <time>2024-03-12T11:23:11Z</time>
      </trkpt>
      <trkpt lat="44.23618" lon="4.83805">
        <ele>187.4</ele>
        <time>2024-03-12T11:23:12Z</time>
      </trkpt>
      <trkpt lat="44.23616" lon="4.83807">
        <ele>187.6</ele>
        <time>2024-03-12T11:23:13Z</time>
      </trkpt>
      <trkpt lat="44.23615" lon="4.83809">
        <ele>187.8</ele>
        <time>2024-03-12T11:23:14Z</time>
      </trkpt>
      <trkpt lat="44.23613" lon="4.83811">
        <ele>188.1</ele>
        <time>2024-03-12T11:23:15Z</time>
      </trkpt>
      <trkpt lat="44.23611" lon="4.83813">
        <ele>188.4</ele>
        <time>2024-03-12T11:23:16Z</time>
      </trkpt>
      <trkpt lat="44.23609" lon="4.83815">
        <ele>188.7</ele>
        <time>2024-03-12T11:23:17Z</time>
      </trkpt>
      <trkpt lat="44.23607" lon="4.83817">
        <ele>189.1</ele>
        <time>2024-03-12T11:23:18Z</time>
      </trkpt>
      <trkpt lat="44.23605" lon="4.83818">
        <ele>189.4</ele>
        <time>2024-03-12T11:23:19Z</time>
      </trkpt>
      <trkpt lat="44.23603" lon="4.8382">
        <ele>189.7</ele>
        <time>2024-03-12T11:23:20Z</time>
      </trkpt>
      <trkpt lat="44.23603" lon="4.8382">
        <ele>189.7</ele>
        <time>2024-03-12T11:23:21Z</time>
      </trkpt>
      <trkpt lat="44.236" lon="4.83822">
        <ele>190.1</ele>
        <time>2024-03-12T11:23:22Z</time>
      </trkpt>
      <trkpt lat="44.236" lon="4.83822">
        <ele>190.1</ele>
        <time>2024-03-12T11:23:23Z</time>
      </trkpt>
      <trkpt lat="44.23599" lon="4.83824">
        <ele>190.3</ele>
        <time>2024-03-12T11:23:24Z</time>
      </trkpt>
      <trkpt lat="44.23599" lon="4.83824">
        <ele>190.3</ele>
        <time>2024-03-12T11:23:25Z</time>
      </trkpt>
      <trkpt lat="44.23598" lon="4.83829">
        <ele>190.6</ele>
        <time>2024-03-12T11:23:26Z</time>
      </trkpt>
      <trkpt lat="44.23597" lon="4.83832">
        <ele>190.8</ele>
        <time>2024-03-12T11:23:27Z</time>
      </trkpt>
      <trkpt lat="44.23596" lon="4.83835">
        <ele>190.9</ele>
        <time>2024-03-12T11:23:28Z</time>
      </trkpt>
      <trkpt lat="44.23595" lon="4.83839">
        <ele>191.1</ele>
        <time>2024-03-12T11:23:29Z</time>
      </trkpt>
      <trkpt lat="44.23594" lon="4.83842">
        <ele>191.2</ele>
        <time>2024-03-12T11:23:30Z</time>
      </trkpt>
      <trkpt lat="44.23593" lon="4.83845">
        <ele>191.3</ele>
        <time>2024-03-12T11:23:31Z</time>
      </trkpt>
      <trkpt lat="44.23592" lon="4.83848">
        <ele>191.4</ele>
        <time>2024-03-12T11:23:32Z</time>
      </trkpt>
      <trkpt lat="44.23592" lon="4.83851">
        <ele>191.5</ele>
        <time>2024-03-12T11:23:33Z</time>
      </trkpt>
      <trkpt lat="44.23591" lon="4.83854">
        <ele>191.6</ele>
        <time>2024-03-12T11:23:34Z</time>
      </trkpt>
      <trkpt lat="44.2359" lon="4.83857">
        <ele>191.6</ele>
        <time>2024-03-12T11:23:35Z</time>
      </trkpt>
      <trkpt lat="44.2359" lon="4.8386">
        <ele>191.7</ele>
        <time>2024-03-12T11:23:36Z</time>
      </trkpt>
      <trkpt lat="44.23589" lon="4.83863">
        <ele>191.7</ele>
        <time>2024-03-12T11:23:37Z</time>
      </trkpt>
      <trkpt lat="44.23589" lon="4.83866">
        <ele>191.8</ele>
        <time>2024-03-12T11:23:38Z</time>
      </trkpt>
      <trkpt lat="44.23589" lon="4.83869">
        <ele>191.8</ele>
        <time>2024-03-12T11:23:39Z</time>
      </trkpt>
      <trkpt lat="44.23588" lon="4.83872">
        <ele>191.8</ele>
        <time>2024-03-12T11:23:40Z</time>
      </trkpt>
      <trkpt lat="44.23587" lon="4.83875">
        <ele>191.9</ele>
        <time>2024-03-12T11:23:41Z</time>
      </trkpt>
      <trkpt lat="44.23586" lon="4.83878">
        <ele>191.9</ele>
        <time>2024-03-12T11:23:42Z</time>
      </trkpt>
      <trkpt lat="44.23586" lon="4.8388">
        <ele>192</ele>
        <time>2024-03-12T11:23:43Z</time>
      </trkpt>
      <trkpt lat="44.23585" lon="4.83883">
        <ele>192</ele>
        <time>2024-03-12T11:23:44Z</time>
      </trkpt>
      <trkpt lat="44.23584" lon="4.83885">
        <ele>192</ele>
        <time>2024-03-12T11:23:45Z</time>
      </trkpt>
      <trkpt lat="44.23582" lon="4.83888">
        <ele>192.1</ele>
        <time>2024-03-12T11:23:46Z</time>
      </trkpt>
      <trkpt lat="44.23581" lon="4.8389">
        <ele>192.1</ele>
        <time>2024-03-12T11:23:47Z</time>
      </trkpt>
      <trkpt lat="44.2358" lon="4.83892">
        <ele>192.2</ele>
        <time>2024-03-12T11:23:48Z</time>
      </trkpt>
      <trkpt lat="44.23579" lon="4.83894">
        <ele>192.2</ele>
        <time>2024-03-12T11:23:49Z</time>
      </trkpt>
      <trkpt lat="44.23577" lon="4.83897">
        <ele>192.2</ele>
        <time>2024-03-12T11:23:50Z</time>
      </trkpt>
      <trkpt lat="44.23576" lon="4.83899">
        <ele>192.2</ele>
        <time>2024-03-12T11:23:51Z</time>
      </trkpt>
      <trkpt lat="44.23574" lon="4.83902">
        <ele>192.2</ele>
        <time>2024-03-12T11:23:52Z</time>
      </trkpt>
      <trkpt lat="44.23572" lon="4.83904">
        <ele>192.2</ele>
        <time>2024-03-12T11:23:53Z</time>
      </trkpt>
      <trkpt lat="44.23569" lon="4.83907">
        <ele>192.2</ele>
        <time>2024-03-12T11:23:54Z</time>
      </trkpt>
      <trkpt lat="44.23566" lon="4.83909">
        <ele>192.1</ele>
        <time>2024-03-12T11:23:55Z</time>
      </trkpt>
      <trkpt lat="44.23563" lon="4.8391">
        <ele>192</ele>
        <time>2024-03-12T11:23:56Z</time>
      </trkpt>
      <trkpt lat="44.23559" lon="4.83911">
        <ele>191.9</ele>
        <time>2024-03-12T11:23:57Z</time>
      </trkpt>
      <trkpt lat="44.23556" lon="4.83912">
        <ele>191.8</ele>
        <time>2024-03-12T11:23:58Z</time>
      </trkpt>
      <trkpt lat="44.23553" lon="4.83913">
        <ele>191.6</ele>
        <time>2024-03-12T11:23:59Z</time>
      </trkpt>
      <trkpt lat="44.2355" lon="4.83913">
        <ele>191.4</ele>
        <time>2024-03-12T11:24:00Z</time>
      </trkpt>
      <trkpt lat="44.23548" lon="4.83914">
        <ele>191.3</ele>
        <time>2024-03-12T11:24:01Z</time>
      </trkpt>
      <trkpt lat="44.23546" lon="4.83916">
        <ele>191.1</ele>
        <time>2024-03-12T11:24:02Z</time>
      </trkpt>
      <trkpt lat="44.23544" lon="4.83917">
        <ele>191</ele>
        <time>2024-03-12T11:24:03Z</time>
      </trkpt>
      <trkpt lat="44.23542" lon="4.83919">
        <ele>190.8</ele>
        <time>2024-03-12T11:24:04Z</time>
      </trkpt>
      <trkpt lat="44.23541" lon="4.83921">
        <ele>190.7</ele>
        <time>2024-03-12T11:24:05Z</time>
      </trkpt>
      <trkpt lat="44.23539" lon="4.83924">
        <ele>190.5</ele>
        <time>2024-03-12T11:24:06Z</time>
      </trkpt>
      <trkpt lat="44.23538" lon="4.83927">
        <ele>190.4</ele>
        <time>2024-03-12T11:24:07Z</time>
      </trkpt>
      <trkpt lat="44.23536" lon="4.8393">
        <ele>190.2</ele>
        <time>2024-03-12T11:24:08Z</time>
      </trkpt>
      <trkpt lat="44.23534" lon="4.83934">
        <ele>190.1</ele>
        <time>2024-03-12T11:24:09Z</time>
      </trkpt>
      <trkpt lat="44.23533" lon="4.83938">
        <ele>190</ele>
        <time>2024-03-12T11:24:10Z</time>
      </trkpt>
      <trkpt lat="44.23532" lon="4.83942">
        <ele>189.9</ele>
        <time>2024-03-12T11:24:11Z</time>
      </trkpt>
      <trkpt lat="44.23531" lon="4.83945">
        <ele>189.8</ele>
        <time>2024-03-12T11:24:12Z</time>
      </trkpt>
      <trkpt lat="44.23529" lon="4.83948">
        <ele>189.7</ele>
        <time>2024-03-12T11:24:13Z</time>
      </trkpt>
      <trkpt lat="44.23528" lon="4.8395">
        <ele>189.7</ele>
        <time>2024-03-12T11:24:14Z</time>
      </trkpt>
      <trkpt lat="44.23526" lon="4.83953">
        <ele>189.6</ele>
        <time>2024-03-12T11:24:15Z</time>
      </trkpt>
      <trkpt lat="44.23525" lon="4.83955">
        <ele>189.5</ele>
        <time>2024-03-12T11:24:16Z</time>
      </trkpt>
      <trkpt lat="44.23523" lon="4.83957">
        <ele>189.4</ele>
        <time>2024-03-12T11:24:17Z</time>
      </trkpt>
      <trkpt lat="44.23522" lon="4.8396">
        <ele>189.3</ele>
        <time>2024-03-12T11:24:18Z</time>
      </trkpt>
      <trkpt lat="44.2352" lon="4.83963">
        <ele>189.2</ele>
        <time>2024-03-12T11:24:19Z</time>
      </trkpt>
      <trkpt lat="44.23518" lon="4.83966">
        <ele>189</ele>
        <time>2024-03-12T11:24:20Z</time>
      </trkpt>
      <trkpt lat="44.23517" lon="4.83969">
        <ele>188.9</ele>
        <time>2024-03-12T11:24:21Z</time>
      </trkpt>
      <trkpt lat="44.23515" lon="4.83973">
        <ele>188.7</ele>
        <time>2024-03-12T11:24:22Z</time>
      </trkpt>
      <trkpt lat="44.23513" lon="4.83977">
        <ele>188.6</ele>
        <time>2024-03-12T11:24:23Z</time>
      </trkpt>
      <trkpt lat="44.23511" lon="4.83981">
        <ele>188.4</ele>
        <time>2024-03-12T11:24:24Z</time>
      </trkpt>
      <trkpt lat="44.23509" lon="4.83985">
        <ele>188.3</ele>
        <time>2024-03-12T11:24:25Z</time>
      </trkpt>
      <trkpt lat="44.23507" lon="4.83989">
        <ele>188.1</ele>
        <time>2024-03-12T11:24:26Z</time>
      </trkpt>
      <trkpt lat="44.23505" lon="4.83993">
        <ele>188</ele>
        <time>2024-03-12T11:24:27Z</time>
      </trkpt>
      <trkpt lat="44.23504" lon="4.83998">
        <ele>187.9</ele>
        <time>2024-03-12T11:24:28Z</time>
      </trkpt>
      <trkpt lat="44.23502" lon="4.84002">
        <ele>187.8</ele>
        <time>2024-03-12T11:24:29Z</time>
      </trkpt>
      <trkpt lat="44.23501" lon="4.84007">
        <ele>187.7</ele>
        <time>2024-03-12T11:24:30Z</time>
      </trkpt>
      <trkpt lat="44.235" lon="4.84012">
        <ele>187.6</ele>
        <time>2024-03-12T11:24:31Z</time>
      </trkpt>
      <trkpt lat="44.23499" lon="4.84016">
        <ele>187.5</ele>
        <time>2024-03-12T11:24:32Z</time>
      </trkpt>
      <trkpt lat="44.23499" lon="4.84021">
        <ele>187.5</ele>
        <time>2024-03-12T11:24:33Z</time>
      </trkpt>
      <trkpt lat="44.23497" lon="4.84025">
        <ele>187.4</ele>
        <time>2024-03-12T11:24:34Z</time>
      </trkpt>
      <trkpt lat="44.23496" lon="4.84029">
        <ele>187.4</ele>
        <time>2024-03-12T11:24:35Z</time>
      </trkpt>
      <trkpt lat="44.23495" lon="4.84032">
        <ele>187.4</ele>
        <time>2024-03-12T11:24:36Z</time>
      </trkpt>
      <trkpt lat="44.23493" lon="4.84036">
        <ele>187.4</ele>
        <time>2024-03-12T11:24:37Z</time>
      </trkpt>
      <trkpt lat="44.23491" lon="4.84039">
        <ele>187.4</ele>
        <time>2024-03-12T11:24:38Z</time>
      </trkpt>
      <trkpt lat="44.23489" lon="4.84042">
        <ele>187.5</ele>
        <time>2024-03-12T11:24:39Z</time>
      </trkpt>
      <trkpt lat="44.23487" lon="4.84045">
        <ele>187.5</ele>
        <time>2024-03-12T11:24:40Z</time>
      </trkpt>
      <trkpt lat="44.23485" lon="4.84048">
        <ele>187.5</ele>
        <time>2024-03-12T11:24:41Z</time>
      </trkpt>
      <trkpt lat="44.23482" lon="4.84051">
        <ele>187.6</ele>
        <time>2024-03-12T11:24:42Z</time>
      </trkpt>
      <trkpt lat="44.23479" lon="4.84054">
        <ele>187.6</ele>
        <time>2024-03-12T11:24:43Z</time>
      </trkpt>
      <trkpt lat="44.23477" lon="4.84056">
        <ele>187.6</ele>
        <time>2024-03-12T11:24:44Z</time>
      </trkpt>
      <trkpt lat="44.23474" lon="4.84058">
        <ele>187.5</ele>
        <time>2024-03-12T11:24:45Z</time>
      </trkpt>
      <trkpt lat="44.23472" lon="4.8406">
        <ele>187.5</ele>
        <time>2024-03-12T11:24:46Z</time>
      </trkpt>
      <trkpt lat="44.23469" lon="4.84063">
        <ele>187.4</ele>
        <time>2024-03-12T11:24:47Z</time>
      </trkpt>
      <trkpt lat="44.23467" lon="4.84065">
        <ele>187.4</ele>
        <time>2024-03-12T11:24:48Z</time>
      </trkpt>
      <trkpt lat="44.23465" lon="4.84068">
        <ele>187.1</ele>
        <time>2024-03-12T11:24:49Z</time>
      </trkpt>
      <trkpt lat="44.23462" lon="4.84071">
        <ele>186.8</ele>
        <time>2024-03-12T11:24:50Z</time>
      </trkpt>
      <trkpt lat="44.2346" lon="4.84073">
        <ele>186.4</ele>
        <time>2024-03-12T11:24:51Z</time>
      </trkpt>
      <trkpt lat="44.23457" lon="4.84075">
        <ele>186.1</ele>
        <time>2024-03-12T11:24:52Z</time>
      </trkpt>
      <trkpt lat="44.23455" lon="4.84077">
        <ele>185.8</ele>
        <time>2024-03-12T11:24:53Z</time>
      </trkpt>
      <trkpt lat="44.23453" lon="4.84079">
        <ele>185.4</ele>
        <time>2024-03-12T11:24:54Z</time>
      </trkpt>
      <trkpt lat="44.2345" lon="4.84081">
        <ele>185.1</ele>
        <time>2024-03-12T11:24:55Z</time>
      </trkpt>
      <trkpt lat="44.23447" lon="4.84083">
        <ele>184.6</ele>
        <time>2024-03-12T11:24:56Z</time>
      </trkpt>
      <trkpt lat="44.23444" lon="4.84084">
        <ele>184.1</ele>
        <time>2024-03-12T11:24:57Z</time>
      </trkpt>
      <trkpt lat="44.23441" lon="4.84086">
        <ele>183.6</ele>
        <time>2024-03-12T11:24:58Z</time>
      </trkpt>
      <trkpt lat="44.23437" lon="4.84088">
        <ele>183.2</ele>
        <time>2024-03-12T11:24:59Z</time>
      </trkpt>
      <trkpt lat="44.23435" lon="4.8409">
        <ele>182.7</ele>
        <time>2024-03-12T11:25:00Z</time>
      </trkpt>
      <trkpt lat="44.23431" lon="4.84091">
        <ele>182.3</ele>
        <time>2024-03-12T11:25:01Z</time>
      </trkpt>
      <trkpt lat="44.23429" lon="4.84093">
        <ele>181.8</ele>
        <time>2024-03-12T11:25:02Z</time>
      </trkpt>
      <trkpt lat="44.23426" lon="4.84095">
        <ele>181.4</ele>
        <time>2024-03-12T11:25:03Z</time>
      </trkpt>
      <trkpt lat="44.23423" lon="4.84097">
        <ele>181</ele>
        <time>2024-03-12T11:25:04Z</time>
      </trkpt>
      <trkpt lat="44.23421" lon="4.84098">
        <ele>180.5</ele>
        <time>2024-03-12T11:25:05Z</time>
      </trkpt>
      <trkpt lat="44.23418" lon="4.841">
        <ele>180.1</ele>
        <time>2024-03-12T11:25:06Z</time>
      </trkpt>
      <trkpt lat="44.23415" lon="4.84102">
        <ele>179.7</ele>
        <time>2024-03-12T11:25:07Z</time>
      </trkpt>
      <trkpt lat="44.23413" lon="4.84104">
        <ele>179.3</ele>
        <time>2024-03-12T11:25:08Z</time>
      </trkpt>
      <trkpt lat="44.23411" lon="4.84106">
        <ele>178.9</ele>
        <time>2024-03-12T11:25:09Z</time>
      </trkpt>
      <trkpt lat="44.23407" lon="4.84108">
        <ele>178.3</ele>
        <time>2024-03-12T11:25:10Z</time>
      </trkpt>
      <trkpt lat="44.23404" lon="4.8411">
        <ele>177.8</ele>
        <time>2024-03-12T11:25:11Z</time>
      </trkpt>
      <trkpt lat="44.23401" lon="4.84113">
        <ele>177.2</ele>
        <time>2024-03-12T11:25:12Z</time>
      </trkpt>
      <trkpt lat="44.23397" lon="4.84114">
        <ele>176.5</ele>
        <time>2024-03-12T11:25:13Z</time>
      </trkpt>
      <trkpt lat="44.23393" lon="4.84116">
        <ele>175.7</ele>
        <time>2024-03-12T11:25:14Z</time>
      </trkpt>
      <trkpt lat="44.23389" lon="4.84116">
        <ele>175</ele>
        <time>2024-03-12T11:25:15Z</time>
      </trkpt>
      <trkpt lat="44.23384" lon="4.84117">
        <ele>174.2</ele>
        <time>2024-03-12T11:25:16Z</time>
      </trkpt>
      <trkpt lat="44.2338" lon="4.84116">
        <ele>173.4</ele>
        <time>2024-03-12T11:25:17Z</time>
      </trkpt>
      <trkpt lat="44.23376" lon="4.84116">
        <ele>172.7</ele>
        <time>2024-03-12T11:25:18Z</time>
      </trkpt>
      <trkpt lat="44.23372" lon="4.84115">
        <ele>172</ele>
        <time>2024-03-12T11:25:19Z</time>
      </trkpt>
      <trkpt lat="44.23368" lon="4.84114">
        <ele>171.4</ele>
        <time>2024-03-12T11:25:20Z</time>
      </trkpt>
      <trkpt lat="44.23366" lon="4.84113">
        <ele>170.9</ele>
        <time>2024-03-12T11:25:21Z</time>
      </trkpt>
      <trkpt lat="44.23363" lon="4.84113">
        <ele>170.4</ele>
        <time>2024-03-12T11:25:22Z</time>
      </trkpt>
      <trkpt lat="44.2336" lon="4.84113">
        <ele>169.9</ele>
        <time>2024-03-12T11:25:23Z</time>
      </trkpt>
      <trkpt lat="44.23357" lon="4.84113">
        <ele>169.4</ele>
        <time>2024-03-12T11:25:24Z</time>
      </trkpt>
      <trkpt lat="44.23355" lon="4.84114">
        <ele>169</ele>
        <time>2024-03-12T11:25:25Z</time>
      </trkpt>
      <trkpt lat="44.23352" lon="4.84115">
        <ele>168.4</ele>
        <time>2024-03-12T11:25:26Z</time>
      </trkpt>
      <trkpt lat="44.23349" lon="4.84117">
        <ele>167.9</ele>
        <time>2024-03-12T11:25:27Z</time>
      </trkpt>
      <trkpt lat="44.23346" lon="4.84118">
        <ele>167.3</ele>
        <time>2024-03-12T11:25:28Z</time>
      </trkpt>
      <trkpt lat="44.23343" lon="4.84119">
        <ele>166.8</ele>
        <time>2024-03-12T11:25:29Z</time>
      </trkpt>
      <trkpt lat="44.2334" lon="4.8412">
        <ele>166.2</ele>
        <time>2024-03-12T11:25:30Z</time>
      </trkpt>
      <trkpt lat="44.23337" lon="4.8412">
        <ele>165.8</ele>
        <time>2024-03-12T11:25:31Z</time>
      </trkpt>
      <trkpt lat="44.23334" lon="4.8412">
        <ele>165.3</ele>
        <time>2024-03-12T11:25:32Z</time>
      </trkpt>
      <trkpt lat="44.23332" lon="4.84119">
        <ele>164.9</ele>
        <time>2024-03-12T11:25:33Z</time>
      </trkpt>
      <trkpt lat="44.23329" lon="4.84118">
        <ele>164.4</ele>
        <time>2024-03-12T11:25:34Z</time>
      </trkpt>
      <trkpt lat="44.23327" lon="4.84117">
        <ele>164</ele>
        <time>2024-03-12T11:25:35Z</time>
      </trkpt>
      <trkpt lat="44.23325" lon="4.84114">
        <ele>163.5</ele>
        <time>2024-03-12T11:25:36Z</time>
      </trkpt>
      <trkpt lat="44.23323" lon="4.84112">
        <ele>163.1</ele>
        <time>2024-03-12T11:25:37Z</time>
      </trkpt>
      <trkpt lat="44.23322" lon="4.84109">
        <ele>162.6</ele>
        <time>2024-03-12T11:25:38Z</time>
      </trkpt>
      <trkpt lat="44.23321" lon="4.84105">
        <ele>162.1</ele>
        <time>2024-03-12T11:25:39Z</time>
      </trkpt>
      <trkpt lat="44.23321" lon="4.84101">
        <ele>162.2</ele>
        <time>2024-03-12T11:25:40Z</time>
      </trkpt>
      <trkpt lat="44.23322" lon="4.84097">
        <ele>162.4</ele>
        <time>2024-03-12T11:25:41Z</time>
      </trkpt>
      <trkpt lat="44.23322" lon="4.84092">
        <ele>162.6</ele>
        <time>2024-03-12T11:25:42Z</time>
      </trkpt>
      <trkpt lat="44.23324" lon="4.84088">
        <ele>162.8</ele>
        <time>2024-03-12T11:25:43Z</time>
      </trkpt>
      <trkpt lat="44.23325" lon="4.84084">
        <ele>163</ele>
        <time>2024-03-12T11:25:44Z</time>
      </trkpt>
      <trkpt lat="44.23326" lon="4.84079">
        <ele>163.2</ele>
        <time>2024-03-12T11:25:45Z</time>
      </trkpt>
      <trkpt lat="44.23328" lon="4.84075">
        <ele>163.4</ele>
        <time>2024-03-12T11:25:46Z</time>
      </trkpt>
      <trkpt lat="44.2333" lon="4.84071">
        <ele>163.5</ele>
        <time>2024-03-12T11:25:47Z</time>
      </trkpt>
      <trkpt lat="44.23332" lon="4.84067">
        <ele>163.7</ele>
        <time>2024-03-12T11:25:48Z</time>
      </trkpt>
      <trkpt lat="44.23334" lon="4.84063">
        <ele>163.8</ele>
        <time>2024-03-12T11:25:49Z</time>
      </trkpt>
      <trkpt lat="44.23336" lon="4.8406">
        <ele>163.9</ele>
        <time>2024-03-12T11:25:50Z</time>
      </trkpt>
      <trkpt lat="44.23339" lon="4.84056">
        <ele>163.9</ele>
        <time>2024-03-12T11:25:51Z</time>
      </trkpt>
      <trkpt lat="44.23341" lon="4.84053">
        <ele>164</ele>
        <time>2024-03-12T11:25:52Z</time>
      </trkpt>
      <trkpt lat="44.23344" lon="4.8405">
        <ele>164.1</ele>
        <time>2024-03-12T11:25:53Z</time>
      </trkpt>
      <trkpt lat="44.23347" lon="4.84047">
        <ele>164.2</ele>
        <time>2024-03-12T11:25:54Z</time>
      </trkpt>
      <trkpt lat="44.2335" lon="4.84044">
        <ele>164.2</ele>
        <time>2024-03-12T11:25:55Z</time>
      </trkpt>
      <trkpt lat="44.23353" lon="4.84041">
        <ele>164.3</ele>
        <time>2024-03-12T11:25:56Z</time>
      </trkpt>
      <trkpt lat="44.23356" lon="4.84038">
        <ele>164.3</ele>
        <time>2024-03-12T11:25:57Z</time>
      </trkpt>
      <trkpt lat="44.23359" lon="4.84035">
        <ele>164.4</ele>
        <time>2024-03-12T11:25:58Z</time>
      </trkpt>
      <trkpt lat="44.23362" lon="4.84032">
        <ele>164.4</ele>
        <time>2024-03-12T11:25:59Z</time>
      </trkpt>
      <trkpt lat="44.23365" lon="4.84029">
        <ele>164.5</ele>
        <time>2024-03-12T11:26:00Z</time>
      </trkpt>
      <trkpt lat="44.23368" lon="4.84026">
        <ele>164.5</ele>
        <time>2024-03-12T11:26:01Z</time>
      </trkpt>
      <trkpt lat="44.2337" lon="4.84023">
        <ele>164.5</ele>
        <time>2024-03-12T11:26:02Z</time>
      </trkpt>
      <trkpt lat="44.23373" lon="4.8402">
        <ele>164.6</ele>
        <time>2024-03-12T11:26:03Z</time>
      </trkpt>
      <trkpt lat="44.23376" lon="4.84017">
        <ele>164.6</ele>
        <time>2024-03-12T11:26:04Z</time>
      </trkpt>
      <trkpt lat="44.23379" lon="4.84014">
        <ele>164.7</ele>
        <time>2024-03-12T11:26:05Z</time>
      </trkpt>
      <trkpt lat="44.23382" lon="4.84011">
        <ele>164.7</ele>
        <time>2024-03-12T11:26:06Z</time>
      </trkpt>
      <trkpt lat="44.23385" lon="4.84008">
        <ele>164.8</ele>
        <time>2024-03-12T11:26:07Z</time>
      </trkpt>
      <trkpt lat="44.23388" lon="4.84006">
        <ele>164.8</ele>
        <time>2024-03-12T11:26:08Z</time>
      </trkpt>
      <trkpt lat="44.23391" lon="4.84003">
        <ele>164.9</ele>
        <time>2024-03-12T11:26:09Z</time>
      </trkpt>
      <trkpt lat="44.23394" lon="4.84">
        <ele>164.9</ele>
        <time>2024-03-12T11:26:10Z</time>
      </trkpt>
      <trkpt lat="44.23397" lon="4.83997">
        <ele>165</ele>
        <time>2024-03-12T11:26:11Z</time>
      </trkpt>
      <trkpt lat="44.23399" lon="4.83993">
        <ele>165</ele>
        <time>2024-03-12T11:26:12Z</time>
      </trkpt>
      <trkpt lat="44.23402" lon="4.8399">
        <ele>165.1</ele>
        <time>2024-03-12T11:26:13Z</time>
      </trkpt>
      <trkpt lat="44.23404" lon="4.83986">
        <ele>165.2</ele>
        <time>2024-03-12T11:26:14Z</time>
      </trkpt>
      <trkpt lat="44.23407" lon="4.83983">
        <ele>165.2</ele>
        <time>2024-03-12T11:26:15Z</time>
      </trkpt>
      <trkpt lat="44.2341" lon="4.83979">
        <ele>165.3</ele>
        <time>2024-03-12T11:26:16Z</time>
      </trkpt>
      <trkpt lat="44.23412" lon="4.83976">
        <ele>165.4</ele>
        <time>2024-03-12T11:26:17Z</time>
      </trkpt>
      <trkpt lat="44.23415" lon="4.83973">
        <ele>165.5</ele>
        <time>2024-03-12T11:26:18Z</time>
      </trkpt>
      <trkpt lat="44.23417" lon="4.8397">
        <ele>165.5</ele>
        <time>2024-03-12T11:26:19Z</time>
      </trkpt>
      <trkpt lat="44.23419" lon="4.83967">
        <ele>165.6</ele>
        <time>2024-03-12T11:26:20Z</time>
      </trkpt>
      <trkpt lat="44.23421" lon="4.83963">
        <ele>165.7</ele>
        <time>2024-03-12T11:26:21Z</time>
      </trkpt>
      <trkpt lat="44.23423" lon="4.83959">
        <ele>165.7</ele>
        <time>2024-03-12T11:26:22Z</time>
      </trkpt>
      <trkpt lat="44.23424" lon="4.83955">
        <ele>165.8</ele>
        <time>2024-03-12T11:26:23Z</time>
      </trkpt>
      <trkpt lat="44.23425" lon="4.8395">
        <ele>165.8</ele>
        <time>2024-03-12T11:26:24Z</time>
      </trkpt>
      <trkpt lat="44.23427" lon="4.83946">
        <ele>165.8</ele>
        <time>2024-03-12T11:26:25Z</time>
      </trkpt>
      <trkpt lat="44.23428" lon="4.83942">
        <ele>165.9</ele>
        <time>2024-03-12T11:26:26Z</time>
      </trkpt>
      <trkpt lat="44.23429" lon="4.83938">
        <ele>165.9</ele>
        <time>2024-03-12T11:26:27Z</time>
      </trkpt>
      <trkpt lat="44.2343" lon="4.83935">
        <ele>165.9</ele>
        <time>2024-03-12T11:26:28Z</time>
      </trkpt>
      <trkpt lat="44.23431" lon="4.83931">
        <ele>165.8</ele>
        <time>2024-03-12T11:26:29Z</time>
      </trkpt>
      <trkpt lat="44.23432" lon="4.83928">
        <ele>165.7</ele>
        <time>2024-03-12T11:26:30Z</time>
      </trkpt>
      <trkpt lat="44.23433" lon="4.83924">
        <ele>165.6</ele>
        <time>2024-03-12T11:26:31Z</time>
      </trkpt>
      <trkpt lat="44.23434" lon="4.8392">
        <ele>165.5</ele>
        <time>2024-03-12T11:26:32Z</time>
      </trkpt>
      <trkpt lat="44.23434" lon="4.83917">
        <ele>165.4</ele>
        <time>2024-03-12T11:26:33Z</time>
      </trkpt>
      <trkpt lat="44.23434" lon="4.83913">
        <ele>165.2</ele>
        <time>2024-03-12T11:26:34Z</time>
      </trkpt>
      <trkpt lat="44.23434" lon="4.83909">
        <ele>165.1</ele>
        <time>2024-03-12T11:26:35Z</time>
      </trkpt>
      <trkpt lat="44.23434" lon="4.83904">
        <ele>164.9</ele>
        <time>2024-03-12T11:26:36Z</time>
      </trkpt>
      <trkpt lat="44.23434" lon="4.839">
        <ele>164.8</ele>
        <time>2024-03-12T11:26:37Z</time>
      </trkpt>
      <trkpt lat="44.23434" lon="4.83896">
        <ele>164.6</ele>
        <time>2024-03-12T11:26:38Z</time>
      </trkpt>
      <trkpt lat="44.23433" lon="4.83891">
        <ele>164.5</ele>
        <time>2024-03-12T11:26:39Z</time>
      </trkpt>
      <trkpt lat="44.23433" lon="4.83886">
        <ele>164.3</ele>
        <time>2024-03-12T11:26:40Z</time>
      </trkpt>
      <trkpt lat="44.23433" lon="4.83882">
        <ele>164.1</ele>
        <time>2024-03-12T11:26:41Z</time>
      </trkpt>
      <trkpt lat="44.23432" lon="4.83877">
        <ele>164</ele>
        <time>2024-03-12T11:26:42Z</time>
      </trkpt>
      <trkpt lat="44.23432" lon="4.83872">
        <ele>163.8</ele>
        <time>2024-03-12T11:26:43Z</time>
      </trkpt>
      <trkpt lat="44.23431" lon="4.83867">
        <ele>163.7</ele>
        <time>2024-03-12T11:26:44Z</time>
      </trkpt>
      <trkpt lat="44.23431" lon="4.83862">
        <ele>163.6</ele>
        <time>2024-03-12T11:26:45Z</time>
      </trkpt>
      <trkpt lat="44.23431" lon="4.83857">
        <ele>163.5</ele>
        <time>2024-03-12T11:26:46Z</time>
      </trkpt>
      <trkpt lat="44.23431" lon="4.83853">
        <ele>163.4</ele>
        <time>2024-03-12T11:26:47Z</time>
      </trkpt>
      <trkpt lat="44.23432" lon="4.83848">
        <ele>163.3</ele>
        <time>2024-03-12T11:26:48Z</time>
      </trkpt>
      <trkpt lat="44.23433" lon="4.83844">
        <ele>163.3</ele>
        <time>2024-03-12T11:26:49Z</time>
      </trkpt>
      <trkpt lat="44.23434" lon="4.8384">
        <ele>163.2</ele>
        <time>2024-03-12T11:26:50Z</time>
      </trkpt>
      <trkpt lat="44.23435" lon="4.83836">
        <ele>163.1</ele>
        <time>2024-03-12T11:26:51Z</time>
      </trkpt>
      <trkpt lat="44.23435" lon="4.83832">
        <ele>163</ele>
        <time>2024-03-12T11:26:52Z</time>
      </trkpt>
      <trkpt lat="44.23435" lon="4.83828">
        <ele>162.9</ele>
        <time>2024-03-12T11:26:53Z</time>
      </trkpt>
      <trkpt lat="44.23433" lon="4.83825">
        <ele>162.8</ele>
        <time>2024-03-12T11:26:54Z</time>
      </trkpt>
      <trkpt lat="44.23432" lon="4.83823">
        <ele>162.7</ele>
        <time>2024-03-12T11:26:55Z</time>
      </trkpt>
      <trkpt lat="44.2343" lon="4.83821">
        <ele>162.6</ele>
        <time>2024-03-12T11:26:56Z</time>
      </trkpt>
      <trkpt lat="44.23428" lon="4.8382">
        <ele>162.5</ele>
        <time>2024-03-12T11:26:57Z</time>
      </trkpt>
      <trkpt lat="44.23426" lon="4.83819">
        <ele>162.3</ele>
        <time>2024-03-12T11:26:58Z</time>
      </trkpt>
      <trkpt lat="44.23424" lon="4.83818">
        <ele>162.2</ele>
        <time>2024-03-12T11:26:59Z</time>
      </trkpt>
      <trkpt lat="44.23424" lon="4.83818">
        <ele>162.2</ele>
        <time>2024-03-12T11:27:00Z</time>
      </trkpt>
      <trkpt lat="44.23422" lon="4.83815">
        <ele>162.1</ele>
        <time>2024-03-12T11:27:01Z</time>
      </trkpt>
      <trkpt lat="44.23422" lon="4.83815">
        <ele>162.1</ele>
        <time>2024-03-12T11:27:02Z</time>
      </trkpt>
      <trkpt lat="44.23421" lon="4.83811">
        <ele>161.9</ele>
        <time>2024-03-12T11:27:03Z</time>
      </trkpt>
      <trkpt lat="44.2342" lon="4.83808">
        <ele>161.8</ele>
        <time>2024-03-12T11:27:04Z</time>
      </trkpt>
      <trkpt lat="44.2342" lon="4.83808">
        <ele>161.8</ele>
        <time>2024-03-12T11:27:05Z</time>
      </trkpt>
      <trkpt lat="44.2342" lon="4.83806">
        <ele>161.8</ele>
        <time>2024-03-12T11:27:06Z</time>
      </trkpt>
      <trkpt lat="44.23419" lon="4.83805">
        <ele>161.7</ele>
        <time>2024-03-12T11:27:07Z</time>
      </trkpt>
      <trkpt lat="44.23419" lon="4.83803">
        <ele>161.7</ele>
        <time>2024-03-12T11:27:08Z</time>
      </trkpt>
      <trkpt lat="44.23419" lon="4.83803">
        <ele>161.7</ele>
        <time>2024-03-12T11:27:09Z</time>
      </trkpt>
      <trkpt lat="44.23419" lon="4.83803">
        <ele>161.7</ele>
        <time>2024-03-12T11:27:10Z</time>
      </trkpt>
      <trkpt lat="44.23419" lon="4.83803">
        <ele>161.7</ele>
        <time>2024-03-12T11:27:11Z</time>
      </trkpt>
      <trkpt lat="44.23419" lon="4.83803">
        <ele>161.7</ele>
        <time>2024-03-12T11:27:12Z</time>
      </trkpt>
      <trkpt lat="44.23419" lon="4.83803">
        <ele>161.7</ele>
        <time>2024-03-12T11:27:13Z</time>
      </trkpt>
      <trkpt lat="44.23407" lon="4.83787">
        <ele>161.2</ele>
        <time>2024-03-12T11:27:24Z</time>
      </trkpt>
      <trkpt lat="44.23405" lon="4.83784">
        <ele>161.1</ele>
        <time>2024-03-12T11:27:25Z</time>
      </trkpt>
      <trkpt lat="44.23403" lon="4.8378">
        <ele>161.1</ele>
        <time>2024-03-12T11:27:26Z</time>
      </trkpt>
      <trkpt lat="44.23401" lon="4.83777">
        <ele>161</ele>
        <time>2024-03-12T11:27:27Z</time>
      </trkpt>
      <trkpt lat="44.23399" lon="4.83773">
        <ele>160.9</ele>
        <time>2024-03-12T11:27:28Z</time>
      </trkpt>
      <trkpt lat="44.23396" lon="4.8377">
        <ele>160.8</ele>
        <time>2024-03-12T11:27:29Z</time>
      </trkpt>
      <trkpt lat="44.23394" lon="4.83767">
        <ele>160.8</ele>
        <time>2024-03-12T11:27:30Z</time>
      </trkpt>
      <trkpt lat="44.23392" lon="4.83764">
        <ele>160.7</ele>
        <time>2024-03-12T11:27:31Z</time>
      </trkpt>
      <trkpt lat="44.23389" lon="4.83761">
        <ele>160.7</ele>
        <time>2024-03-12T11:27:32Z</time>
      </trkpt>
      <trkpt lat="44.23384" lon="4.83755">
        <ele>160.6</ele>
        <time>2024-03-12T11:27:33Z</time>
      </trkpt>
      <trkpt lat="44.23379" lon="4.83751">
        <ele>160.5</ele>
        <time>2024-03-12T11:27:34Z</time>
      </trkpt>
      <trkpt lat="44.23378" lon="4.8375">
        <ele>160.5</ele>
        <time>2024-03-12T11:27:35Z</time>
      </trkpt>
      <trkpt lat="44.23378" lon="4.8375">
        <ele>160.5</ele>
        <time>2024-03-12T11:27:36Z</time>
      </trkpt>
      <trkpt lat="44.23374" lon="4.83747">
        <ele>160.6</ele>
        <time>2024-03-12T11:27:37Z</time>
      </trkpt>
      <trkpt lat="44.23371" lon="4.83745">
        <ele>160.6</ele>
        <time>2024-03-12T11:27:38Z</time>
      </trkpt>
      <trkpt lat="44.23367" lon="4.83742">
        <ele>160.7</ele>
        <time>2024-03-12T11:27:39Z</time>
      </trkpt>
      <trkpt lat="44.23364" lon="4.8374">
        <ele>160.8</ele>
        <time>2024-03-12T11:27:40Z</time>
      </trkpt>
      <trkpt lat="44.23361" lon="4.83738">
        <ele>160.9</ele>
        <time>2024-03-12T11:27:41Z</time>
      </trkpt>
      <trkpt lat="44.23358" lon="4.83736">
        <ele>161</ele>
        <time>2024-03-12T11:27:42Z</time>
      </trkpt>
      <trkpt lat="44.23356" lon="4.83734">
        <ele>161.1</ele>
        <time>2024-03-12T11:27:43Z</time>
      </trkpt>
      <trkpt lat="44.23354" lon="4.83732">
        <ele>161.2</ele>
        <time>2024-03-12T11:27:44Z</time>
      </trkpt>
      <trkpt lat="44.23351" lon="4.8373">
        <ele>161.3</ele>
        <time>2024-03-12T11:27:45Z</time>
      </trkpt>
      <trkpt lat="44.23349" lon="4.83729">
        <ele>161.4</ele>
        <time>2024-03-12T11:27:46Z</time>
      </trkpt>
      <trkpt lat="44.23346" lon="4.83727">
        <ele>161.5</ele>
        <time>2024-03-12T11:27:47Z</time>
      </trkpt>
      <trkpt lat="44.23344" lon="4.83725">
        <ele>161.7</ele>
        <time>2024-03-12T11:27:48Z</time>
      </trkpt>
      <trkpt lat="44.23341" lon="4.83723">
        <ele>161.8</ele>
        <time>2024-03-12T11:27:49Z</time>
      </trkpt>
      <trkpt lat="44.23338" lon="4.83721">
        <ele>162</ele>
        <time>2024-03-12T11:27:50Z</time>
      </trkpt>
      <trkpt lat="44.23336" lon="4.83719">
        <ele>162.2</ele>
        <time>2024-03-12T11:27:51Z</time>
      </trkpt>
      <trkpt lat="44.23334" lon="4.83717">
        <ele>162.3</ele>
        <time>2024-03-12T11:27:52Z</time>
      </trkpt>
      <trkpt lat="44.23332" lon="4.83715">
        <ele>162.5</ele>
        <time>2024-03-12T11:27:53Z</time>
      </trkpt>
      <trkpt lat="44.23332" lon="4.83715">
        <ele>162.5</ele>
        <time>2024-03-12T11:27:54Z</time>
      </trkpt>
      <trkpt lat="44.2333" lon="4.83712">
        <ele>162.7</ele>
        <time>2024-03-12T11:27:55Z</time>
      </trkpt>
      <trkpt lat="44.2333" lon="4.83712">
        <ele>162.7</ele>
        <time>2024-03-12T11:27:56Z</time>
      </trkpt>
      <trkpt lat="44.2333" lon="4.83709">
        <ele>162.9</ele>
        <time>2024-03-12T11:27:57Z</time>
      </trkpt>
      <trkpt lat="44.2333" lon="4.83709">
        <ele>162.9</ele>
        <time>2024-03-12T11:27:58Z</time>
      </trkpt>
      <trkpt lat="44.2333" lon="4.83705">
        <ele>162.9</ele>
        <time>2024-03-12T11:27:59Z</time>
      </trkpt>
      <trkpt lat="44.2333" lon="4.83705">
        <ele>162.9</ele>
        <time>2024-03-12T11:28:00Z</time>
      </trkpt>
      <trkpt lat="44.2333" lon="4.837">
        <ele>163</ele>
        <time>2024-03-12T11:28:01Z</time>
      </trkpt>
      <trkpt lat="44.2333" lon="4.83697">
        <ele>163</ele>
        <time>2024-03-12T11:28:02Z</time>
      </trkpt>
      <trkpt lat="44.23331" lon="4.83694">
        <ele>163.1</ele>
        <time>2024-03-12T11:28:03Z</time>
      </trkpt>
      <trkpt lat="44.23332" lon="4.83691">
        <ele>163.1</ele>
        <time>2024-03-12T11:28:04Z</time>
      </trkpt>
      <trkpt lat="44.23334" lon="4.83686">
        <ele>163.3</ele>
        <time>2024-03-12T11:28:05Z</time>
      </trkpt>
      <trkpt lat="44.23335" lon="4.83685">
        <ele>163.3</ele>
        <time>2024-03-12T11:28:06Z</time>
      </trkpt>
      <trkpt lat="44.23338" lon="4.83682">
        <ele>163.4</ele>
        <time>2024-03-12T11:28:07Z</time>
      </trkpt>
      <trkpt lat="44.2334" lon="4.83679">
        <ele>163.4</ele>
        <time>2024-03-12T11:28:08Z</time>
      </trkpt>
      <trkpt lat="44.23342" lon="4.83676">
        <ele>163.5</ele>
        <time>2024-03-12T11:28:09Z</time>
      </trkpt>
      <trkpt lat="44.23344" lon="4.83674">
        <ele>163.6</ele>
        <time>2024-03-12T11:28:10Z</time>
      </trkpt>
      <trkpt lat="44.23346" lon="4.83671">
        <ele>163.6</ele>
        <time>2024-03-12T11:28:11Z</time>
      </trkpt>
      <trkpt lat="44.23348" lon="4.83668">
        <ele>163.7</ele>
        <time>2024-03-12T11:28:12Z</time>
      </trkpt>
      <trkpt lat="44.2335" lon="4.83665">
        <ele>163.8</ele>
        <time>2024-03-12T11:28:13Z</time>
      </trkpt>
      <trkpt lat="44.23352" lon="4.83662">
        <ele>163.8</ele>
        <time>2024-03-12T11:28:14Z</time>
      </trkpt>
      <trkpt lat="44.23353" lon="4.83659">
        <ele>163.9</ele>
        <time>2024-03-12T11:28:15Z</time>
      </trkpt>
      <trkpt lat="44.23355" lon="4.83656">
        <ele>164</ele>
        <time>2024-03-12T11:28:16Z</time>
      </trkpt>
      <trkpt lat="44.23356" lon="4.83653">
        <ele>164</ele>
        <time>2024-03-12T11:28:17Z</time>
      </trkpt>
      <trkpt lat="44.23358" lon="4.8365">
        <ele>164</ele>
        <time>2024-03-12T11:28:18Z</time>
      </trkpt>
      <trkpt lat="44.23359" lon="4.83647">
        <ele>164.1</ele>
        <time>2024-03-12T11:28:19Z</time>
      </trkpt>
      <trkpt lat="44.23361" lon="4.83645">
        <ele>164.1</ele>
        <time>2024-03-12T11:28:20Z</time>
      </trkpt>
      <trkpt lat="44.23363" lon="4.83642">
        <ele>164.1</ele>
        <time>2024-03-12T11:28:21Z</time>
      </trkpt>
      <trkpt lat="44.23365" lon="4.8364">
        <ele>164.1</ele>
        <time>2024-03-12T11:28:22Z</time>
      </trkpt>
      <trkpt lat="44.23366" lon="4.83637">
        <ele>164.1</ele>
        <time>2024-03-12T11:28:23Z</time>
      </trkpt>
      <trkpt lat="44.23368" lon="4.83634">
        <ele>164</ele>
        <time>2024-03-12T11:28:24Z</time>
      </trkpt>
      <trkpt lat="44.2337" lon="4.83631">
        <ele>164</ele>
        <time>2024-03-12T11:28:25Z</time>
      </trkpt>
      <trkpt lat="44.23371" lon="4.83628">
        <ele>164</ele>
        <time>2024-03-12T11:28:26Z</time>
      </trkpt>
      <trkpt lat="44.23372" lon="4.83625">
        <ele>164</ele>
        <time>2024-03-12T11:28:27Z</time>
      </trkpt>
      <trkpt lat="44.23373" lon="4.83621">
        <ele>164</ele>
        <time>2024-03-12T11:28:28Z</time>
      </trkpt>
      <trkpt lat="44.23374" lon="4.83618">
        <ele>164</ele>
        <time>2024-03-12T11:28:29Z</time>
      </trkpt>
      <trkpt lat="44.23376" lon="4.83615">
        <ele>164</ele>
        <time>2024-03-12T11:28:30Z</time>
      </trkpt>
      <trkpt lat="44.23377" lon="4.83612">
        <ele>164</ele>
        <time>2024-03-12T11:28:31Z</time>
      </trkpt>
      <trkpt lat="44.23379" lon="4.8361">
        <ele>164</ele>
        <time>2024-03-12T11:28:32Z</time>
      </trkpt>
      <trkpt lat="44.2338" lon="4.83607">
        <ele>164</ele>
        <time>2024-03-12T11:28:33Z</time>
      </trkpt>
      <trkpt lat="44.23382" lon="4.83605">
        <ele>164</ele>
        <time>2024-03-12T11:28:34Z</time>
      </trkpt>
      <trkpt lat="44.23384" lon="4.83602">
        <ele>164</ele>
        <time>2024-03-12T11:28:35Z</time>
      </trkpt>
      <trkpt lat="44.23386" lon="4.836">
        <ele>164.1</ele>
        <time>2024-03-12T11:28:36Z</time>
      </trkpt>
      <trkpt lat="44.23388" lon="4.83598">
        <ele>164.1</ele>
        <time>2024-03-12T11:28:37Z</time>
      </trkpt>
      <trkpt lat="44.23391" lon="4.83595">
        <ele>164.2</ele>
        <time>2024-03-12T11:28:38Z</time>
      </trkpt>
      <trkpt lat="44.23393" lon="4.83592">
        <ele>164.2</ele>
        <time>2024-03-12T11:28:39Z</time>
      </trkpt>
      <trkpt lat="44.23394" lon="4.8359">
        <ele>164.3</ele>
        <time>2024-03-12T11:28:40Z</time>
      </trkpt>
      <trkpt lat="44.23396" lon="4.83587">
        <ele>164.4</ele>
        <time>2024-03-12T11:28:41Z</time>
      </trkpt>
      <trkpt lat="44.23398" lon="4.83585">
        <ele>164.5</ele>
        <time>2024-03-12T11:28:42Z</time>
      </trkpt>
      <trkpt lat="44.23399" lon="4.83582">
        <ele>164.5</ele>
        <time>2024-03-12T11:28:43Z</time>
      </trkpt>
      <trkpt lat="44.23401" lon="4.8358">
        <ele>164.6</ele>
        <time>2024-03-12T11:28:44Z</time>
      </trkpt>
      <trkpt lat="44.23402" lon="4.83578">
        <ele>164.7</ele>
        <time>2024-03-12T11:28:45Z</time>
      </trkpt>
      <trkpt lat="44.23403" lon="4.83575">
        <ele>164.8</ele>
        <time>2024-03-12T11:28:46Z</time>
      </trkpt>
      <trkpt lat="44.23404" lon="4.83572">
        <ele>164.9</ele>
        <time>2024-03-12T11:28:47Z</time>
      </trkpt>
      <trkpt lat="44.23405" lon="4.83569">
        <ele>165</ele>
        <time>2024-03-12T11:28:48Z</time>
      </trkpt>
      <trkpt lat="44.23405" lon="4.83565">
        <ele>165.1</ele>
        <time>2024-03-12T11:28:49Z</time>
      </trkpt>
      <trkpt lat="44.23406" lon="4.83562">
        <ele>165.2</ele>
        <time>2024-03-12T11:28:50Z</time>
      </trkpt>
      <trkpt lat="44.23407" lon="4.83558">
        <ele>165.4</ele>
        <time>2024-03-12T11:28:51Z</time>
      </trkpt>
      <trkpt lat="44.23408" lon="4.83554">
        <ele>165.5</ele>
        <time>2024-03-12T11:28:52Z</time>
      </trkpt>
      <trkpt lat="44.23408" lon="4.8355">
        <ele>165.7</ele>
        <time>2024-03-12T11:28:53Z</time>
      </trkpt>
      <trkpt lat="44.23408" lon="4.83546">
        <ele>165.9</ele>
        <time>2024-03-12T11:28:54Z</time>
      </trkpt>
      <trkpt lat="44.23407" lon="4.83543">
        <ele>166.1</ele>
        <time>2024-03-12T11:28:55Z</time>
      </trkpt>
      <trkpt lat="44.23407" lon="4.83539">
        <ele>166.3</ele>
        <time>2024-03-12T11:28:56Z</time>
      </trkpt>
      <trkpt lat="44.23407" lon="4.83536">
        <ele>166.4</ele>
        <time>2024-03-12T11:28:57Z</time>
      </trkpt>
      <trkpt lat="44.23407" lon="4.83533">
        <ele>166.6</ele>
        <time>2024-03-12T11:28:58Z</time>
      </trkpt>
      <trkpt lat="44.23408" lon="4.8353">
        <ele>166.8</ele>
        <time>2024-03-12T11:28:59Z</time>
      </trkpt>
      <trkpt lat="44.23409" lon="4.83528">
        <ele>166.9</ele>
        <time>2024-03-12T11:29:00Z</time>
      </trkpt>
      <trkpt lat="44.2341" lon="4.83525">
        <ele>167.1</ele>
        <time>2024-03-12T11:29:01Z</time>
      </trkpt>
      <trkpt lat="44.23411" lon="4.83523">
        <ele>167.3</ele>
        <time>2024-03-12T11:29:02Z</time>
      </trkpt>
      <trkpt lat="44.23412" lon="4.83521">
        <ele>167.4</ele>
        <time>2024-03-12T11:29:03Z</time>
      </trkpt>
      <trkpt lat="44.23412" lon="4.83521">
        <ele>167.4</ele>
        <time>2024-03-12T11:29:04Z</time>
      </trkpt>
      <trkpt lat="44.23414" lon="4.83517">
        <ele>167.7</ele>
        <time>2024-03-12T11:29:05Z</time>
      </trkpt>
      <trkpt lat="44.23414" lon="4.83517">
        <ele>167.7</ele>
        <time>2024-03-12T11:29:06Z</time>
      </trkpt>
      <trkpt lat="44.23415" lon="4.83512">
        <ele>168</ele>
        <time>2024-03-12T11:29:07Z</time>
      </trkpt>
      <trkpt lat="44.23415" lon="4.83512">
        <ele>168</ele>
        <time>2024-03-12T11:29:08Z</time>
      </trkpt>
      <trkpt lat="44.23415" lon="4.83507">
        <ele>168.4</ele>
        <time>2024-03-12T11:29:09Z</time>
      </trkpt>
      <trkpt lat="44.23415" lon="4.83505">
        <ele>168.5</ele>
        <time>2024-03-12T11:29:10Z</time>
      </trkpt>
      <trkpt lat="44.23415" lon="4.83502">
        <ele>168.7</ele>
        <time>2024-03-12T11:29:11Z</time>
      </trkpt>
      <trkpt lat="44.23416" lon="4.83499">
        <ele>168.9</ele>
        <time>2024-03-12T11:29:12Z</time>
      </trkpt>
      <trkpt lat="44.23416" lon="4.83497">
        <ele>169</ele>
        <time>2024-03-12T11:29:13Z</time>
      </trkpt>
      <trkpt lat="44.23417" lon="4.83494">
        <ele>169.2</ele>
        <time>2024-03-12T11:29:14Z</time>
      </trkpt>
      <trkpt lat="44.23417" lon="4.83491">
        <ele>169.3</ele>
        <time>2024-03-12T11:29:15Z</time>
      </trkpt>
      <trkpt lat="44.23416" lon="4.83489">
        <ele>169.5</ele>
        <time>2024-03-12T11:29:16Z</time>
      </trkpt>
      <trkpt lat="44.23416" lon="4.83486">
        <ele>169.7</ele>
        <time>2024-03-12T11:29:17Z</time>
      </trkpt>
      <trkpt lat="44.23416" lon="4.83483">
        <ele>169.8</ele>
        <time>2024-03-12T11:29:18Z</time>
      </trkpt>
      <trkpt lat="44.23415" lon="4.83479">
        <ele>170</ele>
        <time>2024-03-12T11:29:19Z</time>
      </trkpt>
      <trkpt lat="44.23415" lon="4.83476">
        <ele>170.2</ele>
        <time>2024-03-12T11:29:20Z</time>
      </trkpt>
      <trkpt lat="44.23415" lon="4.83472">
        <ele>170.4</ele>
        <time>2024-03-12T11:29:21Z</time>
      </trkpt>
      <trkpt lat="44.23416" lon="4.83469">
        <ele>170.6</ele>
        <time>2024-03-12T11:29:22Z</time>
      </trkpt>
      <trkpt lat="44.23416" lon="4.83465">
        <ele>170.8</ele>
        <time>2024-03-12T11:29:23Z</time>
      </trkpt>
      <trkpt lat="44.23417" lon="4.83462">
        <ele>170.9</ele>
        <time>2024-03-12T11:29:24Z</time>
      </trkpt>
      <trkpt lat="44.23418" lon="4.83459">
        <ele>171.1</ele>
        <time>2024-03-12T11:29:25Z</time>
      </trkpt>
      <trkpt lat="44.23419" lon="4.83456">
        <ele>171.3</ele>
        <time>2024-03-12T11:29:26Z</time>
      </trkpt>
      <trkpt lat="44.23419" lon="4.83452">
        <ele>171.5</ele>
        <time>2024-03-12T11:29:27Z</time>
      </trkpt>
      <trkpt lat="44.2342" lon="4.83449">
        <ele>171.6</ele>
        <time>2024-03-12T11:29:28Z</time>
      </trkpt>
      <trkpt lat="44.2342" lon="4.83446">
        <ele>171.8</ele>
        <time>2024-03-12T11:29:29Z</time>
      </trkpt>
      <trkpt lat="44.23421" lon="4.83442">
        <ele>172</ele>
        <time>2024-03-12T11:29:30Z</time>
      </trkpt>
      <trkpt lat="44.23421" lon="4.83439">
        <ele>172.2</ele>
        <time>2024-03-12T11:29:31Z</time>
      </trkpt>
      <trkpt lat="44.2342" lon="4.83436">
        <ele>172.4</ele>
        <time>2024-03-12T11:29:32Z</time>
      </trkpt>
      <trkpt lat="44.23419" lon="4.83433">
        <ele>172.6</ele>
        <time>2024-03-12T11:29:33Z</time>
      </trkpt>
      <trkpt lat="44.23418" lon="4.8343">
        <ele>172.7</ele>
        <time>2024-03-12T11:29:34Z</time>
      </trkpt>
      <trkpt lat="44.23416" lon="4.83427">
        <ele>172.9</ele>
        <time>2024-03-12T11:29:35Z</time>
      </trkpt>
      <trkpt lat="44.23415" lon="4.83424">
        <ele>173.1</ele>
        <time>2024-03-12T11:29:36Z</time>
      </trkpt>
      <trkpt lat="44.23413" lon="4.83421">
        <ele>173.3</ele>
        <time>2024-03-12T11:29:37Z</time>
      </trkpt>
      <trkpt lat="44.23412" lon="4.83418">
        <ele>173.5</ele>
        <time>2024-03-12T11:29:38Z</time>
      </trkpt>
      <trkpt lat="44.23411" lon="4.83415">
        <ele>173.7</ele>
        <time>2024-03-12T11:29:39Z</time>
      </trkpt>
      <trkpt lat="44.23409" lon="4.83413">
        <ele>173.9</ele>
        <time>2024-03-12T11:29:40Z</time>
      </trkpt>
      <trkpt lat="44.23408" lon="4.8341">
        <ele>174.1</ele>
        <time>2024-03-12T11:29:41Z</time>
      </trkpt>
      <trkpt lat="44.23407" lon="4.83407">
        <ele>174.2</ele>
        <time>2024-03-12T11:29:42Z</time>
      </trkpt>
      <trkpt lat="44.23405" lon="4.83405">
        <ele>174.5</ele>
        <time>2024-03-12T11:29:43Z</time>
      </trkpt>
      <trkpt lat="44.23404" lon="4.83402">
        <ele>174.6</ele>
        <time>2024-03-12T11:29:44Z</time>
      </trkpt>
      <trkpt lat="44.23403" lon="4.834">
        <ele>174.8</ele>
        <time>2024-03-12T11:29:45Z</time>
      </trkpt>
      <trkpt lat="44.23401" lon="4.83398">
        <ele>175.1</ele>
        <time>2024-03-12T11:29:46Z</time>
      </trkpt>
      <trkpt lat="44.23399" lon="4.83396">
        <ele>175.3</ele>
        <time>2024-03-12T11:29:47Z</time>
      </trkpt>
      <trkpt lat="44.23398" lon="4.83394">
        <ele>175.5</ele>
        <time>2024-03-12T11:29:48Z</time>
      </trkpt>
      <trkpt lat="44.23396" lon="4.83392">
        <ele>175.8</ele>
        <time>2024-03-12T11:29:49Z</time>
      </trkpt>
      <trkpt lat="44.23394" lon="4.8339">
        <ele>176.1</ele>
        <time>2024-03-12T11:29:50Z</time>
      </trkpt>
      <trkpt lat="44.23391" lon="4.83388">
        <ele>176.4</ele>
        <time>2024-03-12T11:29:51Z</time>
      </trkpt>
      <trkpt lat="44.23389" lon="4.83386">
        <ele>176.8</ele>
        <time>2024-03-12T11:29:52Z</time>
      </trkpt>
      <trkpt lat="44.23387" lon="4.83384">
        <ele>177.1</ele>
        <time>2024-03-12T11:29:53Z</time>
      </trkpt>
      <trkpt lat="44.23384" lon="4.83381">
        <ele>177.5</ele>
        <time>2024-03-12T11:29:54Z</time>
      </trkpt>
      <trkpt lat="44.23383" lon="4.83379">
        <ele>177.8</ele>
        <time>2024-03-12T11:29:55Z</time>
      </trkpt>
      <trkpt lat="44.23381" lon="4.83377">
        <ele>178</ele>
        <time>2024-03-12T11:29:56Z</time>
      </trkpt>
      <trkpt lat="44.2338" lon="4.83375">
        <ele>178.3</ele>
        <time>2024-03-12T11:29:57Z</time>
      </trkpt>
      <trkpt lat="44.2338" lon="4.83375">
        <ele>178.3</ele>
        <time>2024-03-12T11:29:58Z</time>
      </trkpt>
      <trkpt lat="44.2338" lon="4.8337">
        <ele>178.7</ele>
        <time>2024-03-12T11:29:59Z</time>
      </trkpt>
      <trkpt lat="44.2338" lon="4.8337">
        <ele>178.7</ele>
        <time>2024-03-12T11:30:00Z</time>
      </trkpt>
      <trkpt lat="44.23378" lon="4.83366">
        <ele>179</ele>
        <time>2024-03-12T11:30:01Z</time>
      </trkpt>
      <trkpt lat="44.23378" lon="4.83366">
        <ele>179</ele>
        <time>2024-03-12T11:30:02Z</time>
      </trkpt>
      <trkpt lat="44.23377" lon="4.83362">
        <ele>179.3</ele>
        <time>2024-03-12T11:30:03Z</time>
      </trkpt>
      <trkpt lat="44.23377" lon="4.83362">
        <ele>179.3</ele>
        <time>2024-03-12T11:30:04Z</time>
      </trkpt>
      <trkpt lat="44.23375" lon="4.83358">
        <ele>179.5</ele>
        <time>2024-03-12T11:30:05Z</time>
      </trkpt>
      <trkpt lat="44.23375" lon="4.83358">
        <ele>179.5</ele>
        <time>2024-03-12T11:30:06Z</time>
      </trkpt>
      <trkpt lat="44.23373" lon="4.83356">
        <ele>179.6</ele>
        <time>2024-03-12T11:30:07Z</time>
      </trkpt>
      <trkpt lat="44.23373" lon="4.83356">
        <ele>179.6</ele>
        <time>2024-03-12T11:30:08Z</time>
      </trkpt>
      <trkpt lat="44.23371" lon="4.83355">
        <ele>179.7</ele>
        <time>2024-03-12T11:30:09Z</time>
      </trkpt>
      <trkpt lat="44.23371" lon="4.83355">
        <ele>179.7</ele>
        <time>2024-03-12T11:30:10Z</time>
      </trkpt>
      <trkpt lat="44.23368" lon="4.83356">
        <ele>179.8</ele>
        <time>2024-03-12T11:30:11Z</time>
      </trkpt>
      <trkpt lat="44.23366" lon="4.83357">
        <ele>179.9</ele>
        <time>2024-03-12T11:30:12Z</time>
      </trkpt>
      <trkpt lat="44.23366" lon="4.83357">
        <ele>179.9</ele>
        <time>2024-03-12T11:30:13Z</time>
      </trkpt>
      <trkpt lat="44.23363" lon="4.8336">
        <ele>180</ele>
        <time>2024-03-12T11:30:14Z</time>
      </trkpt>
      <trkpt lat="44.2336" lon="4.83363">
        <ele>180</ele>
        <time>2024-03-12T11:30:15Z</time>
      </trkpt>
      <trkpt lat="44.23359" lon="4.83364">
        <ele>180.1</ele>
        <time>2024-03-12T11:30:16Z</time>
      </trkpt>
      <trkpt lat="44.23357" lon="4.83367">
        <ele>180.1</ele>
        <time>2024-03-12T11:30:17Z</time>
      </trkpt>
      <trkpt lat="44.23356" lon="4.83369">
        <ele>180.1</ele>
        <time>2024-03-12T11:30:18Z</time>
      </trkpt>
      <trkpt lat="44.23354" lon="4.83371">
        <ele>180.2</ele>
        <time>2024-03-12T11:30:19Z</time>
      </trkpt>
      <trkpt lat="44.23352" lon="4.83373">
        <ele>180.2</ele>
        <time>2024-03-12T11:30:20Z</time>
      </trkpt>
      <trkpt lat="44.2335" lon="4.83376">
        <ele>180.2</ele>
        <time>2024-03-12T11:30:21Z</time>
      </trkpt>
      <trkpt lat="44.23348" lon="4.83378">
        <ele>180.3</ele>
        <time>2024-03-12T11:30:22Z</time>
      </trkpt>
      <trkpt lat="44.23347" lon="4.83381">
        <ele>180.3</ele>
        <time>2024-03-12T11:30:23Z</time>
      </trkpt>
      <trkpt lat="44.23345" lon="4.83383">
        <ele>180.3</ele>
        <time>2024-03-12T11:30:24Z</time>
      </trkpt>
      <trkpt lat="44.23344" lon="4.83386">
        <ele>180.3</ele>
        <time>2024-03-12T11:30:25Z</time>
      </trkpt>
      <trkpt lat="44.23342" lon="4.83388">
        <ele>180.3</ele>
        <time>2024-03-12T11:30:26Z</time>
      </trkpt>
      <trkpt lat="44.2334" lon="4.83391">
        <ele>180.4</ele>
        <time>2024-03-12T11:30:27Z</time>
      </trkpt>
      <trkpt lat="44.23338" lon="4.83393">
        <ele>180.4</ele>
        <time>2024-03-12T11:30:28Z</time>
      </trkpt>
      <trkpt lat="44.23336" lon="4.83395">
        <ele>180.5</ele>
        <time>2024-03-12T11:30:29Z</time>
      </trkpt>
      <trkpt lat="44.23335" lon="4.83397">
        <ele>180.5</ele>
        <time>2024-03-12T11:30:30Z</time>
      </trkpt>
      <trkpt lat="44.23333" lon="4.834">
        <ele>180.6</ele>
        <time>2024-03-12T11:30:31Z</time>
      </trkpt>
      <trkpt lat="44.23332" lon="4.83403">
        <ele>180.7</ele>
        <time>2024-03-12T11:30:32Z</time>
      </trkpt>
      <trkpt lat="44.23331" lon="4.83407">
        <ele>180.8</ele>
        <time>2024-03-12T11:30:33Z</time>
      </trkpt>
      <trkpt lat="44.2333" lon="4.8341">
        <ele>181</ele>
        <time>2024-03-12T11:30:34Z</time>
      </trkpt>
      <trkpt lat="44.23328" lon="4.83413">
        <ele>181.2</ele>
        <time>2024-03-12T11:30:35Z</time>
      </trkpt>
      <trkpt lat="44.23327" lon="4.83415">
        <ele>181.4</ele>
        <time>2024-03-12T11:30:36Z</time>
      </trkpt>
      <trkpt lat="44.23325" lon="4.83416">
        <ele>181.6</ele>
        <time>2024-03-12T11:30:37Z</time>
      </trkpt>
      <trkpt lat="44.23323" lon="4.83416">
        <ele>181.8</ele>
        <time>2024-03-12T11:30:38Z</time>
      </trkpt>
      <trkpt lat="44.2332" lon="4.83416">
        <ele>182.1</ele>
        <time>2024-03-12T11:30:39Z</time>
      </trkpt>
      <trkpt lat="44.23318" lon="4.83415">
        <ele>182.4</ele>
        <time>2024-03-12T11:30:40Z</time>
      </trkpt>
      <trkpt lat="44.23316" lon="4.83414">
        <ele>182.7</ele>
        <time>2024-03-12T11:30:41Z</time>
      </trkpt>
      <trkpt lat="44.23314" lon="4.83413">
        <ele>183</ele>
        <time>2024-03-12T11:30:42Z</time>
      </trkpt>
      <trkpt lat="44.23314" lon="4.83413">
        <ele>183</ele>
        <time>2024-03-12T11:30:43Z</time>
      </trkpt>
      <trkpt lat="44.23311" lon="4.83411">
        <ele>183.4</ele>
        <time>2024-03-12T11:30:44Z</time>
      </trkpt>
      <trkpt lat="44.23311" lon="4.83411">
        <ele>183.4</ele>
        <time>2024-03-12T11:30:45Z</time>
      </trkpt>
      <trkpt lat="44.23308" lon="4.8341">
        <ele>184</ele>
        <time>2024-03-12T11:30:46Z</time>
      </trkpt>
      <trkpt lat="44.23308" lon="4.8341">
        <ele>184</ele>
        <time>2024-03-12T11:30:47Z</time>
      </trkpt>
      <trkpt lat="44.23305" lon="4.83409">
        <ele>184.5</ele>
        <time>2024-03-12T11:30:48Z</time>
      </trkpt>
      <trkpt lat="44.23305" lon="4.83409">
        <ele>184.5</ele>
        <time>2024-03-12T11:30:49Z</time>
      </trkpt>
      <trkpt lat="44.23302" lon="4.83407">
        <ele>185.1</ele>
        <time>2024-03-12T11:30:50Z</time>
      </trkpt>
      <trkpt lat="44.233" lon="4.83406">
        <ele>185.5</ele>
        <time>2024-03-12T11:30:51Z</time>
      </trkpt>
      <trkpt lat="44.23298" lon="4.83405">
        <ele>185.9</ele>
        <time>2024-03-12T11:30:52Z</time>
      </trkpt>
      <trkpt lat="44.23296" lon="4.83404">
        <ele>186.3</ele>
        <time>2024-03-12T11:30:53Z</time>
      </trkpt>
      <trkpt lat="44.23294" lon="4.83402">
        <ele>186.8</ele>
        <time>2024-03-12T11:30:54Z</time>
      </trkpt>
      <trkpt lat="44.23292" lon="4.834">
        <ele>187.2</ele>
        <time>2024-03-12T11:30:55Z</time>
      </trkpt>
      <trkpt lat="44.23291" lon="4.83398">
        <ele>187.7</ele>
        <time>2024-03-12T11:30:56Z</time>
      </trkpt>
      <trkpt lat="44.2329" lon="4.83395">
        <ele>188</ele>
        <time>2024-03-12T11:30:57Z</time>
      </trkpt>
      <trkpt lat="44.23289" lon="4.83393">
        <ele>188.3</ele>
        <time>2024-03-12T11:30:58Z</time>
      </trkpt>
      <trkpt lat="44.23289" lon="4.83393">
        <ele>188.3</ele>
        <time>2024-03-12T11:30:59Z</time>
      </trkpt>
      <trkpt lat="44.23288" lon="4.83389">
        <ele>188.8</ele>
        <time>2024-03-12T11:31:00Z</time>
      </trkpt>
      <trkpt lat="44.23288" lon="4.83389">
        <ele>188.8</ele>
        <time>2024-03-12T11:31:01Z</time>
      </trkpt>
      <trkpt lat="44.23286" lon="4.83385">
        <ele>189.2</ele>
        <time>2024-03-12T11:31:02Z</time>
      </trkpt>
      <trkpt lat="44.23286" lon="4.83385">
        <ele>189.2</ele>
        <time>2024-03-12T11:31:03Z</time>
      </trkpt>
      <trkpt lat="44.23286" lon="4.83382">
        <ele>189.5</ele>
        <time>2024-03-12T11:31:04Z</time>
      </trkpt>
      <trkpt lat="44.23286" lon="4.83382">
        <ele>189.5</ele>
        <time>2024-03-12T11:31:05Z</time>
      </trkpt>
      <trkpt lat="44.23286" lon="4.83377">
        <ele>190</ele>
        <time>2024-03-12T11:31:06Z</time>
      </trkpt>
      <trkpt lat="44.23287" lon="4.83374">
        <ele>190.3</ele>
        <time>2024-03-12T11:31:07Z</time>
      </trkpt>
      <trkpt lat="44.23288" lon="4.83371">
        <ele>190.5</ele>
        <time>2024-03-12T11:31:08Z</time>
      </trkpt>
      <trkpt lat="44.23289" lon="4.83368">
        <ele>190.8</ele>
        <time>2024-03-12T11:31:09Z</time>
      </trkpt>
      <trkpt lat="44.2329" lon="4.83365">
        <ele>191.1</ele>
        <time>2024-03-12T11:31:10Z</time>
      </trkpt>
      <trkpt lat="44.2329" lon="4.83362">
        <ele>191.3</ele>
        <time>2024-03-12T11:31:11Z</time>
      </trkpt>
      <trkpt lat="44.2329" lon="4.83359">
        <ele>191.5</ele>
        <time>2024-03-12T11:31:12Z</time>
      </trkpt>
      <trkpt lat="44.2329" lon="4.83356">
        <ele>191.8</ele>
        <time>2024-03-12T11:31:13Z</time>
      </trkpt>
      <trkpt lat="44.23291" lon="4.83353">
        <ele>192</ele>
        <time>2024-03-12T11:31:14Z</time>
      </trkpt>
      <trkpt lat="44.23291" lon="4.83353">
        <ele>192</ele>
        <time>2024-03-12T11:31:15Z</time>
      </trkpt>
      <trkpt lat="44.2329" lon="4.83349">
        <ele>192.3</ele>
        <time>2024-03-12T11:31:16Z</time>
      </trkpt>
      <trkpt lat="44.2329" lon="4.83349">
        <ele>192.3</ele>
        <time>2024-03-12T11:31:17Z</time>
      </trkpt>
      <trkpt lat="44.2329" lon="4.83349">
        <ele>192.3</ele>
        <time>2024-03-12T11:31:18Z</time>
      </trkpt>
      <trkpt lat="44.23288" lon="4.83347">
        <ele>192.5</ele>
        <time>2024-03-12T11:31:19Z</time>
      </trkpt>
      <trkpt lat="44.23288" lon="4.83347">
        <ele>192.5</ele>
        <time>2024-03-12T11:31:20Z</time>
      </trkpt>
      <trkpt lat="44.23286" lon="4.8335">
        <ele>192.8</ele>
        <time>2024-03-12T11:31:21Z</time>
      </trkpt>
      <trkpt lat="44.23286" lon="4.8335">
        <ele>192.8</ele>
        <time>2024-03-12T11:31:22Z</time>
      </trkpt>
      <trkpt lat="44.23284" lon="4.83353">
        <ele>193</ele>
        <time>2024-03-12T11:31:23Z</time>
      </trkpt>
      <trkpt lat="44.23283" lon="4.83355">
        <ele>193.1</ele>
        <time>2024-03-12T11:31:24Z</time>
      </trkpt>
      <trkpt lat="44.23283" lon="4.83355">
        <ele>193.1</ele>
        <time>2024-03-12T11:31:25Z</time>
      </trkpt>
      <trkpt lat="44.2328" lon="4.83359">
        <ele>193.3</ele>
        <time>2024-03-12T11:31:26Z</time>
      </trkpt>
      <trkpt lat="44.23278" lon="4.83362">
        <ele>193.4</ele>
        <time>2024-03-12T11:31:27Z</time>
      </trkpt>
      <trkpt lat="44.23277" lon="4.83364">
        <ele>193.5</ele>
        <time>2024-03-12T11:31:28Z</time>
      </trkpt>
      <trkpt lat="44.23275" lon="4.83366">
        <ele>193.6</ele>
        <time>2024-03-12T11:31:29Z</time>
      </trkpt>
      <trkpt lat="44.23273" lon="4.83368">
        <ele>193.8</ele>
        <time>2024-03-12T11:31:30Z</time>
      </trkpt>
      <trkpt lat="44.23271" lon="4.8337">
        <ele>194</ele>
        <time>2024-03-12T11:31:31Z</time>
      </trkpt>
      <trkpt lat="44.23269" lon="4.83372">
        <ele>194.3</ele>
        <time>2024-03-12T11:31:32Z</time>
      </trkpt>
      <trkpt lat="44.23267" lon="4.83373">
        <ele>194.6</ele>
        <time>2024-03-12T11:31:33Z</time>
      </trkpt>
      <trkpt lat="44.23265" lon="4.83374">
        <ele>194.9</ele>
        <time>2024-03-12T11:31:34Z</time>
      </trkpt>
      <trkpt lat="44.23265" lon="4.83374">
        <ele>194.9</ele>
        <time>2024-03-12T11:31:35Z</time>
      </trkpt>
      <trkpt lat="44.23262" lon="4.83373">
        <ele>195.3</ele>
        <time>2024-03-12T11:31:36Z</time>
      </trkpt>
      <trkpt lat="44.23262" lon="4.83373">
        <ele>195.3</ele>
        <time>2024-03-12T11:31:37Z</time>
      </trkpt>
      <trkpt lat="44.23261" lon="4.83369">
        <ele>195.9</ele>
        <time>2024-03-12T11:31:38Z</time>
      </trkpt>
      <trkpt lat="44.23261" lon="4.83369">
        <ele>195.9</ele>
        <time>2024-03-12T11:31:39Z</time>
      </trkpt>
      <trkpt lat="44.2326" lon="4.83364">
        <ele>196.5</ele>
        <time>2024-03-12T11:31:40Z</time>
      </trkpt>
      <trkpt lat="44.2326" lon="4.83364">
        <ele>196.5</ele>
        <time>2024-03-12T11:31:41Z</time>
      </trkpt>
      <trkpt lat="44.2326" lon="4.83359">
        <ele>197.1</ele>
        <time>2024-03-12T11:31:42Z</time>
      </trkpt>
      <trkpt lat="44.23261" lon="4.83357">
        <ele>197.4</ele>
        <time>2024-03-12T11:31:43Z</time>
      </trkpt>
      <trkpt lat="44.23261" lon="4.83357">
        <ele>197.4</ele>
        <time>2024-03-12T11:31:44Z</time>
      </trkpt>
      <trkpt lat="44.23261" lon="4.83352">
        <ele>198</ele>
        <time>2024-03-12T11:31:45Z</time>
      </trkpt>
      <trkpt lat="44.23261" lon="4.83352">
        <ele>198</ele>
        <time>2024-03-12T11:31:46Z</time>
      </trkpt>
      <trkpt lat="44.23261" lon="4.83347">
        <ele>198.5</ele>
        <time>2024-03-12T11:31:47Z</time>
      </trkpt>
      <trkpt lat="44.23261" lon="4.83347">
        <ele>198.5</ele>
        <time>2024-03-12T11:31:48Z</time>
      </trkpt>
      <trkpt lat="44.23262" lon="4.83343">
        <ele>199</ele>
        <time>2024-03-12T11:31:49Z</time>
      </trkpt>
      <trkpt lat="44.23262" lon="4.83343">
        <ele>199</ele>
        <time>2024-03-12T11:31:50Z</time>
      </trkpt>
      <trkpt lat="44.23263" lon="4.83339">
        <ele>199.6</ele>
        <time>2024-03-12T11:31:51Z</time>
      </trkpt>
      <trkpt lat="44.23263" lon="4.83339">
        <ele>199.6</ele>
        <time>2024-03-12T11:31:52Z</time>
      </trkpt>
      <trkpt lat="44.23263" lon="4.83334">
        <ele>200.1</ele>
        <time>2024-03-12T11:31:53Z</time>
      </trkpt>
      <trkpt lat="44.23263" lon="4.83334">
        <ele>200.1</ele>
        <time>2024-03-12T11:31:54Z</time>
      </trkpt>
      <trkpt lat="44.23261" lon="4.83331">
        <ele>200.7</ele>
        <time>2024-03-12T11:31:55Z</time>
      </trkpt>
      <trkpt lat="44.23261" lon="4.83331">
        <ele>200.7</ele>
        <time>2024-03-12T11:31:56Z</time>
      </trkpt>
      <trkpt lat="44.23259" lon="4.83327">
        <ele>201.3</ele>
        <time>2024-03-12T11:31:57Z</time>
      </trkpt>
      <trkpt lat="44.23259" lon="4.83327">
        <ele>201.3</ele>
        <time>2024-03-12T11:31:58Z</time>
      </trkpt>
      <trkpt lat="44.23257" lon="4.83324">
        <ele>201.9</ele>
        <time>2024-03-12T11:31:59Z</time>
      </trkpt>
      <trkpt lat="44.23257" lon="4.83324">
        <ele>201.9</ele>
        <time>2024-03-12T11:32:00Z</time>
      </trkpt>
      <trkpt lat="44.23255" lon="4.83321">
        <ele>202.5</ele>
        <time>2024-03-12T11:32:01Z</time>
      </trkpt>
      <trkpt lat="44.23255" lon="4.83321">
        <ele>202.5</ele>
        <time>2024-03-12T11:32:02Z</time>
      </trkpt>
      <trkpt lat="44.23253" lon="4.83317">
        <ele>203.1</ele>
        <time>2024-03-12T11:32:03Z</time>
      </trkpt>
      <trkpt lat="44.23252" lon="4.83314">
        <ele>203.5</ele>
        <time>2024-03-12T11:32:04Z</time>
      </trkpt>
      <trkpt lat="44.2325" lon="4.83312">
        <ele>203.8</ele>
        <time>2024-03-12T11:32:05Z</time>
      </trkpt>
      <trkpt lat="44.23249" lon="4.83311">
        <ele>204.2</ele>
        <time>2024-03-12T11:32:06Z</time>
      </trkpt>
      <trkpt lat="44.23247" lon="4.83309">
        <ele>204.6</ele>
        <time>2024-03-12T11:32:07Z</time>
      </trkpt>
      <trkpt lat="44.23245" lon="4.83307">
        <ele>204.9</ele>
        <time>2024-03-12T11:32:08Z</time>
      </trkpt>
      <trkpt lat="44.23245" lon="4.83307">
        <ele>204.9</ele>
        <time>2024-03-12T11:32:09Z</time>
      </trkpt>
      <trkpt lat="44.23242" lon="4.83304">
        <ele>205.5</ele>
        <time>2024-03-12T11:32:10Z</time>
      </trkpt>
      <trkpt lat="44.2324" lon="4.83302">
        <ele>205.8</ele>
        <time>2024-03-12T11:32:11Z</time>
      </trkpt>
      <trkpt lat="44.23239" lon="4.833">
        <ele>206.1</ele>
        <time>2024-03-12T11:32:12Z</time>
      </trkpt>
      <trkpt lat="44.23237" lon="4.83299">
        <ele>206.4</ele>
        <time>2024-03-12T11:32:13Z</time>
      </trkpt>
      <trkpt lat="44.23235" lon="4.83297">
        <ele>206.7</ele>
        <time>2024-03-12T11:32:14Z</time>
      </trkpt>
      <trkpt lat="44.23233" lon="4.83296">
        <ele>206.9</ele>
        <time>2024-03-12T11:32:15Z</time>
      </trkpt>
      <trkpt lat="44.23233" lon="4.83296">
        <ele>206.9</ele>
        <time>2024-03-12T11:32:16Z</time>
      </trkpt>
      <trkpt lat="44.2323" lon="4.83293">
        <ele>207.3</ele>
        <time>2024-03-12T11:32:17Z</time>
      </trkpt>
      <trkpt lat="44.23229" lon="4.8329">
        <ele>207.5</ele>
        <time>2024-03-12T11:32:18Z</time>
      </trkpt>
      <trkpt lat="44.23228" lon="4.83288">
        <ele>207.7</ele>
        <time>2024-03-12T11:32:19Z</time>
      </trkpt>
      <trkpt lat="44.23227" lon="4.83285">
        <ele>207.8</ele>
        <time>2024-03-12T11:32:20Z</time>
      </trkpt>
      <trkpt lat="44.23227" lon="4.83282">
        <ele>208</ele>
        <time>2024-03-12T11:32:21Z</time>
      </trkpt>
      <trkpt lat="44.23226" lon="4.83279">
        <ele>208.1</ele>
        <time>2024-03-12T11:32:22Z</time>
      </trkpt>
      <trkpt lat="44.23225" lon="4.83276">
        <ele>208.3</ele>
        <time>2024-03-12T11:32:23Z</time>
      </trkpt>
      <trkpt lat="44.23224" lon="4.83274">
        <ele>208.4</ele>
        <time>2024-03-12T11:32:24Z</time>
      </trkpt>
      <trkpt lat="44.23223" lon="4.83271">
        <ele>208.5</ele>
        <time>2024-03-12T11:32:25Z</time>
      </trkpt>
      <trkpt lat="44.23221" lon="4.83269">
        <ele>208.6</ele>
        <time>2024-03-12T11:32:26Z</time>
      </trkpt>
      <trkpt lat="44.2322" lon="4.83267">
        <ele>208.7</ele>
        <time>2024-03-12T11:32:27Z</time>
      </trkpt>
      <trkpt lat="44.23219" lon="4.83265">
        <ele>208.8</ele>
        <time>2024-03-12T11:32:28Z</time>
      </trkpt>
      <trkpt lat="44.23216" lon="4.83264">
        <ele>209</ele>
        <time>2024-03-12T11:32:29Z</time>
      </trkpt>
      <trkpt lat="44.23214" lon="4.83262">
        <ele>209.1</ele>
        <time>2024-03-12T11:32:30Z</time>
      </trkpt>
      <trkpt lat="44.23212" lon="4.8326">
        <ele>209.3</ele>
        <time>2024-03-12T11:32:31Z</time>
      </trkpt>
      <trkpt lat="44.2321" lon="4.83258">
        <ele>209.5</ele>
        <time>2024-03-12T11:32:32Z</time>
      </trkpt>
      <trkpt lat="44.23207" lon="4.83256">
        <ele>209.6</ele>
        <time>2024-03-12T11:32:33Z</time>
      </trkpt>
      <trkpt lat="44.23205" lon="4.83253">
        <ele>209.8</ele>
        <time>2024-03-12T11:32:34Z</time>
      </trkpt>
      <trkpt lat="44.23204" lon="4.83251">
        <ele>209.9</ele>
        <time>2024-03-12T11:32:35Z</time>
      </trkpt>
      <trkpt lat="44.23202" lon="4.83249">
        <ele>210.1</ele>
        <time>2024-03-12T11:32:36Z</time>
      </trkpt>
      <trkpt lat="44.232" lon="4.83247">
        <ele>210.2</ele>
        <time>2024-03-12T11:32:37Z</time>
      </trkpt>
      <trkpt lat="44.23199" lon="4.83246">
        <ele>210.3</ele>
        <time>2024-03-12T11:32:38Z</time>
      </trkpt>
      <trkpt lat="44.23197" lon="4.83245">
        <ele>210.5</ele>
        <time>2024-03-12T11:32:39Z</time>
      </trkpt>
      <trkpt lat="44.23197" lon="4.83245">
        <ele>210.5</ele>
        <time>2024-03-12T11:32:40Z</time>
      </trkpt>
      <trkpt lat="44.23193" lon="4.83244">
        <ele>210.8</ele>
        <time>2024-03-12T11:32:41Z</time>
      </trkpt>
      <trkpt lat="44.23191" lon="4.83244">
        <ele>211.1</ele>
        <time>2024-03-12T11:32:42Z</time>
      </trkpt>
      <trkpt lat="44.23189" lon="4.83244">
        <ele>211.5</ele>
        <time>2024-03-12T11:32:43Z</time>
      </trkpt>
      <trkpt lat="44.23187" lon="4.83245">
        <ele>211.8</ele>
        <time>2024-03-12T11:32:44Z</time>
      </trkpt>
      <trkpt lat="44.23187" lon="4.83245">
        <ele>211.8</ele>
        <time>2024-03-12T11:32:45Z</time>
      </trkpt>
      <trkpt lat="44.23184" lon="4.83245">
        <ele>212.2</ele>
        <time>2024-03-12T11:32:46Z</time>
      </trkpt>
      <trkpt lat="44.23184" lon="4.83245">
        <ele>212.2</ele>
        <time>2024-03-12T11:32:47Z</time>
      </trkpt>
      <trkpt lat="44.23181" lon="4.83246">
        <ele>212.7</ele>
        <time>2024-03-12T11:32:48Z</time>
      </trkpt>
      <trkpt lat="44.23181" lon="4.83246">
        <ele>212.7</ele>
        <time>2024-03-12T11:32:49Z</time>
      </trkpt>
      <trkpt lat="44.23179" lon="4.83246">
        <ele>213.1</ele>
        <time>2024-03-12T11:32:50Z</time>
      </trkpt>
      <trkpt lat="44.23179" lon="4.83246">
        <ele>213.1</ele>
        <time>2024-03-12T11:32:51Z</time>
      </trkpt>
      <trkpt lat="44.23175" lon="4.83244">
        <ele>213.6</ele>
        <time>2024-03-12T11:32:52Z</time>
      </trkpt>
      <trkpt lat="44.23173" lon="4.83243">
        <ele>213.8</ele>
        <time>2024-03-12T11:32:53Z</time>
      </trkpt>
      <trkpt lat="44.23172" lon="4.83242">
        <ele>214</ele>
        <time>2024-03-12T11:32:54Z</time>
      </trkpt>
      <trkpt lat="44.2317" lon="4.8324">
        <ele>214.3</ele>
        <time>2024-03-12T11:32:55Z</time>
      </trkpt>
      <trkpt lat="44.23168" lon="4.83239">
        <ele>214.5</ele>
        <time>2024-03-12T11:32:56Z</time>
      </trkpt>
      <trkpt lat="44.23166" lon="4.83238">
        <ele>214.7</ele>
        <time>2024-03-12T11:32:57Z</time>
      </trkpt>
      <trkpt lat="44.23164" lon="4.83238">
        <ele>215</ele>
        <time>2024-03-12T11:32:58Z</time>
      </trkpt>
      <trkpt lat="44.23162" lon="4.83237">
        <ele>215.2</ele>
        <time>2024-03-12T11:32:59Z</time>
      </trkpt>
      <trkpt lat="44.23159" lon="4.83237">
        <ele>215.3</ele>
        <time>2024-03-12T11:33:00Z</time>
      </trkpt>
      <trkpt lat="44.23157" lon="4.83237">
        <ele>215.5</ele>
        <time>2024-03-12T11:33:01Z</time>
      </trkpt>
      <trkpt lat="44.23155" lon="4.83236">
        <ele>215.7</ele>
        <time>2024-03-12T11:33:02Z</time>
      </trkpt>
      <trkpt lat="44.23153" lon="4.83236">
        <ele>215.9</ele>
        <time>2024-03-12T11:33:03Z</time>
      </trkpt>
      <trkpt lat="44.23151" lon="4.83236">
        <ele>216</ele>
        <time>2024-03-12T11:33:04Z</time>
      </trkpt>
      <trkpt lat="44.23149" lon="4.83235">
        <ele>216.2</ele>
        <time>2024-03-12T11:33:05Z</time>
      </trkpt>
      <trkpt lat="44.23147" lon="4.83235">
        <ele>216.3</ele>
        <time>2024-03-12T11:33:06Z</time>
      </trkpt>
      <trkpt lat="44.23145" lon="4.83235">
        <ele>216.5</ele>
        <time>2024-03-12T11:33:07Z</time>
      </trkpt>
      <trkpt lat="44.23143" lon="4.83235">
        <ele>216.6</ele>
        <time>2024-03-12T11:33:08Z</time>
      </trkpt>
      <trkpt lat="44.2314" lon="4.83235">
        <ele>216.8</ele>
        <time>2024-03-12T11:33:09Z</time>
      </trkpt>
      <trkpt lat="44.23138" lon="4.83235">
        <ele>217</ele>
        <time>2024-03-12T11:33:10Z</time>
      </trkpt>
      <trkpt lat="44.23135" lon="4.83235">
        <ele>217.1</ele>
        <time>2024-03-12T11:33:11Z</time>
      </trkpt>
      <trkpt lat="44.23133" lon="4.83235">
        <ele>217.2</ele>
        <time>2024-03-12T11:33:12Z</time>
      </trkpt>
      <trkpt lat="44.2313" lon="4.83235">
        <ele>217.3</ele>
        <time>2024-03-12T11:33:13Z</time>
      </trkpt>
      <trkpt lat="44.23127" lon="4.83236">
        <ele>217.5</ele>
        <time>2024-03-12T11:33:14Z</time>
      </trkpt>
      <trkpt lat="44.23125" lon="4.83236">
        <ele>217.6</ele>
        <time>2024-03-12T11:33:15Z</time>
      </trkpt>
      <trkpt lat="44.23122" lon="4.83236">
        <ele>217.7</ele>
        <time>2024-03-12T11:33:16Z</time>
      </trkpt>
      <trkpt lat="44.23119" lon="4.83237">
        <ele>217.9</ele>
        <time>2024-03-12T11:33:17Z</time>
      </trkpt>
      <trkpt lat="44.23115" lon="4.83237">
        <ele>218</ele>
        <time>2024-03-12T11:33:18Z</time>
      </trkpt>
      <trkpt lat="44.23112" lon="4.83237">
        <ele>218.2</ele>
        <time>2024-03-12T11:33:19Z</time>
      </trkpt>
      <trkpt lat="44.23108" lon="4.83237">
        <ele>218.4</ele>
        <time>2024-03-12T11:33:20Z</time>
      </trkpt>
      <trkpt lat="44.23105" lon="4.83237">
        <ele>218.5</ele>
        <time>2024-03-12T11:33:21Z</time>
      </trkpt>
      <trkpt lat="44.23102" lon="4.83237">
        <ele>218.7</ele>
        <time>2024-03-12T11:33:22Z</time>
      </trkpt>
      <trkpt lat="44.23099" lon="4.83237">
        <ele>218.9</ele>
        <time>2024-03-12T11:33:23Z</time>
      </trkpt>
      <trkpt lat="44.23096" lon="4.83237">
        <ele>219.1</ele>
        <time>2024-03-12T11:33:24Z</time>
      </trkpt>
      <trkpt lat="44.23094" lon="4.83237">
        <ele>219.2</ele>
        <time>2024-03-12T11:33:25Z</time>
      </trkpt>
      <trkpt lat="44.23092" lon="4.83236">
        <ele>219.4</ele>
        <time>2024-03-12T11:33:26Z</time>
      </trkpt>
      <trkpt lat="44.2309" lon="4.83235">
        <ele>219.6</ele>
        <time>2024-03-12T11:33:27Z</time>
      </trkpt>
      <trkpt lat="44.23088" lon="4.83233">
        <ele>219.7</ele>
        <time>2024-03-12T11:33:28Z</time>
      </trkpt>
      <trkpt lat="44.23087" lon="4.8323">
        <ele>219.9</ele>
        <time>2024-03-12T11:33:29Z</time>
      </trkpt>
      <trkpt lat="44.23086" lon="4.83227">
        <ele>220.1</ele>
        <time>2024-03-12T11:33:30Z</time>
      </trkpt>
      <trkpt lat="44.23085" lon="4.83224">
        <ele>220.3</ele>
        <time>2024-03-12T11:33:31Z</time>
      </trkpt>
      <trkpt lat="44.23084" lon="4.83221">
        <ele>220.5</ele>
        <time>2024-03-12T11:33:32Z</time>
      </trkpt>
      <trkpt lat="44.23084" lon="4.83217">
        <ele>220.6</ele>
        <time>2024-03-12T11:33:33Z</time>
      </trkpt>
      <trkpt lat="44.23084" lon="4.83214">
        <ele>220.8</ele>
        <time>2024-03-12T11:33:34Z</time>
      </trkpt>
      <trkpt lat="44.23084" lon="4.8321">
        <ele>221</ele>
        <time>2024-03-12T11:33:35Z</time>
      </trkpt>
      <trkpt lat="44.23084" lon="4.83207">
        <ele>221.2</ele>
        <time>2024-03-12T11:33:36Z</time>
      </trkpt>
      <trkpt lat="44.23084" lon="4.83204">
        <ele>221.4</ele>
        <time>2024-03-12T11:33:37Z</time>
      </trkpt>
      <trkpt lat="44.23084" lon="4.832">
        <ele>221.6</ele>
        <time>2024-03-12T11:33:38Z</time>
      </trkpt>
      <trkpt lat="44.23083" lon="4.83197">
        <ele>221.7</ele>
        <time>2024-03-12T11:33:39Z</time>
      </trkpt>
      <trkpt lat="44.23083" lon="4.83194">
        <ele>221.9</ele>
        <time>2024-03-12T11:33:40Z</time>
      </trkpt>
      <trkpt lat="44.23083" lon="4.83192">
        <ele>222.1</ele>
        <time>2024-03-12T11:33:41Z</time>
      </trkpt>
      <trkpt lat="44.23083" lon="4.83189">
        <ele>222.2</ele>
        <time>2024-03-12T11:33:42Z</time>
      </trkpt>
      <trkpt lat="44.23083" lon="4.83189">
        <ele>222.2</ele>
        <time>2024-03-12T11:33:43Z</time>
      </trkpt>
      <trkpt lat="44.23083" lon="4.83184">
        <ele>222.5</ele>
        <time>2024-03-12T11:33:44Z</time>
      </trkpt>
      <trkpt lat="44.23084" lon="4.83182">
        <ele>222.6</ele>
        <time>2024-03-12T11:33:45Z</time>
      </trkpt>
      <trkpt lat="44.23084" lon="4.83179">
        <ele>222.8</ele>
        <time>2024-03-12T11:33:46Z</time>
      </trkpt>
      <trkpt lat="44.23085" lon="4.83176">
        <ele>222.9</ele>
        <time>2024-03-12T11:33:47Z</time>
      </trkpt>
      <trkpt lat="44.23086" lon="4.83173">
        <ele>223.1</ele>
        <time>2024-03-12T11:33:48Z</time>
      </trkpt>
      <trkpt lat="44.23086" lon="4.83171">
        <ele>223.2</ele>
        <time>2024-03-12T11:33:49Z</time>
      </trkpt>
      <trkpt lat="44.23087" lon="4.83168">
        <ele>223.3</ele>
        <time>2024-03-12T11:33:50Z</time>
      </trkpt>
      <trkpt lat="44.23088" lon="4.83165">
        <ele>223.5</ele>
        <time>2024-03-12T11:33:51Z</time>
      </trkpt>
      <trkpt lat="44.23089" lon="4.83162">
        <ele>223.6</ele>
        <time>2024-03-12T11:33:52Z</time>
      </trkpt>
      <trkpt lat="44.2309" lon="4.83159">
        <ele>223.7</ele>
        <time>2024-03-12T11:33:53Z</time>
      </trkpt>
      <trkpt lat="44.23092" lon="4.83157">
        <ele>223.8</ele>
        <time>2024-03-12T11:33:54Z</time>
      </trkpt>
      <trkpt lat="44.23092" lon="4.83157">
        <ele>223.8</ele>
        <time>2024-03-12T11:33:55Z</time>
      </trkpt>
      <trkpt lat="44.23093" lon="4.83152">
        <ele>224</ele>
        <time>2024-03-12T11:33:56Z</time>
      </trkpt>
      <trkpt lat="44.23093" lon="4.83152">
        <ele>224</ele>
        <time>2024-03-12T11:33:57Z</time>
      </trkpt>
      <trkpt lat="44.23094" lon="4.83148">
        <ele>224.1</ele>
        <time>2024-03-12T11:33:58Z</time>
      </trkpt>
      <trkpt lat="44.23094" lon="4.83148">
        <ele>224.1</ele>
        <time>2024-03-12T11:33:59Z</time>
      </trkpt>
      <trkpt lat="44.23093" lon="4.83144">
        <ele>224.3</ele>
        <time>2024-03-12T11:34:00Z</time>
      </trkpt>
      <trkpt lat="44.23093" lon="4.83144">
        <ele>224.3</ele>
        <time>2024-03-12T11:34:01Z</time>
      </trkpt>
      <trkpt lat="44.23093" lon="4.83139">
        <ele>224.5</ele>
        <time>2024-03-12T11:34:02Z</time>
      </trkpt>
      <trkpt lat="44.23093" lon="4.83137">
        <ele>224.6</ele>
        <time>2024-03-12T11:34:03Z</time>
      </trkpt>
      <trkpt lat="44.23094" lon="4.83134">
        <ele>224.7</ele>
        <time>2024-03-12T11:34:04Z</time>
      </trkpt>
      <trkpt lat="44.23095" lon="4.83132">
        <ele>224.8</ele>
        <time>2024-03-12T11:34:05Z</time>
      </trkpt>
      <trkpt lat="44.23096" lon="4.83129">
        <ele>224.9</ele>
        <time>2024-03-12T11:34:06Z</time>
      </trkpt>
      <trkpt lat="44.23097" lon="4.83126">
        <ele>225</ele>
        <time>2024-03-12T11:34:07Z</time>
      </trkpt>
      <trkpt lat="44.23098" lon="4.83122">
        <ele>225.2</ele>
        <time>2024-03-12T11:34:08Z</time>
      </trkpt>
      <trkpt lat="44.23098" lon="4.83119">
        <ele>225.3</ele>
        <time>2024-03-12T11:34:09Z</time>
      </trkpt>
      <trkpt lat="44.23099" lon="4.83116">
        <ele>225.4</ele>
        <time>2024-03-12T11:34:10Z</time>
      </trkpt>
      <trkpt lat="44.231" lon="4.83113">
        <ele>225.6</ele>
        <time>2024-03-12T11:34:11Z</time>
      </trkpt>
      <trkpt lat="44.23101" lon="4.8311">
        <ele>225.7</ele>
        <time>2024-03-12T11:34:12Z</time>
      </trkpt>
      <trkpt lat="44.23102" lon="4.83108">
        <ele>225.9</ele>
        <time>2024-03-12T11:34:13Z</time>
      </trkpt>
      <trkpt lat="44.23103" lon="4.83105">
        <ele>226</ele>
        <time>2024-03-12T11:34:14Z</time>
      </trkpt>
      <trkpt lat="44.23104" lon="4.83102">
        <ele>226.1</ele>
        <time>2024-03-12T11:34:15Z</time>
      </trkpt>
      <trkpt lat="44.23105" lon="4.831">
        <ele>226.3</ele>
        <time>2024-03-12T11:34:16Z</time>
      </trkpt>
      <trkpt lat="44.23106" lon="4.83098">
        <ele>226.4</ele>
        <time>2024-03-12T11:34:17Z</time>
      </trkpt>
      <trkpt lat="44.23107" lon="4.83096">
        <ele>226.6</ele>
        <time>2024-03-12T11:34:18Z</time>
      </trkpt>
      <trkpt lat="44.23107" lon="4.83096">
        <ele>226.6</ele>
        <time>2024-03-12T11:34:19Z</time>
      </trkpt>
      <trkpt lat="44.23108" lon="4.83092">
        <ele>226.8</ele>
        <time>2024-03-12T11:34:20Z</time>
      </trkpt>
      <trkpt lat="44.23108" lon="4.83092">
        <ele>226.8</ele>
        <time>2024-03-12T11:34:21Z</time>
      </trkpt>
      <trkpt lat="44.23107" lon="4.83089">
        <ele>226.9</ele>
        <time>2024-03-12T11:34:22Z</time>
      </trkpt>
      <trkpt lat="44.23107" lon="4.83089">
        <ele>226.9</ele>
        <time>2024-03-12T11:34:23Z</time>
      </trkpt>
      <trkpt lat="44.23105" lon="4.83086">
        <ele>227.2</ele>
        <time>2024-03-12T11:34:24Z</time>
      </trkpt>
      <trkpt lat="44.23105" lon="4.83086">
        <ele>227.2</ele>
        <time>2024-03-12T11:34:25Z</time>
      </trkpt>
      <trkpt lat="44.23103" lon="4.83082">
        <ele>227.5</ele>
        <time>2024-03-12T11:34:26Z</time>
      </trkpt>
      <trkpt lat="44.23101" lon="4.8308">
        <ele>227.6</ele>
        <time>2024-03-12T11:34:27Z</time>
      </trkpt>
      <trkpt lat="44.231" lon="4.83078">
        <ele>227.8</ele>
        <time>2024-03-12T11:34:28Z</time>
      </trkpt>
      <trkpt lat="44.23098" lon="4.83076">
        <ele>228</ele>
        <time>2024-03-12T11:34:29Z</time>
      </trkpt>
      <trkpt lat="44.23096" lon="4.83074">
        <ele>228.2</ele>
        <time>2024-03-12T11:34:30Z</time>
      </trkpt>
      <trkpt lat="44.23095" lon="4.83071">
        <ele>228.4</ele>
        <time>2024-03-12T11:34:31Z</time>
      </trkpt>
      <trkpt lat="44.23094" lon="4.83068">
        <ele>228.6</ele>
        <time>2024-03-12T11:34:32Z</time>
      </trkpt>
      <trkpt lat="44.23093" lon="4.83066">
        <ele>228.7</ele>
        <time>2024-03-12T11:34:33Z</time>
      </trkpt>
      <trkpt lat="44.23093" lon="4.83063">
        <ele>228.9</ele>
        <time>2024-03-12T11:34:34Z</time>
      </trkpt>
      <trkpt lat="44.23092" lon="4.83061">
        <ele>229.1</ele>
        <time>2024-03-12T11:34:35Z</time>
      </trkpt>
      <trkpt lat="44.23092" lon="4.83061">
        <ele>229.1</ele>
        <time>2024-03-12T11:34:36Z</time>
      </trkpt>
      <trkpt lat="44.23091" lon="4.83056">
        <ele>229.4</ele>
        <time>2024-03-12T11:34:37Z</time>
      </trkpt>
      <trkpt lat="44.2309" lon="4.83052">
        <ele>229.7</ele>
        <time>2024-03-12T11:34:38Z</time>
      </trkpt>
      <trkpt lat="44.2309" lon="4.8305">
        <ele>229.8</ele>
        <time>2024-03-12T11:34:39Z</time>
      </trkpt>
      <trkpt lat="44.23088" lon="4.83047">
        <ele>229.9</ele>
        <time>2024-03-12T11:34:40Z</time>
      </trkpt>
      <trkpt lat="44.23087" lon="4.83044">
        <ele>230.1</ele>
        <time>2024-03-12T11:34:41Z</time>
      </trkpt>
      <trkpt lat="44.23085" lon="4.8304">
        <ele>230.3</ele>
        <time>2024-03-12T11:34:42Z</time>
      </trkpt>
      <trkpt lat="44.23084" lon="4.83037">
        <ele>230.5</ele>
        <time>2024-03-12T11:34:43Z</time>
      </trkpt>
      <trkpt lat="44.23082" lon="4.83034">
        <ele>230.6</ele>
        <time>2024-03-12T11:34:44Z</time>
      </trkpt>
      <trkpt lat="44.2308" lon="4.8303">
        <ele>230.8</ele>
        <time>2024-03-12T11:34:45Z</time>
      </trkpt>
      <trkpt lat="44.23078" lon="4.83027">
        <ele>230.9</ele>
        <time>2024-03-12T11:34:46Z</time>
      </trkpt>
      <trkpt lat="44.23077" lon="4.83023">
        <ele>231.1</ele>
        <time>2024-03-12T11:34:47Z</time>
      </trkpt>
      <trkpt lat="44.23076" lon="4.8302">
        <ele>231.2</ele>
        <time>2024-03-12T11:34:48Z</time>
      </trkpt>
      <trkpt lat="44.23075" lon="4.83017">
        <ele>231.3</ele>
        <time>2024-03-12T11:34:49Z</time>
      </trkpt>
      <trkpt lat="44.23074" lon="4.83014">
        <ele>231.5</ele>
        <time>2024-03-12T11:34:50Z</time>
      </trkpt>
      <trkpt lat="44.23074" lon="4.8301">
        <ele>231.6</ele>
        <time>2024-03-12T11:34:51Z</time>
      </trkpt>
      <trkpt lat="44.23072" lon="4.83007">
        <ele>231.8</ele>
        <time>2024-03-12T11:34:52Z</time>
      </trkpt>
      <trkpt lat="44.23072" lon="4.83003">
        <ele>232</ele>
        <time>2024-03-12T11:34:53Z</time>
      </trkpt>
      <trkpt lat="44.2307" lon="4.83">
        <ele>232.1</ele>
        <time>2024-03-12T11:34:54Z</time>
      </trkpt>
      <trkpt lat="44.23069" lon="4.82997">
        <ele>232.3</ele>
        <time>2024-03-12T11:34:55Z</time>
      </trkpt>
      <trkpt lat="44.23067" lon="4.82993">
        <ele>232.4</ele>
        <time>2024-03-12T11:34:56Z</time>
      </trkpt>
      <trkpt lat="44.23065" lon="4.82991">
        <ele>232.6</ele>
        <time>2024-03-12T11:34:57Z</time>
      </trkpt>
      <trkpt lat="44.23063" lon="4.82988">
        <ele>232.8</ele>
        <time>2024-03-12T11:34:58Z</time>
      </trkpt>
      <trkpt lat="44.23061" lon="4.82985">
        <ele>233</ele>
        <time>2024-03-12T11:34:59Z</time>
      </trkpt>
      <trkpt lat="44.2306" lon="4.82982">
        <ele>233.2</ele>
        <time>2024-03-12T11:35:00Z</time>
      </trkpt>
      <trkpt lat="44.23058" lon="4.82979">
        <ele>233.4</ele>
        <time>2024-03-12T11:35:01Z</time>
      </trkpt>
      <trkpt lat="44.23056" lon="4.82976">
        <ele>233.5</ele>
        <time>2024-03-12T11:35:02Z</time>
      </trkpt>
      <trkpt lat="44.23054" lon="4.82973">
        <ele>233.7</ele>
        <time>2024-03-12T11:35:03Z</time>
      </trkpt>
      <trkpt lat="44.23052" lon="4.82971">
        <ele>233.9</ele>
        <time>2024-03-12T11:35:04Z</time>
      </trkpt>
      <trkpt lat="44.2305" lon="4.82968">
        <ele>234</ele>
        <time>2024-03-12T11:35:05Z</time>
      </trkpt>
      <trkpt lat="44.23048" lon="4.82964">
        <ele>234.1</ele>
        <time>2024-03-12T11:35:06Z</time>
      </trkpt>
      <trkpt lat="44.23046" lon="4.82961">
        <ele>234.3</ele>
        <time>2024-03-12T11:35:07Z</time>
      </trkpt>
      <trkpt lat="44.23045" lon="4.82957">
        <ele>234.4</ele>
        <time>2024-03-12T11:35:08Z</time>
      </trkpt>
      <trkpt lat="44.23044" lon="4.82953">
        <ele>234.4</ele>
        <time>2024-03-12T11:35:09Z</time>
      </trkpt>
      <trkpt lat="44.23043" lon="4.82949">
        <ele>234.5</ele>
        <time>2024-03-12T11:35:10Z</time>
      </trkpt>
      <trkpt lat="44.23043" lon="4.82945">
        <ele>234.6</ele>
        <time>2024-03-12T11:35:11Z</time>
      </trkpt>
      <trkpt lat="44.23043" lon="4.82941">
        <ele>234.7</ele>
        <time>2024-03-12T11:35:12Z</time>
      </trkpt>
      <trkpt lat="44.23043" lon="4.82937">
        <ele>234.8</ele>
        <time>2024-03-12T11:35:13Z</time>
      </trkpt>
      <trkpt lat="44.23043" lon="4.82933">
        <ele>235</ele>
        <time>2024-03-12T11:35:14Z</time>
      </trkpt>
      <trkpt lat="44.23044" lon="4.82929">
        <ele>235.1</ele>
        <time>2024-03-12T11:35:15Z</time>
      </trkpt>
      <trkpt lat="44.23044" lon="4.82925">
        <ele>235.2</ele>
        <time>2024-03-12T11:35:16Z</time>
      </trkpt>
      <trkpt lat="44.23044" lon="4.8292">
        <ele>235.4</ele>
        <time>2024-03-12T11:35:17Z</time>
      </trkpt>
      <trkpt lat="44.23044" lon="4.82916">
        <ele>235.6</ele>
        <time>2024-03-12T11:35:18Z</time>
      </trkpt>
      <trkpt lat="44.23044" lon="4.82912">
        <ele>235.7</ele>
        <time>2024-03-12T11:35:19Z</time>
      </trkpt>
      <trkpt lat="44.23043" lon="4.82908">
        <ele>235.9</ele>
        <time>2024-03-12T11:35:20Z</time>
      </trkpt>
      <trkpt lat="44.23043" lon="4.82904">
        <ele>236.1</ele>
        <time>2024-03-12T11:35:21Z</time>
      </trkpt>
      <trkpt lat="44.23043" lon="4.829">
        <ele>236.3</ele>
        <time>2024-03-12T11:35:22Z</time>
      </trkpt>
      <trkpt lat="44.23043" lon="4.82897">
        <ele>236.4</ele>
        <time>2024-03-12T11:35:23Z</time>
      </trkpt>
      <trkpt lat="44.23043" lon="4.82893">
        <ele>236.6</ele>
        <time>2024-03-12T11:35:24Z</time>
      </trkpt>
      <trkpt lat="44.23043" lon="4.82889">
        <ele>236.8</ele>
        <time>2024-03-12T11:35:25Z</time>
      </trkpt>
      <trkpt lat="44.23043" lon="4.82886">
        <ele>236.9</ele>
        <time>2024-03-12T11:35:26Z</time>
      </trkpt>
      <trkpt lat="44.23043" lon="4.82882">
        <ele>237.1</ele>
        <time>2024-03-12T11:35:27Z</time>
      </trkpt>
      <trkpt lat="44.23043" lon="4.82879">
        <ele>237.3</ele>
        <time>2024-03-12T11:35:28Z</time>
      </trkpt>
      <trkpt lat="44.23042" lon="4.82875">
        <ele>237.4</ele>
        <time>2024-03-12T11:35:29Z</time>
      </trkpt>
      <trkpt lat="44.23042" lon="4.82872">
        <ele>237.6</ele>
        <time>2024-03-12T11:35:30Z</time>
      </trkpt>
      <trkpt lat="44.23042" lon="4.82868">
        <ele>237.8</ele>
        <time>2024-03-12T11:35:31Z</time>
      </trkpt>
      <trkpt lat="44.23041" lon="4.82864">
        <ele>238</ele>
        <time>2024-03-12T11:35:32Z</time>
      </trkpt>
      <trkpt lat="44.23041" lon="4.8286">
        <ele>238.2</ele>
        <time>2024-03-12T11:35:33Z</time>
      </trkpt>
      <trkpt lat="44.23041" lon="4.82856">
        <ele>238.4</ele>
        <time>2024-03-12T11:35:34Z</time>
      </trkpt>
      <trkpt lat="44.2304" lon="4.82853">
        <ele>238.6</ele>
        <time>2024-03-12T11:35:35Z</time>
      </trkpt>
      <trkpt lat="44.2304" lon="4.82849">
        <ele>238.8</ele>
        <time>2024-03-12T11:35:36Z</time>
      </trkpt>
      <trkpt lat="44.2304" lon="4.82845">
        <ele>239</ele>
        <time>2024-03-12T11:35:37Z</time>
      </trkpt>
      <trkpt lat="44.2304" lon="4.82841">
        <ele>239.2</ele>
        <time>2024-03-12T11:35:38Z</time>
      </trkpt>
      <trkpt lat="44.2304" lon="4.82838">
        <ele>239.5</ele>
        <time>2024-03-12T11:35:39Z</time>
      </trkpt>
      <trkpt lat="44.2304" lon="4.82834">
        <ele>239.7</ele>
        <time>2024-03-12T11:35:40Z</time>
      </trkpt>
      <trkpt lat="44.2304" lon="4.82831">
        <ele>239.9</ele>
        <time>2024-03-12T11:35:41Z</time>
      </trkpt>
      <trkpt lat="44.2304" lon="4.82827">
        <ele>240.1</ele>
        <time>2024-03-12T11:35:42Z</time>
      </trkpt>
      <trkpt lat="44.23039" lon="4.82824">
        <ele>240.3</ele>
        <time>2024-03-12T11:35:43Z</time>
      </trkpt>
      <trkpt lat="44.23039" lon="4.8282">
        <ele>240.6</ele>
        <time>2024-03-12T11:35:44Z</time>
      </trkpt>
      <trkpt lat="44.23038" lon="4.82817">
        <ele>240.8</ele>
        <time>2024-03-12T11:35:45Z</time>
      </trkpt>
      <trkpt lat="44.23038" lon="4.82813">
        <ele>241</ele>
        <time>2024-03-12T11:35:46Z</time>
      </trkpt>
      <trkpt lat="44.23038" lon="4.8281">
        <ele>241.3</ele>
        <time>2024-03-12T11:35:47Z</time>
      </trkpt>
      <trkpt lat="44.23037" lon="4.82806">
        <ele>241.5</ele>
        <time>2024-03-12T11:35:48Z</time>
      </trkpt>
      <trkpt lat="44.23037" lon="4.82803">
        <ele>241.7</ele>
        <time>2024-03-12T11:35:49Z</time>
      </trkpt>
      <trkpt lat="44.23037" lon="4.82799">
        <ele>242</ele>
        <time>2024-03-12T11:35:50Z</time>
      </trkpt>
      <trkpt lat="44.23037" lon="4.82796">
        <ele>242.2</ele>
        <time>2024-03-12T11:35:51Z</time>
      </trkpt>
      <trkpt lat="44.23036" lon="4.82792">
        <ele>242.4</ele>
        <time>2024-03-12T11:35:52Z</time>
      </trkpt>
      <trkpt lat="44.23036" lon="4.82789">
        <ele>242.6</ele>
        <time>2024-03-12T11:35:53Z</time>
      </trkpt>
      <trkpt lat="44.23036" lon="4.82785">
        <ele>242.8</ele>
        <time>2024-03-12T11:35:54Z</time>
      </trkpt>
      <trkpt lat="44.23036" lon="4.82781">
        <ele>243</ele>
        <time>2024-03-12T11:35:55Z</time>
      </trkpt>
      <trkpt lat="44.23035" lon="4.82778">
        <ele>243.2</ele>
        <time>2024-03-12T11:35:56Z</time>
      </trkpt>
      <trkpt lat="44.23035" lon="4.82775">
        <ele>243.4</ele>
        <time>2024-03-12T11:35:57Z</time>
      </trkpt>
      <trkpt lat="44.23035" lon="4.82772">
        <ele>243.6</ele>
        <time>2024-03-12T11:35:58Z</time>
      </trkpt>
      <trkpt lat="44.23034" lon="4.82768">
        <ele>243.8</ele>
        <time>2024-03-12T11:35:59Z</time>
      </trkpt>
      <trkpt lat="44.23033" lon="4.82765">
        <ele>244</ele>
        <time>2024-03-12T11:36:00Z</time>
      </trkpt>
      <trkpt lat="44.23032" lon="4.82762">
        <ele>244.2</ele>
        <time>2024-03-12T11:36:01Z</time>
      </trkpt>
      <trkpt lat="44.23031" lon="4.8276">
        <ele>244.4</ele>
        <time>2024-03-12T11:36:02Z</time>
      </trkpt>
      <trkpt lat="44.23029" lon="4.82757">
        <ele>244.6</ele>
        <time>2024-03-12T11:36:03Z</time>
      </trkpt>
      <trkpt lat="44.23027" lon="4.82755">
        <ele>244.8</ele>
        <time>2024-03-12T11:36:04Z</time>
      </trkpt>
      <trkpt lat="44.23024" lon="4.82752">
        <ele>244.9</ele>
        <time>2024-03-12T11:36:05Z</time>
      </trkpt>
      <trkpt lat="44.23022" lon="4.8275">
        <ele>245</ele>
        <time>2024-03-12T11:36:06Z</time>
      </trkpt>
      <trkpt lat="44.2302" lon="4.82749">
        <ele>245.1</ele>
        <time>2024-03-12T11:36:07Z</time>
      </trkpt>
      <trkpt lat="44.23016" lon="4.82747">
        <ele>245.3</ele>
        <time>2024-03-12T11:36:08Z</time>
      </trkpt>
      <trkpt lat="44.23014" lon="4.82746">
        <ele>245.4</ele>
        <time>2024-03-12T11:36:09Z</time>
      </trkpt>
      <trkpt lat="44.23011" lon="4.82744">
        <ele>245.5</ele>
        <time>2024-03-12T11:36:10Z</time>
      </trkpt>
      <trkpt lat="44.23008" lon="4.82743">
        <ele>245.6</ele>
        <time>2024-03-12T11:36:11Z</time>
      </trkpt>
      <trkpt lat="44.23006" lon="4.82742">
        <ele>245.8</ele>
        <time>2024-03-12T11:36:12Z</time>
      </trkpt>
      <trkpt lat="44.23003" lon="4.82741">
        <ele>245.9</ele>
        <time>2024-03-12T11:36:13Z</time>
      </trkpt>
      <trkpt lat="44.23" lon="4.8274">
        <ele>246</ele>
        <time>2024-03-12T11:36:14Z</time>
      </trkpt>
      <trkpt lat="44.22998" lon="4.82739">
        <ele>246.2</ele>
        <time>2024-03-12T11:36:15Z</time>
      </trkpt>
      <trkpt lat="44.22995" lon="4.82737">
        <ele>246.3</ele>
        <time>2024-03-12T11:36:16Z</time>
      </trkpt>
      <trkpt lat="44.22993" lon="4.82735">
        <ele>246.4</ele>
        <time>2024-03-12T11:36:17Z</time>
      </trkpt>
      <trkpt lat="44.2299" lon="4.82734">
        <ele>246.6</ele>
        <time>2024-03-12T11:36:18Z</time>
      </trkpt>
      <trkpt lat="44.22988" lon="4.82732">
        <ele>246.7</ele>
        <time>2024-03-12T11:36:19Z</time>
      </trkpt>
      <trkpt lat="44.22985" lon="4.8273">
        <ele>246.8</ele>
        <time>2024-03-12T11:36:20Z</time>
      </trkpt>
      <trkpt lat="44.22982" lon="4.82729">
        <ele>247</ele>
        <time>2024-03-12T11:36:21Z</time>
      </trkpt>
      <trkpt lat="44.2298" lon="4.82727">
        <ele>247.1</ele>
        <time>2024-03-12T11:36:22Z</time>
      </trkpt>
      <trkpt lat="44.22977" lon="4.82725">
        <ele>247.2</ele>
        <time>2024-03-12T11:36:23Z</time>
      </trkpt>
      <trkpt lat="44.22974" lon="4.82724">
        <ele>247.4</ele>
        <time>2024-03-12T11:36:24Z</time>
      </trkpt>
      <trkpt lat="44.22971" lon="4.82722">
        <ele>247.5</ele>
        <time>2024-03-12T11:36:25Z</time>
      </trkpt>
      <trkpt lat="44.22969" lon="4.8272">
        <ele>247.6</ele>
        <time>2024-03-12T11:36:26Z</time>
      </trkpt>
      <trkpt lat="44.22966" lon="4.82718">
        <ele>247.7</ele>
        <time>2024-03-12T11:36:27Z</time>
      </trkpt>
      <trkpt lat="44.22963" lon="4.82716">
        <ele>247.9</ele>
        <time>2024-03-12T11:36:28Z</time>
      </trkpt>
      <trkpt lat="44.2296" lon="4.82714">
        <ele>248</ele>
        <time>2024-03-12T11:36:29Z</time>
      </trkpt>
      <trkpt lat="44.22957" lon="4.82712">
        <ele>248.1</ele>
        <time>2024-03-12T11:36:30Z</time>
      </trkpt>
      <trkpt lat="44.22954" lon="4.8271">
        <ele>248.2</ele>
        <time>2024-03-12T11:36:31Z</time>
      </trkpt>
      <trkpt lat="44.22951" lon="4.82709">
        <ele>248.3</ele>
        <time>2024-03-12T11:36:32Z</time>
      </trkpt>
      <trkpt lat="44.22948" lon="4.82708">
        <ele>248.3</ele>
        <time>2024-03-12T11:36:33Z</time>
      </trkpt>
      <trkpt lat="44.22945" lon="4.82707">
        <ele>248.4</ele>
        <time>2024-03-12T11:36:34Z</time>
      </trkpt>
      <trkpt lat="44.22941" lon="4.82706">
        <ele>248.5</ele>
        <time>2024-03-12T11:36:35Z</time>
      </trkpt>
      <trkpt lat="44.22939" lon="4.82705">
        <ele>248.5</ele>
        <time>2024-03-12T11:36:36Z</time>
      </trkpt>
      <trkpt lat="44.22936" lon="4.82704">
        <ele>248.5</ele>
        <time>2024-03-12T11:36:37Z</time>
      </trkpt>
      <trkpt lat="44.22933" lon="4.82703">
        <ele>248.6</ele>
        <time>2024-03-12T11:36:38Z</time>
      </trkpt>
      <trkpt lat="44.2293" lon="4.82702">
        <ele>248.6</ele>
        <time>2024-03-12T11:36:39Z</time>
      </trkpt>
      <trkpt lat="44.22927" lon="4.82702">
        <ele>248.6</ele>
        <time>2024-03-12T11:36:40Z</time>
      </trkpt>
      <trkpt lat="44.22924" lon="4.82701">
        <ele>248.6</ele>
        <time>2024-03-12T11:36:41Z</time>
      </trkpt>
      <trkpt lat="44.22921" lon="4.82701">
        <ele>248.6</ele>
        <time>2024-03-12T11:36:42Z</time>
      </trkpt>
      <trkpt lat="44.22918" lon="4.827">
        <ele>248.6</ele>
        <time>2024-03-12T11:36:43Z</time>
      </trkpt>
      <trkpt lat="44.22915" lon="4.82699">
        <ele>248.6</ele>
        <time>2024-03-12T11:36:44Z</time>
      </trkpt>
      <trkpt lat="44.22912" lon="4.82698">
        <ele>248.5</ele>
        <time>2024-03-12T11:36:45Z</time>
      </trkpt>
      <trkpt lat="44.22909" lon="4.82697">
        <ele>248.5</ele>
        <time>2024-03-12T11:36:46Z</time>
      </trkpt>
      <trkpt lat="44.22906" lon="4.82696">
        <ele>248.4</ele>
        <time>2024-03-12T11:36:47Z</time>
      </trkpt>
      <trkpt lat="44.22903" lon="4.82695">
        <ele>248.4</ele>
        <time>2024-03-12T11:36:48Z</time>
      </trkpt>
      <trkpt lat="44.229" lon="4.82694">
        <ele>248.3</ele>
        <time>2024-03-12T11:36:49Z</time>
      </trkpt>
      <trkpt lat="44.22897" lon="4.82693">
        <ele>248.2</ele>
        <time>2024-03-12T11:36:50Z</time>
      </trkpt>
      <trkpt lat="44.22894" lon="4.82693">
        <ele>248.1</ele>
        <time>2024-03-12T11:36:51Z</time>
      </trkpt>
      <trkpt lat="44.22891" lon="4.82692">
        <ele>248</ele>
        <time>2024-03-12T11:36:52Z</time>
      </trkpt>
      <trkpt lat="44.22887" lon="4.82691">
        <ele>248</ele>
        <time>2024-03-12T11:36:53Z</time>
      </trkpt>
      <trkpt lat="44.22884" lon="4.82691">
        <ele>247.9</ele>
        <time>2024-03-12T11:36:54Z</time>
      </trkpt>
      <trkpt lat="44.22881" lon="4.8269">
        <ele>247.8</ele>
        <time>2024-03-12T11:36:55Z</time>
      </trkpt>
      <trkpt lat="44.22878" lon="4.8269">
        <ele>247.7</ele>
        <time>2024-03-12T11:36:56Z</time>
      </trkpt>
      <trkpt lat="44.22875" lon="4.8269">
        <ele>247.6</ele>
        <time>2024-03-12T11:36:57Z</time>
      </trkpt>
      <trkpt lat="44.22871" lon="4.8269">
        <ele>247.5</ele>
        <time>2024-03-12T11:36:58Z</time>
      </trkpt>
      <trkpt lat="44.22868" lon="4.8269">
        <ele>247.4</ele>
        <time>2024-03-12T11:36:59Z</time>
      </trkpt>
      <trkpt lat="44.22865" lon="4.8269">
        <ele>247.3</ele>
        <time>2024-03-12T11:37:00Z</time>
      </trkpt>
      <trkpt lat="44.22861" lon="4.82689">
        <ele>247.3</ele>
        <time>2024-03-12T11:37:01Z</time>
      </trkpt>
      <trkpt lat="44.22858" lon="4.82688">
        <ele>247.2</ele>
        <time>2024-03-12T11:37:02Z</time>
      </trkpt>
      <trkpt lat="44.22855" lon="4.82686">
        <ele>247.1</ele>
        <time>2024-03-12T11:37:03Z</time>
      </trkpt>
      <trkpt lat="44.22852" lon="4.82684">
        <ele>247.1</ele>
        <time>2024-03-12T11:37:04Z</time>
      </trkpt>
      <trkpt lat="44.22849" lon="4.82681">
        <ele>247.1</ele>
        <time>2024-03-12T11:37:05Z</time>
      </trkpt>
      <trkpt lat="44.22847" lon="4.82678">
        <ele>247.1</ele>
        <time>2024-03-12T11:37:06Z</time>
      </trkpt>
      <trkpt lat="44.22844" lon="4.82675">
        <ele>247</ele>
        <time>2024-03-12T11:37:07Z</time>
      </trkpt>
      <trkpt lat="44.22842" lon="4.82672">
        <ele>247</ele>
        <time>2024-03-12T11:37:08Z</time>
      </trkpt>
      <trkpt lat="44.2284" lon="4.82668">
        <ele>247</ele>
        <time>2024-03-12T11:37:09Z</time>
      </trkpt>
      <trkpt lat="44.22837" lon="4.82665">
        <ele>247</ele>
        <time>2024-03-12T11:37:10Z</time>
      </trkpt>
      <trkpt lat="44.22835" lon="4.82661">
        <ele>247</ele>
        <time>2024-03-12T11:37:11Z</time>
      </trkpt>
      <trkpt lat="44.22833" lon="4.82658">
        <ele>247</ele>
        <time>2024-03-12T11:37:12Z</time>
      </trkpt>
      <trkpt lat="44.22831" lon="4.82654">
        <ele>246.9</ele>
        <time>2024-03-12T11:37:13Z</time>
      </trkpt>
      <trkpt lat="44.22829" lon="4.82651">
        <ele>246.9</ele>
        <time>2024-03-12T11:37:14Z</time>
      </trkpt>
      <trkpt lat="44.22827" lon="4.82647">
        <ele>246.9</ele>
        <time>2024-03-12T11:37:15Z</time>
      </trkpt>
      <trkpt lat="44.22824" lon="4.82643">
        <ele>246.9</ele>
        <time>2024-03-12T11:37:16Z</time>
      </trkpt>
      <trkpt lat="44.22823" lon="4.82639">
        <ele>246.9</ele>
        <time>2024-03-12T11:37:17Z</time>
      </trkpt>
      <trkpt lat="44.22821" lon="4.82636">
        <ele>246.9</ele>
        <time>2024-03-12T11:37:18Z</time>
      </trkpt>
      <trkpt lat="44.2282" lon="4.82632">
        <ele>246.9</ele>
        <time>2024-03-12T11:37:19Z</time>
      </trkpt>
      <trkpt lat="44.22819" lon="4.82628">
        <ele>246.9</ele>
        <time>2024-03-12T11:37:20Z</time>
      </trkpt>
      <trkpt lat="44.2282" lon="4.82624">
        <ele>246.9</ele>
        <time>2024-03-12T11:37:21Z</time>
      </trkpt>
      <trkpt lat="44.2282" lon="4.82621">
        <ele>247</ele>
        <time>2024-03-12T11:37:22Z</time>
      </trkpt>
      <trkpt lat="44.22822" lon="4.82618">
        <ele>247</ele>
        <time>2024-03-12T11:37:23Z</time>
      </trkpt>
      <trkpt lat="44.22824" lon="4.82615">
        <ele>247.1</ele>
        <time>2024-03-12T11:37:24Z</time>
      </trkpt>
      <trkpt lat="44.22827" lon="4.82612">
        <ele>247.2</ele>
        <time>2024-03-12T11:37:25Z</time>
      </trkpt>
      <trkpt lat="44.2283" lon="4.8261">
        <ele>247.3</ele>
        <time>2024-03-12T11:37:26Z</time>
      </trkpt>
      <trkpt lat="44.22833" lon="4.82608">
        <ele>247.4</ele>
        <time>2024-03-12T11:37:27Z</time>
      </trkpt>
      <trkpt lat="44.22836" lon="4.82607">
        <ele>247.5</ele>
        <time>2024-03-12T11:37:28Z</time>
      </trkpt>
      <trkpt lat="44.22839" lon="4.82605">
        <ele>247.6</ele>
        <time>2024-03-12T11:37:29Z</time>
      </trkpt>
      <trkpt lat="44.22842" lon="4.82603">
        <ele>247.7</ele>
        <time>2024-03-12T11:37:30Z</time>
      </trkpt>
      <trkpt lat="44.22845" lon="4.82602">
        <ele>247.8</ele>
        <time>2024-03-12T11:37:31Z</time>
      </trkpt>
      <trkpt lat="44.22848" lon="4.82599">
        <ele>248</ele>
        <time>2024-03-12T11:37:32Z</time>
      </trkpt>
      <trkpt lat="44.22851" lon="4.82597">
        <ele>248.1</ele>
        <time>2024-03-12T11:37:33Z</time>
      </trkpt>
      <trkpt lat="44.22853" lon="4.82595">
        <ele>248.2</ele>
        <time>2024-03-12T11:37:34Z</time>
      </trkpt>
      <trkpt lat="44.22856" lon="4.82592">
        <ele>248.4</ele>
        <time>2024-03-12T11:37:35Z</time>
      </trkpt>
      <trkpt lat="44.22859" lon="4.8259">
        <ele>248.5</ele>
        <time>2024-03-12T11:37:36Z</time>
      </trkpt>
      <trkpt lat="44.22861" lon="4.82588">
        <ele>248.7</ele>
        <time>2024-03-12T11:37:37Z</time>
      </trkpt>
      <trkpt lat="44.22864" lon="4.82585">
        <ele>248.8</ele>
        <time>2024-03-12T11:37:38Z</time>
      </trkpt>
      <trkpt lat="44.22867" lon="4.82583">
        <ele>249</ele>
        <time>2024-03-12T11:37:39Z</time>
      </trkpt>
      <trkpt lat="44.22869" lon="4.82581">
        <ele>249.1</ele>
        <time>2024-03-12T11:37:40Z</time>
      </trkpt>
      <trkpt lat="44.22873" lon="4.82578">
        <ele>249.3</ele>
        <time>2024-03-12T11:37:41Z</time>
      </trkpt>
      <trkpt lat="44.22875" lon="4.82577">
        <ele>249.5</ele>
        <time>2024-03-12T11:37:42Z</time>
      </trkpt>
      <trkpt lat="44.22878" lon="4.82575">
        <ele>249.6</ele>
        <time>2024-03-12T11:37:43Z</time>
      </trkpt>
      <trkpt lat="44.22881" lon="4.82574">
        <ele>249.8</ele>
        <time>2024-03-12T11:37:44Z</time>
      </trkpt>
      <trkpt lat="44.22883" lon="4.82572">
        <ele>250</ele>
        <time>2024-03-12T11:37:45Z</time>
      </trkpt>
      <trkpt lat="44.22886" lon="4.82571">
        <ele>250.1</ele>
        <time>2024-03-12T11:37:46Z</time>
      </trkpt>
      <trkpt lat="44.22889" lon="4.82569">
        <ele>250.3</ele>
        <time>2024-03-12T11:37:47Z</time>
      </trkpt>
      <trkpt lat="44.22891" lon="4.82568">
        <ele>250.5</ele>
        <time>2024-03-12T11:37:48Z</time>
      </trkpt>
      <trkpt lat="44.22893" lon="4.82565">
        <ele>250.6</ele>
        <time>2024-03-12T11:37:49Z</time>
      </trkpt>
      <trkpt lat="44.22896" lon="4.82563">
        <ele>250.8</ele>
        <time>2024-03-12T11:37:50Z</time>
      </trkpt>
      <trkpt lat="44.22898" lon="4.82561">
        <ele>251</ele>
        <time>2024-03-12T11:37:51Z</time>
      </trkpt>
      <trkpt lat="44.22901" lon="4.82559">
        <ele>251.1</ele>
        <time>2024-03-12T11:37:52Z</time>
      </trkpt>
      <trkpt lat="44.22903" lon="4.82556">
        <ele>251.3</ele>
        <time>2024-03-12T11:37:53Z</time>
      </trkpt>
      <trkpt lat="44.22906" lon="4.82555">
        <ele>251.5</ele>
        <time>2024-03-12T11:37:54Z</time>
      </trkpt>
      <trkpt lat="44.22909" lon="4.82553">
        <ele>251.7</ele>
        <time>2024-03-12T11:37:55Z</time>
      </trkpt>
      <trkpt lat="44.22911" lon="4.82551">
        <ele>251.8</ele>
        <time>2024-03-12T11:37:56Z</time>
      </trkpt>
      <trkpt lat="44.22914" lon="4.82549">
        <ele>252</ele>
        <time>2024-03-12T11:37:57Z</time>
      </trkpt>
      <trkpt lat="44.22917" lon="4.82547">
        <ele>252.2</ele>
        <time>2024-03-12T11:37:58Z</time>
      </trkpt>
      <trkpt lat="44.22919" lon="4.82544">
        <ele>252.4</ele>
        <time>2024-03-12T11:37:59Z</time>
      </trkpt>
      <trkpt lat="44.22921" lon="4.82542">
        <ele>252.6</ele>
        <time>2024-03-12T11:38:00Z</time>
      </trkpt>
      <trkpt lat="44.22923" lon="4.8254">
        <ele>252.8</ele>
        <time>2024-03-12T11:38:01Z</time>
      </trkpt>
      <trkpt lat="44.22925" lon="4.82538">
        <ele>252.9</ele>
        <time>2024-03-12T11:38:02Z</time>
      </trkpt>
      <trkpt lat="44.22927" lon="4.82536">
        <ele>253.1</ele>
        <time>2024-03-12T11:38:03Z</time>
      </trkpt>
      <trkpt lat="44.2293" lon="4.82534">
        <ele>253.3</ele>
        <time>2024-03-12T11:38:04Z</time>
      </trkpt>
      <trkpt lat="44.22932" lon="4.82532">
        <ele>253.4</ele>
        <time>2024-03-12T11:38:05Z</time>
      </trkpt>
      <trkpt lat="44.22935" lon="4.82531">
        <ele>253.6</ele>
        <time>2024-03-12T11:38:06Z</time>
      </trkpt>
      <trkpt lat="44.22937" lon="4.8253">
        <ele>253.8</ele>
        <time>2024-03-12T11:38:07Z</time>
      </trkpt>
      <trkpt lat="44.2294" lon="4.82529">
        <ele>253.9</ele>
        <time>2024-03-12T11:38:08Z</time>
      </trkpt>
      <trkpt lat="44.22943" lon="4.82527">
        <ele>254.1</ele>
        <time>2024-03-12T11:38:09Z</time>
      </trkpt>
      <trkpt lat="44.22945" lon="4.82526">
        <ele>254.3</ele>
        <time>2024-03-12T11:38:10Z</time>
      </trkpt>
      <trkpt lat="44.22949" lon="4.82525">
        <ele>254.5</ele>
        <time>2024-03-12T11:38:11Z</time>
      </trkpt>
      <trkpt lat="44.22951" lon="4.82523">
        <ele>254.6</ele>
        <time>2024-03-12T11:38:12Z</time>
      </trkpt>
      <trkpt lat="44.22954" lon="4.82522">
        <ele>254.8</ele>
        <time>2024-03-12T11:38:13Z</time>
      </trkpt>
      <trkpt lat="44.22957" lon="4.8252">
        <ele>255</ele>
        <time>2024-03-12T11:38:14Z</time>
      </trkpt>
      <trkpt lat="44.22959" lon="4.82519">
        <ele>255.1</ele>
        <time>2024-03-12T11:38:15Z</time>
      </trkpt>
      <trkpt lat="44.22962" lon="4.82517">
        <ele>255.3</ele>
        <time>2024-03-12T11:38:16Z</time>
      </trkpt>
      <trkpt lat="44.22965" lon="4.82515">
        <ele>255.4</ele>
        <time>2024-03-12T11:38:17Z</time>
      </trkpt>
      <trkpt lat="44.22968" lon="4.82514">
        <ele>255.6</ele>
        <time>2024-03-12T11:38:18Z</time>
      </trkpt>
      <trkpt lat="44.22971" lon="4.82512">
        <ele>255.7</ele>
        <time>2024-03-12T11:38:19Z</time>
      </trkpt>
      <trkpt lat="44.22973" lon="4.8251">
        <ele>255.8</ele>
        <time>2024-03-12T11:38:20Z</time>
      </trkpt>
      <trkpt lat="44.22976" lon="4.82508">
        <ele>255.9</ele>
        <time>2024-03-12T11:38:21Z</time>
      </trkpt>
      <trkpt lat="44.22979" lon="4.82506">
        <ele>256</ele>
        <time>2024-03-12T11:38:22Z</time>
      </trkpt>
      <trkpt lat="44.22981" lon="4.82504">
        <ele>256.1</ele>
        <time>2024-03-12T11:38:23Z</time>
      </trkpt>
      <trkpt lat="44.22984" lon="4.82501">
        <ele>256.2</ele>
        <time>2024-03-12T11:38:24Z</time>
      </trkpt>
      <trkpt lat="44.22986" lon="4.82499">
        <ele>256.3</ele>
        <time>2024-03-12T11:38:25Z</time>
      </trkpt>
      <trkpt lat="44.22989" lon="4.82497">
        <ele>256.4</ele>
        <time>2024-03-12T11:38:26Z</time>
      </trkpt>
      <trkpt lat="44.22992" lon="4.82496">
        <ele>256.5</ele>
        <time>2024-03-12T11:38:27Z</time>
      </trkpt>
      <trkpt lat="44.22995" lon="4.82494">
        <ele>256.5</ele>
        <time>2024-03-12T11:38:28Z</time>
      </trkpt>
      <trkpt lat="44.22998" lon="4.82492">
        <ele>256.6</ele>
        <time>2024-03-12T11:38:29Z</time>
      </trkpt>
      <trkpt lat="44.23001" lon="4.82491">
        <ele>256.7</ele>
        <time>2024-03-12T11:38:30Z</time>
      </trkpt>
      <trkpt lat="44.23004" lon="4.82489">
        <ele>256.8</ele>
        <time>2024-03-12T11:38:31Z</time>
      </trkpt>
      <trkpt lat="44.23007" lon="4.82487">
        <ele>256.8</ele>
        <time>2024-03-12T11:38:32Z</time>
      </trkpt>
      <trkpt lat="44.2301" lon="4.82485">
        <ele>256.9</ele>
        <time>2024-03-12T11:38:33Z</time>
      </trkpt>
      <trkpt lat="44.23013" lon="4.82483">
        <ele>257</ele>
        <time>2024-03-12T11:38:34Z</time>
      </trkpt>
      <trkpt lat="44.23015" lon="4.82481">
        <ele>257.1</ele>
        <time>2024-03-12T11:38:35Z</time>
      </trkpt>
      <trkpt lat="44.23018" lon="4.82478">
        <ele>257.1</ele>
        <time>2024-03-12T11:38:36Z</time>
      </trkpt>
      <trkpt lat="44.23021" lon="4.82476">
        <ele>257.2</ele>
        <time>2024-03-12T11:38:37Z</time>
      </trkpt>
      <trkpt lat="44.23023" lon="4.82473">
        <ele>257.3</ele>
        <time>2024-03-12T11:38:38Z</time>
      </trkpt>
      <trkpt lat="44.23026" lon="4.82471">
        <ele>257.3</ele>
        <time>2024-03-12T11:38:39Z</time>
      </trkpt>
      <trkpt lat="44.23029" lon="4.82469">
        <ele>257.3</ele>
        <time>2024-03-12T11:38:40Z</time>
      </trkpt>
      <trkpt lat="44.23032" lon="4.82467">
        <ele>257.4</ele>
        <time>2024-03-12T11:38:41Z</time>
      </trkpt>
      <trkpt lat="44.23034" lon="4.82466">
        <ele>257.4</ele>
        <time>2024-03-12T11:38:42Z</time>
      </trkpt>
      <trkpt lat="44.23037" lon="4.82465">
        <ele>257.4</ele>
        <time>2024-03-12T11:38:43Z</time>
      </trkpt>
      <trkpt lat="44.2304" lon="4.82463">
        <ele>257.4</ele>
        <time>2024-03-12T11:38:44Z</time>
      </trkpt>
      <trkpt lat="44.23043" lon="4.82462">
        <ele>257.4</ele>
        <time>2024-03-12T11:38:45Z</time>
      </trkpt>
      <trkpt lat="44.23046" lon="4.8246">
        <ele>257.4</ele>
        <time>2024-03-12T11:38:46Z</time>
      </trkpt>
      <trkpt lat="44.23048" lon="4.82458">
        <ele>257.3</ele>
        <time>2024-03-12T11:38:47Z</time>
      </trkpt>
      <trkpt lat="44.23051" lon="4.82455">
        <ele>257.3</ele>
        <time>2024-03-12T11:38:48Z</time>
      </trkpt>
      <trkpt lat="44.23054" lon="4.82453">
        <ele>257.3</ele>
        <time>2024-03-12T11:38:49Z</time>
      </trkpt>
      <trkpt lat="44.23057" lon="4.82451">
        <ele>257.2</ele>
        <time>2024-03-12T11:38:50Z</time>
      </trkpt>
      <trkpt lat="44.2306" lon="4.82449">
        <ele>257.1</ele>
        <time>2024-03-12T11:38:51Z</time>
      </trkpt>
      <trkpt lat="44.23062" lon="4.82447">
        <ele>257.1</ele>
        <time>2024-03-12T11:38:52Z</time>
      </trkpt>
      <trkpt lat="44.23066" lon="4.82445">
        <ele>257</ele>
        <time>2024-03-12T11:38:53Z</time>
      </trkpt>
      <trkpt lat="44.23069" lon="4.82442">
        <ele>256.9</ele>
        <time>2024-03-12T11:38:54Z</time>
      </trkpt>
      <trkpt lat="44.23072" lon="4.8244">
        <ele>256.8</ele>
        <time>2024-03-12T11:38:55Z</time>
      </trkpt>
      <trkpt lat="44.23075" lon="4.82438">
        <ele>256.8</ele>
        <time>2024-03-12T11:38:56Z</time>
      </trkpt>
      <trkpt lat="44.23078" lon="4.82436">
        <ele>256.7</ele>
        <time>2024-03-12T11:38:57Z</time>
      </trkpt>
      <trkpt lat="44.2308" lon="4.82434">
        <ele>256.7</ele>
        <time>2024-03-12T11:38:58Z</time>
      </trkpt>
      <trkpt lat="44.23084" lon="4.82431">
        <ele>256.6</ele>
        <time>2024-03-12T11:38:59Z</time>
      </trkpt>
      <trkpt lat="44.23086" lon="4.82429">
        <ele>256.6</ele>
        <time>2024-03-12T11:39:00Z</time>
      </trkpt>
      <trkpt lat="44.23089" lon="4.82427">
        <ele>256.5</ele>
        <time>2024-03-12T11:39:01Z</time>
      </trkpt>
      <trkpt lat="44.23092" lon="4.82425">
        <ele>256.5</ele>
        <time>2024-03-12T11:39:02Z</time>
      </trkpt>
      <trkpt lat="44.23095" lon="4.82423">
        <ele>256.4</ele>
        <time>2024-03-12T11:39:03Z</time>
      </trkpt>
      <trkpt lat="44.23098" lon="4.82421">
        <ele>256.4</ele>
        <time>2024-03-12T11:39:04Z</time>
      </trkpt>
      <trkpt lat="44.23101" lon="4.82419">
        <ele>256.3</ele>
        <time>2024-03-12T11:39:05Z</time>
      </trkpt>
      <trkpt lat="44.23104" lon="4.82418">
        <ele>256.3</ele>
        <time>2024-03-12T11:39:06Z</time>
      </trkpt>
      <trkpt lat="44.23108" lon="4.82417">
        <ele>256.3</ele>
        <time>2024-03-12T11:39:07Z</time>
      </trkpt>
      <trkpt lat="44.23111" lon="4.82415">
        <ele>256.3</ele>
        <time>2024-03-12T11:39:08Z</time>
      </trkpt>
      <trkpt lat="44.23114" lon="4.82414">
        <ele>256.2</ele>
        <time>2024-03-12T11:39:09Z</time>
      </trkpt>
      <trkpt lat="44.23118" lon="4.82412">
        <ele>256.2</ele>
        <time>2024-03-12T11:39:10Z</time>
      </trkpt>
      <trkpt lat="44.23121" lon="4.8241">
        <ele>256.2</ele>
        <time>2024-03-12T11:39:11Z</time>
      </trkpt>
      <trkpt lat="44.23124" lon="4.82408">
        <ele>256.2</ele>
        <time>2024-03-12T11:39:12Z</time>
      </trkpt>
      <trkpt lat="44.23127" lon="4.82406">
        <ele>256.2</ele>
        <time>2024-03-12T11:39:13Z</time>
      </trkpt>
      <trkpt lat="44.2313" lon="4.82404">
        <ele>256.1</ele>
        <time>2024-03-12T11:39:14Z</time>
      </trkpt>
      <trkpt lat="44.23133" lon="4.82402">
        <ele>256.1</ele>
        <time>2024-03-12T11:39:15Z</time>
      </trkpt>
      <trkpt lat="44.23136" lon="4.82401">
        <ele>256.1</ele>
        <time>2024-03-12T11:39:16Z</time>
      </trkpt>
      <trkpt lat="44.23139" lon="4.82399">
        <ele>256.1</ele>
        <time>2024-03-12T11:39:17Z</time>
      </trkpt>
      <trkpt lat="44.23141" lon="4.82396">
        <ele>256.1</ele>
        <time>2024-03-12T11:39:18Z</time>
      </trkpt>
      <trkpt lat="44.23145" lon="4.82394">
        <ele>256</ele>
        <time>2024-03-12T11:39:19Z</time>
      </trkpt>
      <trkpt lat="44.23147" lon="4.82392">
        <ele>256</ele>
        <time>2024-03-12T11:39:20Z</time>
      </trkpt>
      <trkpt lat="44.2315" lon="4.82389">
        <ele>256</ele>
        <time>2024-03-12T11:39:21Z</time>
      </trkpt>
      <trkpt lat="44.23153" lon="4.82387">
        <ele>255.9</ele>
        <time>2024-03-12T11:39:22Z</time>
      </trkpt>
      <trkpt lat="44.23155" lon="4.82384">
        <ele>255.9</ele>
        <time>2024-03-12T11:39:23Z</time>
      </trkpt>
      <trkpt lat="44.23158" lon="4.82382">
        <ele>255.8</ele>
        <time>2024-03-12T11:39:24Z</time>
      </trkpt>
      <trkpt lat="44.23161" lon="4.8238">
        <ele>255.8</ele>
        <time>2024-03-12T11:39:25Z</time>
      </trkpt>
      <trkpt lat="44.23164" lon="4.82378">
        <ele>255.7</ele>
        <time>2024-03-12T11:39:26Z</time>
      </trkpt>
      <trkpt lat="44.23167" lon="4.82376">
        <ele>255.7</ele>
        <time>2024-03-12T11:39:27Z</time>
      </trkpt>
      <trkpt lat="44.2317" lon="4.82374">
        <ele>255.6</ele>
        <time>2024-03-12T11:39:28Z</time>
      </trkpt>
      <trkpt lat="44.23173" lon="4.82372">
        <ele>255.5</ele>
        <time>2024-03-12T11:39:29Z</time>
      </trkpt>
      <trkpt lat="44.23176" lon="4.8237">
        <ele>255.4</ele>
        <time>2024-03-12T11:39:30Z</time>
      </trkpt>
      <trkpt lat="44.23179" lon="4.82368">
        <ele>255.3</ele>
        <time>2024-03-12T11:39:31Z</time>
      </trkpt>
      <trkpt lat="44.23182" lon="4.82366">
        <ele>255.2</ele>
        <time>2024-03-12T11:39:32Z</time>
      </trkpt>
      <trkpt lat="44.23185" lon="4.82363">
        <ele>255.1</ele>
        <time>2024-03-12T11:39:33Z</time>
      </trkpt>
      <trkpt lat="44.23188" lon="4.8236">
        <ele>255</ele>
        <time>2024-03-12T11:39:34Z</time>
      </trkpt>
      <trkpt lat="44.2319" lon="4.82358">
        <ele>254.9</ele>
        <time>2024-03-12T11:39:35Z</time>
      </trkpt>
      <trkpt lat="44.23193" lon="4.82355">
        <ele>254.8</ele>
        <time>2024-03-12T11:39:36Z</time>
      </trkpt>
      <trkpt lat="44.23196" lon="4.82353">
        <ele>254.7</ele>
        <time>2024-03-12T11:39:37Z</time>
      </trkpt>
      <trkpt lat="44.23199" lon="4.82351">
        <ele>254.6</ele>
        <time>2024-03-12T11:39:38Z</time>
      </trkpt>
      <trkpt lat="44.23202" lon="4.82349">
        <ele>254.5</ele>
        <time>2024-03-12T11:39:39Z</time>
      </trkpt>
      <trkpt lat="44.23205" lon="4.82347">
        <ele>254.4</ele>
        <time>2024-03-12T11:39:40Z</time>
      </trkpt>
      <trkpt lat="44.23209" lon="4.82345">
        <ele>254.3</ele>
        <time>2024-03-12T11:39:41Z</time>
      </trkpt>
      <trkpt lat="44.23212" lon="4.82343">
        <ele>254.2</ele>
        <time>2024-03-12T11:39:42Z</time>
      </trkpt>
      <trkpt lat="44.23215" lon="4.82341">
        <ele>254.1</ele>
        <time>2024-03-12T11:39:43Z</time>
      </trkpt>
      <trkpt lat="44.23218" lon="4.82338">
        <ele>254</ele>
        <time>2024-03-12T11:39:44Z</time>
      </trkpt>
      <trkpt lat="44.23221" lon="4.82336">
        <ele>253.8</ele>
        <time>2024-03-12T11:39:45Z</time>
      </trkpt>
      <trkpt lat="44.23224" lon="4.82334">
        <ele>253.7</ele>
        <time>2024-03-12T11:39:46Z</time>
      </trkpt>
      <trkpt lat="44.23228" lon="4.82332">
        <ele>253.6</ele>
        <time>2024-03-12T11:39:47Z</time>
      </trkpt>
      <trkpt lat="44.23231" lon="4.82331">
        <ele>253.5</ele>
        <time>2024-03-12T11:39:48Z</time>
      </trkpt>
      <trkpt lat="44.23234" lon="4.82329">
        <ele>253.3</ele>
        <time>2024-03-12T11:39:49Z</time>
      </trkpt>
      <trkpt lat="44.23237" lon="4.82328">
        <ele>253.2</ele>
        <time>2024-03-12T11:39:50Z</time>
      </trkpt>
      <trkpt lat="44.23241" lon="4.82327">
        <ele>253</ele>
        <time>2024-03-12T11:39:51Z</time>
      </trkpt>
      <trkpt lat="44.23244" lon="4.82325">
        <ele>252.8</ele>
        <time>2024-03-12T11:39:52Z</time>
      </trkpt>
      <trkpt lat="44.23247" lon="4.82325">
        <ele>252.6</ele>
        <time>2024-03-12T11:39:53Z</time>
      </trkpt>
      <trkpt lat="44.23251" lon="4.82324">
        <ele>252.4</ele>
        <time>2024-03-12T11:39:54Z</time>
      </trkpt>
      <trkpt lat="44.23254" lon="4.82323">
        <ele>252.2</ele>
        <time>2024-03-12T11:39:55Z</time>
      </trkpt>
      <trkpt lat="44.23258" lon="4.82323">
        <ele>252</ele>
        <time>2024-03-12T11:39:56Z</time>
      </trkpt>
      <trkpt lat="44.23261" lon="4.82322">
        <ele>251.8</ele>
        <time>2024-03-12T11:39:57Z</time>
      </trkpt>
      <trkpt lat="44.23264" lon="4.82322">
        <ele>251.6</ele>
        <time>2024-03-12T11:39:58Z</time>
      </trkpt>
      <trkpt lat="44.23268" lon="4.82322">
        <ele>251.4</ele>
        <time>2024-03-12T11:39:59Z</time>
      </trkpt>
      <trkpt lat="44.23271" lon="4.82322">
        <ele>251.2</ele>
        <time>2024-03-12T11:40:00Z</time>
      </trkpt>
      <trkpt lat="44.23275" lon="4.82322">
        <ele>251</ele>
        <time>2024-03-12T11:40:01Z</time>
      </trkpt>
      <trkpt lat="44.23278" lon="4.82321">
        <ele>250.8</ele>
        <time>2024-03-12T11:40:02Z</time>
      </trkpt>
      <trkpt lat="44.23281" lon="4.82321">
        <ele>250.7</ele>
        <time>2024-03-12T11:40:03Z</time>
      </trkpt>
      <trkpt lat="44.23285" lon="4.8232">
        <ele>250.5</ele>
        <time>2024-03-12T11:40:04Z</time>
      </trkpt>
      <trkpt lat="44.23288" lon="4.8232">
        <ele>250.3</ele>
        <time>2024-03-12T11:40:05Z</time>
      </trkpt>
      <trkpt lat="44.23292" lon="4.82319">
        <ele>250.1</ele>
        <time>2024-03-12T11:40:06Z</time>
      </trkpt>
      <trkpt lat="44.23295" lon="4.82319">
        <ele>250</ele>
        <time>2024-03-12T11:40:07Z</time>
      </trkpt>
      <trkpt lat="44.23299" lon="4.82319">
        <ele>249.8</ele>
        <time>2024-03-12T11:40:08Z</time>
      </trkpt>
      <trkpt lat="44.23302" lon="4.82319">
        <ele>249.6</ele>
        <time>2024-03-12T11:40:09Z</time>
      </trkpt>
      <trkpt lat="44.23306" lon="4.82319">
        <ele>249.3</ele>
        <time>2024-03-12T11:40:10Z</time>
      </trkpt>
      <trkpt lat="44.2331" lon="4.82318">
        <ele>249.1</ele>
        <time>2024-03-12T11:40:11Z</time>
      </trkpt>
      <trkpt lat="44.23313" lon="4.82318">
        <ele>248.9</ele>
        <time>2024-03-12T11:40:12Z</time>
      </trkpt>
      <trkpt lat="44.23317" lon="4.82317">
        <ele>248.7</ele>
        <time>2024-03-12T11:40:13Z</time>
      </trkpt>
      <trkpt lat="44.2332" lon="4.82317">
        <ele>248.5</ele>
        <time>2024-03-12T11:40:14Z</time>
      </trkpt>
      <trkpt lat="44.23324" lon="4.82316">
        <ele>248.2</ele>
        <time>2024-03-12T11:40:15Z</time>
      </trkpt>
      <trkpt lat="44.23328" lon="4.82316">
        <ele>248</ele>
        <time>2024-03-12T11:40:16Z</time>
      </trkpt>
      <trkpt lat="44.23332" lon="4.82316">
        <ele>247.8</ele>
        <time>2024-03-12T11:40:17Z</time>
      </trkpt>
      <trkpt lat="44.23335" lon="4.82315">
        <ele>247.5</ele>
        <time>2024-03-12T11:40:18Z</time>
      </trkpt>
      <trkpt lat="44.23339" lon="4.82315">
        <ele>247.3</ele>
        <time>2024-03-12T11:40:19Z</time>
      </trkpt>
      <trkpt lat="44.23342" lon="4.82314">
        <ele>247.1</ele>
        <time>2024-03-12T11:40:20Z</time>
      </trkpt>
      <trkpt lat="44.23346" lon="4.82314">
        <ele>246.8</ele>
        <time>2024-03-12T11:40:21Z</time>
      </trkpt>
      <trkpt lat="44.2335" lon="4.82314">
        <ele>246.6</ele>
        <time>2024-03-12T11:40:22Z</time>
      </trkpt>
      <trkpt lat="44.23354" lon="4.82313">
        <ele>246.3</ele>
        <time>2024-03-12T11:40:23Z</time>
      </trkpt>
      <trkpt lat="44.23357" lon="4.82313">
        <ele>246.1</ele>
        <time>2024-03-12T11:40:24Z</time>
      </trkpt>
      <trkpt lat="44.23361" lon="4.82312">
        <ele>245.8</ele>
        <time>2024-03-12T11:40:25Z</time>
      </trkpt>
      <trkpt lat="44.23365" lon="4.82312">
        <ele>245.5</ele>
        <time>2024-03-12T11:40:26Z</time>
      </trkpt>
      <trkpt lat="44.23368" lon="4.82311">
        <ele>245.3</ele>
        <time>2024-03-12T11:40:27Z</time>
      </trkpt>
      <trkpt lat="44.23372" lon="4.82311">
        <ele>245</ele>
        <time>2024-03-12T11:40:28Z</time>
      </trkpt>
      <trkpt lat="44.23376" lon="4.8231">
        <ele>244.6</ele>
        <time>2024-03-12T11:40:29Z</time>
      </trkpt>
      <trkpt lat="44.23379" lon="4.8231">
        <ele>244.2</ele>
        <time>2024-03-12T11:40:30Z</time>
      </trkpt>
      <trkpt lat="44.23383" lon="4.8231">
        <ele>243.8</ele>
        <time>2024-03-12T11:40:31Z</time>
      </trkpt>
      <trkpt lat="44.23386" lon="4.8231">
        <ele>243.4</ele>
        <time>2024-03-12T11:40:32Z</time>
      </trkpt>
      <trkpt lat="44.23389" lon="4.82311">
        <ele>243</ele>
        <time>2024-03-12T11:40:33Z</time>
      </trkpt>
      <trkpt lat="44.23393" lon="4.82312">
        <ele>242.5</ele>
        <time>2024-03-12T11:40:34Z</time>
      </trkpt>
      <trkpt lat="44.23396" lon="4.82313">
        <ele>242.1</ele>
        <time>2024-03-12T11:40:35Z</time>
      </trkpt>
      <trkpt lat="44.23399" lon="4.82314">
        <ele>241.6</ele>
        <time>2024-03-12T11:40:36Z</time>
      </trkpt>
      <trkpt lat="44.23403" lon="4.82315">
        <ele>241.1</ele>
        <time>2024-03-12T11:40:37Z</time>
      </trkpt>
      <trkpt lat="44.23406" lon="4.82316">
        <ele>240.7</ele>
        <time>2024-03-12T11:40:38Z</time>
      </trkpt>
      <trkpt lat="44.23409" lon="4.82318">
        <ele>240.1</ele>
        <time>2024-03-12T11:40:39Z</time>
      </trkpt>
      <trkpt lat="44.23413" lon="4.82319">
        <ele>239.6</ele>
        <time>2024-03-12T11:40:40Z</time>
      </trkpt>
      <trkpt lat="44.23416" lon="4.82321">
        <ele>239</ele>
        <time>2024-03-12T11:40:41Z</time>
      </trkpt>
      <trkpt lat="44.23419" lon="4.82323">
        <ele>238.3</ele>
        <time>2024-03-12T11:40:42Z</time>
      </trkpt>
      <trkpt lat="44.23423" lon="4.82324">
        <ele>237.6</ele>
        <time>2024-03-12T11:40:43Z</time>
      </trkpt>
      <trkpt lat="44.23426" lon="4.82326">
        <ele>237</ele>
        <time>2024-03-12T11:40:44Z</time>
      </trkpt>
      <trkpt lat="44.23429" lon="4.82326">
        <ele>236.4</ele>
        <time>2024-03-12T11:40:45Z</time>
      </trkpt>
      <trkpt lat="44.23433" lon="4.82327">
        <ele>235.8</ele>
        <time>2024-03-12T11:40:46Z</time>
      </trkpt>
      <trkpt lat="44.23435" lon="4.82327">
        <ele>235.3</ele>
        <time>2024-03-12T11:40:47Z</time>
      </trkpt>
      <trkpt lat="44.23438" lon="4.82326">
        <ele>234.7</ele>
        <time>2024-03-12T11:40:48Z</time>
      </trkpt>
      <trkpt lat="44.2344" lon="4.82326">
        <ele>234.6</ele>
        <time>2024-03-12T11:40:49Z</time>
      </trkpt>
      <trkpt lat="44.23441" lon="4.82324">
        <ele>234.5</ele>
        <time>2024-03-12T11:40:50Z</time>
      </trkpt>
      <trkpt lat="44.23443" lon="4.82323">
        <ele>234.3</ele>
        <time>2024-03-12T11:40:51Z</time>
      </trkpt>
      <trkpt lat="44.23445" lon="4.82321">
        <ele>234.3</ele>
        <time>2024-03-12T11:40:52Z</time>
      </trkpt>
      <trkpt lat="44.23446" lon="4.82319">
        <ele>234.2</ele>
        <time>2024-03-12T11:40:53Z</time>
      </trkpt>
      <trkpt lat="44.23447" lon="4.82317">
        <ele>234.1</ele>
        <time>2024-03-12T11:40:54Z</time>
      </trkpt>
      <trkpt lat="44.23449" lon="4.82315">
        <ele>234.1</ele>
        <time>2024-03-12T11:40:55Z</time>
      </trkpt>
      <trkpt lat="44.23451" lon="4.82314">
        <ele>234</ele>
        <time>2024-03-12T11:40:56Z</time>
      </trkpt>
      <trkpt lat="44.23453" lon="4.82312">
        <ele>234</ele>
        <time>2024-03-12T11:40:57Z</time>
      </trkpt>
      <trkpt lat="44.23455" lon="4.82311">
        <ele>233.9</ele>
        <time>2024-03-12T11:40:58Z</time>
      </trkpt>
      <trkpt lat="44.23457" lon="4.82308">
        <ele>233.9</ele>
        <time>2024-03-12T11:40:59Z</time>
      </trkpt>
      <trkpt lat="44.23459" lon="4.82306">
        <ele>233.7</ele>
        <time>2024-03-12T11:41:00Z</time>
      </trkpt>
      <trkpt lat="44.23461" lon="4.82303">
        <ele>233.5</ele>
        <time>2024-03-12T11:41:01Z</time>
      </trkpt>
      <trkpt lat="44.23462" lon="4.82299">
        <ele>233.2</ele>
        <time>2024-03-12T11:41:02Z</time>
      </trkpt>
      <trkpt lat="44.23463" lon="4.82295">
        <ele>232.7</ele>
        <time>2024-03-12T11:41:03Z</time>
      </trkpt>
      <trkpt lat="44.23465" lon="4.82292">
        <ele>232.3</ele>
        <time>2024-03-12T11:41:04Z</time>
      </trkpt>
      <trkpt lat="44.23467" lon="4.82288">
        <ele>231.7</ele>
        <time>2024-03-12T11:41:05Z</time>
      </trkpt>
      <trkpt lat="44.23468" lon="4.82285">
        <ele>231.1</ele>
        <time>2024-03-12T11:41:06Z</time>
      </trkpt>
      <trkpt lat="44.23469" lon="4.82281">
        <ele>230.5</ele>
        <time>2024-03-12T11:41:07Z</time>
      </trkpt>
      <trkpt lat="44.2347" lon="4.82277">
        <ele>229.8</ele>
        <time>2024-03-12T11:41:08Z</time>
      </trkpt>
      <trkpt lat="44.23471" lon="4.82274">
        <ele>229.2</ele>
        <time>2024-03-12T11:41:09Z</time>
      </trkpt>
      <trkpt lat="44.23473" lon="4.8227">
        <ele>228.5</ele>
        <time>2024-03-12T11:41:10Z</time>
      </trkpt>
      <trkpt lat="44.23474" lon="4.82267">
        <ele>228</ele>
        <time>2024-03-12T11:41:11Z</time>
      </trkpt>
      <trkpt lat="44.23475" lon="4.82263">
        <ele>227.3</ele>
        <time>2024-03-12T11:41:12Z</time>
      </trkpt>
      <trkpt lat="44.23476" lon="4.82258">
        <ele>226.7</ele>
        <time>2024-03-12T11:41:13Z</time>
      </trkpt>
      <trkpt lat="44.23477" lon="4.82254">
        <ele>226.1</ele>
        <time>2024-03-12T11:41:14Z</time>
      </trkpt>
      <trkpt lat="44.23478" lon="4.82249">
        <ele>225.5</ele>
        <time>2024-03-12T11:41:15Z</time>
      </trkpt>
      <trkpt lat="44.23479" lon="4.82244">
        <ele>225.1</ele>
        <time>2024-03-12T11:41:16Z</time>
      </trkpt>
      <trkpt lat="44.23481" lon="4.8224">
        <ele>224.7</ele>
        <time>2024-03-12T11:41:17Z</time>
      </trkpt>
      <trkpt lat="44.23483" lon="4.82236">
        <ele>224.5</ele>
        <time>2024-03-12T11:41:18Z</time>
      </trkpt>
      <trkpt lat="44.23484" lon="4.82232">
        <ele>224.4</ele>
        <time>2024-03-12T11:41:19Z</time>
      </trkpt>
      <trkpt lat="44.23485" lon="4.82229">
        <ele>224.4</ele>
        <time>2024-03-12T11:41:20Z</time>
      </trkpt>
      <trkpt lat="44.23486" lon="4.82226">
        <ele>224.4</ele>
        <time>2024-03-12T11:41:21Z</time>
      </trkpt>
      <trkpt lat="44.23486" lon="4.82226">
        <ele>224.4</ele>
        <time>2024-03-12T11:41:22Z</time>
      </trkpt>
      <trkpt lat="44.23486" lon="4.82223">
        <ele>224.5</ele>
        <time>2024-03-12T11:41:23Z</time>
      </trkpt>
      <trkpt lat="44.23486" lon="4.82223">
        <ele>224.5</ele>
        <time>2024-03-12T11:41:24Z</time>
      </trkpt>
      <trkpt lat="44.23485" lon="4.82221">
        <ele>224.6</ele>
        <time>2024-03-12T11:41:25Z</time>
      </trkpt>
      <trkpt lat="44.23485" lon="4.82221">
        <ele>224.6</ele>
        <time>2024-03-12T11:41:26Z</time>
      </trkpt>
      <trkpt lat="44.23482" lon="4.82219">
        <ele>224.9</ele>
        <time>2024-03-12T11:41:27Z</time>
      </trkpt>
      <trkpt lat="44.23482" lon="4.82219">
        <ele>224.9</ele>
        <time>2024-03-12T11:41:28Z</time>
      </trkpt>
      <trkpt lat="44.23479" lon="4.82217">
        <ele>225.3</ele>
        <time>2024-03-12T11:41:29Z</time>
      </trkpt>
      <trkpt lat="44.23479" lon="4.82217">
        <ele>225.3</ele>
        <time>2024-03-12T11:41:30Z</time>
      </trkpt>
      <trkpt lat="44.23477" lon="4.82213">
        <ele>225.8</ele>
        <time>2024-03-12T11:41:31Z</time>
      </trkpt>
      <trkpt lat="44.23477" lon="4.82209">
        <ele>226.1</ele>
        <time>2024-03-12T11:41:32Z</time>
      </trkpt>
      <trkpt lat="44.23476" lon="4.82206">
        <ele>226.3</ele>
        <time>2024-03-12T11:41:33Z</time>
      </trkpt>
      <trkpt lat="44.23475" lon="4.82201">
        <ele>226.4</ele>
        <time>2024-03-12T11:41:34Z</time>
      </trkpt>
      <trkpt lat="44.23474" lon="4.82197">
        <ele>226.4</ele>
        <time>2024-03-12T11:41:35Z</time>
      </trkpt>
      <trkpt lat="44.23473" lon="4.82192">
        <ele>226.2</ele>
        <time>2024-03-12T11:41:36Z</time>
      </trkpt>
      <trkpt lat="44.23472" lon="4.82187">
        <ele>225.9</ele>
        <time>2024-03-12T11:41:37Z</time>
      </trkpt>
      <trkpt lat="44.23471" lon="4.82183">
        <ele>225.5</ele>
        <time>2024-03-12T11:41:38Z</time>
      </trkpt>
      <trkpt lat="44.23471" lon="4.82178">
        <ele>225.1</ele>
        <time>2024-03-12T11:41:39Z</time>
      </trkpt>
      <trkpt lat="44.23471" lon="4.82174">
        <ele>224.7</ele>
        <time>2024-03-12T11:41:40Z</time>
      </trkpt>
      <trkpt lat="44.23471" lon="4.8217">
        <ele>224.3</ele>
        <time>2024-03-12T11:41:41Z</time>
      </trkpt>
      <trkpt lat="44.23471" lon="4.82166">
        <ele>224</ele>
        <time>2024-03-12T11:41:42Z</time>
      </trkpt>
      <trkpt lat="44.23471" lon="4.82162">
        <ele>223.6</ele>
        <time>2024-03-12T11:41:43Z</time>
      </trkpt>
      <trkpt lat="44.23473" lon="4.82159">
        <ele>223.2</ele>
        <time>2024-03-12T11:41:44Z</time>
      </trkpt>
      <trkpt lat="44.23474" lon="4.82156">
        <ele>222.9</ele>
        <time>2024-03-12T11:41:45Z</time>
      </trkpt>
      <trkpt lat="44.23475" lon="4.82153">
        <ele>222.4</ele>
        <time>2024-03-12T11:41:46Z</time>
      </trkpt>
      <trkpt lat="44.23477" lon="4.8215">
        <ele>221.9</ele>
        <time>2024-03-12T11:41:47Z</time>
      </trkpt>
      <trkpt lat="44.23478" lon="4.82147">
        <ele>221.4</ele>
        <time>2024-03-12T11:41:48Z</time>
      </trkpt>
      <trkpt lat="44.2348" lon="4.82144">
        <ele>220.9</ele>
        <time>2024-03-12T11:41:49Z</time>
      </trkpt>
      <trkpt lat="44.23481" lon="4.82141">
        <ele>220.5</ele>
        <time>2024-03-12T11:41:50Z</time>
      </trkpt>
      <trkpt lat="44.23483" lon="4.82138">
        <ele>219.9</ele>
        <time>2024-03-12T11:41:51Z</time>
      </trkpt>
      <trkpt lat="44.23484" lon="4.82134">
        <ele>219.4</ele>
        <time>2024-03-12T11:41:52Z</time>
      </trkpt>
      <trkpt lat="44.23485" lon="4.8213">
        <ele>218.9</ele>
        <time>2024-03-12T11:41:53Z</time>
      </trkpt>
      <trkpt lat="44.23486" lon="4.82127">
        <ele>218.4</ele>
        <time>2024-03-12T11:41:54Z</time>
      </trkpt>
      <trkpt lat="44.23488" lon="4.82124">
        <ele>217.9</ele>
        <time>2024-03-12T11:41:55Z</time>
      </trkpt>
      <trkpt lat="44.2349" lon="4.82121">
        <ele>217.4</ele>
        <time>2024-03-12T11:41:56Z</time>
      </trkpt>
      <trkpt lat="44.23492" lon="4.82119">
        <ele>217</ele>
        <time>2024-03-12T11:41:57Z</time>
      </trkpt>
      <trkpt lat="44.23494" lon="4.82116">
        <ele>216.6</ele>
        <time>2024-03-12T11:41:58Z</time>
      </trkpt>
      <trkpt lat="44.23495" lon="4.82113">
        <ele>216.3</ele>
        <time>2024-03-12T11:41:59Z</time>
      </trkpt>
      <trkpt lat="44.23497" lon="4.8211">
        <ele>216.1</ele>
        <time>2024-03-12T11:42:00Z</time>
      </trkpt>
      <trkpt lat="44.23497" lon="4.82107">
        <ele>215.8</ele>
        <time>2024-03-12T11:42:01Z</time>
      </trkpt>
      <trkpt lat="44.23498" lon="4.82103">
        <ele>215.5</ele>
        <time>2024-03-12T11:42:02Z</time>
      </trkpt>
      <trkpt lat="44.23498" lon="4.821">
        <ele>215.2</ele>
        <time>2024-03-12T11:42:03Z</time>
      </trkpt>
      <trkpt lat="44.23498" lon="4.82096">
        <ele>214.9</ele>
        <time>2024-03-12T11:42:04Z</time>
      </trkpt>
      <trkpt lat="44.23498" lon="4.82093">
        <ele>214.7</ele>
        <time>2024-03-12T11:42:05Z</time>
      </trkpt>
      <trkpt lat="44.23498" lon="4.82089">
        <ele>214.4</ele>
        <time>2024-03-12T11:42:06Z</time>
      </trkpt>
      <trkpt lat="44.23499" lon="4.82086">
        <ele>214.1</ele>
        <time>2024-03-12T11:42:07Z</time>
      </trkpt>
      <trkpt lat="44.23499" lon="4.82083">
        <ele>213.8</ele>
        <time>2024-03-12T11:42:08Z</time>
      </trkpt>
      <trkpt lat="44.235" lon="4.8208">
        <ele>213.5</ele>
        <time>2024-03-12T11:42:09Z</time>
      </trkpt>
      <trkpt lat="44.23501" lon="4.82077">
        <ele>213.1</ele>
        <time>2024-03-12T11:42:10Z</time>
      </trkpt>
      <trkpt lat="44.23503" lon="4.82074">
        <ele>212.6</ele>
        <time>2024-03-12T11:42:11Z</time>
      </trkpt>
      <trkpt lat="44.23504" lon="4.8207">
        <ele>212.1</ele>
        <time>2024-03-12T11:42:12Z</time>
      </trkpt>
      <trkpt lat="44.23506" lon="4.82066">
        <ele>211.5</ele>
        <time>2024-03-12T11:42:13Z</time>
      </trkpt>
      <trkpt lat="44.23507" lon="4.82062">
        <ele>210.8</ele>
        <time>2024-03-12T11:42:14Z</time>
      </trkpt>
      <trkpt lat="44.23509" lon="4.82058">
        <ele>210.1</ele>
        <time>2024-03-12T11:42:15Z</time>
      </trkpt>
      <trkpt lat="44.23509" lon="4.82055">
        <ele>209.4</ele>
        <time>2024-03-12T11:42:16Z</time>
      </trkpt>
      <trkpt lat="44.2351" lon="4.82052">
        <ele>209.3</ele>
        <time>2024-03-12T11:42:17Z</time>
      </trkpt>
      <trkpt lat="44.23511" lon="4.82049">
        <ele>209.2</ele>
        <time>2024-03-12T11:42:18Z</time>
      </trkpt>
      <trkpt lat="44.23511" lon="4.82046">
        <ele>209.1</ele>
        <time>2024-03-12T11:42:19Z</time>
      </trkpt>
      <trkpt lat="44.2351" lon="4.82043">
        <ele>209</ele>
        <time>2024-03-12T11:42:20Z</time>
      </trkpt>
      <trkpt lat="44.23509" lon="4.82041">
        <ele>208.9</ele>
        <time>2024-03-12T11:42:21Z</time>
      </trkpt>
      <trkpt lat="44.23507" lon="4.82038">
        <ele>208.7</ele>
        <time>2024-03-12T11:42:22Z</time>
      </trkpt>
      <trkpt lat="44.23504" lon="4.82035">
        <ele>208.6</ele>
        <time>2024-03-12T11:42:23Z</time>
      </trkpt>
      <trkpt lat="44.23501" lon="4.82032">
        <ele>208.5</ele>
        <time>2024-03-12T11:42:24Z</time>
      </trkpt>
      <trkpt lat="44.23499" lon="4.8203">
        <ele>208.9</ele>
        <time>2024-03-12T11:42:25Z</time>
      </trkpt>
      <trkpt lat="44.23496" lon="4.82027">
        <ele>209.3</ele>
        <time>2024-03-12T11:42:26Z</time>
      </trkpt>
      <trkpt lat="44.23494" lon="4.82023">
        <ele>209.7</ele>
        <time>2024-03-12T11:42:27Z</time>
      </trkpt>
      <trkpt lat="44.23493" lon="4.82019">
        <ele>210</ele>
        <time>2024-03-12T11:42:28Z</time>
      </trkpt>
      <trkpt lat="44.23492" lon="4.82015">
        <ele>210.5</ele>
        <time>2024-03-12T11:42:29Z</time>
      </trkpt>
      <trkpt lat="44.23492" lon="4.82011">
        <ele>210.7</ele>
        <time>2024-03-12T11:42:30Z</time>
      </trkpt>
      <trkpt lat="44.23493" lon="4.82007">
        <ele>211</ele>
        <time>2024-03-12T11:42:31Z</time>
      </trkpt>
      <trkpt lat="44.23494" lon="4.82004">
        <ele>211.2</ele>
        <time>2024-03-12T11:42:32Z</time>
      </trkpt>
      <trkpt lat="44.23495" lon="4.82001">
        <ele>211.5</ele>
        <time>2024-03-12T11:42:33Z</time>
      </trkpt>
      <trkpt lat="44.23497" lon="4.81998">
        <ele>211.8</ele>
        <time>2024-03-12T11:42:34Z</time>
      </trkpt>
      <trkpt lat="44.23498" lon="4.81996">
        <ele>212.1</ele>
        <time>2024-03-12T11:42:35Z</time>
      </trkpt>
      <trkpt lat="44.23499" lon="4.81993">
        <ele>212.4</ele>
        <time>2024-03-12T11:42:36Z</time>
      </trkpt>
      <trkpt lat="44.23501" lon="4.8199">
        <ele>212.8</ele>
        <time>2024-03-12T11:42:37Z</time>
      </trkpt>
      <trkpt lat="44.23502" lon="4.81988">
        <ele>213.1</ele>
        <time>2024-03-12T11:42:38Z</time>
      </trkpt>
      <trkpt lat="44.23503" lon="4.81985">
        <ele>213.4</ele>
        <time>2024-03-12T11:42:39Z</time>
      </trkpt>
      <trkpt lat="44.23505" lon="4.81982">
        <ele>213.7</ele>
        <time>2024-03-12T11:42:40Z</time>
      </trkpt>
      <trkpt lat="44.23507" lon="4.81979">
        <ele>214</ele>
        <time>2024-03-12T11:42:41Z</time>
      </trkpt>
      <trkpt lat="44.23509" lon="4.81976">
        <ele>214.3</ele>
        <time>2024-03-12T11:42:42Z</time>
      </trkpt>
      <trkpt lat="44.2351" lon="4.81972">
        <ele>214.6</ele>
        <time>2024-03-12T11:42:43Z</time>
      </trkpt>
      <trkpt lat="44.23511" lon="4.81968">
        <ele>214.8</ele>
        <time>2024-03-12T11:42:44Z</time>
      </trkpt>
      <trkpt lat="44.23513" lon="4.81964">
        <ele>215</ele>
        <time>2024-03-12T11:42:45Z</time>
      </trkpt>
      <trkpt lat="44.23514" lon="4.81959">
        <ele>215.1</ele>
        <time>2024-03-12T11:42:46Z</time>
      </trkpt>
      <trkpt lat="44.23515" lon="4.81955">
        <ele>215.3</ele>
        <time>2024-03-12T11:42:47Z</time>
      </trkpt>
      <trkpt lat="44.23517" lon="4.81951">
        <ele>215.3</ele>
        <time>2024-03-12T11:42:48Z</time>
      </trkpt>
      <trkpt lat="44.23519" lon="4.81947">
        <ele>215.4</ele>
        <time>2024-03-12T11:42:49Z</time>
      </trkpt>
      <trkpt lat="44.23521" lon="4.81944">
        <ele>215.4</ele>
        <time>2024-03-12T11:42:50Z</time>
      </trkpt>
      <trkpt lat="44.23523" lon="4.81941">
        <ele>215.4</ele>
        <time>2024-03-12T11:42:51Z</time>
      </trkpt>
      <trkpt lat="44.23525" lon="4.81938">
        <ele>215.4</ele>
        <time>2024-03-12T11:42:52Z</time>
      </trkpt>
      <trkpt lat="44.23527" lon="4.81935">
        <ele>215.3</ele>
        <time>2024-03-12T11:42:53Z</time>
      </trkpt>
      <trkpt lat="44.23528" lon="4.81931">
        <ele>215.2</ele>
        <time>2024-03-12T11:42:54Z</time>
      </trkpt>
      <trkpt lat="44.23529" lon="4.81927">
        <ele>215.4</ele>
        <time>2024-03-12T11:42:55Z</time>
      </trkpt>
      <trkpt lat="44.23529" lon="4.81923">
        <ele>215.9</ele>
        <time>2024-03-12T11:42:56Z</time>
      </trkpt>
      <trkpt lat="44.23529" lon="4.8192">
        <ele>216.3</ele>
        <time>2024-03-12T11:42:57Z</time>
      </trkpt>
      <trkpt lat="44.23529" lon="4.81917">
        <ele>216.7</ele>
        <time>2024-03-12T11:42:58Z</time>
      </trkpt>
      <trkpt lat="44.23528" lon="4.81914">
        <ele>217</ele>
        <time>2024-03-12T11:42:59Z</time>
      </trkpt>
      <trkpt lat="44.23528" lon="4.81914">
        <ele>217</ele>
        <time>2024-03-12T11:43:00Z</time>
      </trkpt>
      <trkpt lat="44.23525" lon="4.81912">
        <ele>217.7</ele>
        <time>2024-03-12T11:43:01Z</time>
      </trkpt>
      <trkpt lat="44.23525" lon="4.81912">
        <ele>217.7</ele>
        <time>2024-03-12T11:43:02Z</time>
      </trkpt>
      <trkpt lat="44.23521" lon="4.81912">
        <ele>218.4</ele>
        <time>2024-03-12T11:43:03Z</time>
      </trkpt>
      <trkpt lat="44.23521" lon="4.81912">
        <ele>218.4</ele>
        <time>2024-03-12T11:43:04Z</time>
      </trkpt>
      <trkpt lat="44.23518" lon="4.81913">
        <ele>219</ele>
        <time>2024-03-12T11:43:05Z</time>
      </trkpt>
      <trkpt lat="44.23516" lon="4.81913">
        <ele>219.4</ele>
        <time>2024-03-12T11:43:06Z</time>
      </trkpt>
      <trkpt lat="44.23514" lon="4.81912">
        <ele>219.8</ele>
        <time>2024-03-12T11:43:07Z</time>
      </trkpt>
      <trkpt lat="44.23512" lon="4.81912">
        <ele>220.2</ele>
        <time>2024-03-12T11:43:08Z</time>
      </trkpt>
      <trkpt lat="44.2351" lon="4.81912">
        <ele>220.6</ele>
        <time>2024-03-12T11:43:09Z</time>
      </trkpt>
      <trkpt lat="44.23509" lon="4.81912">
        <ele>221</ele>
        <time>2024-03-12T11:43:10Z</time>
      </trkpt>
      <trkpt lat="44.23506" lon="4.81911">
        <ele>221.4</ele>
        <time>2024-03-12T11:43:11Z</time>
      </trkpt>
      <trkpt lat="44.23504" lon="4.81911">
        <ele>221.8</ele>
        <time>2024-03-12T11:43:12Z</time>
      </trkpt>
      <trkpt lat="44.23502" lon="4.81912">
        <ele>222.2</ele>
        <time>2024-03-12T11:43:13Z</time>
      </trkpt>
      <trkpt lat="44.23501" lon="4.81912">
        <ele>222.5</ele>
        <time>2024-03-12T11:43:14Z</time>
      </trkpt>
      <trkpt lat="44.23499" lon="4.81913">
        <ele>222.9</ele>
        <time>2024-03-12T11:43:15Z</time>
      </trkpt>
      <trkpt lat="44.23497" lon="4.81914">
        <ele>223.3</ele>
        <time>2024-03-12T11:43:16Z</time>
      </trkpt>
      <trkpt lat="44.23497" lon="4.81914">
        <ele>223.3</ele>
        <time>2024-03-12T11:43:17Z</time>
      </trkpt>
      <trkpt lat="44.23493" lon="4.81915">
        <ele>224</ele>
        <time>2024-03-12T11:43:18Z</time>
      </trkpt>
      <trkpt lat="44.23493" lon="4.81915">
        <ele>224</ele>
        <time>2024-03-12T11:43:19Z</time>
      </trkpt>
      <trkpt lat="44.2349" lon="4.81916">
        <ele>224.6</ele>
        <time>2024-03-12T11:43:20Z</time>
      </trkpt>
      <trkpt lat="44.23488" lon="4.81916">
        <ele>225</ele>
        <time>2024-03-12T11:43:21Z</time>
      </trkpt>
      <trkpt lat="44.23486" lon="4.81916">
        <ele>225.3</ele>
        <time>2024-03-12T11:43:22Z</time>
      </trkpt>
      <trkpt lat="44.23486" lon="4.81916">
        <ele>225.3</ele>
        <time>2024-03-12T11:43:23Z</time>
      </trkpt>
      <trkpt lat="44.23483" lon="4.81916">
        <ele>226</ele>
        <time>2024-03-12T11:43:24Z</time>
      </trkpt>
      <trkpt lat="44.23483" lon="4.81916">
        <ele>226</ele>
        <time>2024-03-12T11:43:25Z</time>
      </trkpt>
      <trkpt lat="44.2348" lon="4.81917">
        <ele>226.6</ele>
        <time>2024-03-12T11:43:26Z</time>
      </trkpt>
      <trkpt lat="44.2348" lon="4.81917">
        <ele>226.6</ele>
        <time>2024-03-12T11:43:27Z</time>
      </trkpt>
      <trkpt lat="44.23478" lon="4.81919">
        <ele>227.1</ele>
        <time>2024-03-12T11:43:28Z</time>
      </trkpt>
      <trkpt lat="44.23478" lon="4.81919">
        <ele>227.1</ele>
        <time>2024-03-12T11:43:29Z</time>
      </trkpt>
      <trkpt lat="44.23476" lon="4.81921">
        <ele>227.6</ele>
        <time>2024-03-12T11:43:30Z</time>
      </trkpt>
      <trkpt lat="44.23476" lon="4.81921">
        <ele>227.6</ele>
        <time>2024-03-12T11:43:31Z</time>
      </trkpt>
      <trkpt lat="44.23473" lon="4.81921">
        <ele>228.5</ele>
        <time>2024-03-12T11:43:32Z</time>
      </trkpt>
      <trkpt lat="44.23473" lon="4.81921">
        <ele>228.5</ele>
        <time>2024-03-12T11:43:33Z</time>
      </trkpt>
      <trkpt lat="44.23471" lon="4.8192">
        <ele>228.8</ele>
        <time>2024-03-12T11:43:34Z</time>
      </trkpt>
      <trkpt lat="44.23469" lon="4.81919">
        <ele>229</ele>
        <time>2024-03-12T11:43:35Z</time>
      </trkpt>
      <trkpt lat="44.23469" lon="4.81919">
        <ele>229</ele>
        <time>2024-03-12T11:43:36Z</time>
      </trkpt>
      <trkpt lat="44.23467" lon="4.81915">
        <ele>229.4</ele>
        <time>2024-03-12T11:43:37Z</time>
      </trkpt>
      <trkpt lat="44.23465" lon="4.81913">
        <ele>229.7</ele>
        <time>2024-03-12T11:43:38Z</time>
      </trkpt>
      <trkpt lat="44.23463" lon="4.81911">
        <ele>230.1</ele>
        <time>2024-03-12T11:43:39Z</time>
      </trkpt>
      <trkpt lat="44.23462" lon="4.81908">
        <ele>230.4</ele>
        <time>2024-03-12T11:43:40Z</time>
      </trkpt>
      <trkpt lat="44.23461" lon="4.81905">
        <ele>230.7</ele>
        <time>2024-03-12T11:43:41Z</time>
      </trkpt>
      <trkpt lat="44.23459" lon="4.81903">
        <ele>231</ele>
        <time>2024-03-12T11:43:42Z</time>
      </trkpt>
      <trkpt lat="44.23457" lon="4.819">
        <ele>231.3</ele>
        <time>2024-03-12T11:43:43Z</time>
      </trkpt>
      <trkpt lat="44.23456" lon="4.81898">
        <ele>231.6</ele>
        <time>2024-03-12T11:43:44Z</time>
      </trkpt>
      <trkpt lat="44.23455" lon="4.81896">
        <ele>231.8</ele>
        <time>2024-03-12T11:43:45Z</time>
      </trkpt>
      <trkpt lat="44.23453" lon="4.81894">
        <ele>232.1</ele>
        <time>2024-03-12T11:43:46Z</time>
      </trkpt>
      <trkpt lat="44.23453" lon="4.81892">
        <ele>232.2</ele>
        <time>2024-03-12T11:43:47Z</time>
      </trkpt>
      <trkpt lat="44.23452" lon="4.81889">
        <ele>232.5</ele>
        <time>2024-03-12T11:43:48Z</time>
      </trkpt>
      <trkpt lat="44.23452" lon="4.81887">
        <ele>232.7</ele>
        <time>2024-03-12T11:43:49Z</time>
      </trkpt>
      <trkpt lat="44.23452" lon="4.81884">
        <ele>232.9</ele>
        <time>2024-03-12T11:43:50Z</time>
      </trkpt>
      <trkpt lat="44.23452" lon="4.81881">
        <ele>233.1</ele>
        <time>2024-03-12T11:43:51Z</time>
      </trkpt>
      <trkpt lat="44.23452" lon="4.81878">
        <ele>233.3</ele>
        <time>2024-03-12T11:43:52Z</time>
      </trkpt>
      <trkpt lat="44.23452" lon="4.81875">
        <ele>233.6</ele>
        <time>2024-03-12T11:43:53Z</time>
      </trkpt>
      <trkpt lat="44.23451" lon="4.81872">
        <ele>233.8</ele>
        <time>2024-03-12T11:43:54Z</time>
      </trkpt>
      <trkpt lat="44.23451" lon="4.81868">
        <ele>234.2</ele>
        <time>2024-03-12T11:43:55Z</time>
      </trkpt>
      <trkpt lat="44.23449" lon="4.81865">
        <ele>234.5</ele>
        <time>2024-03-12T11:43:56Z</time>
      </trkpt>
      <trkpt lat="44.23448" lon="4.81862">
        <ele>234.9</ele>
        <time>2024-03-12T11:43:57Z</time>
      </trkpt>
      <trkpt lat="44.23446" lon="4.8186">
        <ele>235.4</ele>
        <time>2024-03-12T11:43:58Z</time>
      </trkpt>
      <trkpt lat="44.23444" lon="4.81858">
        <ele>235.8</ele>
        <time>2024-03-12T11:43:59Z</time>
      </trkpt>
      <trkpt lat="44.23441" lon="4.81856">
        <ele>236.3</ele>
        <time>2024-03-12T11:44:00Z</time>
      </trkpt>
      <trkpt lat="44.23439" lon="4.81855">
        <ele>236.7</ele>
        <time>2024-03-12T11:44:01Z</time>
      </trkpt>
      <trkpt lat="44.23437" lon="4.81854">
        <ele>237.1</ele>
        <time>2024-03-12T11:44:02Z</time>
      </trkpt>
      <trkpt lat="44.23437" lon="4.81854">
        <ele>237.1</ele>
        <time>2024-03-12T11:44:03Z</time>
      </trkpt>
      <trkpt lat="44.23435" lon="4.8185">
        <ele>237.7</ele>
        <time>2024-03-12T11:44:04Z</time>
      </trkpt>
      <trkpt lat="44.23435" lon="4.8185">
        <ele>237.7</ele>
        <time>2024-03-12T11:44:05Z</time>
      </trkpt>
      <trkpt lat="44.23433" lon="4.81847">
        <ele>238.2</ele>
        <time>2024-03-12T11:44:06Z</time>
      </trkpt>
      <trkpt lat="44.23433" lon="4.81847">
        <ele>238.2</ele>
        <time>2024-03-12T11:44:07Z</time>
      </trkpt>
      <trkpt lat="44.23432" lon="4.81843">
        <ele>238.6</ele>
        <time>2024-03-12T11:44:08Z</time>
      </trkpt>
      <trkpt lat="44.23432" lon="4.81843">
        <ele>238.6</ele>
        <time>2024-03-12T11:44:09Z</time>
      </trkpt>
      <trkpt lat="44.23431" lon="4.81838">
        <ele>239.1</ele>
        <time>2024-03-12T11:44:10Z</time>
      </trkpt>
      <trkpt lat="44.23431" lon="4.81838">
        <ele>239.1</ele>
        <time>2024-03-12T11:44:11Z</time>
      </trkpt>
      <trkpt lat="44.2343" lon="4.81834">
        <ele>239.4</ele>
        <time>2024-03-12T11:44:12Z</time>
      </trkpt>
      <trkpt lat="44.23429" lon="4.81831">
        <ele>239.5</ele>
        <time>2024-03-12T11:44:13Z</time>
      </trkpt>
      <trkpt lat="44.23428" lon="4.81829">
        <ele>239.7</ele>
        <time>2024-03-12T11:44:14Z</time>
      </trkpt>
      <trkpt lat="44.23427" lon="4.81826">
        <ele>239.8</ele>
        <time>2024-03-12T11:44:15Z</time>
      </trkpt>
      <trkpt lat="44.23425" lon="4.81823">
        <ele>239.9</ele>
        <time>2024-03-12T11:44:16Z</time>
      </trkpt>
      <trkpt lat="44.23424" lon="4.8182">
        <ele>239.9</ele>
        <time>2024-03-12T11:44:17Z</time>
      </trkpt>
      <trkpt lat="44.23423" lon="4.81816">
        <ele>240</ele>
        <time>2024-03-12T11:44:18Z</time>
      </trkpt>
      <trkpt lat="44.23423" lon="4.81812">
        <ele>239.9</ele>
        <time>2024-03-12T11:44:19Z</time>
      </trkpt>
      <trkpt lat="44.23424" lon="4.81808">
        <ele>239.9</ele>
        <time>2024-03-12T11:44:20Z</time>
      </trkpt>
      <trkpt lat="44.23424" lon="4.81804">
        <ele>239.7</ele>
        <time>2024-03-12T11:44:21Z</time>
      </trkpt>
      <trkpt lat="44.23425" lon="4.81799">
        <ele>239.6</ele>
        <time>2024-03-12T11:44:22Z</time>
      </trkpt>
      <trkpt lat="44.23425" lon="4.81795">
        <ele>239.4</ele>
        <time>2024-03-12T11:44:23Z</time>
      </trkpt>
      <trkpt lat="44.23425" lon="4.81791">
        <ele>239.2</ele>
        <time>2024-03-12T11:44:24Z</time>
      </trkpt>
      <trkpt lat="44.23425" lon="4.81787">
        <ele>238.9</ele>
        <time>2024-03-12T11:44:25Z</time>
      </trkpt>
      <trkpt lat="44.23425" lon="4.81783">
        <ele>238.7</ele>
        <time>2024-03-12T11:44:26Z</time>
      </trkpt>
      <trkpt lat="44.23424" lon="4.81778">
        <ele>238.4</ele>
        <time>2024-03-12T11:44:27Z</time>
      </trkpt>
      <trkpt lat="44.23423" lon="4.81774">
        <ele>238</ele>
        <time>2024-03-12T11:44:28Z</time>
      </trkpt>
      <trkpt lat="44.23422" lon="4.8177">
        <ele>237.7</ele>
        <time>2024-03-12T11:44:29Z</time>
      </trkpt>
      <trkpt lat="44.23421" lon="4.81765">
        <ele>237.4</ele>
        <time>2024-03-12T11:44:30Z</time>
      </trkpt>
      <trkpt lat="44.23421" lon="4.81761">
        <ele>237</ele>
        <time>2024-03-12T11:44:31Z</time>
      </trkpt>
      <trkpt lat="44.2342" lon="4.81757">
        <ele>236.7</ele>
        <time>2024-03-12T11:44:32Z</time>
      </trkpt>
      <trkpt lat="44.23419" lon="4.81753">
        <ele>236.5</ele>
        <time>2024-03-12T11:44:33Z</time>
      </trkpt>
      <trkpt lat="44.23419" lon="4.81749">
        <ele>236.2</ele>
        <time>2024-03-12T11:44:34Z</time>
      </trkpt>
      <trkpt lat="44.23418" lon="4.81744">
        <ele>236</ele>
        <time>2024-03-12T11:44:35Z</time>
      </trkpt>
      <trkpt lat="44.23417" lon="4.8174">
        <ele>235.8</ele>
        <time>2024-03-12T11:44:36Z</time>
      </trkpt>
      <trkpt lat="44.23415" lon="4.81736">
        <ele>235.6</ele>
        <time>2024-03-12T11:44:37Z</time>
      </trkpt>
      <trkpt lat="44.23413" lon="4.81732">
        <ele>235.5</ele>
        <time>2024-03-12T11:44:38Z</time>
      </trkpt>
      <trkpt lat="44.23412" lon="4.81728">
        <ele>235.4</ele>
        <time>2024-03-12T11:44:39Z</time>
      </trkpt>
      <trkpt lat="44.23409" lon="4.81724">
        <ele>235.3</ele>
        <time>2024-03-12T11:44:40Z</time>
      </trkpt>
      <trkpt lat="44.23407" lon="4.8172">
        <ele>235.2</ele>
        <time>2024-03-12T11:44:41Z</time>
      </trkpt>
      <trkpt lat="44.23405" lon="4.81716">
        <ele>235.2</ele>
        <time>2024-03-12T11:44:42Z</time>
      </trkpt>
      <trkpt lat="44.23403" lon="4.81712">
        <ele>235.2</ele>
        <time>2024-03-12T11:44:43Z</time>
      </trkpt>
      <trkpt lat="44.234" lon="4.81708">
        <ele>235.2</ele>
        <time>2024-03-12T11:44:44Z</time>
      </trkpt>
      <trkpt lat="44.23398" lon="4.81705">
        <ele>235.3</ele>
        <time>2024-03-12T11:44:45Z</time>
      </trkpt>
      <trkpt lat="44.23396" lon="4.81702">
        <ele>235.3</ele>
        <time>2024-03-12T11:44:46Z</time>
      </trkpt>
      <trkpt lat="44.23394" lon="4.81699">
        <ele>235.4</ele>
        <time>2024-03-12T11:44:47Z</time>
      </trkpt>
      <trkpt lat="44.23392" lon="4.81696">
        <ele>235.5</ele>
        <time>2024-03-12T11:44:48Z</time>
      </trkpt>
      <trkpt lat="44.2339" lon="4.81693">
        <ele>235.6</ele>
        <time>2024-03-12T11:44:49Z</time>
      </trkpt>
      <trkpt lat="44.23389" lon="4.81689">
        <ele>235.8</ele>
        <time>2024-03-12T11:44:50Z</time>
      </trkpt>
      <trkpt lat="44.23387" lon="4.81686">
        <ele>236</ele>
        <time>2024-03-12T11:44:51Z</time>
      </trkpt>
      <trkpt lat="44.23386" lon="4.81684">
        <ele>236.1</ele>
        <time>2024-03-12T11:44:52Z</time>
      </trkpt>
      <trkpt lat="44.23384" lon="4.81681">
        <ele>236.3</ele>
        <time>2024-03-12T11:44:53Z</time>
      </trkpt>
      <trkpt lat="44.23384" lon="4.81681">
        <ele>236.3</ele>
        <time>2024-03-12T11:44:54Z</time>
      </trkpt>
      <trkpt lat="44.23382" lon="4.81679">
        <ele>236.6</ele>
        <time>2024-03-12T11:44:55Z</time>
      </trkpt>
      <trkpt lat="44.23382" lon="4.81679">
        <ele>236.6</ele>
        <time>2024-03-12T11:44:56Z</time>
      </trkpt>
      <trkpt lat="44.2338" lon="4.81679">
        <ele>236.7</ele>
        <time>2024-03-12T11:44:57Z</time>
      </trkpt>
      <trkpt lat="44.2338" lon="4.81679">
        <ele>236.7</ele>
        <time>2024-03-12T11:44:58Z</time>
      </trkpt>
      <trkpt lat="44.23378" lon="4.81679">
        <ele>236.9</ele>
        <time>2024-03-12T11:44:59Z</time>
      </trkpt>
      <trkpt lat="44.23378" lon="4.81679">
        <ele>236.9</ele>
        <time>2024-03-12T11:45:00Z</time>
      </trkpt>
      <trkpt lat="44.23376" lon="4.81676">
        <ele>237</ele>
        <time>2024-03-12T11:45:01Z</time>
      </trkpt>
      <trkpt lat="44.23376" lon="4.81676">
        <ele>237</ele>
        <time>2024-03-12T11:45:02Z</time>
      </trkpt>
      <trkpt lat="44.23374" lon="4.81672">
        <ele>237.2</ele>
        <time>2024-03-12T11:45:03Z</time>
      </trkpt>
      <trkpt lat="44.23373" lon="4.81669">
        <ele>237.2</ele>
        <time>2024-03-12T11:45:04Z</time>
      </trkpt>
      <trkpt lat="44.23371" lon="4.81666">
        <ele>237.2</ele>
        <time>2024-03-12T11:45:05Z</time>
      </trkpt>
      <trkpt lat="44.2337" lon="4.81663">
        <ele>237.2</ele>
        <time>2024-03-12T11:45:06Z</time>
      </trkpt>
      <trkpt lat="44.23368" lon="4.81659">
        <ele>237.2</ele>
        <time>2024-03-12T11:45:07Z</time>
      </trkpt>
      <trkpt lat="44.23366" lon="4.81655">
        <ele>237.2</ele>
        <time>2024-03-12T11:45:08Z</time>
      </trkpt>
      <trkpt lat="44.23365" lon="4.81651">
        <ele>237.1</ele>
        <time>2024-03-12T11:45:09Z</time>
      </trkpt>
      <trkpt lat="44.23364" lon="4.81647">
        <ele>237.1</ele>
        <time>2024-03-12T11:45:10Z</time>
      </trkpt>
      <trkpt lat="44.23362" lon="4.81642">
        <ele>237.1</ele>
        <time>2024-03-12T11:45:11Z</time>
      </trkpt>
      <trkpt lat="44.23361" lon="4.81638">
        <ele>237.1</ele>
        <time>2024-03-12T11:45:12Z</time>
      </trkpt>
      <trkpt lat="44.2336" lon="4.81633">
        <ele>237.1</ele>
        <time>2024-03-12T11:45:13Z</time>
      </trkpt>
      <trkpt lat="44.2336" lon="4.81629">
        <ele>237.1</ele>
        <time>2024-03-12T11:45:14Z</time>
      </trkpt>
      <trkpt lat="44.2336" lon="4.81626">
        <ele>237.1</ele>
        <time>2024-03-12T11:45:15Z</time>
      </trkpt>
      <trkpt lat="44.2336" lon="4.81622">
        <ele>237.2</ele>
        <time>2024-03-12T11:45:16Z</time>
      </trkpt>
      <trkpt lat="44.23359" lon="4.81618">
        <ele>237.2</ele>
        <time>2024-03-12T11:45:17Z</time>
      </trkpt>
      <trkpt lat="44.23359" lon="4.81614">
        <ele>237.3</ele>
        <time>2024-03-12T11:45:18Z</time>
      </trkpt>
      <trkpt lat="44.23358" lon="4.8161">
        <ele>237.4</ele>
        <time>2024-03-12T11:45:19Z</time>
      </trkpt>
      <trkpt lat="44.23357" lon="4.81607">
        <ele>237.5</ele>
        <time>2024-03-12T11:45:20Z</time>
      </trkpt>
      <trkpt lat="44.23355" lon="4.81604">
        <ele>237.7</ele>
        <time>2024-03-12T11:45:21Z</time>
      </trkpt>
      <trkpt lat="44.23354" lon="4.81601">
        <ele>237.8</ele>
        <time>2024-03-12T11:45:22Z</time>
      </trkpt>
      <trkpt lat="44.23352" lon="4.81599">
        <ele>237.9</ele>
        <time>2024-03-12T11:45:23Z</time>
      </trkpt>
      <trkpt lat="44.23351" lon="4.81596">
        <ele>238</ele>
        <time>2024-03-12T11:45:24Z</time>
      </trkpt>
      <trkpt lat="44.2335" lon="4.81594">
        <ele>238.2</ele>
        <time>2024-03-12T11:45:25Z</time>
      </trkpt>
      <trkpt lat="44.23349" lon="4.81591">
        <ele>238.3</ele>
        <time>2024-03-12T11:45:26Z</time>
      </trkpt>
      <trkpt lat="44.23348" lon="4.81589">
        <ele>238.4</ele>
        <time>2024-03-12T11:45:27Z</time>
      </trkpt>
      <trkpt lat="44.23346" lon="4.81587">
        <ele>238.6</ele>
        <time>2024-03-12T11:45:28Z</time>
      </trkpt>
      <trkpt lat="44.23344" lon="4.81585">
        <ele>238.8</ele>
        <time>2024-03-12T11:45:29Z</time>
      </trkpt>
      <trkpt lat="44.23343" lon="4.81583">
        <ele>238.9</ele>
        <time>2024-03-12T11:45:30Z</time>
      </trkpt>
      <trkpt lat="44.23341" lon="4.81581">
        <ele>239.1</ele>
        <time>2024-03-12T11:45:31Z</time>
      </trkpt>
      <trkpt lat="44.23339" lon="4.81579">
        <ele>239.3</ele>
        <time>2024-03-12T11:45:32Z</time>
      </trkpt>
      <trkpt lat="44.23337" lon="4.81577">
        <ele>239.6</ele>
        <time>2024-03-12T11:45:33Z</time>
      </trkpt>
      <trkpt lat="44.23335" lon="4.81575">
        <ele>239.8</ele>
        <time>2024-03-12T11:45:34Z</time>
      </trkpt>
      <trkpt lat="44.23333" lon="4.81572">
        <ele>240</ele>
        <time>2024-03-12T11:45:35Z</time>
      </trkpt>
      <trkpt lat="44.23332" lon="4.81569">
        <ele>240.2</ele>
        <time>2024-03-12T11:45:36Z</time>
      </trkpt>
      <trkpt lat="44.2333" lon="4.81566">
        <ele>240.4</ele>
        <time>2024-03-12T11:45:37Z</time>
      </trkpt>
      <trkpt lat="44.23329" lon="4.81563">
        <ele>240.5</ele>
        <time>2024-03-12T11:45:38Z</time>
      </trkpt>
      <trkpt lat="44.23328" lon="4.8156">
        <ele>240.7</ele>
        <time>2024-03-12T11:45:39Z</time>
      </trkpt>
      <trkpt lat="44.23328" lon="4.81557">
        <ele>240.8</ele>
        <time>2024-03-12T11:45:40Z</time>
      </trkpt>
      <trkpt lat="44.23327" lon="4.81553">
        <ele>240.9</ele>
        <time>2024-03-12T11:45:41Z</time>
      </trkpt>
      <trkpt lat="44.23327" lon="4.8155">
        <ele>241.1</ele>
        <time>2024-03-12T11:45:42Z</time>
      </trkpt>
      <trkpt lat="44.23326" lon="4.81546">
        <ele>241.3</ele>
        <time>2024-03-12T11:45:43Z</time>
      </trkpt>
      <trkpt lat="44.23326" lon="4.81541">
        <ele>241.4</ele>
        <time>2024-03-12T11:45:44Z</time>
      </trkpt>
      <trkpt lat="44.23326" lon="4.81537">
        <ele>241.6</ele>
        <time>2024-03-12T11:45:45Z</time>
      </trkpt>
      <trkpt lat="44.23326" lon="4.81534">
        <ele>241.9</ele>
        <time>2024-03-12T11:45:46Z</time>
      </trkpt>
      <trkpt lat="44.23326" lon="4.8153">
        <ele>242.1</ele>
        <time>2024-03-12T11:45:47Z</time>
      </trkpt>
      <trkpt lat="44.23325" lon="4.81528">
        <ele>242.3</ele>
        <time>2024-03-12T11:45:48Z</time>
      </trkpt>
      <trkpt lat="44.23324" lon="4.81525">
        <ele>242.5</ele>
        <time>2024-03-12T11:45:49Z</time>
      </trkpt>
      <trkpt lat="44.23323" lon="4.81522">
        <ele>242.7</ele>
        <time>2024-03-12T11:45:50Z</time>
      </trkpt>
      <trkpt lat="44.23321" lon="4.8152">
        <ele>243</ele>
        <time>2024-03-12T11:45:51Z</time>
      </trkpt>
      <trkpt lat="44.23319" lon="4.81518">
        <ele>243.3</ele>
        <time>2024-03-12T11:45:52Z</time>
      </trkpt>
      <trkpt lat="44.23317" lon="4.81516">
        <ele>243.6</ele>
        <time>2024-03-12T11:45:53Z</time>
      </trkpt>
      <trkpt lat="44.23316" lon="4.81513">
        <ele>243.9</ele>
        <time>2024-03-12T11:45:54Z</time>
      </trkpt>
      <trkpt lat="44.23314" lon="4.81511">
        <ele>244.2</ele>
        <time>2024-03-12T11:45:55Z</time>
      </trkpt>
      <trkpt lat="44.23313" lon="4.81508">
        <ele>244.5</ele>
        <time>2024-03-12T11:45:56Z</time>
      </trkpt>
      <trkpt lat="44.23311" lon="4.81505">
        <ele>244.8</ele>
        <time>2024-03-12T11:45:57Z</time>
      </trkpt>
      <trkpt lat="44.2331" lon="4.81502">
        <ele>245.1</ele>
        <time>2024-03-12T11:45:58Z</time>
      </trkpt>
      <trkpt lat="44.2331" lon="4.81499">
        <ele>245.5</ele>
        <time>2024-03-12T11:45:59Z</time>
      </trkpt>
      <trkpt lat="44.2331" lon="4.81495">
        <ele>245.8</ele>
        <time>2024-03-12T11:46:00Z</time>
      </trkpt>
      <trkpt lat="44.2331" lon="4.81492">
        <ele>246.1</ele>
        <time>2024-03-12T11:46:01Z</time>
      </trkpt>
      <trkpt lat="44.2331" lon="4.81489">
        <ele>246.3</ele>
        <time>2024-03-12T11:46:02Z</time>
      </trkpt>
      <trkpt lat="44.23312" lon="4.81486">
        <ele>245.7</ele>
        <time>2024-03-12T11:46:03Z</time>
      </trkpt>
      <trkpt lat="44.23313" lon="4.81483">
        <ele>245.2</ele>
        <time>2024-03-12T11:46:04Z</time>
      </trkpt>
      <trkpt lat="44.23316" lon="4.8148">
        <ele>244.6</ele>
        <time>2024-03-12T11:46:05Z</time>
      </trkpt>
      <trkpt lat="44.23318" lon="4.81478">
        <ele>244</ele>
        <time>2024-03-12T11:46:06Z</time>
      </trkpt>
      <trkpt lat="44.2332" lon="4.81477">
        <ele>243.4</ele>
        <time>2024-03-12T11:46:07Z</time>
      </trkpt>
      <trkpt lat="44.23324" lon="4.81475">
        <ele>242.7</ele>
        <time>2024-03-12T11:46:08Z</time>
      </trkpt>
      <trkpt lat="44.23326" lon="4.81474">
        <ele>242.1</ele>
        <time>2024-03-12T11:46:09Z</time>
      </trkpt>
      <trkpt lat="44.2333" lon="4.81474">
        <ele>241.4</ele>
        <time>2024-03-12T11:46:10Z</time>
      </trkpt>
      <trkpt lat="44.23333" lon="4.81473">
        <ele>240.7</ele>
        <time>2024-03-12T11:46:11Z</time>
      </trkpt>
      <trkpt lat="44.23336" lon="4.81473">
        <ele>240.2</ele>
        <time>2024-03-12T11:46:12Z</time>
      </trkpt>
      <trkpt lat="44.23339" lon="4.81472">
        <ele>239.8</ele>
        <time>2024-03-12T11:46:13Z</time>
      </trkpt>
      <trkpt lat="44.23342" lon="4.8147">
        <ele>239.5</ele>
        <time>2024-03-12T11:46:14Z</time>
      </trkpt>
      <trkpt lat="44.23344" lon="4.81468">
        <ele>239.2</ele>
        <time>2024-03-12T11:46:15Z</time>
      </trkpt>
      <trkpt lat="44.23345" lon="4.81465">
        <ele>239</ele>
        <time>2024-03-12T11:46:16Z</time>
      </trkpt>
      <trkpt lat="44.23347" lon="4.81463">
        <ele>238.7</ele>
        <time>2024-03-12T11:46:17Z</time>
      </trkpt>
      <trkpt lat="44.23349" lon="4.81461">
        <ele>238.4</ele>
        <time>2024-03-12T11:46:18Z</time>
      </trkpt>
      <trkpt lat="44.23351" lon="4.8146">
        <ele>238.2</ele>
        <time>2024-03-12T11:46:19Z</time>
      </trkpt>
      <trkpt lat="44.23354" lon="4.81459">
        <ele>237.8</ele>
        <time>2024-03-12T11:46:20Z</time>
      </trkpt>
      <trkpt lat="44.23357" lon="4.81459">
        <ele>237.4</ele>
        <time>2024-03-12T11:46:21Z</time>
      </trkpt>
      <trkpt lat="44.23359" lon="4.81459">
        <ele>236.9</ele>
        <time>2024-03-12T11:46:22Z</time>
      </trkpt>
      <trkpt lat="44.23362" lon="4.81459">
        <ele>236.5</ele>
        <time>2024-03-12T11:46:23Z</time>
      </trkpt>
      <trkpt lat="44.23365" lon="4.8146">
        <ele>236.1</ele>
        <time>2024-03-12T11:46:24Z</time>
      </trkpt>
      <trkpt lat="44.23367" lon="4.81461">
        <ele>235.7</ele>
        <time>2024-03-12T11:46:25Z</time>
      </trkpt>
      <trkpt lat="44.2337" lon="4.81461">
        <ele>235.4</ele>
        <time>2024-03-12T11:46:26Z</time>
      </trkpt>
      <trkpt lat="44.23372" lon="4.81461">
        <ele>235</ele>
        <time>2024-03-12T11:46:27Z</time>
      </trkpt>
      <trkpt lat="44.23374" lon="4.81461">
        <ele>234.7</ele>
        <time>2024-03-12T11:46:28Z</time>
      </trkpt>
      <trkpt lat="44.23377" lon="4.8146">
        <ele>234.4</ele>
        <time>2024-03-12T11:46:29Z</time>
      </trkpt>
      <trkpt lat="44.2338" lon="4.81458">
        <ele>234</ele>
        <time>2024-03-12T11:46:30Z</time>
      </trkpt>
      <trkpt lat="44.23383" lon="4.81456">
        <ele>233.6</ele>
        <time>2024-03-12T11:46:31Z</time>
      </trkpt>
      <trkpt lat="44.23386" lon="4.81455">
        <ele>233.2</ele>
        <time>2024-03-12T11:46:32Z</time>
      </trkpt>
      <trkpt lat="44.2339" lon="4.81454">
        <ele>232.7</ele>
        <time>2024-03-12T11:46:33Z</time>
      </trkpt>
      <trkpt lat="44.23394" lon="4.81453">
        <ele>232.1</ele>
        <time>2024-03-12T11:46:34Z</time>
      </trkpt>
      <trkpt lat="44.23398" lon="4.81452">
        <ele>231.6</ele>
        <time>2024-03-12T11:46:35Z</time>
      </trkpt>
      <trkpt lat="44.23402" lon="4.8145">
        <ele>231</ele>
        <time>2024-03-12T11:46:36Z</time>
      </trkpt>
      <trkpt lat="44.23406" lon="4.81449">
        <ele>230.6</ele>
        <time>2024-03-12T11:46:37Z</time>
      </trkpt>
      <trkpt lat="44.2341" lon="4.81446">
        <ele>230.1</ele>
        <time>2024-03-12T11:46:38Z</time>
      </trkpt>
      <trkpt lat="44.23413" lon="4.81444">
        <ele>229.6</ele>
        <time>2024-03-12T11:46:39Z</time>
      </trkpt>
      <trkpt lat="44.23416" lon="4.81441">
        <ele>229.2</ele>
        <time>2024-03-12T11:46:40Z</time>
      </trkpt>
      <trkpt lat="44.23418" lon="4.81438">
        <ele>228.8</ele>
        <time>2024-03-12T11:46:41Z</time>
      </trkpt>
      <trkpt lat="44.2342" lon="4.81435">
        <ele>228.5</ele>
        <time>2024-03-12T11:46:42Z</time>
      </trkpt>
      <trkpt lat="44.23422" lon="4.81433">
        <ele>228.1</ele>
        <time>2024-03-12T11:46:43Z</time>
      </trkpt>
      <trkpt lat="44.23424" lon="4.81431">
        <ele>227.8</ele>
        <time>2024-03-12T11:46:44Z</time>
      </trkpt>
      <trkpt lat="44.23427" lon="4.81429">
        <ele>227.4</ele>
        <time>2024-03-12T11:46:45Z</time>
      </trkpt>
      <trkpt lat="44.23429" lon="4.81427">
        <ele>227</ele>
        <time>2024-03-12T11:46:46Z</time>
      </trkpt>
      <trkpt lat="44.23431" lon="4.81426">
        <ele>226.7</ele>
        <time>2024-03-12T11:46:47Z</time>
      </trkpt>
      <trkpt lat="44.23434" lon="4.81425">
        <ele>226.3</ele>
        <time>2024-03-12T11:46:48Z</time>
      </trkpt>
      <trkpt lat="44.23437" lon="4.81424">
        <ele>225.9</ele>
        <time>2024-03-12T11:46:49Z</time>
      </trkpt>
      <trkpt lat="44.23439" lon="4.81424">
        <ele>225.6</ele>
        <time>2024-03-12T11:46:50Z</time>
      </trkpt>
      <trkpt lat="44.23442" lon="4.81424">
        <ele>225.3</ele>
        <time>2024-03-12T11:46:51Z</time>
      </trkpt>
      <trkpt lat="44.23445" lon="4.81424">
        <ele>224.9</ele>
        <time>2024-03-12T11:46:52Z</time>
      </trkpt>
      <trkpt lat="44.23448" lon="4.81424">
        <ele>224.6</ele>
        <time>2024-03-12T11:46:53Z</time>
      </trkpt>
      <trkpt lat="44.23451" lon="4.81424">
        <ele>224.2</ele>
        <time>2024-03-12T11:46:54Z</time>
      </trkpt>
      <trkpt lat="44.23454" lon="4.81424">
        <ele>224</ele>
        <time>2024-03-12T11:46:55Z</time>
      </trkpt>
      <trkpt lat="44.23457" lon="4.81423">
        <ele>223.6</ele>
        <time>2024-03-12T11:46:56Z</time>
      </trkpt>
      <trkpt lat="44.23461" lon="4.81422">
        <ele>223.3</ele>
        <time>2024-03-12T11:46:57Z</time>
      </trkpt>
      <trkpt lat="44.23464" lon="4.81422">
        <ele>222.9</ele>
        <time>2024-03-12T11:46:58Z</time>
      </trkpt>
      <trkpt lat="44.23468" lon="4.81423">
        <ele>222.6</ele>
        <time>2024-03-12T11:46:59Z</time>
      </trkpt>
      <trkpt lat="44.23471" lon="4.81425">
        <ele>222.3</ele>
        <time>2024-03-12T11:47:00Z</time>
      </trkpt>
      <trkpt lat="44.23474" lon="4.81427">
        <ele>222</ele>
        <time>2024-03-12T11:47:01Z</time>
      </trkpt>
      <trkpt lat="44.23477" lon="4.8143">
        <ele>221.7</ele>
        <time>2024-03-12T11:47:02Z</time>
      </trkpt>
      <trkpt lat="44.23479" lon="4.81432">
        <ele>221.5</ele>
        <time>2024-03-12T11:47:03Z</time>
      </trkpt>
      <trkpt lat="44.23481" lon="4.81435">
        <ele>221.3</ele>
        <time>2024-03-12T11:47:04Z</time>
      </trkpt>
      <trkpt lat="44.23483" lon="4.81438">
        <ele>221.1</ele>
        <time>2024-03-12T11:47:05Z</time>
      </trkpt>
      <trkpt lat="44.23485" lon="4.81442">
        <ele>220.9</ele>
        <time>2024-03-12T11:47:06Z</time>
      </trkpt>
      <trkpt lat="44.23487" lon="4.81446">
        <ele>220.6</ele>
        <time>2024-03-12T11:47:07Z</time>
      </trkpt>
      <trkpt lat="44.23489" lon="4.81451">
        <ele>220.4</ele>
        <time>2024-03-12T11:47:08Z</time>
      </trkpt>
      <trkpt lat="44.23491" lon="4.81454">
        <ele>220.2</ele>
        <time>2024-03-12T11:47:09Z</time>
      </trkpt>
      <trkpt lat="44.23493" lon="4.81457">
        <ele>220.1</ele>
        <time>2024-03-12T11:47:10Z</time>
      </trkpt>
      <trkpt lat="44.23494" lon="4.81459">
        <ele>220</ele>
        <time>2024-03-12T11:47:11Z</time>
      </trkpt>
      <trkpt lat="44.23494" lon="4.81459">
        <ele>220</ele>
        <time>2024-03-12T11:47:12Z</time>
      </trkpt>
      <trkpt lat="44.23497" lon="4.8146">
        <ele>219.8</ele>
        <time>2024-03-12T11:47:13Z</time>
      </trkpt>
      <trkpt lat="44.235" lon="4.8146">
        <ele>219.6</ele>
        <time>2024-03-12T11:47:14Z</time>
      </trkpt>
      <trkpt lat="44.23502" lon="4.8146">
        <ele>219.5</ele>
        <time>2024-03-12T11:47:15Z</time>
      </trkpt>
      <trkpt lat="44.23506" lon="4.8146">
        <ele>219.2</ele>
        <time>2024-03-12T11:47:16Z</time>
      </trkpt>
      <trkpt lat="44.23509" lon="4.81461">
        <ele>219</ele>
        <time>2024-03-12T11:47:17Z</time>
      </trkpt>
      <trkpt lat="44.23513" lon="4.81462">
        <ele>218.8</ele>
        <time>2024-03-12T11:47:18Z</time>
      </trkpt>
      <trkpt lat="44.23516" lon="4.81462">
        <ele>218.5</ele>
        <time>2024-03-12T11:47:19Z</time>
      </trkpt>
      <trkpt lat="44.23519" lon="4.81462">
        <ele>218.1</ele>
        <time>2024-03-12T11:47:20Z</time>
      </trkpt>
      <trkpt lat="44.23521" lon="4.81461">
        <ele>217.8</ele>
        <time>2024-03-12T11:47:21Z</time>
      </trkpt>
      <trkpt lat="44.23523" lon="4.81459">
        <ele>217.4</ele>
        <time>2024-03-12T11:47:22Z</time>
      </trkpt>
      <trkpt lat="44.23526" lon="4.81457">
        <ele>217</ele>
        <time>2024-03-12T11:47:23Z</time>
      </trkpt>
      <trkpt lat="44.23528" lon="4.81454">
        <ele>216.7</ele>
        <time>2024-03-12T11:47:24Z</time>
      </trkpt>
      <trkpt lat="44.23531" lon="4.81452">
        <ele>216.3</ele>
        <time>2024-03-12T11:47:25Z</time>
      </trkpt>
      <trkpt lat="44.23533" lon="4.81451">
        <ele>216</ele>
        <time>2024-03-12T11:47:26Z</time>
      </trkpt>
      <trkpt lat="44.23536" lon="4.8145">
        <ele>215.6</ele>
        <time>2024-03-12T11:47:27Z</time>
      </trkpt>
      <trkpt lat="44.23539" lon="4.8145">
        <ele>215.3</ele>
        <time>2024-03-12T11:47:28Z</time>
      </trkpt>
      <trkpt lat="44.23542" lon="4.8145">
        <ele>215</ele>
        <time>2024-03-12T11:47:29Z</time>
      </trkpt>
      <trkpt lat="44.23546" lon="4.81451">
        <ele>214.6</ele>
        <time>2024-03-12T11:47:30Z</time>
      </trkpt>
      <trkpt lat="44.2355" lon="4.81452">
        <ele>214.3</ele>
        <time>2024-03-12T11:47:31Z</time>
      </trkpt>
      <trkpt lat="44.23553" lon="4.81452">
        <ele>214</ele>
        <time>2024-03-12T11:47:32Z</time>
      </trkpt>
      <trkpt lat="44.23557" lon="4.81453">
        <ele>213.7</ele>
        <time>2024-03-12T11:47:33Z</time>
      </trkpt>
      <trkpt lat="44.2356" lon="4.81453">
        <ele>213.3</ele>
        <time>2024-03-12T11:47:34Z</time>
      </trkpt>
      <trkpt lat="44.23564" lon="4.81452">
        <ele>213</ele>
        <time>2024-03-12T11:47:35Z</time>
      </trkpt>
      <trkpt lat="44.23567" lon="4.81452">
        <ele>212.6</ele>
        <time>2024-03-12T11:47:36Z</time>
      </trkpt>
      <trkpt lat="44.23571" lon="4.81451">
        <ele>212.2</ele>
        <time>2024-03-12T11:47:37Z</time>
      </trkpt>
      <trkpt lat="44.23574" lon="4.81449">
        <ele>211.8</ele>
        <time>2024-03-12T11:47:38Z</time>
      </trkpt>
      <trkpt lat="44.23578" lon="4.81448">
        <ele>211.4</ele>
        <time>2024-03-12T11:47:39Z</time>
      </trkpt>
      <trkpt lat="44.23581" lon="4.81446">
        <ele>211</ele>
        <time>2024-03-12T11:47:40Z</time>
      </trkpt>
      <trkpt lat="44.23584" lon="4.81445">
        <ele>210.6</ele>
        <time>2024-03-12T11:47:41Z</time>
      </trkpt>
      <trkpt lat="44.23587" lon="4.81443">
        <ele>210.2</ele>
        <time>2024-03-12T11:47:42Z</time>
      </trkpt>
      <trkpt lat="44.2359" lon="4.81442">
        <ele>209.8</ele>
        <time>2024-03-12T11:47:43Z</time>
      </trkpt>
      <trkpt lat="44.23592" lon="4.8144">
        <ele>209.5</ele>
        <time>2024-03-12T11:47:44Z</time>
      </trkpt>
      <trkpt lat="44.23594" lon="4.81438">
        <ele>209.2</ele>
        <time>2024-03-12T11:47:45Z</time>
      </trkpt>
      <trkpt lat="44.23597" lon="4.81436">
        <ele>208.8</ele>
        <time>2024-03-12T11:47:46Z</time>
      </trkpt>
      <trkpt lat="44.23598" lon="4.81433">
        <ele>208.5</ele>
        <time>2024-03-12T11:47:47Z</time>
      </trkpt>
      <trkpt lat="44.23601" lon="4.81431">
        <ele>208.2</ele>
        <time>2024-03-12T11:47:48Z</time>
      </trkpt>
      <trkpt lat="44.23603" lon="4.81429">
        <ele>207.9</ele>
        <time>2024-03-12T11:47:49Z</time>
      </trkpt>
      <trkpt lat="44.23605" lon="4.81428">
        <ele>207.5</ele>
        <time>2024-03-12T11:47:50Z</time>
      </trkpt>
      <trkpt lat="44.23607" lon="4.81426">
        <ele>207.2</ele>
        <time>2024-03-12T11:47:51Z</time>
      </trkpt>
      <trkpt lat="44.23609" lon="4.81424">
        <ele>206.9</ele>
        <time>2024-03-12T11:47:52Z</time>
      </trkpt>
      <trkpt lat="44.23611" lon="4.81421">
        <ele>206.4</ele>
        <time>2024-03-12T11:47:53Z</time>
      </trkpt>
      <trkpt lat="44.23613" lon="4.81419">
        <ele>206</ele>
        <time>2024-03-12T11:47:54Z</time>
      </trkpt>
      <trkpt lat="44.23616" lon="4.81417">
        <ele>205.6</ele>
        <time>2024-03-12T11:47:55Z</time>
      </trkpt>
      <trkpt lat="44.23618" lon="4.81414">
        <ele>205.1</ele>
        <time>2024-03-12T11:47:56Z</time>
      </trkpt>
      <trkpt lat="44.2362" lon="4.81411">
        <ele>204.6</ele>
        <time>2024-03-12T11:47:57Z</time>
      </trkpt>
      <trkpt lat="44.23622" lon="4.81407">
        <ele>204.1</ele>
        <time>2024-03-12T11:47:58Z</time>
      </trkpt>
      <trkpt lat="44.23624" lon="4.81403">
        <ele>203.6</ele>
        <time>2024-03-12T11:47:59Z</time>
      </trkpt>
      <trkpt lat="44.23626" lon="4.81399">
        <ele>203.1</ele>
        <time>2024-03-12T11:48:00Z</time>
      </trkpt>
      <trkpt lat="44.23628" lon="4.81396">
        <ele>202.6</ele>
        <time>2024-03-12T11:48:01Z</time>
      </trkpt>
      <trkpt lat="44.23629" lon="4.81392">
        <ele>202.2</ele>
        <time>2024-03-12T11:48:02Z</time>
      </trkpt>
      <trkpt lat="44.23632" lon="4.8139">
        <ele>201.7</ele>
        <time>2024-03-12T11:48:03Z</time>
      </trkpt>
      <trkpt lat="44.23634" lon="4.81387">
        <ele>201.3</ele>
        <time>2024-03-12T11:48:04Z</time>
      </trkpt>
      <trkpt lat="44.23637" lon="4.81385">
        <ele>200.9</ele>
        <time>2024-03-12T11:48:05Z</time>
      </trkpt>
      <trkpt lat="44.23639" lon="4.81383">
        <ele>200.5</ele>
        <time>2024-03-12T11:48:06Z</time>
      </trkpt>
      <trkpt lat="44.23642" lon="4.81382">
        <ele>200.1</ele>
        <time>2024-03-12T11:48:07Z</time>
      </trkpt>
      <trkpt lat="44.23645" lon="4.81381">
        <ele>199.7</ele>
        <time>2024-03-12T11:48:08Z</time>
      </trkpt>
      <trkpt lat="44.23648" lon="4.81379">
        <ele>199.3</ele>
        <time>2024-03-12T11:48:09Z</time>
      </trkpt>
      <trkpt lat="44.2365" lon="4.81378">
        <ele>199</ele>
        <time>2024-03-12T11:48:10Z</time>
      </trkpt>
      <trkpt lat="44.23652" lon="4.81376">
        <ele>198.6</ele>
        <time>2024-03-12T11:48:11Z</time>
      </trkpt>
      <trkpt lat="44.23654" lon="4.81374">
        <ele>198.3</ele>
        <time>2024-03-12T11:48:12Z</time>
      </trkpt>
      <trkpt lat="44.23657" lon="4.81372">
        <ele>197.8</ele>
        <time>2024-03-12T11:48:13Z</time>
      </trkpt>
      <trkpt lat="44.2366" lon="4.8137">
        <ele>197.4</ele>
        <time>2024-03-12T11:48:14Z</time>
      </trkpt>
      <trkpt lat="44.23662" lon="4.81368">
        <ele>197</ele>
        <time>2024-03-12T11:48:15Z</time>
      </trkpt>
      <trkpt lat="44.23666" lon="4.81367">
        <ele>196.5</ele>
        <time>2024-03-12T11:48:16Z</time>
      </trkpt>
      <trkpt lat="44.23669" lon="4.81367">
        <ele>196</ele>
        <time>2024-03-12T11:48:17Z</time>
      </trkpt>
      <trkpt lat="44.23673" lon="4.81369">
        <ele>195.4</ele>
        <time>2024-03-12T11:48:18Z</time>
      </trkpt>
      <trkpt lat="44.23678" lon="4.81371">
        <ele>194.8</ele>
        <time>2024-03-12T11:48:19Z</time>
      </trkpt>
      <trkpt lat="44.23682" lon="4.81374">
        <ele>194.3</ele>
        <time>2024-03-12T11:48:20Z</time>
      </trkpt>
      <trkpt lat="44.23686" lon="4.81377">
        <ele>193.9</ele>
        <time>2024-03-12T11:48:21Z</time>
      </trkpt>
      <trkpt lat="44.23689" lon="4.81381">
        <ele>193.5</ele>
        <time>2024-03-12T11:48:22Z</time>
      </trkpt>
      <trkpt lat="44.23693" lon="4.81384">
        <ele>193.2</ele>
        <time>2024-03-12T11:48:23Z</time>
      </trkpt>
      <trkpt lat="44.23695" lon="4.81388">
        <ele>193</ele>
        <time>2024-03-12T11:48:24Z</time>
      </trkpt>
      <trkpt lat="44.23697" lon="4.81391">
        <ele>192.8</ele>
        <time>2024-03-12T11:48:25Z</time>
      </trkpt>
      <trkpt lat="44.237" lon="4.81394">
        <ele>192.7</ele>
        <time>2024-03-12T11:48:26Z</time>
      </trkpt>
      <trkpt lat="44.23703" lon="4.81397">
        <ele>192.6</ele>
        <time>2024-03-12T11:48:27Z</time>
      </trkpt>
      <trkpt lat="44.23705" lon="4.814">
        <ele>192.5</ele>
        <time>2024-03-12T11:48:28Z</time>
      </trkpt>
      <trkpt lat="44.23708" lon="4.81403">
        <ele>192.4</ele>
        <time>2024-03-12T11:48:29Z</time>
      </trkpt>
      <trkpt lat="44.2371" lon="4.81407">
        <ele>192.4</ele>
        <time>2024-03-12T11:48:30Z</time>
      </trkpt>
      <trkpt lat="44.23713" lon="4.8141">
        <ele>192.4</ele>
        <time>2024-03-12T11:48:31Z</time>
      </trkpt>
      <trkpt lat="44.23715" lon="4.81414">
        <ele>192.3</ele>
        <time>2024-03-12T11:48:32Z</time>
      </trkpt>
      <trkpt lat="44.23717" lon="4.81419">
        <ele>192.3</ele>
        <time>2024-03-12T11:48:33Z</time>
      </trkpt>
      <trkpt lat="44.23719" lon="4.81423">
        <ele>192.2</ele>
        <time>2024-03-12T11:48:34Z</time>
      </trkpt>
      <trkpt lat="44.23721" lon="4.81428">
        <ele>192.2</ele>
        <time>2024-03-12T11:48:35Z</time>
      </trkpt>
      <trkpt lat="44.23721" lon="4.81432">
        <ele>192.1</ele>
        <time>2024-03-12T11:48:36Z</time>
      </trkpt>
      <trkpt lat="44.23722" lon="4.81436">
        <ele>192.1</ele>
        <time>2024-03-12T11:48:37Z</time>
      </trkpt>
      <trkpt lat="44.23723" lon="4.81439">
        <ele>192</ele>
        <time>2024-03-12T11:48:38Z</time>
      </trkpt>
      <trkpt lat="44.23723" lon="4.81442">
        <ele>192</ele>
        <time>2024-03-12T11:48:39Z</time>
      </trkpt>
      <trkpt lat="44.23723" lon="4.81442">
        <ele>192</ele>
        <time>2024-03-12T11:48:40Z</time>
      </trkpt>
      <trkpt lat="44.23725" lon="4.81444">
        <ele>191.9</ele>
        <time>2024-03-12T11:48:41Z</time>
      </trkpt>
      <trkpt lat="44.23725" lon="4.81444">
        <ele>191.9</ele>
        <time>2024-03-12T11:48:42Z</time>
      </trkpt>
      <trkpt lat="44.23728" lon="4.81442">
        <ele>191.6</ele>
        <time>2024-03-12T11:48:43Z</time>
      </trkpt>
      <trkpt lat="44.23729" lon="4.8144">
        <ele>191.5</ele>
        <time>2024-03-12T11:48:44Z</time>
      </trkpt>
      <trkpt lat="44.2373" lon="4.81438">
        <ele>191.4</ele>
        <time>2024-03-12T11:48:45Z</time>
      </trkpt>
      <trkpt lat="44.2373" lon="4.81436">
        <ele>191.3</ele>
        <time>2024-03-12T11:48:46Z</time>
      </trkpt>
      <trkpt lat="44.23729" lon="4.81433">
        <ele>191.3</ele>
        <time>2024-03-12T11:48:47Z</time>
      </trkpt>
      <trkpt lat="44.23728" lon="4.81429">
        <ele>191.1</ele>
        <time>2024-03-12T11:48:48Z</time>
      </trkpt>
      <trkpt lat="44.23727" lon="4.81426">
        <ele>191</ele>
        <time>2024-03-12T11:48:49Z</time>
      </trkpt>
      <trkpt lat="44.23725" lon="4.81421">
        <ele>190.7</ele>
        <time>2024-03-12T11:48:50Z</time>
      </trkpt>
      <trkpt lat="44.23725" lon="4.81417">
        <ele>190.5</ele>
        <time>2024-03-12T11:48:51Z</time>
      </trkpt>
      <trkpt lat="44.23723" lon="4.81413">
        <ele>190.3</ele>
        <time>2024-03-12T11:48:52Z</time>
      </trkpt>
      <trkpt lat="44.23722" lon="4.81409">
        <ele>190</ele>
        <time>2024-03-12T11:48:53Z</time>
      </trkpt>
      <trkpt lat="44.2372" lon="4.81405">
        <ele>189.8</ele>
        <time>2024-03-12T11:48:54Z</time>
      </trkpt>
      <trkpt lat="44.23719" lon="4.81402">
        <ele>189.6</ele>
        <time>2024-03-12T11:48:55Z</time>
      </trkpt>
      <trkpt lat="44.23717" lon="4.81399">
        <ele>189.5</ele>
        <time>2024-03-12T11:48:56Z</time>
      </trkpt>
      <trkpt lat="44.23715" lon="4.81396">
        <ele>189.3</ele>
        <time>2024-03-12T11:48:57Z</time>
      </trkpt>
      <trkpt lat="44.23713" lon="4.81394">
        <ele>189.2</ele>
        <time>2024-03-12T11:48:58Z</time>
      </trkpt>
      <trkpt lat="44.23711" lon="4.81391">
        <ele>189</ele>
        <time>2024-03-12T11:48:59Z</time>
      </trkpt>
      <trkpt lat="44.23709" lon="4.81388">
        <ele>188.9</ele>
        <time>2024-03-12T11:49:00Z</time>
      </trkpt>
      <trkpt lat="44.23708" lon="4.81385">
        <ele>188.9</ele>
        <time>2024-03-12T11:49:01Z</time>
      </trkpt>
      <trkpt lat="44.23707" lon="4.81382">
        <ele>188.8</ele>
        <time>2024-03-12T11:49:02Z</time>
      </trkpt>
      <trkpt lat="44.23705" lon="4.81378">
        <ele>188.7</ele>
        <time>2024-03-12T11:49:03Z</time>
      </trkpt>
      <trkpt lat="44.23704" lon="4.81375">
        <ele>188.7</ele>
        <time>2024-03-12T11:49:04Z</time>
      </trkpt>
      <trkpt lat="44.23703" lon="4.81372">
        <ele>188.7</ele>
        <time>2024-03-12T11:49:05Z</time>
      </trkpt>
      <trkpt lat="44.23701" lon="4.81369">
        <ele>188.7</ele>
        <time>2024-03-12T11:49:06Z</time>
      </trkpt>
      <trkpt lat="44.237" lon="4.81365">
        <ele>188.8</ele>
        <time>2024-03-12T11:49:07Z</time>
      </trkpt>
      <trkpt lat="44.23698" lon="4.81362">
        <ele>188.8</ele>
        <time>2024-03-12T11:49:08Z</time>
      </trkpt>
      <trkpt lat="44.23696" lon="4.81359">
        <ele>188.9</ele>
        <time>2024-03-12T11:49:09Z</time>
      </trkpt>
      <trkpt lat="44.23694" lon="4.81356">
        <ele>189</ele>
        <time>2024-03-12T11:49:10Z</time>
      </trkpt>
      <trkpt lat="44.23693" lon="4.81353">
        <ele>189</ele>
        <time>2024-03-12T11:49:11Z</time>
      </trkpt>
      <trkpt lat="44.23691" lon="4.81351">
        <ele>189.1</ele>
        <time>2024-03-12T11:49:12Z</time>
      </trkpt>
      <trkpt lat="44.23689" lon="4.8135">
        <ele>189.2</ele>
        <time>2024-03-12T11:49:13Z</time>
      </trkpt>
      <trkpt lat="44.23687" lon="4.81348">
        <ele>189.3</ele>
        <time>2024-03-12T11:49:14Z</time>
      </trkpt>
      <trkpt lat="44.23687" lon="4.81348">
        <ele>189.3</ele>
        <time>2024-03-12T11:49:15Z</time>
      </trkpt>
      <trkpt lat="44.23684" lon="4.81346">
        <ele>189.5</ele>
        <time>2024-03-12T11:49:16Z</time>
      </trkpt>
      <trkpt lat="44.23682" lon="4.81345">
        <ele>189.6</ele>
        <time>2024-03-12T11:49:17Z</time>
      </trkpt>
      <trkpt lat="44.2368" lon="4.81343">
        <ele>189.7</ele>
        <time>2024-03-12T11:49:18Z</time>
      </trkpt>
      <trkpt lat="44.23679" lon="4.8134">
        <ele>189.8</ele>
        <time>2024-03-12T11:49:19Z</time>
      </trkpt>
      <trkpt lat="44.23677" lon="4.81337">
        <ele>189.9</ele>
        <time>2024-03-12T11:49:20Z</time>
      </trkpt>
      <trkpt lat="44.23675" lon="4.81334">
        <ele>190.1</ele>
        <time>2024-03-12T11:49:21Z</time>
      </trkpt>
      <trkpt lat="44.23673" lon="4.81331">
        <ele>189.8</ele>
        <time>2024-03-12T11:49:22Z</time>
      </trkpt>
      <trkpt lat="44.23671" lon="4.81328">
        <ele>189.7</ele>
        <time>2024-03-12T11:49:23Z</time>
      </trkpt>
      <trkpt lat="44.23669" lon="4.81325">
        <ele>189.6</ele>
        <time>2024-03-12T11:49:24Z</time>
      </trkpt>
      <trkpt lat="44.23667" lon="4.81324">
        <ele>189.5</ele>
        <time>2024-03-12T11:49:25Z</time>
      </trkpt>
      <trkpt lat="44.23667" lon="4.81324">
        <ele>189.5</ele>
        <time>2024-03-12T11:49:26Z</time>
      </trkpt>
      <trkpt lat="44.23665" lon="4.81323">
        <ele>189.5</ele>
        <time>2024-03-12T11:49:27Z</time>
      </trkpt>
      <trkpt lat="44.23665" lon="4.81323">
        <ele>189.5</ele>
        <time>2024-03-12T11:49:28Z</time>
      </trkpt>
      <trkpt lat="44.23665" lon="4.81323">
        <ele>189.5</ele>
        <time>2024-03-12T11:49:29Z</time>
      </trkpt>
      <trkpt lat="44.23667" lon="4.81325">
        <ele>189.6</ele>
        <time>2024-03-12T11:49:30Z</time>
      </trkpt>
      <trkpt lat="44.23667" lon="4.81325">
        <ele>189.6</ele>
        <time>2024-03-12T11:49:31Z</time>
      </trkpt>
      <trkpt lat="44.2367" lon="4.81329">
        <ele>189.9</ele>
        <time>2024-03-12T11:49:32Z</time>
      </trkpt>
      <trkpt lat="44.23672" lon="4.81331">
        <ele>190.1</ele>
        <time>2024-03-12T11:49:33Z</time>
      </trkpt>
      <trkpt lat="44.23673" lon="4.81334">
        <ele>190.3</ele>
        <time>2024-03-12T11:49:34Z</time>
      </trkpt>
      <trkpt lat="44.23674" lon="4.81338">
        <ele>190.4</ele>
        <time>2024-03-12T11:49:35Z</time>
      </trkpt>
      <trkpt lat="44.23675" lon="4.8134">
        <ele>190.6</ele>
        <time>2024-03-12T11:49:36Z</time>
      </trkpt>
      <trkpt lat="44.23675" lon="4.8134">
        <ele>190.6</ele>
        <time>2024-03-12T11:49:37Z</time>
      </trkpt>
      <trkpt lat="44.23674" lon="4.81345">
        <ele>190.8</ele>
        <time>2024-03-12T11:49:38Z</time>
      </trkpt>
      <trkpt lat="44.23674" lon="4.81345">
        <ele>190.8</ele>
        <time>2024-03-12T11:49:39Z</time>
      </trkpt>
      <trkpt lat="44.23672" lon="4.81347">
        <ele>191</ele>
        <time>2024-03-12T11:49:40Z</time>
      </trkpt>
      <trkpt lat="44.2367" lon="4.81347">
        <ele>191.1</ele>
        <time>2024-03-12T11:49:41Z</time>
      </trkpt>
      <trkpt lat="44.23668" lon="4.81348">
        <ele>191.2</ele>
        <time>2024-03-12T11:49:42Z</time>
      </trkpt>
      <trkpt lat="44.23666" lon="4.81349">
        <ele>191.4</ele>
        <time>2024-03-12T11:49:43Z</time>
      </trkpt>
      <trkpt lat="44.23664" lon="4.8135">
        <ele>191.5</ele>
        <time>2024-03-12T11:49:44Z</time>
      </trkpt>
      <trkpt lat="44.23661" lon="4.81351">
        <ele>191.7</ele>
        <time>2024-03-12T11:49:45Z</time>
      </trkpt>
      <trkpt lat="44.23659" lon="4.81352">
        <ele>191.9</ele>
        <time>2024-03-12T11:49:46Z</time>
      </trkpt>
      <trkpt lat="44.23656" lon="4.81353">
        <ele>192.1</ele>
        <time>2024-03-12T11:49:47Z</time>
      </trkpt>
      <trkpt lat="44.23653" lon="4.81354">
        <ele>192.3</ele>
        <time>2024-03-12T11:49:48Z</time>
      </trkpt>
      <trkpt lat="44.2365" lon="4.81354">
        <ele>192.5</ele>
        <time>2024-03-12T11:49:49Z</time>
      </trkpt>
      <trkpt lat="44.23647" lon="4.81354">
        <ele>192.7</ele>
        <time>2024-03-12T11:49:50Z</time>
      </trkpt>
      <trkpt lat="44.23644" lon="4.81354">
        <ele>192.9</ele>
        <time>2024-03-12T11:49:51Z</time>
      </trkpt>
      <trkpt lat="44.23642" lon="4.81353">
        <ele>193.1</ele>
        <time>2024-03-12T11:49:52Z</time>
      </trkpt>
      <trkpt lat="44.23638" lon="4.81352">
        <ele>193.3</ele>
        <time>2024-03-12T11:49:53Z</time>
      </trkpt>
      <trkpt lat="44.23636" lon="4.81351">
        <ele>193.5</ele>
        <time>2024-03-12T11:49:54Z</time>
      </trkpt>
      <trkpt lat="44.23633" lon="4.81349">
        <ele>193.8</ele>
        <time>2024-03-12T11:49:55Z</time>
      </trkpt>
      <trkpt lat="44.2363" lon="4.81347">
        <ele>193.6</ele>
        <time>2024-03-12T11:49:56Z</time>
      </trkpt>
      <trkpt lat="44.23627" lon="4.81345">
        <ele>193.5</ele>
        <time>2024-03-12T11:49:57Z</time>
      </trkpt>
      <trkpt lat="44.23624" lon="4.81343">
        <ele>193.4</ele>
        <time>2024-03-12T11:49:58Z</time>
      </trkpt>
      <trkpt lat="44.23621" lon="4.8134">
        <ele>193.3</ele>
        <time>2024-03-12T11:49:59Z</time>
      </trkpt>
      <trkpt lat="44.23618" lon="4.81338">
        <ele>193.2</ele>
        <time>2024-03-12T11:50:00Z</time>
      </trkpt>
      <trkpt lat="44.23615" lon="4.81335">
        <ele>193.1</ele>
        <time>2024-03-12T11:50:01Z</time>
      </trkpt>
      <trkpt lat="44.23613" lon="4.81333">
        <ele>193.1</ele>
        <time>2024-03-12T11:50:02Z</time>
      </trkpt>
      <trkpt lat="44.2361" lon="4.81331">
        <ele>193.1</ele>
        <time>2024-03-12T11:50:03Z</time>
      </trkpt>
      <trkpt lat="44.23608" lon="4.81329">
        <ele>193.1</ele>
        <time>2024-03-12T11:50:04Z</time>
      </trkpt>
      <trkpt lat="44.23606" lon="4.81328">
        <ele>193.1</ele>
        <time>2024-03-12T11:50:05Z</time>
      </trkpt>
      <trkpt lat="44.23604" lon="4.81326">
        <ele>193.1</ele>
        <time>2024-03-12T11:50:06Z</time>
      </trkpt>
      <trkpt lat="44.23601" lon="4.81325">
        <ele>193.1</ele>
        <time>2024-03-12T11:50:07Z</time>
      </trkpt>
      <trkpt lat="44.23598" lon="4.81323">
        <ele>193.1</ele>
        <time>2024-03-12T11:50:08Z</time>
      </trkpt>
      <trkpt lat="44.23596" lon="4.81322">
        <ele>193.1</ele>
        <time>2024-03-12T11:50:09Z</time>
      </trkpt>
      <trkpt lat="44.23593" lon="4.81321">
        <ele>193.1</ele>
        <time>2024-03-12T11:50:10Z</time>
      </trkpt>
      <trkpt lat="44.2359" lon="4.81319">
        <ele>193.1</ele>
        <time>2024-03-12T11:50:11Z</time>
      </trkpt>
      <trkpt lat="44.23588" lon="4.81318">
        <ele>193</ele>
        <time>2024-03-12T11:50:12Z</time>
      </trkpt>
      <trkpt lat="44.23585" lon="4.81317">
        <ele>193</ele>
        <time>2024-03-12T11:50:13Z</time>
      </trkpt>
      <trkpt lat="44.23582" lon="4.81315">
        <ele>193</ele>
        <time>2024-03-12T11:50:14Z</time>
      </trkpt>
      <trkpt lat="44.2358" lon="4.81313">
        <ele>193</ele>
        <time>2024-03-12T11:50:15Z</time>
      </trkpt>
      <trkpt lat="44.23576" lon="4.81311">
        <ele>192.9</ele>
        <time>2024-03-12T11:50:16Z</time>
      </trkpt>
      <trkpt lat="44.23574" lon="4.81309">
        <ele>192.9</ele>
        <time>2024-03-12T11:50:17Z</time>
      </trkpt>
      <trkpt lat="44.23572" lon="4.81306">
        <ele>192.9</ele>
        <time>2024-03-12T11:50:18Z</time>
      </trkpt>
      <trkpt lat="44.2357" lon="4.81304">
        <ele>192.8</ele>
        <time>2024-03-12T11:50:19Z</time>
      </trkpt>
      <trkpt lat="44.23568" lon="4.81301">
        <ele>192.8</ele>
        <time>2024-03-12T11:50:20Z</time>
      </trkpt>
      <trkpt lat="44.23566" lon="4.81299">
        <ele>192.7</ele>
        <time>2024-03-12T11:50:21Z</time>
      </trkpt>
      <trkpt lat="44.23564" lon="4.81297">
        <ele>192.7</ele>
        <time>2024-03-12T11:50:22Z</time>
      </trkpt>
      <trkpt lat="44.23562" lon="4.81294">
        <ele>192.6</ele>
        <time>2024-03-12T11:50:23Z</time>
      </trkpt>
      <trkpt lat="44.23559" lon="4.81292">
        <ele>192.5</ele>
        <time>2024-03-12T11:50:24Z</time>
      </trkpt>
      <trkpt lat="44.23556" lon="4.8129">
        <ele>192.4</ele>
        <time>2024-03-12T11:50:25Z</time>
      </trkpt>
      <trkpt lat="44.23553" lon="4.81288">
        <ele>192.3</ele>
        <time>2024-03-12T11:50:26Z</time>
      </trkpt>
      <trkpt lat="44.23549" lon="4.81286">
        <ele>192.2</ele>
        <time>2024-03-12T11:50:27Z</time>
      </trkpt>
      <trkpt lat="44.23546" lon="4.81284">
        <ele>192</ele>
        <time>2024-03-12T11:50:28Z</time>
      </trkpt>
      <trkpt lat="44.23542" lon="4.81283">
        <ele>191.9</ele>
        <time>2024-03-12T11:50:29Z</time>
      </trkpt>
      <trkpt lat="44.23539" lon="4.81282">
        <ele>191.7</ele>
        <time>2024-03-12T11:50:30Z</time>
      </trkpt>
      <trkpt lat="44.23536" lon="4.81282">
        <ele>191.5</ele>
        <time>2024-03-12T11:50:31Z</time>
      </trkpt>
      <trkpt lat="44.23533" lon="4.81281">
        <ele>191.2</ele>
        <time>2024-03-12T11:50:32Z</time>
      </trkpt>
      <trkpt lat="44.23531" lon="4.81281">
        <ele>190.9</ele>
        <time>2024-03-12T11:50:33Z</time>
      </trkpt>
      <trkpt lat="44.23528" lon="4.8128">
        <ele>190.5</ele>
        <time>2024-03-12T11:50:34Z</time>
      </trkpt>
      <trkpt lat="44.23526" lon="4.81279">
        <ele>190.1</ele>
        <time>2024-03-12T11:50:35Z</time>
      </trkpt>
      <trkpt lat="44.23523" lon="4.81277">
        <ele>189.6</ele>
        <time>2024-03-12T11:50:36Z</time>
      </trkpt>
      <trkpt lat="44.23522" lon="4.81275">
        <ele>189.1</ele>
        <time>2024-03-12T11:50:37Z</time>
      </trkpt>
      <trkpt lat="44.23521" lon="4.81272">
        <ele>188.5</ele>
        <time>2024-03-12T11:50:38Z</time>
      </trkpt>
      <trkpt lat="44.2352" lon="4.81269">
        <ele>187.9</ele>
        <time>2024-03-12T11:50:39Z</time>
      </trkpt>
      <trkpt lat="44.2352" lon="4.81266">
        <ele>187.3</ele>
        <time>2024-03-12T11:50:40Z</time>
      </trkpt>
      <trkpt lat="44.23521" lon="4.81262">
        <ele>186.5</ele>
        <time>2024-03-12T11:50:41Z</time>
      </trkpt>
      <trkpt lat="44.23522" lon="4.81259">
        <ele>185.6</ele>
        <time>2024-03-12T11:50:42Z</time>
      </trkpt>
      <trkpt lat="44.23524" lon="4.81256">
        <ele>185</ele>
        <time>2024-03-12T11:50:43Z</time>
      </trkpt>
      <trkpt lat="44.23525" lon="4.81253">
        <ele>184.5</ele>
        <time>2024-03-12T11:50:44Z</time>
      </trkpt>
      <trkpt lat="44.23526" lon="4.8125">
        <ele>184</ele>
        <time>2024-03-12T11:50:45Z</time>
      </trkpt>
      <trkpt lat="44.23527" lon="4.81247">
        <ele>183.7</ele>
        <time>2024-03-12T11:50:46Z</time>
      </trkpt>
      <trkpt lat="44.23527" lon="4.81245">
        <ele>183.4</ele>
        <time>2024-03-12T11:50:47Z</time>
      </trkpt>
      <trkpt lat="44.23526" lon="4.81243">
        <ele>183.1</ele>
        <time>2024-03-12T11:50:48Z</time>
      </trkpt>
      <trkpt lat="44.23524" lon="4.8124">
        <ele>182.7</ele>
        <time>2024-03-12T11:50:49Z</time>
      </trkpt>
      <trkpt lat="44.23521" lon="4.81238">
        <ele>182.3</ele>
        <time>2024-03-12T11:50:50Z</time>
      </trkpt>
      <trkpt lat="44.23518" lon="4.81235">
        <ele>182</ele>
        <time>2024-03-12T11:50:51Z</time>
      </trkpt>
      <trkpt lat="44.23515" lon="4.81232">
        <ele>181.6</ele>
        <time>2024-03-12T11:50:52Z</time>
      </trkpt>
      <trkpt lat="44.23511" lon="4.81229">
        <ele>181.4</ele>
        <time>2024-03-12T11:50:53Z</time>
      </trkpt>
      <trkpt lat="44.23509" lon="4.81226">
        <ele>181.1</ele>
        <time>2024-03-12T11:50:54Z</time>
      </trkpt>
      <trkpt lat="44.23506" lon="4.81223">
        <ele>180.9</ele>
        <time>2024-03-12T11:50:55Z</time>
      </trkpt>
      <trkpt lat="44.23503" lon="4.8122">
        <ele>180.8</ele>
        <time>2024-03-12T11:50:56Z</time>
      </trkpt>
      <trkpt lat="44.23501" lon="4.81217">
        <ele>180.7</ele>
        <time>2024-03-12T11:50:57Z</time>
      </trkpt>
      <trkpt lat="44.23499" lon="4.81214">
        <ele>180.7</ele>
        <time>2024-03-12T11:50:58Z</time>
      </trkpt>
      <trkpt lat="44.23497" lon="4.81211">
        <ele>180.7</ele>
        <time>2024-03-12T11:50:59Z</time>
      </trkpt>
      <trkpt lat="44.23495" lon="4.81209">
        <ele>180.8</ele>
        <time>2024-03-12T11:51:00Z</time>
      </trkpt>
      <trkpt lat="44.23493" lon="4.81207">
        <ele>180.9</ele>
        <time>2024-03-12T11:51:01Z</time>
      </trkpt>
      <trkpt lat="44.2349" lon="4.81205">
        <ele>181</ele>
        <time>2024-03-12T11:51:02Z</time>
      </trkpt>
      <trkpt lat="44.23488" lon="4.81203">
        <ele>180.8</ele>
        <time>2024-03-12T11:51:03Z</time>
      </trkpt>
      <trkpt lat="44.23486" lon="4.81201">
        <ele>180.3</ele>
        <time>2024-03-12T11:51:04Z</time>
      </trkpt>
      <trkpt lat="44.23484" lon="4.81199">
        <ele>179.7</ele>
        <time>2024-03-12T11:51:05Z</time>
      </trkpt>
      <trkpt lat="44.23482" lon="4.81197">
        <ele>179.2</ele>
        <time>2024-03-12T11:51:06Z</time>
      </trkpt>
      <trkpt lat="44.23481" lon="4.81195">
        <ele>178.6</ele>
        <time>2024-03-12T11:51:07Z</time>
      </trkpt>
      <trkpt lat="44.23479" lon="4.81192">
        <ele>178</ele>
        <time>2024-03-12T11:51:08Z</time>
      </trkpt>
      <trkpt lat="44.23478" lon="4.81189">
        <ele>177.5</ele>
        <time>2024-03-12T11:51:09Z</time>
      </trkpt>
      <trkpt lat="44.23477" lon="4.81186">
        <ele>176.9</ele>
        <time>2024-03-12T11:51:10Z</time>
      </trkpt>
      <trkpt lat="44.23477" lon="4.81183">
        <ele>176.4</ele>
        <time>2024-03-12T11:51:11Z</time>
      </trkpt>
      <trkpt lat="44.23476" lon="4.8118">
        <ele>175.8</ele>
        <time>2024-03-12T11:51:12Z</time>
      </trkpt>
      <trkpt lat="44.23475" lon="4.81176">
        <ele>175.2</ele>
        <time>2024-03-12T11:51:13Z</time>
      </trkpt>
      <trkpt lat="44.23475" lon="4.81173">
        <ele>174.6</ele>
        <time>2024-03-12T11:51:14Z</time>
      </trkpt>
      <trkpt lat="44.23475" lon="4.81168">
        <ele>174</ele>
        <time>2024-03-12T11:51:15Z</time>
      </trkpt>
      <trkpt lat="44.23476" lon="4.81164">
        <ele>173.6</ele>
        <time>2024-03-12T11:51:16Z</time>
      </trkpt>
      <trkpt lat="44.23477" lon="4.8116">
        <ele>173.3</ele>
        <time>2024-03-12T11:51:17Z</time>
      </trkpt>
      <trkpt lat="44.2348" lon="4.81156">
        <ele>172.8</ele>
        <time>2024-03-12T11:51:18Z</time>
      </trkpt>
      <trkpt lat="44.23483" lon="4.81151">
        <ele>172.3</ele>
        <time>2024-03-12T11:51:19Z</time>
      </trkpt>
      <trkpt lat="44.23485" lon="4.81147">
        <ele>171.8</ele>
        <time>2024-03-12T11:51:20Z</time>
      </trkpt>
      <trkpt lat="44.23487" lon="4.81143">
        <ele>171.3</ele>
        <time>2024-03-12T11:51:21Z</time>
      </trkpt>
      <trkpt lat="44.2349" lon="4.81139">
        <ele>170.8</ele>
        <time>2024-03-12T11:51:22Z</time>
      </trkpt>
      <trkpt lat="44.23492" lon="4.81135">
        <ele>170.3</ele>
        <time>2024-03-12T11:51:23Z</time>
      </trkpt>
      <trkpt lat="44.23494" lon="4.81131">
        <ele>169.9</ele>
        <time>2024-03-12T11:51:24Z</time>
      </trkpt>
      <trkpt lat="44.23497" lon="4.81127">
        <ele>169.5</ele>
        <time>2024-03-12T11:51:25Z</time>
      </trkpt>
      <trkpt lat="44.235" lon="4.81124">
        <ele>169.1</ele>
        <time>2024-03-12T11:51:26Z</time>
      </trkpt>
      <trkpt lat="44.23502" lon="4.81121">
        <ele>168.7</ele>
        <time>2024-03-12T11:51:27Z</time>
      </trkpt>
      <trkpt lat="44.23505" lon="4.81118">
        <ele>168.3</ele>
        <time>2024-03-12T11:51:28Z</time>
      </trkpt>
      <trkpt lat="44.23509" lon="4.81115">
        <ele>167.8</ele>
        <time>2024-03-12T11:51:29Z</time>
      </trkpt>
      <trkpt lat="44.23511" lon="4.81112">
        <ele>167.3</ele>
        <time>2024-03-12T11:51:30Z</time>
      </trkpt>
      <trkpt lat="44.23515" lon="4.8111">
        <ele>166.8</ele>
        <time>2024-03-12T11:51:31Z</time>
      </trkpt>
      <trkpt lat="44.23518" lon="4.81107">
        <ele>166.3</ele>
        <time>2024-03-12T11:51:32Z</time>
      </trkpt>
      <trkpt lat="44.23521" lon="4.81105">
        <ele>165.8</ele>
        <time>2024-03-12T11:51:33Z</time>
      </trkpt>
      <trkpt lat="44.23525" lon="4.81102">
        <ele>165.3</ele>
        <time>2024-03-12T11:51:34Z</time>
      </trkpt>
      <trkpt lat="44.23528" lon="4.81099">
        <ele>164.8</ele>
        <time>2024-03-12T11:51:35Z</time>
      </trkpt>
      <trkpt lat="44.23531" lon="4.81096">
        <ele>164.3</ele>
        <time>2024-03-12T11:51:36Z</time>
      </trkpt>
      <trkpt lat="44.23533" lon="4.81092">
        <ele>163.9</ele>
        <time>2024-03-12T11:51:37Z</time>
      </trkpt>
      <trkpt lat="44.23536" lon="4.81089">
        <ele>163.4</ele>
        <time>2024-03-12T11:51:38Z</time>
      </trkpt>
      <trkpt lat="44.23539" lon="4.81085">
        <ele>163</ele>
        <time>2024-03-12T11:51:39Z</time>
      </trkpt>
      <trkpt lat="44.23541" lon="4.81081">
        <ele>162.6</ele>
        <time>2024-03-12T11:51:40Z</time>
      </trkpt>
      <trkpt lat="44.23544" lon="4.81078">
        <ele>162.3</ele>
        <time>2024-03-12T11:51:41Z</time>
      </trkpt>
      <trkpt lat="44.23548" lon="4.81075">
        <ele>162</ele>
        <time>2024-03-12T11:51:42Z</time>
      </trkpt>
      <trkpt lat="44.23551" lon="4.81074">
        <ele>161.7</ele>
        <time>2024-03-12T11:51:43Z</time>
      </trkpt>
      <trkpt lat="44.23554" lon="4.81072">
        <ele>161.5</ele>
        <time>2024-03-12T11:51:44Z</time>
      </trkpt>
      <trkpt lat="44.23557" lon="4.81072">
        <ele>161.3</ele>
        <time>2024-03-12T11:51:45Z</time>
      </trkpt>
      <trkpt lat="44.23559" lon="4.81072">
        <ele>161.2</ele>
        <time>2024-03-12T11:51:46Z</time>
      </trkpt>
      <trkpt lat="44.23561" lon="4.81073">
        <ele>161.1</ele>
        <time>2024-03-12T11:51:47Z</time>
      </trkpt>
      <trkpt lat="44.23561" lon="4.81073">
        <ele>161.1</ele>
        <time>2024-03-12T11:51:48Z</time>
      </trkpt>
      <trkpt lat="44.23564" lon="4.81075">
        <ele>160.9</ele>
        <time>2024-03-12T11:51:49Z</time>
      </trkpt>
      <trkpt lat="44.23564" lon="4.81075">
        <ele>160.9</ele>
        <time>2024-03-12T11:51:50Z</time>
      </trkpt>
      <trkpt lat="44.23565" lon="4.81078">
        <ele>160.8</ele>
        <time>2024-03-12T11:51:51Z</time>
      </trkpt>
      <trkpt lat="44.23565" lon="4.81078">
        <ele>160.8</ele>
        <time>2024-03-12T11:51:52Z</time>
      </trkpt>
      <trkpt lat="44.23565" lon="4.81078">
        <ele>160.8</ele>
        <time>2024-03-12T11:51:53Z</time>
      </trkpt>
      <trkpt lat="44.23565" lon="4.81078">
        <ele>160.8</ele>
        <time>2024-03-12T11:51:54Z</time>
      </trkpt>
      <trkpt lat="44.23565" lon="4.81078">
        <ele>160.8</ele>
        <time>2024-03-12T11:51:55Z</time>
      </trkpt>
      <trkpt lat="44.23565" lon="4.81078">
        <ele>160.8</ele>
        <time>2024-03-12T11:51:56Z</time>
      </trkpt>
      <trkpt lat="44.23567" lon="4.81079">
        <ele>160.8</ele>
        <time>2024-03-12T11:51:57Z</time>
      </trkpt>
      <trkpt lat="44.23567" lon="4.81079">
        <ele>160.8</ele>
        <time>2024-03-12T11:51:58Z</time>
      </trkpt>
      <trkpt lat="44.23567" lon="4.81079">
        <ele>160.8</ele>
        <time>2024-03-12T11:51:59Z</time>
      </trkpt>
      <trkpt lat="44.23579" lon="4.81073">
        <ele>159.9</ele>
        <time>2024-03-12T11:52:06Z</time>
      </trkpt>
      <trkpt lat="44.23579" lon="4.81073">
        <ele>160</ele>
        <time>2024-03-12T11:52:07Z</time>
      </trkpt>
      <trkpt lat="44.23582" lon="4.81072">
        <ele>159.3</ele>
        <time>2024-03-12T11:52:08Z</time>
      </trkpt>
      <trkpt lat="44.23585" lon="4.8107">
        <ele>159</ele>
        <time>2024-03-12T11:52:09Z</time>
      </trkpt>
      <trkpt lat="44.23588" lon="4.81069">
        <ele>159.1</ele>
        <time>2024-03-12T11:52:10Z</time>
      </trkpt>
      <trkpt lat="44.2359" lon="4.81066">
        <ele>158.7</ele>
        <time>2024-03-12T11:52:11Z</time>
      </trkpt>
      <trkpt lat="44.23594" lon="4.81064">
        <ele>158.5</ele>
        <time>2024-03-12T11:52:12Z</time>
      </trkpt>
      <trkpt lat="44.23596" lon="4.81062">
        <ele>158.2</ele>
        <time>2024-03-12T11:52:13Z</time>
      </trkpt>
      <trkpt lat="44.23599" lon="4.81059">
        <ele>157.9</ele>
        <time>2024-03-12T11:52:14Z</time>
      </trkpt>
      <trkpt lat="44.23602" lon="4.81056">
        <ele>157.7</ele>
        <time>2024-03-12T11:52:15Z</time>
      </trkpt>
      <trkpt lat="44.23605" lon="4.81054">
        <ele>157.5</ele>
        <time>2024-03-12T11:52:16Z</time>
      </trkpt>
      <trkpt lat="44.23608" lon="4.81051">
        <ele>157.3</ele>
        <time>2024-03-12T11:52:17Z</time>
      </trkpt>
      <trkpt lat="44.23612" lon="4.81049">
        <ele>156.9</ele>
        <time>2024-03-12T11:52:18Z</time>
      </trkpt>
      <trkpt lat="44.23614" lon="4.81046">
        <ele>156.6</ele>
        <time>2024-03-12T11:52:19Z</time>
      </trkpt>
      <trkpt lat="44.23618" lon="4.81043">
        <ele>156.4</ele>
        <time>2024-03-12T11:52:20Z</time>
      </trkpt>
      <trkpt lat="44.2362" lon="4.81041">
        <ele>156.1</ele>
        <time>2024-03-12T11:52:21Z</time>
      </trkpt>
      <trkpt lat="44.23623" lon="4.81038">
        <ele>155.8</ele>
        <time>2024-03-12T11:52:22Z</time>
      </trkpt>
      <trkpt lat="44.23626" lon="4.81035">
        <ele>155.6</ele>
        <time>2024-03-12T11:52:23Z</time>
      </trkpt>
      <trkpt lat="44.23628" lon="4.81032">
        <ele>155.5</ele>
        <time>2024-03-12T11:52:24Z</time>
      </trkpt>
      <trkpt lat="44.23631" lon="4.81029">
        <ele>155.2</ele>
        <time>2024-03-12T11:52:25Z</time>
      </trkpt>
      <trkpt lat="44.23633" lon="4.81027">
        <ele>154.9</ele>
        <time>2024-03-12T11:52:26Z</time>
      </trkpt>
      <trkpt lat="44.23636" lon="4.81024">
        <ele>154.6</ele>
        <time>2024-03-12T11:52:27Z</time>
      </trkpt>
      <trkpt lat="44.23638" lon="4.81022">
        <ele>154.3</ele>
        <time>2024-03-12T11:52:28Z</time>
      </trkpt>
      <trkpt lat="44.23641" lon="4.8102">
        <ele>153.9</ele>
        <time>2024-03-12T11:52:29Z</time>
      </trkpt>
      <trkpt lat="44.23644" lon="4.81018">
        <ele>153.9</ele>
        <time>2024-03-12T11:52:30Z</time>
      </trkpt>
      <trkpt lat="44.23646" lon="4.81017">
        <ele>153.6</ele>
        <time>2024-03-12T11:52:31Z</time>
      </trkpt>
      <trkpt lat="44.23649" lon="4.81016">
        <ele>153.3</ele>
        <time>2024-03-12T11:52:32Z</time>
      </trkpt>
      <trkpt lat="44.23652" lon="4.81017">
        <ele>153.1</ele>
        <time>2024-03-12T11:52:33Z</time>
      </trkpt>
      <trkpt lat="44.23654" lon="4.81018">
        <ele>152.9</ele>
        <time>2024-03-12T11:52:34Z</time>
      </trkpt>
      <trkpt lat="44.23657" lon="4.81021">
        <ele>152.7</ele>
        <time>2024-03-12T11:52:35Z</time>
      </trkpt>
      <trkpt lat="44.23659" lon="4.81024">
        <ele>152.6</ele>
        <time>2024-03-12T11:52:36Z</time>
      </trkpt>
      <trkpt lat="44.23661" lon="4.81028">
        <ele>152.7</ele>
        <time>2024-03-12T11:52:37Z</time>
      </trkpt>
      <trkpt lat="44.23663" lon="4.81032">
        <ele>152.6</ele>
        <time>2024-03-12T11:52:38Z</time>
      </trkpt>
      <trkpt lat="44.23665" lon="4.81036">
        <ele>152.8</ele>
        <time>2024-03-12T11:52:39Z</time>
      </trkpt>
      <trkpt lat="44.23666" lon="4.8104">
        <ele>152.6</ele>
        <time>2024-03-12T11:52:40Z</time>
      </trkpt>
      <trkpt lat="44.23668" lon="4.81044">
        <ele>152.8</ele>
        <time>2024-03-12T11:52:41Z</time>
      </trkpt>
      <trkpt lat="44.2367" lon="4.81047">
        <ele>152.6</ele>
        <time>2024-03-12T11:52:42Z</time>
      </trkpt>
      <trkpt lat="44.23672" lon="4.81051">
        <ele>152.5</ele>
        <time>2024-03-12T11:52:43Z</time>
      </trkpt>
      <trkpt lat="44.23674" lon="4.81055">
        <ele>152.5</ele>
        <time>2024-03-12T11:52:44Z</time>
      </trkpt>
      <trkpt lat="44.23676" lon="4.81058">
        <ele>152.3</ele>
        <time>2024-03-12T11:52:45Z</time>
      </trkpt>
      <trkpt lat="44.23677" lon="4.81062">
        <ele>152.5</ele>
        <time>2024-03-12T11:52:46Z</time>
      </trkpt>
      <trkpt lat="44.23679" lon="4.81065">
        <ele>152.4</ele>
        <time>2024-03-12T11:52:47Z</time>
      </trkpt>
      <trkpt lat="44.23681" lon="4.81069">
        <ele>152.3</ele>
        <time>2024-03-12T11:52:48Z</time>
      </trkpt>
      <trkpt lat="44.23683" lon="4.81073">
        <ele>152.5</ele>
        <time>2024-03-12T11:52:49Z</time>
      </trkpt>
      <trkpt lat="44.23684" lon="4.81077">
        <ele>152.3</ele>
        <time>2024-03-12T11:52:50Z</time>
      </trkpt>
      <trkpt lat="44.23686" lon="4.8108">
        <ele>152.4</ele>
        <time>2024-03-12T11:52:51Z</time>
      </trkpt>
      <trkpt lat="44.23687" lon="4.81084">
        <ele>152.3</ele>
        <time>2024-03-12T11:52:52Z</time>
      </trkpt>
      <trkpt lat="44.23689" lon="4.81088">
        <ele>152.5</ele>
        <time>2024-03-12T11:52:53Z</time>
      </trkpt>
      <trkpt lat="44.23691" lon="4.81092">
        <ele>152.3</ele>
        <time>2024-03-12T11:52:54Z</time>
      </trkpt>
      <trkpt lat="44.23693" lon="4.81096">
        <ele>152.4</ele>
        <time>2024-03-12T11:52:55Z</time>
      </trkpt>
      <trkpt lat="44.23694" lon="4.811">
        <ele>152.2</ele>
        <time>2024-03-12T11:52:56Z</time>
      </trkpt>
      <trkpt lat="44.23696" lon="4.81103">
        <ele>152.3</ele>
        <time>2024-03-12T11:52:57Z</time>
      </trkpt>
      <trkpt lat="44.23697" lon="4.81107">
        <ele>152.1</ele>
        <time>2024-03-12T11:52:58Z</time>
      </trkpt>
      <trkpt lat="44.23699" lon="4.81111">
        <ele>152.1</ele>
        <time>2024-03-12T11:52:59Z</time>
      </trkpt>
      <trkpt lat="44.23701" lon="4.81114">
        <ele>152</ele>
        <time>2024-03-12T11:53:00Z</time>
      </trkpt>
      <trkpt lat="44.23701" lon="4.81118">
        <ele>152.1</ele>
        <time>2024-03-12T11:53:01Z</time>
      </trkpt>
      <trkpt lat="44.23703" lon="4.81122">
        <ele>152.1</ele>
        <time>2024-03-12T11:53:02Z</time>
      </trkpt>
      <trkpt lat="44.23705" lon="4.81125">
        <ele>152.2</ele>
        <time>2024-03-12T11:53:03Z</time>
      </trkpt>
      <trkpt lat="44.23706" lon="4.81129">
        <ele>152.3</ele>
        <time>2024-03-12T11:53:04Z</time>
      </trkpt>
      <trkpt lat="44.23708" lon="4.81133">
        <ele>152.5</ele>
        <time>2024-03-12T11:53:05Z</time>
      </trkpt>
      <trkpt lat="44.23709" lon="4.81136">
        <ele>152.4</ele>
        <time>2024-03-12T11:53:06Z</time>
      </trkpt>
      <trkpt lat="44.23711" lon="4.81139">
        <ele>152.6</ele>
        <time>2024-03-12T11:53:07Z</time>
      </trkpt>
      <trkpt lat="44.23713" lon="4.81143">
        <ele>152.7</ele>
        <time>2024-03-12T11:53:08Z</time>
      </trkpt>
      <trkpt lat="44.23714" lon="4.81146">
        <ele>152.9</ele>
        <time>2024-03-12T11:53:09Z</time>
      </trkpt>
      <trkpt lat="44.23716" lon="4.81149">
        <ele>152.8</ele>
        <time>2024-03-12T11:53:10Z</time>
      </trkpt>
      <trkpt lat="44.23717" lon="4.81152">
        <ele>153</ele>
        <time>2024-03-12T11:53:11Z</time>
      </trkpt>
      <trkpt lat="44.23718" lon="4.81156">
        <ele>153</ele>
        <time>2024-03-12T11:53:12Z</time>
      </trkpt>
      <trkpt lat="44.2372" lon="4.81159">
        <ele>153.2</ele>
        <time>2024-03-12T11:53:13Z</time>
      </trkpt>
      <trkpt lat="44.23721" lon="4.81163">
        <ele>153.3</ele>
        <time>2024-03-12T11:53:14Z</time>
      </trkpt>
      <trkpt lat="44.23723" lon="4.81166">
        <ele>153.3</ele>
        <time>2024-03-12T11:53:15Z</time>
      </trkpt>
      <trkpt lat="44.23724" lon="4.8117">
        <ele>153.6</ele>
        <time>2024-03-12T11:53:16Z</time>
      </trkpt>
      <trkpt lat="44.23725" lon="4.81173">
        <ele>153.7</ele>
        <time>2024-03-12T11:53:17Z</time>
      </trkpt>
      <trkpt lat="44.23726" lon="4.81177">
        <ele>154</ele>
        <time>2024-03-12T11:53:18Z</time>
      </trkpt>
      <trkpt lat="44.23727" lon="4.8118">
        <ele>154</ele>
        <time>2024-03-12T11:53:19Z</time>
      </trkpt>
      <trkpt lat="44.23729" lon="4.81181">
        <ele>154.3</ele>
        <time>2024-03-12T11:53:20Z</time>
      </trkpt>
      <trkpt lat="44.23731" lon="4.81182">
        <ele>154.3</ele>
        <time>2024-03-12T11:53:21Z</time>
      </trkpt>
      <trkpt lat="44.23733" lon="4.81182">
        <ele>154.4</ele>
        <time>2024-03-12T11:53:22Z</time>
      </trkpt>
      <trkpt lat="44.23734" lon="4.8118">
        <ele>154.4</ele>
        <time>2024-03-12T11:53:23Z</time>
      </trkpt>
      <trkpt lat="44.23737" lon="4.81178">
        <ele>154.1</ele>
        <time>2024-03-12T11:53:24Z</time>
      </trkpt>
      <trkpt lat="44.23739" lon="4.81175">
        <ele>153.8</ele>
        <time>2024-03-12T11:53:25Z</time>
      </trkpt>
      <trkpt lat="44.23741" lon="4.81171">
        <ele>153.5</ele>
        <time>2024-03-12T11:53:26Z</time>
      </trkpt>
      <trkpt lat="44.23743" lon="4.81167">
        <ele>153.3</ele>
        <time>2024-03-12T11:53:27Z</time>
      </trkpt>
      <trkpt lat="44.23745" lon="4.81162">
        <ele>153</ele>
        <time>2024-03-12T11:53:28Z</time>
      </trkpt>
      <trkpt lat="44.23746" lon="4.81158">
        <ele>152.9</ele>
        <time>2024-03-12T11:53:29Z</time>
      </trkpt>
      <trkpt lat="44.23747" lon="4.81153">
        <ele>152.7</ele>
        <time>2024-03-12T11:53:30Z</time>
      </trkpt>
      <trkpt lat="44.23748" lon="4.81148">
        <ele>152.5</ele>
        <time>2024-03-12T11:53:31Z</time>
      </trkpt>
      <trkpt lat="44.23749" lon="4.81143">
        <ele>152.3</ele>
        <time>2024-03-12T11:53:32Z</time>
      </trkpt>
      <trkpt lat="44.23749" lon="4.81138">
        <ele>152</ele>
        <time>2024-03-12T11:53:33Z</time>
      </trkpt>
      <trkpt lat="44.23749" lon="4.81134">
        <ele>151.8</ele>
        <time>2024-03-12T11:53:34Z</time>
      </trkpt>
      <trkpt lat="44.23749" lon="4.81129">
        <ele>151.6</ele>
        <time>2024-03-12T11:53:35Z</time>
      </trkpt>
      <trkpt lat="44.23749" lon="4.81124">
        <ele>151.4</ele>
        <time>2024-03-12T11:53:36Z</time>
      </trkpt>
      <trkpt lat="44.23749" lon="4.8112">
        <ele>151.2</ele>
        <time>2024-03-12T11:53:37Z</time>
      </trkpt>
      <trkpt lat="44.2375" lon="4.81115">
        <ele>151</ele>
        <time>2024-03-12T11:53:38Z</time>
      </trkpt>
      <trkpt lat="44.2375" lon="4.8111">
        <ele>150.8</ele>
        <time>2024-03-12T11:53:39Z</time>
      </trkpt>
      <trkpt lat="44.23751" lon="4.81106">
        <ele>150.6</ele>
        <time>2024-03-12T11:53:40Z</time>
      </trkpt>
      <trkpt lat="44.23751" lon="4.81101">
        <ele>150.4</ele>
        <time>2024-03-12T11:53:41Z</time>
      </trkpt>
      <trkpt lat="44.23751" lon="4.81097">
        <ele>150.2</ele>
        <time>2024-03-12T11:53:42Z</time>
      </trkpt>
      <trkpt lat="44.23751" lon="4.81093">
        <ele>150</ele>
        <time>2024-03-12T11:53:43Z</time>
      </trkpt>
      <trkpt lat="44.23751" lon="4.81088">
        <ele>149.8</ele>
        <time>2024-03-12T11:53:44Z</time>
      </trkpt>
      <trkpt lat="44.2375" lon="4.81084">
        <ele>149.6</ele>
        <time>2024-03-12T11:53:45Z</time>
      </trkpt>
      <trkpt lat="44.23749" lon="4.8108">
        <ele>149.4</ele>
        <time>2024-03-12T11:53:46Z</time>
      </trkpt>
      <trkpt lat="44.23749" lon="4.81075">
        <ele>149.3</ele>
        <time>2024-03-12T11:53:47Z</time>
      </trkpt>
      <trkpt lat="44.23748" lon="4.81071">
        <ele>149.1</ele>
        <time>2024-03-12T11:53:48Z</time>
      </trkpt>
      <trkpt lat="44.23748" lon="4.81067">
        <ele>148.9</ele>
        <time>2024-03-12T11:53:49Z</time>
      </trkpt>
      <trkpt lat="44.23749" lon="4.81062">
        <ele>148.7</ele>
        <time>2024-03-12T11:53:50Z</time>
      </trkpt>
      <trkpt lat="44.23749" lon="4.81059">
        <ele>148.5</ele>
        <time>2024-03-12T11:53:51Z</time>
      </trkpt>
      <trkpt lat="44.23751" lon="4.81055">
        <ele>148.2</ele>
        <time>2024-03-12T11:53:52Z</time>
      </trkpt>
      <trkpt lat="44.23753" lon="4.81051">
        <ele>148</ele>
        <time>2024-03-12T11:53:53Z</time>
      </trkpt>
      <trkpt lat="44.23755" lon="4.81047">
        <ele>147.8</ele>
        <time>2024-03-12T11:53:54Z</time>
      </trkpt>
      <trkpt lat="44.23756" lon="4.81043">
        <ele>147.6</ele>
        <time>2024-03-12T11:53:55Z</time>
      </trkpt>
      <trkpt lat="44.23757" lon="4.81039">
        <ele>147.4</ele>
        <time>2024-03-12T11:53:56Z</time>
      </trkpt>
      <trkpt lat="44.23757" lon="4.81034">
        <ele>147.2</ele>
        <time>2024-03-12T11:53:57Z</time>
      </trkpt>
      <trkpt lat="44.23757" lon="4.8103">
        <ele>147.1</ele>
        <time>2024-03-12T11:53:58Z</time>
      </trkpt>
      <trkpt lat="44.23757" lon="4.81026">
        <ele>146.9</ele>
        <time>2024-03-12T11:53:59Z</time>
      </trkpt>
      <trkpt lat="44.23757" lon="4.81022">
        <ele>146.8</ele>
        <time>2024-03-12T11:54:00Z</time>
      </trkpt>
      <trkpt lat="44.23758" lon="4.81019">
        <ele>146.6</ele>
        <time>2024-03-12T11:54:01Z</time>
      </trkpt>
      <trkpt lat="44.23759" lon="4.81017">
        <ele>146.6</ele>
        <time>2024-03-12T11:54:02Z</time>
      </trkpt>
      <trkpt lat="44.23759" lon="4.81017">
        <ele>146.6</ele>
        <time>2024-03-12T11:54:03Z</time>
      </trkpt>
      <trkpt lat="44.23763" lon="4.81016">
        <ele>146.6</ele>
        <time>2024-03-12T11:54:04Z</time>
      </trkpt>
      <trkpt lat="44.23765" lon="4.81017">
        <ele>146.6</ele>
        <time>2024-03-12T11:54:05Z</time>
      </trkpt>
      <trkpt lat="44.23768" lon="4.81019">
        <ele>146.6</ele>
        <time>2024-03-12T11:54:06Z</time>
      </trkpt>
      <trkpt lat="44.23771" lon="4.81021">
        <ele>146.7</ele>
        <time>2024-03-12T11:54:07Z</time>
      </trkpt>
      <trkpt lat="44.23773" lon="4.81023">
        <ele>146.7</ele>
        <time>2024-03-12T11:54:08Z</time>
      </trkpt>
      <trkpt lat="44.23777" lon="4.81026">
        <ele>146.7</ele>
        <time>2024-03-12T11:54:09Z</time>
      </trkpt>
      <trkpt lat="44.23779" lon="4.81029">
        <ele>146.7</ele>
        <time>2024-03-12T11:54:10Z</time>
      </trkpt>
      <trkpt lat="44.23782" lon="4.81032">
        <ele>146.7</ele>
        <time>2024-03-12T11:54:11Z</time>
      </trkpt>
      <trkpt lat="44.23785" lon="4.81034">
        <ele>146.7</ele>
        <time>2024-03-12T11:54:12Z</time>
      </trkpt>
      <trkpt lat="44.23789" lon="4.81037">
        <ele>146.7</ele>
        <time>2024-03-12T11:54:13Z</time>
      </trkpt>
      <trkpt lat="44.23791" lon="4.81039">
        <ele>146.7</ele>
        <time>2024-03-12T11:54:14Z</time>
      </trkpt>
      <trkpt lat="44.23794" lon="4.81042">
        <ele>146.7</ele>
        <time>2024-03-12T11:54:15Z</time>
      </trkpt>
      <trkpt lat="44.23797" lon="4.81044">
        <ele>146.8</ele>
        <time>2024-03-12T11:54:16Z</time>
      </trkpt>
      <trkpt lat="44.23799" lon="4.81046">
        <ele>146.8</ele>
        <time>2024-03-12T11:54:17Z</time>
      </trkpt>
      <trkpt lat="44.23802" lon="4.81048">
        <ele>146.8</ele>
        <time>2024-03-12T11:54:18Z</time>
      </trkpt>
      <trkpt lat="44.23805" lon="4.8105">
        <ele>146.8</ele>
        <time>2024-03-12T11:54:19Z</time>
      </trkpt>
      <trkpt lat="44.23807" lon="4.81051">
        <ele>146.9</ele>
        <time>2024-03-12T11:54:20Z</time>
      </trkpt>
      <trkpt lat="44.23809" lon="4.81052">
        <ele>146.9</ele>
        <time>2024-03-12T11:54:21Z</time>
      </trkpt>
      <trkpt lat="44.23812" lon="4.81054">
        <ele>146.9</ele>
        <time>2024-03-12T11:54:22Z</time>
      </trkpt>
      <trkpt lat="44.23815" lon="4.81055">
        <ele>147</ele>
        <time>2024-03-12T11:54:23Z</time>
      </trkpt>
      <trkpt lat="44.23818" lon="4.81056">
        <ele>147</ele>
        <time>2024-03-12T11:54:24Z</time>
      </trkpt>
      <trkpt lat="44.23821" lon="4.81058">
        <ele>147</ele>
        <time>2024-03-12T11:54:25Z</time>
      </trkpt>
      <trkpt lat="44.23823" lon="4.8106">
        <ele>147.1</ele>
        <time>2024-03-12T11:54:26Z</time>
      </trkpt>
      <trkpt lat="44.23826" lon="4.81062">
        <ele>147.1</ele>
        <time>2024-03-12T11:54:27Z</time>
      </trkpt>
      <trkpt lat="44.23828" lon="4.81064">
        <ele>147.1</ele>
        <time>2024-03-12T11:54:28Z</time>
      </trkpt>
      <trkpt lat="44.23831" lon="4.81066">
        <ele>147.2</ele>
        <time>2024-03-12T11:54:29Z</time>
      </trkpt>
      <trkpt lat="44.23833" lon="4.81067">
        <ele>147.2</ele>
        <time>2024-03-12T11:54:30Z</time>
      </trkpt>
      <trkpt lat="44.23836" lon="4.81069">
        <ele>147.2</ele>
        <time>2024-03-12T11:54:31Z</time>
      </trkpt>
      <trkpt lat="44.23838" lon="4.81071">
        <ele>147.3</ele>
        <time>2024-03-12T11:54:32Z</time>
      </trkpt>
      <trkpt lat="44.23841" lon="4.81072">
        <ele>147.3</ele>
        <time>2024-03-12T11:54:33Z</time>
      </trkpt>
      <trkpt lat="44.23844" lon="4.81074">
        <ele>147.3</ele>
        <time>2024-03-12T11:54:34Z</time>
      </trkpt>
      <trkpt lat="44.23846" lon="4.81076">
        <ele>147.3</ele>
        <time>2024-03-12T11:54:35Z</time>
      </trkpt>
      <trkpt lat="44.23849" lon="4.81078">
        <ele>147.4</ele>
        <time>2024-03-12T11:54:36Z</time>
      </trkpt>
      <trkpt lat="44.23852" lon="4.8108">
        <ele>147.4</ele>
        <time>2024-03-12T11:54:37Z</time>
      </trkpt>
      <trkpt lat="44.23854" lon="4.81083">
        <ele>147.4</ele>
        <time>2024-03-12T11:54:38Z</time>
      </trkpt>
      <trkpt lat="44.23857" lon="4.81085">
        <ele>147.5</ele>
        <time>2024-03-12T11:54:39Z</time>
      </trkpt>
      <trkpt lat="44.2386" lon="4.81087">
        <ele>147.5</ele>
        <time>2024-03-12T11:54:40Z</time>
      </trkpt>
      <trkpt lat="44.23863" lon="4.81089">
        <ele>147.5</ele>
        <time>2024-03-12T11:54:41Z</time>
      </trkpt>
      <trkpt lat="44.23866" lon="4.81091">
        <ele>147.5</ele>
        <time>2024-03-12T11:54:42Z</time>
      </trkpt>
      <trkpt lat="44.23869" lon="4.81093">
        <ele>147.5</ele>
        <time>2024-03-12T11:54:43Z</time>
      </trkpt>
      <trkpt lat="44.23872" lon="4.81095">
        <ele>147.6</ele>
        <time>2024-03-12T11:54:44Z</time>
      </trkpt>
      <trkpt lat="44.23875" lon="4.81096">
        <ele>147.6</ele>
        <time>2024-03-12T11:54:45Z</time>
      </trkpt>
      <trkpt lat="44.23877" lon="4.81098">
        <ele>147.6</ele>
        <time>2024-03-12T11:54:46Z</time>
      </trkpt>
      <trkpt lat="44.2388" lon="4.811">
        <ele>147.6</ele>
        <time>2024-03-12T11:54:47Z</time>
      </trkpt>
      <trkpt lat="44.23883" lon="4.81101">
        <ele>147.6</ele>
        <time>2024-03-12T11:54:48Z</time>
      </trkpt>
      <trkpt lat="44.23886" lon="4.81103">
        <ele>147.6</ele>
        <time>2024-03-12T11:54:49Z</time>
      </trkpt>
      <trkpt lat="44.23889" lon="4.81104">
        <ele>147.6</ele>
        <time>2024-03-12T11:54:50Z</time>
      </trkpt>
      <trkpt lat="44.23892" lon="4.81105">
        <ele>147.6</ele>
        <time>2024-03-12T11:54:51Z</time>
      </trkpt>
      <trkpt lat="44.23895" lon="4.81107">
        <ele>147.6</ele>
        <time>2024-03-12T11:54:52Z</time>
      </trkpt>
      <trkpt lat="44.23898" lon="4.81108">
        <ele>147.6</ele>
        <time>2024-03-12T11:54:53Z</time>
      </trkpt>
      <trkpt lat="44.23901" lon="4.8111">
        <ele>147.7</ele>
        <time>2024-03-12T11:54:54Z</time>
      </trkpt>
      <trkpt lat="44.23903" lon="4.81111">
        <ele>147.7</ele>
        <time>2024-03-12T11:54:55Z</time>
      </trkpt>
      <trkpt lat="44.23906" lon="4.81113">
        <ele>147.7</ele>
        <time>2024-03-12T11:54:56Z</time>
      </trkpt>
      <trkpt lat="44.23909" lon="4.81114">
        <ele>147.7</ele>
        <time>2024-03-12T11:54:57Z</time>
      </trkpt>
      <trkpt lat="44.23912" lon="4.81116">
        <ele>147.7</ele>
        <time>2024-03-12T11:54:58Z</time>
      </trkpt>
      <trkpt lat="44.23915" lon="4.81117">
        <ele>147.7</ele>
        <time>2024-03-12T11:54:59Z</time>
      </trkpt>
      <trkpt lat="44.23918" lon="4.81119">
        <ele>147.7</ele>
        <time>2024-03-12T11:55:00Z</time>
      </trkpt>
      <trkpt lat="44.23921" lon="4.8112">
        <ele>147.7</ele>
        <time>2024-03-12T11:55:01Z</time>
      </trkpt>
      <trkpt lat="44.23924" lon="4.81122">
        <ele>147.6</ele>
        <time>2024-03-12T11:55:02Z</time>
      </trkpt>
      <trkpt lat="44.23927" lon="4.81124">
        <ele>147.6</ele>
        <time>2024-03-12T11:55:03Z</time>
      </trkpt>
      <trkpt lat="44.2393" lon="4.81126">
        <ele>147.6</ele>
        <time>2024-03-12T11:55:04Z</time>
      </trkpt>
      <trkpt lat="44.23933" lon="4.81128">
        <ele>147.6</ele>
        <time>2024-03-12T11:55:05Z</time>
      </trkpt>
      <trkpt lat="44.23936" lon="4.81129">
        <ele>147.5</ele>
        <time>2024-03-12T11:55:06Z</time>
      </trkpt>
      <trkpt lat="44.2394" lon="4.8113">
        <ele>147.5</ele>
        <time>2024-03-12T11:55:07Z</time>
      </trkpt>
      <trkpt lat="44.23943" lon="4.81132">
        <ele>147.5</ele>
        <time>2024-03-12T11:55:08Z</time>
      </trkpt>
      <trkpt lat="44.23946" lon="4.81133">
        <ele>147.4</ele>
        <time>2024-03-12T11:55:09Z</time>
      </trkpt>
      <trkpt lat="44.23949" lon="4.81134">
        <ele>147.4</ele>
        <time>2024-03-12T11:55:10Z</time>
      </trkpt>
      <trkpt lat="44.23953" lon="4.81135">
        <ele>147.4</ele>
        <time>2024-03-12T11:55:11Z</time>
      </trkpt>
      <trkpt lat="44.23956" lon="4.81136">
        <ele>147.4</ele>
        <time>2024-03-12T11:55:12Z</time>
      </trkpt>
      <trkpt lat="44.23959" lon="4.81138">
        <ele>147.3</ele>
        <time>2024-03-12T11:55:13Z</time>
      </trkpt>
      <trkpt lat="44.23963" lon="4.81139">
        <ele>147.3</ele>
        <time>2024-03-12T11:55:14Z</time>
      </trkpt>
      <trkpt lat="44.23966" lon="4.81141">
        <ele>147.3</ele>
        <time>2024-03-12T11:55:15Z</time>
      </trkpt>
      <trkpt lat="44.23969" lon="4.81143">
        <ele>147.2</ele>
        <time>2024-03-12T11:55:16Z</time>
      </trkpt>
      <trkpt lat="44.23973" lon="4.81145">
        <ele>147.2</ele>
        <time>2024-03-12T11:55:17Z</time>
      </trkpt>
      <trkpt lat="44.23976" lon="4.81147">
        <ele>147.2</ele>
        <time>2024-03-12T11:55:18Z</time>
      </trkpt>
      <trkpt lat="44.23979" lon="4.81149">
        <ele>147.1</ele>
        <time>2024-03-12T11:55:19Z</time>
      </trkpt>
      <trkpt lat="44.23982" lon="4.81151">
        <ele>147.1</ele>
        <time>2024-03-12T11:55:20Z</time>
      </trkpt>
      <trkpt lat="44.23985" lon="4.81152">
        <ele>147.1</ele>
        <time>2024-03-12T11:55:21Z</time>
      </trkpt>
      <trkpt lat="44.23988" lon="4.81153">
        <ele>147.1</ele>
        <time>2024-03-12T11:55:22Z</time>
      </trkpt>
      <trkpt lat="44.23991" lon="4.81154">
        <ele>147.1</ele>
        <time>2024-03-12T11:55:23Z</time>
      </trkpt>
      <trkpt lat="44.23994" lon="4.81155">
        <ele>147.1</ele>
        <time>2024-03-12T11:55:24Z</time>
      </trkpt>
      <trkpt lat="44.23997" lon="4.81156">
        <ele>147.1</ele>
        <time>2024-03-12T11:55:25Z</time>
      </trkpt>
      <trkpt lat="44.23999" lon="4.81157">
        <ele>147.1</ele>
        <time>2024-03-12T11:55:26Z</time>
      </trkpt>
      <trkpt lat="44.24002" lon="4.81158">
        <ele>147.1</ele>
        <time>2024-03-12T11:55:27Z</time>
      </trkpt>
      <trkpt lat="44.24005" lon="4.81159">
        <ele>147.1</ele>
        <time>2024-03-12T11:55:28Z</time>
      </trkpt>
      <trkpt lat="44.24008" lon="4.8116">
        <ele>147.1</ele>
        <time>2024-03-12T11:55:29Z</time>
      </trkpt>
      <trkpt lat="44.24011" lon="4.8116">
        <ele>147.2</ele>
        <time>2024-03-12T11:55:30Z</time>
      </trkpt>
      <trkpt lat="44.24013" lon="4.81161">
        <ele>147.2</ele>
        <time>2024-03-12T11:55:31Z</time>
      </trkpt>
      <trkpt lat="44.24016" lon="4.81162">
        <ele>147.2</ele>
        <time>2024-03-12T11:55:32Z</time>
      </trkpt>
      <trkpt lat="44.24019" lon="4.81164">
        <ele>147.3</ele>
        <time>2024-03-12T11:55:33Z</time>
      </trkpt>
      <trkpt lat="44.24021" lon="4.81165">
        <ele>147.3</ele>
        <time>2024-03-12T11:55:34Z</time>
      </trkpt>
      <trkpt lat="44.24024" lon="4.81166">
        <ele>147.4</ele>
        <time>2024-03-12T11:55:35Z</time>
      </trkpt>
      <trkpt lat="44.24027" lon="4.81168">
        <ele>147.4</ele>
        <time>2024-03-12T11:55:36Z</time>
      </trkpt>
      <trkpt lat="44.24029" lon="4.81169">
        <ele>147.5</ele>
        <time>2024-03-12T11:55:37Z</time>
      </trkpt>
      <trkpt lat="44.24032" lon="4.81171">
        <ele>147.5</ele>
        <time>2024-03-12T11:55:38Z</time>
      </trkpt>
      <trkpt lat="44.24035" lon="4.81172">
        <ele>147.6</ele>
        <time>2024-03-12T11:55:39Z</time>
      </trkpt>
      <trkpt lat="44.24038" lon="4.81173">
        <ele>147.6</ele>
        <time>2024-03-12T11:55:40Z</time>
      </trkpt>
      <trkpt lat="44.24041" lon="4.81175">
        <ele>147.7</ele>
        <time>2024-03-12T11:55:41Z</time>
      </trkpt>
      <trkpt lat="44.24044" lon="4.81176">
        <ele>147.8</ele>
        <time>2024-03-12T11:55:42Z</time>
      </trkpt>
      <trkpt lat="44.24047" lon="4.81177">
        <ele>147.8</ele>
        <time>2024-03-12T11:55:43Z</time>
      </trkpt>
      <trkpt lat="44.2405" lon="4.81178">
        <ele>147.9</ele>
        <time>2024-03-12T11:55:44Z</time>
      </trkpt>
      <trkpt lat="44.24053" lon="4.81179">
        <ele>148</ele>
        <time>2024-03-12T11:55:45Z</time>
      </trkpt>
      <trkpt lat="44.24056" lon="4.8118">
        <ele>148</ele>
        <time>2024-03-12T11:55:46Z</time>
      </trkpt>
      <trkpt lat="44.24059" lon="4.81181">
        <ele>148.1</ele>
        <time>2024-03-12T11:55:47Z</time>
      </trkpt>
      <trkpt lat="44.24061" lon="4.81182">
        <ele>148.2</ele>
        <time>2024-03-12T11:55:48Z</time>
      </trkpt>
      <trkpt lat="44.24064" lon="4.81183">
        <ele>148.2</ele>
        <time>2024-03-12T11:55:49Z</time>
      </trkpt>
      <trkpt lat="44.24067" lon="4.81183">
        <ele>148.3</ele>
        <time>2024-03-12T11:55:50Z</time>
      </trkpt>
      <trkpt lat="44.2407" lon="4.81184">
        <ele>148.4</ele>
        <time>2024-03-12T11:55:51Z</time>
      </trkpt>
      <trkpt lat="44.24073" lon="4.81185">
        <ele>148.4</ele>
        <time>2024-03-12T11:55:52Z</time>
      </trkpt>
      <trkpt lat="44.24076" lon="4.81185">
        <ele>148.5</ele>
        <time>2024-03-12T11:55:53Z</time>
      </trkpt>
      <trkpt lat="44.24079" lon="4.81186">
        <ele>148.6</ele>
        <time>2024-03-12T11:55:54Z</time>
      </trkpt>
      <trkpt lat="44.24082" lon="4.81186">
        <ele>148.6</ele>
        <time>2024-03-12T11:55:55Z</time>
      </trkpt>
      <trkpt lat="44.24085" lon="4.81187">
        <ele>148.7</ele>
        <time>2024-03-12T11:55:56Z</time>
      </trkpt>
      <trkpt lat="44.24087" lon="4.81188">
        <ele>148.8</ele>
        <time>2024-03-12T11:55:57Z</time>
      </trkpt>
      <trkpt lat="44.2409" lon="4.81189">
        <ele>148.8</ele>
        <time>2024-03-12T11:55:58Z</time>
      </trkpt>
      <trkpt lat="44.24093" lon="4.81191">
        <ele>148.9</ele>
        <time>2024-03-12T11:55:59Z</time>
      </trkpt>
      <trkpt lat="44.24096" lon="4.81192">
        <ele>149</ele>
        <time>2024-03-12T11:56:00Z</time>
      </trkpt>
      <trkpt lat="44.24099" lon="4.81194">
        <ele>149.1</ele>
        <time>2024-03-12T11:56:01Z</time>
      </trkpt>
      <trkpt lat="44.24102" lon="4.81195">
        <ele>149.1</ele>
        <time>2024-03-12T11:56:02Z</time>
      </trkpt>
      <trkpt lat="44.24105" lon="4.81196">
        <ele>149.2</ele>
        <time>2024-03-12T11:56:03Z</time>
      </trkpt>
      <trkpt lat="44.24109" lon="4.81197">
        <ele>149.3</ele>
        <time>2024-03-12T11:56:04Z</time>
      </trkpt>
      <trkpt lat="44.24112" lon="4.81198">
        <ele>149.3</ele>
        <time>2024-03-12T11:56:05Z</time>
      </trkpt>
      <trkpt lat="44.24115" lon="4.81198">
        <ele>149.4</ele>
        <time>2024-03-12T11:56:06Z</time>
      </trkpt>
      <trkpt lat="44.24118" lon="4.81199">
        <ele>149.4</ele>
        <time>2024-03-12T11:56:07Z</time>
      </trkpt>
      <trkpt lat="44.24121" lon="4.81198">
        <ele>149.5</ele>
        <time>2024-03-12T11:56:08Z</time>
      </trkpt>
      <trkpt lat="44.24123" lon="4.81198">
        <ele>149.5</ele>
        <time>2024-03-12T11:56:09Z</time>
      </trkpt>
      <trkpt lat="44.24125" lon="4.81197">
        <ele>149.6</ele>
        <time>2024-03-12T11:56:10Z</time>
      </trkpt>
      <trkpt lat="44.24125" lon="4.81197">
        <ele>149.6</ele>
        <time>2024-03-12T11:56:11Z</time>
      </trkpt>
      <trkpt lat="44.24128" lon="4.81195">
        <ele>149.6</ele>
        <time>2024-03-12T11:56:12Z</time>
      </trkpt>
      <trkpt lat="44.2413" lon="4.81194">
        <ele>149.7</ele>
        <time>2024-03-12T11:56:13Z</time>
      </trkpt>
      <trkpt lat="44.24133" lon="4.81194">
        <ele>149.7</ele>
        <time>2024-03-12T11:56:14Z</time>
      </trkpt>
      <trkpt lat="44.24135" lon="4.81193">
        <ele>149.7</ele>
        <time>2024-03-12T11:56:15Z</time>
      </trkpt>
      <trkpt lat="44.24138" lon="4.81193">
        <ele>149.8</ele>
        <time>2024-03-12T11:56:16Z</time>
      </trkpt>
      <trkpt lat="44.24141" lon="4.81193">
        <ele>149.9</ele>
        <time>2024-03-12T11:56:17Z</time>
      </trkpt>
      <trkpt lat="44.24144" lon="4.81194">
        <ele>149.9</ele>
        <time>2024-03-12T11:56:18Z</time>
      </trkpt>
      <trkpt lat="44.24147" lon="4.81194">
        <ele>150</ele>
        <time>2024-03-12T11:56:19Z</time>
      </trkpt>
      <trkpt lat="44.2415" lon="4.81195">
        <ele>150</ele>
        <time>2024-03-12T11:56:20Z</time>
      </trkpt>
      <trkpt lat="44.24153" lon="4.81195">
        <ele>150.1</ele>
        <time>2024-03-12T11:56:21Z</time>
      </trkpt>
      <trkpt lat="44.24156" lon="4.81196">
        <ele>150.2</ele>
        <time>2024-03-12T11:56:22Z</time>
      </trkpt>
      <trkpt lat="44.24159" lon="4.81196">
        <ele>150.2</ele>
        <time>2024-03-12T11:56:23Z</time>
      </trkpt>
      <trkpt lat="44.24162" lon="4.81197">
        <ele>150.3</ele>
        <time>2024-03-12T11:56:24Z</time>
      </trkpt>
      <trkpt lat="44.24165" lon="4.81198">
        <ele>150.3</ele>
        <time>2024-03-12T11:56:25Z</time>
      </trkpt>
      <trkpt lat="44.24168" lon="4.81199">
        <ele>150.4</ele>
        <time>2024-03-12T11:56:26Z</time>
      </trkpt>
      <trkpt lat="44.24171" lon="4.812">
        <ele>150.5</ele>
        <time>2024-03-12T11:56:27Z</time>
      </trkpt>
      <trkpt lat="44.24174" lon="4.81201">
        <ele>150.5</ele>
        <time>2024-03-12T11:56:28Z</time>
      </trkpt>
      <trkpt lat="44.24177" lon="4.81201">
        <ele>150.6</ele>
        <time>2024-03-12T11:56:29Z</time>
      </trkpt>
      <trkpt lat="44.2418" lon="4.81201">
        <ele>150.7</ele>
        <time>2024-03-12T11:56:30Z</time>
      </trkpt>
      <trkpt lat="44.24183" lon="4.81201">
        <ele>150.7</ele>
        <time>2024-03-12T11:56:31Z</time>
      </trkpt>
      <trkpt lat="44.24186" lon="4.81202">
        <ele>150.8</ele>
        <time>2024-03-12T11:56:32Z</time>
      </trkpt>
      <trkpt lat="44.24189" lon="4.81203">
        <ele>150.9</ele>
        <time>2024-03-12T11:56:33Z</time>
      </trkpt>
      <trkpt lat="44.24192" lon="4.81204">
        <ele>151</ele>
        <time>2024-03-12T11:56:34Z</time>
      </trkpt>
      <trkpt lat="44.24196" lon="4.81205">
        <ele>151.1</ele>
        <time>2024-03-12T11:56:35Z</time>
      </trkpt>
      <trkpt lat="44.24198" lon="4.81206">
        <ele>151.1</ele>
        <time>2024-03-12T11:56:36Z</time>
      </trkpt>
      <trkpt lat="44.24202" lon="4.81206">
        <ele>151.2</ele>
        <time>2024-03-12T11:56:37Z</time>
      </trkpt>
      <trkpt lat="44.24205" lon="4.81207">
        <ele>151.3</ele>
        <time>2024-03-12T11:56:38Z</time>
      </trkpt>
      <trkpt lat="44.24208" lon="4.81208">
        <ele>151.4</ele>
        <time>2024-03-12T11:56:39Z</time>
      </trkpt>
      <trkpt lat="44.24211" lon="4.81209">
        <ele>151.5</ele>
        <time>2024-03-12T11:56:40Z</time>
      </trkpt>
      <trkpt lat="44.24214" lon="4.81211">
        <ele>151.6</ele>
        <time>2024-03-12T11:56:41Z</time>
      </trkpt>
      <trkpt lat="44.24216" lon="4.81212">
        <ele>151.7</ele>
        <time>2024-03-12T11:56:42Z</time>
      </trkpt>
      <trkpt lat="44.24219" lon="4.81214">
        <ele>151.7</ele>
        <time>2024-03-12T11:56:43Z</time>
      </trkpt>
      <trkpt lat="44.24221" lon="4.81215">
        <ele>151.8</ele>
        <time>2024-03-12T11:56:44Z</time>
      </trkpt>
      <trkpt lat="44.24224" lon="4.81217">
        <ele>151.9</ele>
        <time>2024-03-12T11:56:45Z</time>
      </trkpt>
      <trkpt lat="44.24227" lon="4.81218">
        <ele>152</ele>
        <time>2024-03-12T11:56:46Z</time>
      </trkpt>
      <trkpt lat="44.2423" lon="4.81219">
        <ele>152</ele>
        <time>2024-03-12T11:56:47Z</time>
      </trkpt>
      <trkpt lat="44.24233" lon="4.81221">
        <ele>152.1</ele>
        <time>2024-03-12T11:56:48Z</time>
      </trkpt>
      <trkpt lat="44.24236" lon="4.81222">
        <ele>152.2</ele>
        <time>2024-03-12T11:56:49Z</time>
      </trkpt>
      <trkpt lat="44.24238" lon="4.81223">
        <ele>152.3</ele>
        <time>2024-03-12T11:56:50Z</time>
      </trkpt>
      <trkpt lat="44.24241" lon="4.81224">
        <ele>152.3</ele>
        <time>2024-03-12T11:56:51Z</time>
      </trkpt>
      <trkpt lat="44.24244" lon="4.81225">
        <ele>152.4</ele>
        <time>2024-03-12T11:56:52Z</time>
      </trkpt>
      <trkpt lat="44.24247" lon="4.81226">
        <ele>152.5</ele>
        <time>2024-03-12T11:56:53Z</time>
      </trkpt>
      <trkpt lat="44.24249" lon="4.81226">
        <ele>152.5</ele>
        <time>2024-03-12T11:56:54Z</time>
      </trkpt>
      <trkpt lat="44.24252" lon="4.81227">
        <ele>152.6</ele>
        <time>2024-03-12T11:56:55Z</time>
      </trkpt>
      <trkpt lat="44.24255" lon="4.81227">
        <ele>152.7</ele>
        <time>2024-03-12T11:56:56Z</time>
      </trkpt>
      <trkpt lat="44.24258" lon="4.81228">
        <ele>152.7</ele>
        <time>2024-03-12T11:56:57Z</time>
      </trkpt>
      <trkpt lat="44.24261" lon="4.81228">
        <ele>152.8</ele>
        <time>2024-03-12T11:56:58Z</time>
      </trkpt>
      <trkpt lat="44.24263" lon="4.81229">
        <ele>152.9</ele>
        <time>2024-03-12T11:56:59Z</time>
      </trkpt>
      <trkpt lat="44.24267" lon="4.8123">
        <ele>152.9</ele>
        <time>2024-03-12T11:57:00Z</time>
      </trkpt>
      <trkpt lat="44.24269" lon="4.81231">
        <ele>153</ele>
        <time>2024-03-12T11:57:01Z</time>
      </trkpt>
      <trkpt lat="44.24273" lon="4.81232">
        <ele>153.1</ele>
        <time>2024-03-12T11:57:02Z</time>
      </trkpt>
      <trkpt lat="44.24275" lon="4.81233">
        <ele>153.1</ele>
        <time>2024-03-12T11:57:03Z</time>
      </trkpt>
      <trkpt lat="44.24278" lon="4.81234">
        <ele>153.2</ele>
        <time>2024-03-12T11:57:04Z</time>
      </trkpt>
      <trkpt lat="44.24281" lon="4.81236">
        <ele>153.3</ele>
        <time>2024-03-12T11:57:05Z</time>
      </trkpt>
      <trkpt lat="44.24283" lon="4.81237">
        <ele>153.3</ele>
        <time>2024-03-12T11:57:06Z</time>
      </trkpt>
      <trkpt lat="44.24286" lon="4.81238">
        <ele>153.3</ele>
        <time>2024-03-12T11:57:07Z</time>
      </trkpt>
      <trkpt lat="44.24289" lon="4.81239">
        <ele>153.4</ele>
        <time>2024-03-12T11:57:08Z</time>
      </trkpt>
      <trkpt lat="44.24292" lon="4.8124">
        <ele>153.4</ele>
        <time>2024-03-12T11:57:09Z</time>
      </trkpt>
      <trkpt lat="44.24295" lon="4.81241">
        <ele>153.4</ele>
        <time>2024-03-12T11:57:10Z</time>
      </trkpt>
      <trkpt lat="44.24299" lon="4.81241">
        <ele>153.4</ele>
        <time>2024-03-12T11:57:11Z</time>
      </trkpt>
      <trkpt lat="44.24301" lon="4.81242">
        <ele>153.4</ele>
        <time>2024-03-12T11:57:12Z</time>
      </trkpt>
      <trkpt lat="44.24305" lon="4.81243">
        <ele>153.4</ele>
        <time>2024-03-12T11:57:13Z</time>
      </trkpt>
      <trkpt lat="44.24307" lon="4.81244">
        <ele>153.4</ele>
        <time>2024-03-12T11:57:14Z</time>
      </trkpt>
      <trkpt lat="44.2431" lon="4.81245">
        <ele>153.4</ele>
        <time>2024-03-12T11:57:15Z</time>
      </trkpt>
      <trkpt lat="44.24313" lon="4.81246">
        <ele>153.5</ele>
        <time>2024-03-12T11:57:16Z</time>
      </trkpt>
      <trkpt lat="44.24317" lon="4.81247">
        <ele>153.5</ele>
        <time>2024-03-12T11:57:17Z</time>
      </trkpt>
      <trkpt lat="44.24319" lon="4.81248">
        <ele>153.5</ele>
        <time>2024-03-12T11:57:18Z</time>
      </trkpt>
      <trkpt lat="44.24323" lon="4.81249">
        <ele>153.5</ele>
        <time>2024-03-12T11:57:19Z</time>
      </trkpt>
      <trkpt lat="44.24326" lon="4.8125">
        <ele>153.5</ele>
        <time>2024-03-12T11:57:20Z</time>
      </trkpt>
      <trkpt lat="44.24329" lon="4.81251">
        <ele>153.6</ele>
        <time>2024-03-12T11:57:21Z</time>
      </trkpt>
      <trkpt lat="44.24331" lon="4.81251">
        <ele>153.6</ele>
        <time>2024-03-12T11:57:22Z</time>
      </trkpt>
      <trkpt lat="44.24334" lon="4.81251">
        <ele>153.6</ele>
        <time>2024-03-12T11:57:23Z</time>
      </trkpt>
      <trkpt lat="44.24337" lon="4.81252">
        <ele>153.6</ele>
        <time>2024-03-12T11:57:24Z</time>
      </trkpt>
      <trkpt lat="44.24339" lon="4.81252">
        <ele>153.6</ele>
        <time>2024-03-12T11:57:25Z</time>
      </trkpt>
      <trkpt lat="44.24342" lon="4.81253">
        <ele>153.7</ele>
        <time>2024-03-12T11:57:26Z</time>
      </trkpt>
      <trkpt lat="44.24345" lon="4.81253">
        <ele>153.7</ele>
        <time>2024-03-12T11:57:27Z</time>
      </trkpt>
      <trkpt lat="44.24349" lon="4.81254">
        <ele>153.7</ele>
        <time>2024-03-12T11:57:28Z</time>
      </trkpt>
      <trkpt lat="44.24352" lon="4.81254">
        <ele>153.7</ele>
        <time>2024-03-12T11:57:29Z</time>
      </trkpt>
      <trkpt lat="44.24355" lon="4.81254">
        <ele>153.7</ele>
        <time>2024-03-12T11:57:30Z</time>
      </trkpt>
      <trkpt lat="44.24358" lon="4.81254">
        <ele>153.6</ele>
        <time>2024-03-12T11:57:31Z</time>
      </trkpt>
      <trkpt lat="44.24362" lon="4.81254">
        <ele>153.6</ele>
        <time>2024-03-12T11:57:32Z</time>
      </trkpt>
      <trkpt lat="44.24365" lon="4.81254">
        <ele>153.6</ele>
        <time>2024-03-12T11:57:33Z</time>
      </trkpt>
      <trkpt lat="44.24369" lon="4.81254">
        <ele>153.6</ele>
        <time>2024-03-12T11:57:34Z</time>
      </trkpt>
      <trkpt lat="44.24372" lon="4.81254">
        <ele>153.6</ele>
        <time>2024-03-12T11:57:35Z</time>
      </trkpt>
      <trkpt lat="44.24376" lon="4.81255">
        <ele>153.5</ele>
        <time>2024-03-12T11:57:36Z</time>
      </trkpt>
      <trkpt lat="44.24379" lon="4.81255">
        <ele>153.5</ele>
        <time>2024-03-12T11:57:37Z</time>
      </trkpt>
      <trkpt lat="44.24382" lon="4.81255">
        <ele>153.5</ele>
        <time>2024-03-12T11:57:38Z</time>
      </trkpt>
      <trkpt lat="44.24386" lon="4.81255">
        <ele>153.5</ele>
        <time>2024-03-12T11:57:39Z</time>
      </trkpt>
      <trkpt lat="44.24389" lon="4.81256">
        <ele>153.5</ele>
        <time>2024-03-12T11:57:40Z</time>
      </trkpt>
      <trkpt lat="44.24393" lon="4.81256">
        <ele>153.5</ele>
        <time>2024-03-12T11:57:41Z</time>
      </trkpt>
      <trkpt lat="44.24396" lon="4.81256">
        <ele>153.5</ele>
        <time>2024-03-12T11:57:42Z</time>
      </trkpt>
      <trkpt lat="44.244" lon="4.81256">
        <ele>153.5</ele>
        <time>2024-03-12T11:57:43Z</time>
      </trkpt>
      <trkpt lat="44.24403" lon="4.81256">
        <ele>153.5</ele>
        <time>2024-03-12T11:57:44Z</time>
      </trkpt>
      <trkpt lat="44.24406" lon="4.81256">
        <ele>153.5</ele>
        <time>2024-03-12T11:57:45Z</time>
      </trkpt>
      <trkpt lat="44.24409" lon="4.81256">
        <ele>153.5</ele>
        <time>2024-03-12T11:57:46Z</time>
      </trkpt>
      <trkpt lat="44.24412" lon="4.81256">
        <ele>153.5</ele>
        <time>2024-03-12T11:57:47Z</time>
      </trkpt>
      <trkpt lat="44.24415" lon="4.81257">
        <ele>153.5</ele>
        <time>2024-03-12T11:57:48Z</time>
      </trkpt>
      <trkpt lat="44.24419" lon="4.81258">
        <ele>153.5</ele>
        <time>2024-03-12T11:57:49Z</time>
      </trkpt>
      <trkpt lat="44.24422" lon="4.8126">
        <ele>153.5</ele>
        <time>2024-03-12T11:57:50Z</time>
      </trkpt>
      <trkpt lat="44.24426" lon="4.81262">
        <ele>153.5</ele>
        <time>2024-03-12T11:57:51Z</time>
      </trkpt>
      <trkpt lat="44.24429" lon="4.81263">
        <ele>153.5</ele>
        <time>2024-03-12T11:57:52Z</time>
      </trkpt>
      <trkpt lat="44.24432" lon="4.81265">
        <ele>153.6</ele>
        <time>2024-03-12T11:57:53Z</time>
      </trkpt>
      <trkpt lat="44.24435" lon="4.81267">
        <ele>153.6</ele>
        <time>2024-03-12T11:57:54Z</time>
      </trkpt>
      <trkpt lat="44.24437" lon="4.81269">
        <ele>153.6</ele>
        <time>2024-03-12T11:57:55Z</time>
      </trkpt>
      <trkpt lat="44.24439" lon="4.81271">
        <ele>153.6</ele>
        <time>2024-03-12T11:57:56Z</time>
      </trkpt>
      <trkpt lat="44.24441" lon="4.81273">
        <ele>153.7</ele>
        <time>2024-03-12T11:57:57Z</time>
      </trkpt>
      <trkpt lat="44.24444" lon="4.81275">
        <ele>153.7</ele>
        <time>2024-03-12T11:57:58Z</time>
      </trkpt>
      <trkpt lat="44.24445" lon="4.81277">
        <ele>153.8</ele>
        <time>2024-03-12T11:57:59Z</time>
      </trkpt>
      <trkpt lat="44.24448" lon="4.81279">
        <ele>153.8</ele>
        <time>2024-03-12T11:58:00Z</time>
      </trkpt>
      <trkpt lat="44.2445" lon="4.8128">
        <ele>153.8</ele>
        <time>2024-03-12T11:58:01Z</time>
      </trkpt>
      <trkpt lat="44.24452" lon="4.81282">
        <ele>153.9</ele>
        <time>2024-03-12T11:58:02Z</time>
      </trkpt>
      <trkpt lat="44.24455" lon="4.81283">
        <ele>153.9</ele>
        <time>2024-03-12T11:58:03Z</time>
      </trkpt>
      <trkpt lat="44.24457" lon="4.81284">
        <ele>154</ele>
        <time>2024-03-12T11:58:04Z</time>
      </trkpt>
      <trkpt lat="44.2446" lon="4.81285">
        <ele>154</ele>
        <time>2024-03-12T11:58:05Z</time>
      </trkpt>
      <trkpt lat="44.24462" lon="4.81285">
        <ele>154</ele>
        <time>2024-03-12T11:58:06Z</time>
      </trkpt>
      <trkpt lat="44.24465" lon="4.81286">
        <ele>154</ele>
        <time>2024-03-12T11:58:07Z</time>
      </trkpt>
      <trkpt lat="44.24468" lon="4.81287">
        <ele>154.1</ele>
        <time>2024-03-12T11:58:08Z</time>
      </trkpt>
      <trkpt lat="44.24471" lon="4.81289">
        <ele>154.1</ele>
        <time>2024-03-12T11:58:09Z</time>
      </trkpt>
      <trkpt lat="44.24474" lon="4.81291">
        <ele>154.2</ele>
        <time>2024-03-12T11:58:10Z</time>
      </trkpt>
      <trkpt lat="44.24477" lon="4.81293">
        <ele>154.2</ele>
        <time>2024-03-12T11:58:11Z</time>
      </trkpt>
      <trkpt lat="44.2448" lon="4.81294">
        <ele>154.2</ele>
        <time>2024-03-12T11:58:12Z</time>
      </trkpt>
      <trkpt lat="44.24484" lon="4.81296">
        <ele>154.3</ele>
        <time>2024-03-12T11:58:13Z</time>
      </trkpt>
      <trkpt lat="44.24486" lon="4.81297">
        <ele>154.3</ele>
        <time>2024-03-12T11:58:14Z</time>
      </trkpt>
      <trkpt lat="44.2449" lon="4.81298">
        <ele>154.3</ele>
        <time>2024-03-12T11:58:15Z</time>
      </trkpt>
      <trkpt lat="44.24492" lon="4.81298">
        <ele>154.4</ele>
        <time>2024-03-12T11:58:16Z</time>
      </trkpt>
      <trkpt lat="44.24495" lon="4.81299">
        <ele>154.4</ele>
        <time>2024-03-12T11:58:17Z</time>
      </trkpt>
      <trkpt lat="44.24498" lon="4.81299">
        <ele>154.4</ele>
        <time>2024-03-12T11:58:18Z</time>
      </trkpt>
      <trkpt lat="44.24501" lon="4.813">
        <ele>154.5</ele>
        <time>2024-03-12T11:58:19Z</time>
      </trkpt>
      <trkpt lat="44.24504" lon="4.81301">
        <ele>154.5</ele>
        <time>2024-03-12T11:58:20Z</time>
      </trkpt>
      <trkpt lat="44.24508" lon="4.81302">
        <ele>154.5</ele>
        <time>2024-03-12T11:58:21Z</time>
      </trkpt>
      <trkpt lat="44.2451" lon="4.81303">
        <ele>154.5</ele>
        <time>2024-03-12T11:58:22Z</time>
      </trkpt>
      <trkpt lat="44.24513" lon="4.81304">
        <ele>154.6</ele>
        <time>2024-03-12T11:58:23Z</time>
      </trkpt>
      <trkpt lat="44.24516" lon="4.81305">
        <ele>154.6</ele>
        <time>2024-03-12T11:58:24Z</time>
      </trkpt>
      <trkpt lat="44.24519" lon="4.81305">
        <ele>154.6</ele>
        <time>2024-03-12T11:58:25Z</time>
      </trkpt>
      <trkpt lat="44.24522" lon="4.81305">
        <ele>154.6</ele>
        <time>2024-03-12T11:58:26Z</time>
      </trkpt>
      <trkpt lat="44.24525" lon="4.81305">
        <ele>154.6</ele>
        <time>2024-03-12T11:58:27Z</time>
      </trkpt>
      <trkpt lat="44.24528" lon="4.81305">
        <ele>154.7</ele>
        <time>2024-03-12T11:58:28Z</time>
      </trkpt>
      <trkpt lat="44.24531" lon="4.81305">
        <ele>154.7</ele>
        <time>2024-03-12T11:58:29Z</time>
      </trkpt>
      <trkpt lat="44.24535" lon="4.81305">
        <ele>154.7</ele>
        <time>2024-03-12T11:58:30Z</time>
      </trkpt>
      <trkpt lat="44.24538" lon="4.81305">
        <ele>154.7</ele>
        <time>2024-03-12T11:58:31Z</time>
      </trkpt>
      <trkpt lat="44.24541" lon="4.81306">
        <ele>154.6</ele>
        <time>2024-03-12T11:58:32Z</time>
      </trkpt>
      <trkpt lat="44.24545" lon="4.81307">
        <ele>154.6</ele>
        <time>2024-03-12T11:58:33Z</time>
      </trkpt>
      <trkpt lat="44.24548" lon="4.81307">
        <ele>154.6</ele>
        <time>2024-03-12T11:58:34Z</time>
      </trkpt>
      <trkpt lat="44.24551" lon="4.81309">
        <ele>154.6</ele>
        <time>2024-03-12T11:58:35Z</time>
      </trkpt>
      <trkpt lat="44.24554" lon="4.8131">
        <ele>154.6</ele>
        <time>2024-03-12T11:58:36Z</time>
      </trkpt>
      <trkpt lat="44.24557" lon="4.81311">
        <ele>154.6</ele>
        <time>2024-03-12T11:58:37Z</time>
      </trkpt>
      <trkpt lat="44.2456" lon="4.81312">
        <ele>154.6</ele>
        <time>2024-03-12T11:58:38Z</time>
      </trkpt>
      <trkpt lat="44.24563" lon="4.81313">
        <ele>154.6</ele>
        <time>2024-03-12T11:58:39Z</time>
      </trkpt>
      <trkpt lat="44.24567" lon="4.81314">
        <ele>154.6</ele>
        <time>2024-03-12T11:58:40Z</time>
      </trkpt>
      <trkpt lat="44.2457" lon="4.81315">
        <ele>154.7</ele>
        <time>2024-03-12T11:58:41Z</time>
      </trkpt>
      <trkpt lat="44.24573" lon="4.81316">
        <ele>154.7</ele>
        <time>2024-03-12T11:58:42Z</time>
      </trkpt>
      <trkpt lat="44.24576" lon="4.81318">
        <ele>154.8</ele>
        <time>2024-03-12T11:58:43Z</time>
      </trkpt>
      <trkpt lat="44.24579" lon="4.81319">
        <ele>154.8</ele>
        <time>2024-03-12T11:58:44Z</time>
      </trkpt>
      <trkpt lat="44.24582" lon="4.81321">
        <ele>154.9</ele>
        <time>2024-03-12T11:58:45Z</time>
      </trkpt>
      <trkpt lat="44.24585" lon="4.81322">
        <ele>155</ele>
        <time>2024-03-12T11:58:46Z</time>
      </trkpt>
      <trkpt lat="44.24588" lon="4.81323">
        <ele>155.1</ele>
        <time>2024-03-12T11:58:47Z</time>
      </trkpt>
      <trkpt lat="44.24591" lon="4.81324">
        <ele>155.2</ele>
        <time>2024-03-12T11:58:48Z</time>
      </trkpt>
      <trkpt lat="44.24594" lon="4.81325">
        <ele>155.4</ele>
        <time>2024-03-12T11:58:49Z</time>
      </trkpt>
      <trkpt lat="44.24597" lon="4.81326">
        <ele>155.5</ele>
        <time>2024-03-12T11:58:50Z</time>
      </trkpt>
      <trkpt lat="44.24599" lon="4.81326">
        <ele>155.6</ele>
        <time>2024-03-12T11:58:51Z</time>
      </trkpt>
      <trkpt lat="44.24601" lon="4.81327">
        <ele>155.7</ele>
        <time>2024-03-12T11:58:52Z</time>
      </trkpt>
      <trkpt lat="44.24603" lon="4.81327">
        <ele>155.8</ele>
        <time>2024-03-12T11:58:53Z</time>
      </trkpt>
      <trkpt lat="44.24605" lon="4.81327">
        <ele>156</ele>
        <time>2024-03-12T11:58:54Z</time>
      </trkpt>
      <trkpt lat="44.24607" lon="4.81327">
        <ele>156.1</ele>
        <time>2024-03-12T11:58:55Z</time>
      </trkpt>
      <trkpt lat="44.24609" lon="4.81327">
        <ele>156.2</ele>
        <time>2024-03-12T11:58:56Z</time>
      </trkpt>
      <trkpt lat="44.24609" lon="4.81327">
        <ele>156.2</ele>
        <time>2024-03-12T11:58:57Z</time>
      </trkpt>
      <trkpt lat="44.24613" lon="4.81328">
        <ele>156.4</ele>
        <time>2024-03-12T11:58:58Z</time>
      </trkpt>
      <trkpt lat="44.24614" lon="4.81328">
        <ele>156.6</ele>
        <time>2024-03-12T11:58:59Z</time>
      </trkpt>
      <trkpt lat="44.24614" lon="4.81328">
        <ele>156.6</ele>
        <time>2024-03-12T11:59:00Z</time>
      </trkpt>
      <trkpt lat="44.24618" lon="4.81329">
        <ele>156.8</ele>
        <time>2024-03-12T11:59:01Z</time>
      </trkpt>
      <trkpt lat="44.24621" lon="4.81329">
        <ele>157</ele>
        <time>2024-03-12T11:59:02Z</time>
      </trkpt>
      <trkpt lat="44.24623" lon="4.8133">
        <ele>157.1</ele>
        <time>2024-03-12T11:59:03Z</time>
      </trkpt>
      <trkpt lat="44.24626" lon="4.8133">
        <ele>157.3</ele>
        <time>2024-03-12T11:59:04Z</time>
      </trkpt>
      <trkpt lat="44.24629" lon="4.81329">
        <ele>157.5</ele>
        <time>2024-03-12T11:59:05Z</time>
      </trkpt>
      <trkpt lat="44.24631" lon="4.81329">
        <ele>157.7</ele>
        <time>2024-03-12T11:59:06Z</time>
      </trkpt>
      <trkpt lat="44.24634" lon="4.81328">
        <ele>157.8</ele>
        <time>2024-03-12T11:59:07Z</time>
      </trkpt>
      <trkpt lat="44.24637" lon="4.81326">
        <ele>158</ele>
        <time>2024-03-12T11:59:08Z</time>
      </trkpt>
      <trkpt lat="44.24639" lon="4.81324">
        <ele>158.1</ele>
        <time>2024-03-12T11:59:09Z</time>
      </trkpt>
      <trkpt lat="44.24641" lon="4.81322">
        <ele>158.1</ele>
        <time>2024-03-12T11:59:10Z</time>
      </trkpt>
      <trkpt lat="44.24643" lon="4.81318">
        <ele>157.6</ele>
        <time>2024-03-12T11:59:11Z</time>
      </trkpt>
      <trkpt lat="44.24645" lon="4.81314">
        <ele>157</ele>
        <time>2024-03-12T11:59:12Z</time>
      </trkpt>
      <trkpt lat="44.24647" lon="4.8131">
        <ele>156.5</ele>
        <time>2024-03-12T11:59:13Z</time>
      </trkpt>
      <trkpt lat="44.24649" lon="4.81305">
        <ele>155.9</ele>
        <time>2024-03-12T11:59:14Z</time>
      </trkpt>
      <trkpt lat="44.24652" lon="4.813">
        <ele>155.5</ele>
        <time>2024-03-12T11:59:15Z</time>
      </trkpt>
      <trkpt lat="44.24654" lon="4.81296">
        <ele>154.7</ele>
        <time>2024-03-12T11:59:16Z</time>
      </trkpt>
      <trkpt lat="44.24658" lon="4.81291">
        <ele>154.4</ele>
        <time>2024-03-12T11:59:17Z</time>
      </trkpt>
      <trkpt lat="44.24661" lon="4.81287">
        <ele>154.1</ele>
        <time>2024-03-12T11:59:18Z</time>
      </trkpt>
      <trkpt lat="44.24664" lon="4.81283">
        <ele>154.2</ele>
        <time>2024-03-12T11:59:19Z</time>
      </trkpt>
      <trkpt lat="44.24667" lon="4.8128">
        <ele>154.1</ele>
        <time>2024-03-12T11:59:20Z</time>
      </trkpt>
      <trkpt lat="44.2467" lon="4.81277">
        <ele>153.9</ele>
        <time>2024-03-12T11:59:21Z</time>
      </trkpt>
      <trkpt lat="44.24673" lon="4.81274">
        <ele>154</ele>
        <time>2024-03-12T11:59:22Z</time>
      </trkpt>
      <trkpt lat="44.24676" lon="4.81272">
        <ele>153.8</ele>
        <time>2024-03-12T11:59:23Z</time>
      </trkpt>
      <trkpt lat="44.24679" lon="4.81269">
        <ele>153.6</ele>
        <time>2024-03-12T11:59:24Z</time>
      </trkpt>
      <trkpt lat="44.24682" lon="4.81267">
        <ele>153.7</ele>
        <time>2024-03-12T11:59:25Z</time>
      </trkpt>
      <trkpt lat="44.24685" lon="4.81265">
        <ele>153.5</ele>
        <time>2024-03-12T11:59:26Z</time>
      </trkpt>
      <trkpt lat="44.24688" lon="4.81262">
        <ele>153.6</ele>
        <time>2024-03-12T11:59:27Z</time>
      </trkpt>
      <trkpt lat="44.2469" lon="4.81259">
        <ele>153.4</ele>
        <time>2024-03-12T11:59:28Z</time>
      </trkpt>
      <trkpt lat="44.24692" lon="4.81256">
        <ele>152.9</ele>
        <time>2024-03-12T11:59:29Z</time>
      </trkpt>
      <trkpt lat="44.24693" lon="4.81252">
        <ele>152.7</ele>
        <time>2024-03-12T11:59:30Z</time>
      </trkpt>
      <trkpt lat="44.24694" lon="4.81248">
        <ele>152.6</ele>
        <time>2024-03-12T11:59:31Z</time>
      </trkpt>
      <trkpt lat="44.24696" lon="4.81244">
        <ele>152.4</ele>
        <time>2024-03-12T11:59:32Z</time>
      </trkpt>
      <trkpt lat="44.24696" lon="4.8124">
        <ele>151.9</ele>
        <time>2024-03-12T11:59:33Z</time>
      </trkpt>
      <trkpt lat="44.24698" lon="4.81235">
        <ele>151.3</ele>
        <time>2024-03-12T11:59:34Z</time>
      </trkpt>
      <trkpt lat="44.247" lon="4.81231">
        <ele>151.1</ele>
        <time>2024-03-12T11:59:35Z</time>
      </trkpt>
      <trkpt lat="44.24702" lon="4.81227">
        <ele>150.8</ele>
        <time>2024-03-12T11:59:36Z</time>
      </trkpt>
      <trkpt lat="44.24704" lon="4.81223">
        <ele>150.6</ele>
        <time>2024-03-12T11:59:37Z</time>
      </trkpt>
      <trkpt lat="44.24707" lon="4.81219">
        <ele>150.4</ele>
        <time>2024-03-12T11:59:38Z</time>
      </trkpt>
      <trkpt lat="44.2471" lon="4.81216">
        <ele>150.2</ele>
        <time>2024-03-12T11:59:39Z</time>
      </trkpt>
      <trkpt lat="44.24713" lon="4.81213">
        <ele>150.1</ele>
        <time>2024-03-12T11:59:40Z</time>
      </trkpt>
      <trkpt lat="44.24716" lon="4.8121">
        <ele>150</ele>
        <time>2024-03-12T11:59:41Z</time>
      </trkpt>
      <trkpt lat="44.24719" lon="4.81208">
        <ele>149.9</ele>
        <time>2024-03-12T11:59:42Z</time>
      </trkpt>
      <trkpt lat="44.24719" lon="4.81208">
        <ele>149.9</ele>
        <time>2024-03-12T11:59:43Z</time>
      </trkpt>
      <trkpt lat="44.24724" lon="4.81204">
        <ele>149.9</ele>
        <time>2024-03-12T11:59:44Z</time>
      </trkpt>
      <trkpt lat="44.24728" lon="4.81202">
        <ele>149.9</ele>
        <time>2024-03-12T11:59:45Z</time>
      </trkpt>
      <trkpt lat="44.2473" lon="4.81201">
        <ele>149.9</ele>
        <time>2024-03-12T11:59:46Z</time>
      </trkpt>
      <trkpt lat="44.24733" lon="4.81199">
        <ele>149.9</ele>
        <time>2024-03-12T11:59:47Z</time>
      </trkpt>
      <trkpt lat="44.24733" lon="4.81199">
        <ele>149.9</ele>
        <time>2024-03-12T11:59:48Z</time>
      </trkpt>
      <trkpt lat="44.24738" lon="4.81196">
        <ele>150</ele>
        <time>2024-03-12T11:59:49Z</time>
      </trkpt>
      <trkpt lat="44.24743" lon="4.81194">
        <ele>150.1</ele>
        <time>2024-03-12T11:59:50Z</time>
      </trkpt>
      <trkpt lat="44.24744" lon="4.81193">
        <ele>150.1</ele>
        <time>2024-03-12T11:59:51Z</time>
      </trkpt>
      <trkpt lat="44.24748" lon="4.81191">
        <ele>150.2</ele>
        <time>2024-03-12T11:59:52Z</time>
      </trkpt>
      <trkpt lat="44.2475" lon="4.81189">
        <ele>150.2</ele>
        <time>2024-03-12T11:59:53Z</time>
      </trkpt>
      <trkpt lat="44.24754" lon="4.81188">
        <ele>150.3</ele>
        <time>2024-03-12T11:59:54Z</time>
      </trkpt>
      <trkpt lat="44.24757" lon="4.81186">
        <ele>150.4</ele>
        <time>2024-03-12T11:59:55Z</time>
      </trkpt>
      <trkpt lat="44.2476" lon="4.81185">
        <ele>150.5</ele>
        <time>2024-03-12T11:59:56Z</time>
      </trkpt>
      <trkpt lat="44.24762" lon="4.81184">
        <ele>150.6</ele>
        <time>2024-03-12T11:59:57Z</time>
      </trkpt>
      <trkpt lat="44.24765" lon="4.81183">
        <ele>150.7</ele>
        <time>2024-03-12T11:59:58Z</time>
      </trkpt>
      <trkpt lat="44.24768" lon="4.81182">
        <ele>150.8</ele>
        <time>2024-03-12T11:59:59Z</time>
      </trkpt>
      <trkpt lat="44.24771" lon="4.81181">
        <ele>150.9</ele>
        <time>2024-03-12T12:00:00Z</time>
      </trkpt>
      <trkpt lat="44.24774" lon="4.81179">
        <ele>151</ele>
        <time>2024-03-12T12:00:01Z</time>
      </trkpt>
      <trkpt lat="44.24776" lon="4.81178">
        <ele>151.1</ele>
        <time>2024-03-12T12:00:02Z</time>
      </trkpt>
      <trkpt lat="44.24779" lon="4.81176">
        <ele>151.2</ele>
        <time>2024-03-12T12:00:03Z</time>
      </trkpt>
      <trkpt lat="44.24781" lon="4.81173">
        <ele>151.3</ele>
        <time>2024-03-12T12:00:04Z</time>
      </trkpt>
      <trkpt lat="44.24784" lon="4.81171">
        <ele>151.3</ele>
        <time>2024-03-12T12:00:05Z</time>
      </trkpt>
      <trkpt lat="44.24786" lon="4.81168">
        <ele>151.2</ele>
        <time>2024-03-12T12:00:06Z</time>
      </trkpt>
      <trkpt lat="44.24788" lon="4.81165">
        <ele>151.1</ele>
        <time>2024-03-12T12:00:07Z</time>
      </trkpt>
      <trkpt lat="44.2479" lon="4.81161">
        <ele>151</ele>
        <time>2024-03-12T12:00:08Z</time>
      </trkpt>
      <trkpt lat="44.24792" lon="4.81158">
        <ele>150.8</ele>
        <time>2024-03-12T12:00:09Z</time>
      </trkpt>
      <trkpt lat="44.24793" lon="4.81153">
        <ele>150.7</ele>
        <time>2024-03-12T12:00:10Z</time>
      </trkpt>
      <trkpt lat="44.24794" lon="4.81149">
        <ele>150.6</ele>
        <time>2024-03-12T12:00:11Z</time>
      </trkpt>
      <trkpt lat="44.24796" lon="4.81145">
        <ele>150.5</ele>
        <time>2024-03-12T12:00:12Z</time>
      </trkpt>
      <trkpt lat="44.24797" lon="4.8114">
        <ele>150.4</ele>
        <time>2024-03-12T12:00:13Z</time>
      </trkpt>
      <trkpt lat="44.24798" lon="4.81136">
        <ele>150.3</ele>
        <time>2024-03-12T12:00:14Z</time>
      </trkpt>
      <trkpt lat="44.24799" lon="4.81132">
        <ele>150.3</ele>
        <time>2024-03-12T12:00:15Z</time>
      </trkpt>
      <trkpt lat="44.24801" lon="4.81127">
        <ele>150.2</ele>
        <time>2024-03-12T12:00:16Z</time>
      </trkpt>
      <trkpt lat="44.24802" lon="4.81122">
        <ele>150.1</ele>
        <time>2024-03-12T12:00:17Z</time>
      </trkpt>
      <trkpt lat="44.24803" lon="4.81117">
        <ele>150.1</ele>
        <time>2024-03-12T12:00:18Z</time>
      </trkpt>
      <trkpt lat="44.24804" lon="4.81112">
        <ele>150</ele>
        <time>2024-03-12T12:00:19Z</time>
      </trkpt>
      <trkpt lat="44.24805" lon="4.81107">
        <ele>150</ele>
        <time>2024-03-12T12:00:20Z</time>
      </trkpt>
      <trkpt lat="44.24807" lon="4.81102">
        <ele>149.9</ele>
        <time>2024-03-12T12:00:21Z</time>
      </trkpt>
      <trkpt lat="44.24808" lon="4.81098">
        <ele>149.9</ele>
        <time>2024-03-12T12:00:22Z</time>
      </trkpt>
      <trkpt lat="44.24809" lon="4.81094">
        <ele>149.8</ele>
        <time>2024-03-12T12:00:23Z</time>
      </trkpt>
      <trkpt lat="44.24811" lon="4.8109">
        <ele>149.8</ele>
        <time>2024-03-12T12:00:24Z</time>
      </trkpt>
      <trkpt lat="44.24812" lon="4.81087">
        <ele>149.8</ele>
        <time>2024-03-12T12:00:25Z</time>
      </trkpt>
      <trkpt lat="44.24813" lon="4.81084">
        <ele>149.7</ele>
        <time>2024-03-12T12:00:26Z</time>
      </trkpt>
      <trkpt lat="44.24815" lon="4.81081">
        <ele>149.7</ele>
        <time>2024-03-12T12:00:27Z</time>
      </trkpt>
      <trkpt lat="44.24817" lon="4.81078">
        <ele>149.7</ele>
        <time>2024-03-12T12:00:28Z</time>
      </trkpt>
      <trkpt lat="44.24818" lon="4.81075">
        <ele>149.6</ele>
        <time>2024-03-12T12:00:29Z</time>
      </trkpt>
      <trkpt lat="44.2482" lon="4.81071">
        <ele>149.6</ele>
        <time>2024-03-12T12:00:30Z</time>
      </trkpt>
      <trkpt lat="44.24821" lon="4.81068">
        <ele>149.6</ele>
        <time>2024-03-12T12:00:31Z</time>
      </trkpt>
      <trkpt lat="44.24822" lon="4.81064">
        <ele>149.5</ele>
        <time>2024-03-12T12:00:32Z</time>
      </trkpt>
      <trkpt lat="44.24822" lon="4.81059">
        <ele>149.5</ele>
        <time>2024-03-12T12:00:33Z</time>
      </trkpt>
      <trkpt lat="44.24822" lon="4.81054">
        <ele>149.5</ele>
        <time>2024-03-12T12:00:34Z</time>
      </trkpt>
      <trkpt lat="44.24823" lon="4.81049">
        <ele>149.5</ele>
        <time>2024-03-12T12:00:35Z</time>
      </trkpt>
      <trkpt lat="44.24823" lon="4.81044">
        <ele>149.4</ele>
        <time>2024-03-12T12:00:36Z</time>
      </trkpt>
      <trkpt lat="44.24823" lon="4.81039">
        <ele>149.4</ele>
        <time>2024-03-12T12:00:37Z</time>
      </trkpt>
      <trkpt lat="44.24824" lon="4.81034">
        <ele>149.5</ele>
        <time>2024-03-12T12:00:38Z</time>
      </trkpt>
      <trkpt lat="44.24825" lon="4.81031">
        <ele>149.5</ele>
        <time>2024-03-12T12:00:39Z</time>
      </trkpt>
      <trkpt lat="44.24827" lon="4.81029">
        <ele>149.5</ele>
        <time>2024-03-12T12:00:40Z</time>
      </trkpt>
      <trkpt lat="44.24829" lon="4.81028">
        <ele>149.2</ele>
        <time>2024-03-12T12:00:41Z</time>
      </trkpt>
      <trkpt lat="44.24832" lon="4.81027">
        <ele>149</ele>
        <time>2024-03-12T12:00:42Z</time>
      </trkpt>
      <trkpt lat="44.24835" lon="4.81027">
        <ele>148.7</ele>
        <time>2024-03-12T12:00:43Z</time>
      </trkpt>
      <trkpt lat="44.24838" lon="4.81026">
        <ele>148.4</ele>
        <time>2024-03-12T12:00:44Z</time>
      </trkpt>
      <trkpt lat="44.24841" lon="4.81026">
        <ele>148.1</ele>
        <time>2024-03-12T12:00:45Z</time>
      </trkpt>
      <trkpt lat="44.24844" lon="4.81025">
        <ele>148.1</ele>
        <time>2024-03-12T12:00:46Z</time>
      </trkpt>
      <trkpt lat="44.24846" lon="4.81024">
        <ele>148.2</ele>
        <time>2024-03-12T12:00:47Z</time>
      </trkpt>
      <trkpt lat="44.24849" lon="4.81022">
        <ele>148.3</ele>
        <time>2024-03-12T12:00:48Z</time>
      </trkpt>
      <trkpt lat="44.24853" lon="4.81021">
        <ele>148.4</ele>
        <time>2024-03-12T12:00:49Z</time>
      </trkpt>
      <trkpt lat="44.24855" lon="4.8102">
        <ele>148.6</ele>
        <time>2024-03-12T12:00:50Z</time>
      </trkpt>
      <trkpt lat="44.24859" lon="4.81019">
        <ele>148.7</ele>
        <time>2024-03-12T12:00:51Z</time>
      </trkpt>
      <trkpt lat="44.24861" lon="4.81017">
        <ele>148.8</ele>
        <time>2024-03-12T12:00:52Z</time>
      </trkpt>
      <trkpt lat="44.24865" lon="4.81016">
        <ele>148.9</ele>
        <time>2024-03-12T12:00:53Z</time>
      </trkpt>
      <trkpt lat="44.24868" lon="4.81015">
        <ele>149.1</ele>
        <time>2024-03-12T12:00:54Z</time>
      </trkpt>
      <trkpt lat="44.24871" lon="4.81014">
        <ele>149.3</ele>
        <time>2024-03-12T12:00:55Z</time>
      </trkpt>
      <trkpt lat="44.24874" lon="4.81013">
        <ele>149.5</ele>
        <time>2024-03-12T12:00:56Z</time>
      </trkpt>
      <trkpt lat="44.24877" lon="4.81012">
        <ele>149.7</ele>
        <time>2024-03-12T12:00:57Z</time>
      </trkpt>
      <trkpt lat="44.2488" lon="4.81011">
        <ele>149.9</ele>
        <time>2024-03-12T12:00:58Z</time>
      </trkpt>
      <trkpt lat="44.24883" lon="4.8101">
        <ele>150.1</ele>
        <time>2024-03-12T12:00:59Z</time>
      </trkpt>
      <trkpt lat="44.24885" lon="4.81009">
        <ele>150.3</ele>
        <time>2024-03-12T12:01:00Z</time>
      </trkpt>
      <trkpt lat="44.24888" lon="4.81009">
        <ele>150.5</ele>
        <time>2024-03-12T12:01:01Z</time>
      </trkpt>
      <trkpt lat="44.24891" lon="4.81007">
        <ele>150.7</ele>
        <time>2024-03-12T12:01:02Z</time>
      </trkpt>
      <trkpt lat="44.24893" lon="4.81006">
        <ele>150.9</ele>
        <time>2024-03-12T12:01:03Z</time>
      </trkpt>
      <trkpt lat="44.24895" lon="4.81005">
        <ele>151.1</ele>
        <time>2024-03-12T12:01:04Z</time>
      </trkpt>
      <trkpt lat="44.24898" lon="4.81004">
        <ele>151.4</ele>
        <time>2024-03-12T12:01:05Z</time>
      </trkpt>
      <trkpt lat="44.24901" lon="4.81003">
        <ele>151.6</ele>
        <time>2024-03-12T12:01:06Z</time>
      </trkpt>
      <trkpt lat="44.24903" lon="4.81002">
        <ele>151.8</ele>
        <time>2024-03-12T12:01:07Z</time>
      </trkpt>
      <trkpt lat="44.24905" lon="4.81001">
        <ele>151.9</ele>
        <time>2024-03-12T12:01:08Z</time>
      </trkpt>
      <trkpt lat="44.24908" lon="4.80999">
        <ele>152.2</ele>
        <time>2024-03-12T12:01:09Z</time>
      </trkpt>
      <trkpt lat="44.2491" lon="4.80998">
        <ele>152.4</ele>
        <time>2024-03-12T12:01:10Z</time>
      </trkpt>
      <trkpt lat="44.24912" lon="4.80996">
        <ele>152.5</ele>
        <time>2024-03-12T12:01:11Z</time>
      </trkpt>
      <trkpt lat="44.24915" lon="4.80993">
        <ele>152.7</ele>
        <time>2024-03-12T12:01:12Z</time>
      </trkpt>
      <trkpt lat="44.24917" lon="4.80991">
        <ele>152.9</ele>
        <time>2024-03-12T12:01:13Z</time>
      </trkpt>
      <trkpt lat="44.24919" lon="4.80989">
        <ele>153.1</ele>
        <time>2024-03-12T12:01:14Z</time>
      </trkpt>
      <trkpt lat="44.24921" lon="4.80987">
        <ele>153.3</ele>
        <time>2024-03-12T12:01:15Z</time>
      </trkpt>
      <trkpt lat="44.24923" lon="4.80985">
        <ele>153.5</ele>
        <time>2024-03-12T12:01:16Z</time>
      </trkpt>
      <trkpt lat="44.24926" lon="4.80983">
        <ele>153.7</ele>
        <time>2024-03-12T12:01:17Z</time>
      </trkpt>
      <trkpt lat="44.24928" lon="4.80981">
        <ele>153.9</ele>
        <time>2024-03-12T12:01:18Z</time>
      </trkpt>
      <trkpt lat="44.2493" lon="4.80979">
        <ele>154.1</ele>
        <time>2024-03-12T12:01:19Z</time>
      </trkpt>
      <trkpt lat="44.24933" lon="4.80976">
        <ele>154.4</ele>
        <time>2024-03-12T12:01:20Z</time>
      </trkpt>
      <trkpt lat="44.24935" lon="4.80974">
        <ele>154.6</ele>
        <time>2024-03-12T12:01:21Z</time>
      </trkpt>
      <trkpt lat="44.24937" lon="4.80971">
        <ele>154.8</ele>
        <time>2024-03-12T12:01:22Z</time>
      </trkpt>
      <trkpt lat="44.24939" lon="4.80969">
        <ele>155.1</ele>
        <time>2024-03-12T12:01:23Z</time>
      </trkpt>
      <trkpt lat="44.24941" lon="4.80967">
        <ele>155.3</ele>
        <time>2024-03-12T12:01:24Z</time>
      </trkpt>
      <trkpt lat="44.24942" lon="4.80964">
        <ele>155.5</ele>
        <time>2024-03-12T12:01:25Z</time>
      </trkpt>
      <trkpt lat="44.24944" lon="4.80962">
        <ele>155.8</ele>
        <time>2024-03-12T12:01:26Z</time>
      </trkpt>
      <trkpt lat="44.24946" lon="4.8096">
        <ele>156</ele>
        <time>2024-03-12T12:01:27Z</time>
      </trkpt>
      <trkpt lat="44.24948" lon="4.80958">
        <ele>156.2</ele>
        <time>2024-03-12T12:01:28Z</time>
      </trkpt>
      <trkpt lat="44.2495" lon="4.80956">
        <ele>156.5</ele>
        <time>2024-03-12T12:01:29Z</time>
      </trkpt>
      <trkpt lat="44.24952" lon="4.80954">
        <ele>156.7</ele>
        <time>2024-03-12T12:01:30Z</time>
      </trkpt>
      <trkpt lat="44.24954" lon="4.80951">
        <ele>157</ele>
        <time>2024-03-12T12:01:31Z</time>
      </trkpt>
      <trkpt lat="44.24956" lon="4.80949">
        <ele>157.3</ele>
        <time>2024-03-12T12:01:32Z</time>
      </trkpt>
      <trkpt lat="44.24958" lon="4.80947">
        <ele>157.6</ele>
        <time>2024-03-12T12:01:33Z</time>
      </trkpt>
      <trkpt lat="44.2496" lon="4.80945">
        <ele>157.8</ele>
        <time>2024-03-12T12:01:34Z</time>
      </trkpt>
      <trkpt lat="44.24962" lon="4.80943">
        <ele>158</ele>
        <time>2024-03-12T12:01:35Z</time>
      </trkpt>
      <trkpt lat="44.24964" lon="4.80941">
        <ele>158.2</ele>
        <time>2024-03-12T12:01:36Z</time>
      </trkpt>
      <trkpt lat="44.24965" lon="4.80939">
        <ele>158.4</ele>
        <time>2024-03-12T12:01:37Z</time>
      </trkpt>
      <trkpt lat="44.24966" lon="4.80937">
        <ele>158.6</ele>
        <time>2024-03-12T12:01:38Z</time>
      </trkpt>
      <trkpt lat="44.24968" lon="4.80935">
        <ele>158.8</ele>
        <time>2024-03-12T12:01:39Z</time>
      </trkpt>
      <trkpt lat="44.24968" lon="4.80935">
        <ele>158.8</ele>
        <time>2024-03-12T12:01:40Z</time>
      </trkpt>
      <trkpt lat="44.2497" lon="4.80932">
        <ele>159</ele>
        <time>2024-03-12T12:01:41Z</time>
      </trkpt>
      <trkpt lat="44.2497" lon="4.80932">
        <ele>159</ele>
        <time>2024-03-12T12:01:42Z</time>
      </trkpt>
      <trkpt lat="44.24972" lon="4.80928">
        <ele>159.3</ele>
        <time>2024-03-12T12:01:43Z</time>
      </trkpt>
      <trkpt lat="44.24974" lon="4.80926">
        <ele>159.5</ele>
        <time>2024-03-12T12:01:44Z</time>
      </trkpt>
      <trkpt lat="44.24976" lon="4.80924">
        <ele>159.7</ele>
        <time>2024-03-12T12:01:45Z</time>
      </trkpt>
      <trkpt lat="44.24978" lon="4.80922">
        <ele>159.8</ele>
        <time>2024-03-12T12:01:46Z</time>
      </trkpt>
      <trkpt lat="44.2498" lon="4.8092">
        <ele>160</ele>
        <time>2024-03-12T12:01:47Z</time>
      </trkpt>
      <trkpt lat="44.24982" lon="4.80917">
        <ele>160.2</ele>
        <time>2024-03-12T12:01:48Z</time>
      </trkpt>
      <trkpt lat="44.24985" lon="4.80915">
        <ele>160.3</ele>
        <time>2024-03-12T12:01:49Z</time>
      </trkpt>
      <trkpt lat="44.24987" lon="4.80912">
        <ele>160.4</ele>
        <time>2024-03-12T12:01:50Z</time>
      </trkpt>
      <trkpt lat="44.24989" lon="4.80909">
        <ele>160.5</ele>
        <time>2024-03-12T12:01:51Z</time>
      </trkpt>
      <trkpt lat="44.24991" lon="4.80907">
        <ele>160.6</ele>
        <time>2024-03-12T12:01:52Z</time>
      </trkpt>
      <trkpt lat="44.24993" lon="4.80904">
        <ele>160.7</ele>
        <time>2024-03-12T12:01:53Z</time>
      </trkpt>
      <trkpt lat="44.24995" lon="4.80901">
        <ele>160.8</ele>
        <time>2024-03-12T12:01:54Z</time>
      </trkpt>
      <trkpt lat="44.24997" lon="4.80899">
        <ele>160.8</ele>
        <time>2024-03-12T12:01:55Z</time>
      </trkpt>
      <trkpt lat="44.24999" lon="4.80896">
        <ele>160.8</ele>
        <time>2024-03-12T12:01:56Z</time>
      </trkpt>
      <trkpt lat="44.25002" lon="4.80894">
        <ele>160.8</ele>
        <time>2024-03-12T12:01:57Z</time>
      </trkpt>
      <trkpt lat="44.25004" lon="4.80891">
        <ele>160.8</ele>
        <time>2024-03-12T12:01:58Z</time>
      </trkpt>
      <trkpt lat="44.25006" lon="4.80889">
        <ele>160.8</ele>
        <time>2024-03-12T12:01:59Z</time>
      </trkpt>
      <trkpt lat="44.25009" lon="4.80886">
        <ele>160.8</ele>
        <time>2024-03-12T12:02:00Z</time>
      </trkpt>
      <trkpt lat="44.25012" lon="4.80883">
        <ele>160.8</ele>
        <time>2024-03-12T12:02:01Z</time>
      </trkpt>
      <trkpt lat="44.25015" lon="4.8088">
        <ele>160.8</ele>
        <time>2024-03-12T12:02:02Z</time>
      </trkpt>
      <trkpt lat="44.25018" lon="4.80878">
        <ele>160.9</ele>
        <time>2024-03-12T12:02:03Z</time>
      </trkpt>
      <trkpt lat="44.25021" lon="4.80876">
        <ele>160.9</ele>
        <time>2024-03-12T12:02:04Z</time>
      </trkpt>
      <trkpt lat="44.25024" lon="4.80874">
        <ele>160.9</ele>
        <time>2024-03-12T12:02:05Z</time>
      </trkpt>
      <trkpt lat="44.25027" lon="4.80872">
        <ele>161</ele>
        <time>2024-03-12T12:02:06Z</time>
      </trkpt>
      <trkpt lat="44.25029" lon="4.80871">
        <ele>161</ele>
        <time>2024-03-12T12:02:07Z</time>
      </trkpt>
      <trkpt lat="44.25032" lon="4.80869">
        <ele>161.1</ele>
        <time>2024-03-12T12:02:08Z</time>
      </trkpt>
      <trkpt lat="44.25035" lon="4.80868">
        <ele>161.1</ele>
        <time>2024-03-12T12:02:09Z</time>
      </trkpt>
      <trkpt lat="44.25038" lon="4.80867">
        <ele>161.1</ele>
        <time>2024-03-12T12:02:10Z</time>
      </trkpt>
      <trkpt lat="44.2504" lon="4.80866">
        <ele>161.2</ele>
        <time>2024-03-12T12:02:11Z</time>
      </trkpt>
      <trkpt lat="44.25043" lon="4.80864">
        <ele>161.2</ele>
        <time>2024-03-12T12:02:12Z</time>
      </trkpt>
      <trkpt lat="44.25045" lon="4.80863">
        <ele>161.3</ele>
        <time>2024-03-12T12:02:13Z</time>
      </trkpt>
      <trkpt lat="44.25047" lon="4.80861">
        <ele>161.3</ele>
        <time>2024-03-12T12:02:14Z</time>
      </trkpt>
      <trkpt lat="44.25049" lon="4.80859">
        <ele>161.4</ele>
        <time>2024-03-12T12:02:15Z</time>
      </trkpt>
      <trkpt lat="44.25052" lon="4.80857">
        <ele>161.4</ele>
        <time>2024-03-12T12:02:16Z</time>
      </trkpt>
      <trkpt lat="44.25054" lon="4.80855">
        <ele>161.5</ele>
        <time>2024-03-12T12:02:17Z</time>
      </trkpt>
      <trkpt lat="44.25056" lon="4.80853">
        <ele>161.5</ele>
        <time>2024-03-12T12:02:18Z</time>
      </trkpt>
      <trkpt lat="44.25059" lon="4.8085">
        <ele>161.6</ele>
        <time>2024-03-12T12:02:19Z</time>
      </trkpt>
      <trkpt lat="44.25061" lon="4.80848">
        <ele>161.7</ele>
        <time>2024-03-12T12:02:20Z</time>
      </trkpt>
      <trkpt lat="44.25064" lon="4.80846">
        <ele>161.8</ele>
        <time>2024-03-12T12:02:21Z</time>
      </trkpt>
      <trkpt lat="44.25066" lon="4.80843">
        <ele>161.9</ele>
        <time>2024-03-12T12:02:22Z</time>
      </trkpt>
      <trkpt lat="44.25069" lon="4.80841">
        <ele>162</ele>
        <time>2024-03-12T12:02:23Z</time>
      </trkpt>
      <trkpt lat="44.25072" lon="4.80839">
        <ele>162.1</ele>
        <time>2024-03-12T12:02:24Z</time>
      </trkpt>
      <trkpt lat="44.25074" lon="4.80836">
        <ele>162.2</ele>
        <time>2024-03-12T12:02:25Z</time>
      </trkpt>
      <trkpt lat="44.25077" lon="4.80834">
        <ele>162.4</ele>
        <time>2024-03-12T12:02:26Z</time>
      </trkpt>
      <trkpt lat="44.25079" lon="4.80832">
        <ele>162.5</ele>
        <time>2024-03-12T12:02:27Z</time>
      </trkpt>
      <trkpt lat="44.25082" lon="4.8083">
        <ele>162.6</ele>
        <time>2024-03-12T12:02:28Z</time>
      </trkpt>
      <trkpt lat="44.25084" lon="4.80828">
        <ele>162.7</ele>
        <time>2024-03-12T12:02:29Z</time>
      </trkpt>
      <trkpt lat="44.25087" lon="4.80827">
        <ele>162.9</ele>
        <time>2024-03-12T12:02:30Z</time>
      </trkpt>
      <trkpt lat="44.25089" lon="4.80825">
        <ele>163</ele>
        <time>2024-03-12T12:02:31Z</time>
      </trkpt>
      <trkpt lat="44.25091" lon="4.80823">
        <ele>163.2</ele>
        <time>2024-03-12T12:02:32Z</time>
      </trkpt>
      <trkpt lat="44.25093" lon="4.8082">
        <ele>163.3</ele>
        <time>2024-03-12T12:02:33Z</time>
      </trkpt>
      <trkpt lat="44.25095" lon="4.80818">
        <ele>163.5</ele>
        <time>2024-03-12T12:02:34Z</time>
      </trkpt>
      <trkpt lat="44.25097" lon="4.80816">
        <ele>163.7</ele>
        <time>2024-03-12T12:02:35Z</time>
      </trkpt>
      <trkpt lat="44.25099" lon="4.80813">
        <ele>163.9</ele>
        <time>2024-03-12T12:02:36Z</time>
      </trkpt>
      <trkpt lat="44.25101" lon="4.80811">
        <ele>164.1</ele>
        <time>2024-03-12T12:02:37Z</time>
      </trkpt>
      <trkpt lat="44.25103" lon="4.80809">
        <ele>164.3</ele>
        <time>2024-03-12T12:02:38Z</time>
      </trkpt>
      <trkpt lat="44.25106" lon="4.80808">
        <ele>164.5</ele>
        <time>2024-03-12T12:02:39Z</time>
      </trkpt>
      <trkpt lat="44.25109" lon="4.80808">
        <ele>164.8</ele>
        <time>2024-03-12T12:02:40Z</time>
      </trkpt>
      <trkpt lat="44.25111" lon="4.80807">
        <ele>165</ele>
        <time>2024-03-12T12:02:41Z</time>
      </trkpt>
      <trkpt lat="44.25113" lon="4.80807">
        <ele>165.2</ele>
        <time>2024-03-12T12:02:42Z</time>
      </trkpt>
      <trkpt lat="44.25116" lon="4.80807">
        <ele>165.4</ele>
        <time>2024-03-12T12:02:43Z</time>
      </trkpt>
      <trkpt lat="44.25118" lon="4.80807">
        <ele>165.6</ele>
        <time>2024-03-12T12:02:44Z</time>
      </trkpt>
      <trkpt lat="44.2512" lon="4.80808">
        <ele>165.9</ele>
        <time>2024-03-12T12:02:45Z</time>
      </trkpt>
      <trkpt lat="44.2512" lon="4.80808">
        <ele>165.9</ele>
        <time>2024-03-12T12:02:46Z</time>
      </trkpt>
      <trkpt lat="44.25124" lon="4.80809">
        <ele>166.2</ele>
        <time>2024-03-12T12:02:47Z</time>
      </trkpt>
      <trkpt lat="44.25126" lon="4.80809">
        <ele>166.4</ele>
        <time>2024-03-12T12:02:48Z</time>
      </trkpt>
      <trkpt lat="44.25128" lon="4.8081">
        <ele>166.6</ele>
        <time>2024-03-12T12:02:49Z</time>
      </trkpt>
      <trkpt lat="44.2513" lon="4.8081">
        <ele>166.7</ele>
        <time>2024-03-12T12:02:50Z</time>
      </trkpt>
      <trkpt lat="44.25132" lon="4.80811">
        <ele>166.9</ele>
        <time>2024-03-12T12:02:51Z</time>
      </trkpt>
      <trkpt lat="44.25134" lon="4.80811">
        <ele>167.1</ele>
        <time>2024-03-12T12:02:52Z</time>
      </trkpt>
      <trkpt lat="44.25137" lon="4.80812">
        <ele>167.3</ele>
        <time>2024-03-12T12:02:53Z</time>
      </trkpt>
      <trkpt lat="44.2514" lon="4.80813">
        <ele>167.5</ele>
        <time>2024-03-12T12:02:54Z</time>
      </trkpt>
      <trkpt lat="44.25142" lon="4.80814">
        <ele>167.7</ele>
        <time>2024-03-12T12:02:55Z</time>
      </trkpt>
      <trkpt lat="44.25145" lon="4.80815">
        <ele>167.9</ele>
        <time>2024-03-12T12:02:56Z</time>
      </trkpt>
      <trkpt lat="44.25148" lon="4.80815">
        <ele>168.2</ele>
        <time>2024-03-12T12:02:57Z</time>
      </trkpt>
      <trkpt lat="44.25151" lon="4.80816">
        <ele>168.4</ele>
        <time>2024-03-12T12:02:58Z</time>
      </trkpt>
      <trkpt lat="44.25154" lon="4.80817">
        <ele>168.6</ele>
        <time>2024-03-12T12:02:59Z</time>
      </trkpt>
      <trkpt lat="44.25157" lon="4.80817">
        <ele>168.9</ele>
        <time>2024-03-12T12:03:00Z</time>
      </trkpt>
      <trkpt lat="44.25159" lon="4.80818">
        <ele>169.1</ele>
        <time>2024-03-12T12:03:01Z</time>
      </trkpt>
      <trkpt lat="44.25161" lon="4.80818">
        <ele>169.3</ele>
        <time>2024-03-12T12:03:02Z</time>
      </trkpt>
      <trkpt lat="44.25163" lon="4.80819">
        <ele>169.4</ele>
        <time>2024-03-12T12:03:03Z</time>
      </trkpt>
      <trkpt lat="44.25165" lon="4.80819">
        <ele>169.6</ele>
        <time>2024-03-12T12:03:04Z</time>
      </trkpt>
      <trkpt lat="44.25167" lon="4.8082">
        <ele>169.7</ele>
        <time>2024-03-12T12:03:05Z</time>
      </trkpt>
      <trkpt lat="44.25167" lon="4.8082">
        <ele>169.7</ele>
        <time>2024-03-12T12:03:06Z</time>
      </trkpt>
      <trkpt lat="44.2517" lon="4.80821">
        <ele>170</ele>
        <time>2024-03-12T12:03:07Z</time>
      </trkpt>
      <trkpt lat="44.25172" lon="4.80823">
        <ele>170.2</ele>
        <time>2024-03-12T12:03:08Z</time>
      </trkpt>
      <trkpt lat="44.25174" lon="4.80824">
        <ele>170.4</ele>
        <time>2024-03-12T12:03:09Z</time>
      </trkpt>
      <trkpt lat="44.25177" lon="4.80826">
        <ele>170.6</ele>
        <time>2024-03-12T12:03:10Z</time>
      </trkpt>
      <trkpt lat="44.25179" lon="4.80827">
        <ele>170.9</ele>
        <time>2024-03-12T12:03:11Z</time>
      </trkpt>
      <trkpt lat="44.25181" lon="4.80829">
        <ele>171.1</ele>
        <time>2024-03-12T12:03:12Z</time>
      </trkpt>
      <trkpt lat="44.25184" lon="4.8083">
        <ele>171.3</ele>
        <time>2024-03-12T12:03:13Z</time>
      </trkpt>
      <trkpt lat="44.25187" lon="4.80832">
        <ele>171.6</ele>
        <time>2024-03-12T12:03:14Z</time>
      </trkpt>
      <trkpt lat="44.25189" lon="4.80834">
        <ele>171.8</ele>
        <time>2024-03-12T12:03:15Z</time>
      </trkpt>
      <trkpt lat="44.25193" lon="4.80835">
        <ele>172.1</ele>
        <time>2024-03-12T12:03:16Z</time>
      </trkpt>
      <trkpt lat="44.25196" lon="4.80838">
        <ele>172.4</ele>
        <time>2024-03-12T12:03:17Z</time>
      </trkpt>
      <trkpt lat="44.25199" lon="4.8084">
        <ele>172.7</ele>
        <time>2024-03-12T12:03:18Z</time>
      </trkpt>
      <trkpt lat="44.25201" lon="4.80842">
        <ele>172.9</ele>
        <time>2024-03-12T12:03:19Z</time>
      </trkpt>
      <trkpt lat="44.25204" lon="4.80844">
        <ele>173.1</ele>
        <time>2024-03-12T12:03:20Z</time>
      </trkpt>
      <trkpt lat="44.25206" lon="4.80845">
        <ele>173.3</ele>
        <time>2024-03-12T12:03:21Z</time>
      </trkpt>
      <trkpt lat="44.25207" lon="4.80846">
        <ele>173.5</ele>
        <time>2024-03-12T12:03:22Z</time>
      </trkpt>
      <trkpt lat="44.25209" lon="4.80848">
        <ele>173.7</ele>
        <time>2024-03-12T12:03:23Z</time>
      </trkpt>
      <trkpt lat="44.25211" lon="4.8085">
        <ele>173.7</ele>
        <time>2024-03-12T12:03:24Z</time>
      </trkpt>
      <trkpt lat="44.25213" lon="4.80852">
        <ele>173.8</ele>
        <time>2024-03-12T12:03:25Z</time>
      </trkpt>
      <trkpt lat="44.25214" lon="4.80856">
        <ele>173.8</ele>
        <time>2024-03-12T12:03:26Z</time>
      </trkpt>
      <trkpt lat="44.25215" lon="4.80859">
        <ele>173.8</ele>
        <time>2024-03-12T12:03:27Z</time>
      </trkpt>
      <trkpt lat="44.25216" lon="4.80863">
        <ele>173.9</ele>
        <time>2024-03-12T12:03:28Z</time>
      </trkpt>
      <trkpt lat="44.25215" lon="4.80866">
        <ele>174</ele>
        <time>2024-03-12T12:03:29Z</time>
      </trkpt>
      <trkpt lat="44.25214" lon="4.80869">
        <ele>174.1</ele>
        <time>2024-03-12T12:03:30Z</time>
      </trkpt>
      <trkpt lat="44.25213" lon="4.80872">
        <ele>174.2</ele>
        <time>2024-03-12T12:03:31Z</time>
      </trkpt>
      <trkpt lat="44.25211" lon="4.80874">
        <ele>174.3</ele>
        <time>2024-03-12T12:03:32Z</time>
      </trkpt>
      <trkpt lat="44.25209" lon="4.80876">
        <ele>174.4</ele>
        <time>2024-03-12T12:03:33Z</time>
      </trkpt>
      <trkpt lat="44.25206" lon="4.80879">
        <ele>174.5</ele>
        <time>2024-03-12T12:03:34Z</time>
      </trkpt>
      <trkpt lat="44.25204" lon="4.80881">
        <ele>174.7</ele>
        <time>2024-03-12T12:03:35Z</time>
      </trkpt>
      <trkpt lat="44.25202" lon="4.80883">
        <ele>174.8</ele>
        <time>2024-03-12T12:03:36Z</time>
      </trkpt>
      <trkpt lat="44.25199" lon="4.80885">
        <ele>175.1</ele>
        <time>2024-03-12T12:03:37Z</time>
      </trkpt>
      <trkpt lat="44.25197" lon="4.80888">
        <ele>175.3</ele>
        <time>2024-03-12T12:03:38Z</time>
      </trkpt>
      <trkpt lat="44.25195" lon="4.8089">
        <ele>175.5</ele>
        <time>2024-03-12T12:03:39Z</time>
      </trkpt>
      <trkpt lat="44.25192" lon="4.80892">
        <ele>175.7</ele>
        <time>2024-03-12T12:03:40Z</time>
      </trkpt>
      <trkpt lat="44.2519" lon="4.80894">
        <ele>176</ele>
        <time>2024-03-12T12:03:41Z</time>
      </trkpt>
      <trkpt lat="44.25188" lon="4.80896">
        <ele>176.2</ele>
        <time>2024-03-12T12:03:42Z</time>
      </trkpt>
      <trkpt lat="44.25186" lon="4.80898">
        <ele>176.5</ele>
        <time>2024-03-12T12:03:43Z</time>
      </trkpt>
      <trkpt lat="44.25184" lon="4.809">
        <ele>176.8</ele>
        <time>2024-03-12T12:03:44Z</time>
      </trkpt>
      <trkpt lat="44.25182" lon="4.80902">
        <ele>177.1</ele>
        <time>2024-03-12T12:03:45Z</time>
      </trkpt>
      <trkpt lat="44.2518" lon="4.80904">
        <ele>177.5</ele>
        <time>2024-03-12T12:03:46Z</time>
      </trkpt>
      <trkpt lat="44.25178" lon="4.80906">
        <ele>177.8</ele>
        <time>2024-03-12T12:03:47Z</time>
      </trkpt>
      <trkpt lat="44.25175" lon="4.80907">
        <ele>178.2</ele>
        <time>2024-03-12T12:03:48Z</time>
      </trkpt>
      <trkpt lat="44.25175" lon="4.80907">
        <ele>178.2</ele>
        <time>2024-03-12T12:03:49Z</time>
      </trkpt>
      <trkpt lat="44.25172" lon="4.80911">
        <ele>178.9</ele>
        <time>2024-03-12T12:03:50Z</time>
      </trkpt>
      <trkpt lat="44.25171" lon="4.80913">
        <ele>179.3</ele>
        <time>2024-03-12T12:03:51Z</time>
      </trkpt>
      <trkpt lat="44.25169" lon="4.80914">
        <ele>179.6</ele>
        <time>2024-03-12T12:03:52Z</time>
      </trkpt>
      <trkpt lat="44.25169" lon="4.80914">
        <ele>179.6</ele>
        <time>2024-03-12T12:03:53Z</time>
      </trkpt>
      <trkpt lat="44.25167" lon="4.80918">
        <ele>180.3</ele>
        <time>2024-03-12T12:03:54Z</time>
      </trkpt>
      <trkpt lat="44.25167" lon="4.80918">
        <ele>180.3</ele>
        <time>2024-03-12T12:03:55Z</time>
      </trkpt>
      <trkpt lat="44.25164" lon="4.80921">
        <ele>181</ele>
        <time>2024-03-12T12:03:56Z</time>
      </trkpt>
      <trkpt lat="44.25164" lon="4.80921">
        <ele>181</ele>
        <time>2024-03-12T12:03:57Z</time>
      </trkpt>
      <trkpt lat="44.25161" lon="4.80924">
        <ele>181.8</ele>
        <time>2024-03-12T12:03:58Z</time>
      </trkpt>
      <trkpt lat="44.25161" lon="4.80924">
        <ele>181.8</ele>
        <time>2024-03-12T12:03:59Z</time>
      </trkpt>
      <trkpt lat="44.25159" lon="4.80926">
        <ele>182.5</ele>
        <time>2024-03-12T12:04:00Z</time>
      </trkpt>
      <trkpt lat="44.25159" lon="4.80926">
        <ele>182.5</ele>
        <time>2024-03-12T12:04:01Z</time>
      </trkpt>
      <trkpt lat="44.25157" lon="4.80929">
        <ele>183.2</ele>
        <time>2024-03-12T12:04:02Z</time>
      </trkpt>
      <trkpt lat="44.25157" lon="4.80929">
        <ele>183.2</ele>
        <time>2024-03-12T12:04:03Z</time>
      </trkpt>
      <trkpt lat="44.25154" lon="4.80931">
        <ele>184</ele>
        <time>2024-03-12T12:04:04Z</time>
      </trkpt>
      <trkpt lat="44.25154" lon="4.80931">
        <ele>184</ele>
        <time>2024-03-12T12:04:05Z</time>
      </trkpt>
      <trkpt lat="44.25151" lon="4.80934">
        <ele>184.6</ele>
        <time>2024-03-12T12:04:06Z</time>
      </trkpt>
      <trkpt lat="44.25151" lon="4.80934">
        <ele>184.6</ele>
        <time>2024-03-12T12:04:07Z</time>
      </trkpt>
      <trkpt lat="44.25149" lon="4.80936">
        <ele>185.2</ele>
        <time>2024-03-12T12:04:08Z</time>
      </trkpt>
      <trkpt lat="44.25149" lon="4.80936">
        <ele>185.2</ele>
        <time>2024-03-12T12:04:09Z</time>
      </trkpt>
      <trkpt lat="44.25147" lon="4.80938">
        <ele>185.8</ele>
        <time>2024-03-12T12:04:10Z</time>
      </trkpt>
      <trkpt lat="44.25147" lon="4.80938">
        <ele>185.8</ele>
        <time>2024-03-12T12:04:11Z</time>
      </trkpt>
      <trkpt lat="44.25145" lon="4.80941">
        <ele>186.3</ele>
        <time>2024-03-12T12:04:12Z</time>
      </trkpt>
      <trkpt lat="44.25145" lon="4.80941">
        <ele>186.3</ele>
        <time>2024-03-12T12:04:13Z</time>
      </trkpt>
      <trkpt lat="44.25142" lon="4.80943">
        <ele>186.9</ele>
        <time>2024-03-12T12:04:14Z</time>
      </trkpt>
      <trkpt lat="44.25142" lon="4.80943">
        <ele>186.9</ele>
        <time>2024-03-12T12:04:15Z</time>
      </trkpt>
      <trkpt lat="44.25139" lon="4.80946">
        <ele>187.4</ele>
        <time>2024-03-12T12:04:16Z</time>
      </trkpt>
      <trkpt lat="44.25139" lon="4.80946">
        <ele>187.4</ele>
        <time>2024-03-12T12:04:17Z</time>
      </trkpt>
      <trkpt lat="44.25137" lon="4.80949">
        <ele>187.8</ele>
        <time>2024-03-12T12:04:18Z</time>
      </trkpt>
      <trkpt lat="44.25137" lon="4.80949">
        <ele>187.8</ele>
        <time>2024-03-12T12:04:19Z</time>
      </trkpt>
      <trkpt lat="44.25134" lon="4.80951">
        <ele>188.2</ele>
        <time>2024-03-12T12:04:20Z</time>
      </trkpt>
      <trkpt lat="44.25134" lon="4.80951">
        <ele>188.2</ele>
        <time>2024-03-12T12:04:21Z</time>
      </trkpt>
      <trkpt lat="44.25131" lon="4.80954">
        <ele>188.5</ele>
        <time>2024-03-12T12:04:22Z</time>
      </trkpt>
      <trkpt lat="44.25131" lon="4.80954">
        <ele>188.5</ele>
        <time>2024-03-12T12:04:23Z</time>
      </trkpt>
      <trkpt lat="44.25129" lon="4.80959">
        <ele>188.8</ele>
        <time>2024-03-12T12:04:24Z</time>
      </trkpt>
      <trkpt lat="44.25128" lon="4.80961">
        <ele>189</ele>
        <time>2024-03-12T12:04:25Z</time>
      </trkpt>
      <trkpt lat="44.25126" lon="4.80963">
        <ele>189.1</ele>
        <time>2024-03-12T12:04:26Z</time>
      </trkpt>
      <trkpt lat="44.25125" lon="4.80965">
        <ele>189.2</ele>
        <time>2024-03-12T12:04:27Z</time>
      </trkpt>
      <trkpt lat="44.25123" lon="4.80967">
        <ele>189.2</ele>
        <time>2024-03-12T12:04:28Z</time>
      </trkpt>
      <trkpt lat="44.25121" lon="4.80969">
        <ele>189.3</ele>
        <time>2024-03-12T12:04:29Z</time>
      </trkpt>
      <trkpt lat="44.25119" lon="4.80971">
        <ele>189.3</ele>
        <time>2024-03-12T12:04:30Z</time>
      </trkpt>
      <trkpt lat="44.25117" lon="4.80972">
        <ele>189.2</ele>
        <time>2024-03-12T12:04:31Z</time>
      </trkpt>
      <trkpt lat="44.25115" lon="4.80974">
        <ele>189.1</ele>
        <time>2024-03-12T12:04:32Z</time>
      </trkpt>
      <trkpt lat="44.25112" lon="4.80975">
        <ele>189</ele>
        <time>2024-03-12T12:04:33Z</time>
      </trkpt>
      <trkpt lat="44.2511" lon="4.80977">
        <ele>188.8</ele>
        <time>2024-03-12T12:04:34Z</time>
      </trkpt>
      <trkpt lat="44.25109" lon="4.80978">
        <ele>188.7</ele>
        <time>2024-03-12T12:04:35Z</time>
      </trkpt>
      <trkpt lat="44.25107" lon="4.8098">
        <ele>188.5</ele>
        <time>2024-03-12T12:04:36Z</time>
      </trkpt>
      <trkpt lat="44.25105" lon="4.80983">
        <ele>188.3</ele>
        <time>2024-03-12T12:04:37Z</time>
      </trkpt>
      <trkpt lat="44.25104" lon="4.80985">
        <ele>188.1</ele>
        <time>2024-03-12T12:04:38Z</time>
      </trkpt>
      <trkpt lat="44.25102" lon="4.80989">
        <ele>187.9</ele>
        <time>2024-03-12T12:04:39Z</time>
      </trkpt>
      <trkpt lat="44.25101" lon="4.80992">
        <ele>187.7</ele>
        <time>2024-03-12T12:04:40Z</time>
      </trkpt>
      <trkpt lat="44.25099" lon="4.80995">
        <ele>187.4</ele>
        <time>2024-03-12T12:04:41Z</time>
      </trkpt>
      <trkpt lat="44.25096" lon="4.80998">
        <ele>187.2</ele>
        <time>2024-03-12T12:04:42Z</time>
      </trkpt>
      <trkpt lat="44.25093" lon="4.81001">
        <ele>187</ele>
        <time>2024-03-12T12:04:43Z</time>
      </trkpt>
      <trkpt lat="44.25091" lon="4.81003">
        <ele>186.8</ele>
        <time>2024-03-12T12:04:44Z</time>
      </trkpt>
      <trkpt lat="44.25089" lon="4.81006">
        <ele>186.6</ele>
        <time>2024-03-12T12:04:45Z</time>
      </trkpt>
      <trkpt lat="44.25087" lon="4.81009">
        <ele>186.4</ele>
        <time>2024-03-12T12:04:46Z</time>
      </trkpt>
      <trkpt lat="44.25084" lon="4.81012">
        <ele>186.3</ele>
        <time>2024-03-12T12:04:47Z</time>
      </trkpt>
      <trkpt lat="44.25082" lon="4.81014">
        <ele>186.1</ele>
        <time>2024-03-12T12:04:48Z</time>
      </trkpt>
      <trkpt lat="44.2508" lon="4.81017">
        <ele>185.9</ele>
        <time>2024-03-12T12:04:49Z</time>
      </trkpt>
      <trkpt lat="44.25077" lon="4.8102">
        <ele>185.8</ele>
        <time>2024-03-12T12:04:50Z</time>
      </trkpt>
      <trkpt lat="44.25075" lon="4.81022">
        <ele>185.6</ele>
        <time>2024-03-12T12:04:51Z</time>
      </trkpt>
      <trkpt lat="44.25072" lon="4.81025">
        <ele>185.4</ele>
        <time>2024-03-12T12:04:52Z</time>
      </trkpt>
      <trkpt lat="44.2507" lon="4.81028">
        <ele>185.1</ele>
        <time>2024-03-12T12:04:53Z</time>
      </trkpt>
      <trkpt lat="44.25068" lon="4.8103">
        <ele>184.9</ele>
        <time>2024-03-12T12:04:54Z</time>
      </trkpt>
      <trkpt lat="44.25065" lon="4.81032">
        <ele>184.6</ele>
        <time>2024-03-12T12:04:55Z</time>
      </trkpt>
      <trkpt lat="44.25062" lon="4.81034">
        <ele>184.3</ele>
        <time>2024-03-12T12:04:56Z</time>
      </trkpt>
      <trkpt lat="44.2506" lon="4.81037">
        <ele>184.1</ele>
        <time>2024-03-12T12:04:57Z</time>
      </trkpt>
      <trkpt lat="44.25057" lon="4.81039">
        <ele>183.8</ele>
        <time>2024-03-12T12:04:58Z</time>
      </trkpt>
      <trkpt lat="44.25055" lon="4.81042">
        <ele>183.5</ele>
        <time>2024-03-12T12:04:59Z</time>
      </trkpt>
      <trkpt lat="44.25053" lon="4.81045">
        <ele>183.2</ele>
        <time>2024-03-12T12:05:00Z</time>
      </trkpt>
      <trkpt lat="44.25051" lon="4.81048">
        <ele>183</ele>
        <time>2024-03-12T12:05:01Z</time>
      </trkpt>
      <trkpt lat="44.2505" lon="4.81052">
        <ele>182.7</ele>
        <time>2024-03-12T12:05:02Z</time>
      </trkpt>
      <trkpt lat="44.25048" lon="4.81056">
        <ele>182.4</ele>
        <time>2024-03-12T12:05:03Z</time>
      </trkpt>
      <trkpt lat="44.25048" lon="4.8106">
        <ele>182.2</ele>
        <time>2024-03-12T12:05:04Z</time>
      </trkpt>
      <trkpt lat="44.25048" lon="4.81063">
        <ele>182</ele>
        <time>2024-03-12T12:05:05Z</time>
      </trkpt>
      <trkpt lat="44.25048" lon="4.81066">
        <ele>181.8</ele>
        <time>2024-03-12T12:05:06Z</time>
      </trkpt>
      <trkpt lat="44.2505" lon="4.81069">
        <ele>181.6</ele>
        <time>2024-03-12T12:05:07Z</time>
      </trkpt>
      <trkpt lat="44.25052" lon="4.81072">
        <ele>181.4</ele>
        <time>2024-03-12T12:05:08Z</time>
      </trkpt>
      <trkpt lat="44.25053" lon="4.81075">
        <ele>181.2</ele>
        <time>2024-03-12T12:05:09Z</time>
      </trkpt>
      <trkpt lat="44.25054" lon="4.81077">
        <ele>180.9</ele>
        <time>2024-03-12T12:05:10Z</time>
      </trkpt>
      <trkpt lat="44.25055" lon="4.81081">
        <ele>180.7</ele>
        <time>2024-03-12T12:05:11Z</time>
      </trkpt>
      <trkpt lat="44.25055" lon="4.81084">
        <ele>180.5</ele>
        <time>2024-03-12T12:05:12Z</time>
      </trkpt>
      <trkpt lat="44.25055" lon="4.81087">
        <ele>180.3</ele>
        <time>2024-03-12T12:05:13Z</time>
      </trkpt>
      <trkpt lat="44.25055" lon="4.81091">
        <ele>180.1</ele>
        <time>2024-03-12T12:05:14Z</time>
      </trkpt>
      <trkpt lat="44.25054" lon="4.81094">
        <ele>179.8</ele>
        <time>2024-03-12T12:05:15Z</time>
      </trkpt>
      <trkpt lat="44.25054" lon="4.81098">
        <ele>179.6</ele>
        <time>2024-03-12T12:05:16Z</time>
      </trkpt>
      <trkpt lat="44.25053" lon="4.81101">
        <ele>179.4</ele>
        <time>2024-03-12T12:05:17Z</time>
      </trkpt>
      <trkpt lat="44.25053" lon="4.81104">
        <ele>179.2</ele>
        <time>2024-03-12T12:05:18Z</time>
      </trkpt>
      <trkpt lat="44.25053" lon="4.81104">
        <ele>179.2</ele>
        <time>2024-03-12T12:05:19Z</time>
      </trkpt>
      <trkpt lat="44.25056" lon="4.81106">
        <ele>179.2</ele>
        <time>2024-03-12T12:05:20Z</time>
      </trkpt>
      <trkpt lat="44.25056" lon="4.81106">
        <ele>179.2</ele>
        <time>2024-03-12T12:05:21Z</time>
      </trkpt>
      <trkpt lat="44.2506" lon="4.81106">
        <ele>179.2</ele>
        <time>2024-03-12T12:05:22Z</time>
      </trkpt>
      <trkpt lat="44.25062" lon="4.81106">
        <ele>179.2</ele>
        <time>2024-03-12T12:05:23Z</time>
      </trkpt>
      <trkpt lat="44.25064" lon="4.81105">
        <ele>179.3</ele>
        <time>2024-03-12T12:05:24Z</time>
      </trkpt>
      <trkpt lat="44.25067" lon="4.81104">
        <ele>179.3</ele>
        <time>2024-03-12T12:05:25Z</time>
      </trkpt>
      <trkpt lat="44.2507" lon="4.81103">
        <ele>179.3</ele>
        <time>2024-03-12T12:05:26Z</time>
      </trkpt>
      <trkpt lat="44.25072" lon="4.81102">
        <ele>179.2</ele>
        <time>2024-03-12T12:05:27Z</time>
      </trkpt>
      <trkpt lat="44.25074" lon="4.811">
        <ele>179.2</ele>
        <time>2024-03-12T12:05:28Z</time>
      </trkpt>
      <trkpt lat="44.25077" lon="4.81099">
        <ele>179.1</ele>
        <time>2024-03-12T12:05:29Z</time>
      </trkpt>
      <trkpt lat="44.25079" lon="4.81097">
        <ele>179.1</ele>
        <time>2024-03-12T12:05:30Z</time>
      </trkpt>
      <trkpt lat="44.25081" lon="4.81095">
        <ele>179</ele>
        <time>2024-03-12T12:05:31Z</time>
      </trkpt>
      <trkpt lat="44.25082" lon="4.81093">
        <ele>179</ele>
        <time>2024-03-12T12:05:32Z</time>
      </trkpt>
      <trkpt lat="44.25084" lon="4.8109">
        <ele>178.9</ele>
        <time>2024-03-12T12:05:33Z</time>
      </trkpt>
      <trkpt lat="44.25085" lon="4.81088">
        <ele>178.9</ele>
        <time>2024-03-12T12:05:34Z</time>
      </trkpt>
      <trkpt lat="44.25087" lon="4.81085">
        <ele>178.9</ele>
        <time>2024-03-12T12:05:35Z</time>
      </trkpt>
      <trkpt lat="44.25088" lon="4.81083">
        <ele>178.9</ele>
        <time>2024-03-12T12:05:36Z</time>
      </trkpt>
      <trkpt lat="44.2509" lon="4.8108">
        <ele>178.9</ele>
        <time>2024-03-12T12:05:37Z</time>
      </trkpt>
      <trkpt lat="44.25091" lon="4.81077">
        <ele>178.9</ele>
        <time>2024-03-12T12:05:38Z</time>
      </trkpt>
      <trkpt lat="44.25093" lon="4.81074">
        <ele>179</ele>
        <time>2024-03-12T12:05:39Z</time>
      </trkpt>
      <trkpt lat="44.25094" lon="4.81072">
        <ele>179</ele>
        <time>2024-03-12T12:05:40Z</time>
      </trkpt>
      <trkpt lat="44.25096" lon="4.8107">
        <ele>179</ele>
        <time>2024-03-12T12:05:41Z</time>
      </trkpt>
      <trkpt lat="44.25097" lon="4.81068">
        <ele>179</ele>
        <time>2024-03-12T12:05:42Z</time>
      </trkpt>
      <trkpt lat="44.25099" lon="4.81066">
        <ele>179</ele>
        <time>2024-03-12T12:05:43Z</time>
      </trkpt>
      <trkpt lat="44.25099" lon="4.81066">
        <ele>179</ele>
        <time>2024-03-12T12:05:44Z</time>
      </trkpt>
      <trkpt lat="44.25101" lon="4.81063">
        <ele>179</ele>
        <time>2024-03-12T12:05:45Z</time>
      </trkpt>
      <trkpt lat="44.25103" lon="4.81061">
        <ele>179</ele>
        <time>2024-03-12T12:05:46Z</time>
      </trkpt>
      <trkpt lat="44.25106" lon="4.81059">
        <ele>179</ele>
        <time>2024-03-12T12:05:47Z</time>
      </trkpt>
      <trkpt lat="44.25109" lon="4.81057">
        <ele>178.9</ele>
        <time>2024-03-12T12:05:48Z</time>
      </trkpt>
      <trkpt lat="44.25111" lon="4.81055">
        <ele>178.9</ele>
        <time>2024-03-12T12:05:49Z</time>
      </trkpt>
      <trkpt lat="44.25114" lon="4.81053">
        <ele>178.8</ele>
        <time>2024-03-12T12:05:50Z</time>
      </trkpt>
      <trkpt lat="44.25117" lon="4.8105">
        <ele>178.7</ele>
        <time>2024-03-12T12:05:51Z</time>
      </trkpt>
      <trkpt lat="44.25119" lon="4.81048">
        <ele>178.6</ele>
        <time>2024-03-12T12:05:52Z</time>
      </trkpt>
      <trkpt lat="44.25122" lon="4.81045">
        <ele>178.4</ele>
        <time>2024-03-12T12:05:53Z</time>
      </trkpt>
      <trkpt lat="44.25125" lon="4.81043">
        <ele>178.3</ele>
        <time>2024-03-12T12:05:54Z</time>
      </trkpt>
      <trkpt lat="44.25128" lon="4.81042">
        <ele>178.1</ele>
        <time>2024-03-12T12:05:55Z</time>
      </trkpt>
      <trkpt lat="44.25131" lon="4.81041">
        <ele>177.9</ele>
        <time>2024-03-12T12:05:56Z</time>
      </trkpt>
      <trkpt lat="44.25135" lon="4.8104">
        <ele>177.7</ele>
        <time>2024-03-12T12:05:57Z</time>
      </trkpt>
      <trkpt lat="44.25138" lon="4.8104">
        <ele>177.4</ele>
        <time>2024-03-12T12:05:58Z</time>
      </trkpt>
      <trkpt lat="44.25141" lon="4.8104">
        <ele>177.1</ele>
        <time>2024-03-12T12:05:59Z</time>
      </trkpt>
      <trkpt lat="44.25145" lon="4.8104">
        <ele>176.8</ele>
        <time>2024-03-12T12:06:00Z</time>
      </trkpt>
      <trkpt lat="44.25147" lon="4.8104">
        <ele>176.6</ele>
        <time>2024-03-12T12:06:01Z</time>
      </trkpt>
      <trkpt lat="44.2515" lon="4.8104">
        <ele>176.3</ele>
        <time>2024-03-12T12:06:02Z</time>
      </trkpt>
      <trkpt lat="44.25153" lon="4.81041">
        <ele>176.1</ele>
        <time>2024-03-12T12:06:03Z</time>
      </trkpt>
      <trkpt lat="44.25155" lon="4.81043">
        <ele>175.8</ele>
        <time>2024-03-12T12:06:04Z</time>
      </trkpt>
      <trkpt lat="44.25157" lon="4.81044">
        <ele>175.6</ele>
        <time>2024-03-12T12:06:05Z</time>
      </trkpt>
      <trkpt lat="44.2516" lon="4.81046">
        <ele>175.3</ele>
        <time>2024-03-12T12:06:06Z</time>
      </trkpt>
      <trkpt lat="44.25163" lon="4.81048">
        <ele>175</ele>
        <time>2024-03-12T12:06:07Z</time>
      </trkpt>
      <trkpt lat="44.25165" lon="4.81049">
        <ele>174.7</ele>
        <time>2024-03-12T12:06:08Z</time>
      </trkpt>
      <trkpt lat="44.25169" lon="4.8105">
        <ele>174.4</ele>
        <time>2024-03-12T12:06:09Z</time>
      </trkpt>
      <trkpt lat="44.25171" lon="4.81051">
        <ele>174.1</ele>
        <time>2024-03-12T12:06:10Z</time>
      </trkpt>
      <trkpt lat="44.25174" lon="4.81052">
        <ele>173.9</ele>
        <time>2024-03-12T12:06:11Z</time>
      </trkpt>
      <trkpt lat="44.25177" lon="4.81053">
        <ele>173.6</ele>
        <time>2024-03-12T12:06:12Z</time>
      </trkpt>
      <trkpt lat="44.25179" lon="4.81056">
        <ele>173.4</ele>
        <time>2024-03-12T12:06:13Z</time>
      </trkpt>
      <trkpt lat="44.25181" lon="4.81058">
        <ele>173.2</ele>
        <time>2024-03-12T12:06:14Z</time>
      </trkpt>
      <trkpt lat="44.25181" lon="4.81062">
        <ele>173</ele>
        <time>2024-03-12T12:06:15Z</time>
      </trkpt>
      <trkpt lat="44.25181" lon="4.81066">
        <ele>172.7</ele>
        <time>2024-03-12T12:06:16Z</time>
      </trkpt>
      <trkpt lat="44.25181" lon="4.8107">
        <ele>172.4</ele>
        <time>2024-03-12T12:06:17Z</time>
      </trkpt>
      <trkpt lat="44.2518" lon="4.81074">
        <ele>172.1</ele>
        <time>2024-03-12T12:06:18Z</time>
      </trkpt>
      <trkpt lat="44.25178" lon="4.81077">
        <ele>171.8</ele>
        <time>2024-03-12T12:06:19Z</time>
      </trkpt>
      <trkpt lat="44.25175" lon="4.8108">
        <ele>171.5</ele>
        <time>2024-03-12T12:06:20Z</time>
      </trkpt>
      <trkpt lat="44.25173" lon="4.81082">
        <ele>171.2</ele>
        <time>2024-03-12T12:06:21Z</time>
      </trkpt>
      <trkpt lat="44.2517" lon="4.81082">
        <ele>171</ele>
        <time>2024-03-12T12:06:22Z</time>
      </trkpt>
      <trkpt lat="44.25167" lon="4.81082">
        <ele>170.7</ele>
        <time>2024-03-12T12:06:23Z</time>
      </trkpt>
      <trkpt lat="44.25165" lon="4.81081">
        <ele>170.5</ele>
        <time>2024-03-12T12:06:24Z</time>
      </trkpt>
      <trkpt lat="44.25162" lon="4.81079">
        <ele>170.2</ele>
        <time>2024-03-12T12:06:25Z</time>
      </trkpt>
      <trkpt lat="44.25159" lon="4.81078">
        <ele>169.9</ele>
        <time>2024-03-12T12:06:26Z</time>
      </trkpt>
      <trkpt lat="44.25157" lon="4.81077">
        <ele>169.6</ele>
        <time>2024-03-12T12:06:27Z</time>
      </trkpt>
      <trkpt lat="44.25155" lon="4.81077">
        <ele>169.4</ele>
        <time>2024-03-12T12:06:28Z</time>
      </trkpt>
      <trkpt lat="44.25155" lon="4.81077">
        <ele>169.4</ele>
        <time>2024-03-12T12:06:29Z</time>
      </trkpt>
      <trkpt lat="44.25153" lon="4.81079">
        <ele>169</ele>
        <time>2024-03-12T12:06:30Z</time>
      </trkpt>
      <trkpt lat="44.25153" lon="4.81079">
        <ele>169</ele>
        <time>2024-03-12T12:06:31Z</time>
      </trkpt>
      <trkpt lat="44.25153" lon="4.81085">
        <ele>168.5</ele>
        <time>2024-03-12T12:06:32Z</time>
      </trkpt>
      <trkpt lat="44.25153" lon="4.81088">
        <ele>168.2</ele>
        <time>2024-03-12T12:06:33Z</time>
      </trkpt>
      <trkpt lat="44.25155" lon="4.81092">
        <ele>167.9</ele>
        <time>2024-03-12T12:06:34Z</time>
      </trkpt>
      <trkpt lat="44.25156" lon="4.81096">
        <ele>167.6</ele>
        <time>2024-03-12T12:06:35Z</time>
      </trkpt>
      <trkpt lat="44.25157" lon="4.81099">
        <ele>167.3</ele>
        <time>2024-03-12T12:06:36Z</time>
      </trkpt>
      <trkpt lat="44.25157" lon="4.81102">
        <ele>167</ele>
        <time>2024-03-12T12:06:37Z</time>
      </trkpt>
      <trkpt lat="44.25157" lon="4.81105">
        <ele>166.8</ele>
        <time>2024-03-12T12:06:38Z</time>
      </trkpt>
      <trkpt lat="44.25157" lon="4.81108">
        <ele>166.7</ele>
        <time>2024-03-12T12:06:39Z</time>
      </trkpt>
      <trkpt lat="44.25157" lon="4.81108">
        <ele>166.7</ele>
        <time>2024-03-12T12:06:40Z</time>
      </trkpt>
      <trkpt lat="44.25155" lon="4.81111">
        <ele>166.4</ele>
        <time>2024-03-12T12:06:41Z</time>
      </trkpt>
      <trkpt lat="44.25155" lon="4.81111">
        <ele>166.4</ele>
        <time>2024-03-12T12:06:42Z</time>
      </trkpt>
      <trkpt lat="44.25152" lon="4.81113">
        <ele>166.2</ele>
        <time>2024-03-12T12:06:43Z</time>
      </trkpt>
      <trkpt lat="44.2515" lon="4.81113">
        <ele>166</ele>
        <time>2024-03-12T12:06:44Z</time>
      </trkpt>
      <trkpt lat="44.25149" lon="4.81113">
        <ele>165.9</ele>
        <time>2024-03-12T12:06:45Z</time>
      </trkpt>
      <trkpt lat="44.25147" lon="4.81113">
        <ele>165.7</ele>
        <time>2024-03-12T12:06:46Z</time>
      </trkpt>
      <trkpt lat="44.25145" lon="4.81114">
        <ele>165.6</ele>
        <time>2024-03-12T12:06:47Z</time>
      </trkpt>
      <trkpt lat="44.25143" lon="4.81115">
        <ele>165.4</ele>
        <time>2024-03-12T12:06:48Z</time>
      </trkpt>
      <trkpt lat="44.25141" lon="4.81117">
        <ele>165.3</ele>
        <time>2024-03-12T12:06:49Z</time>
      </trkpt>
      <trkpt lat="44.25139" lon="4.81119">
        <ele>165.1</ele>
        <time>2024-03-12T12:06:50Z</time>
      </trkpt>
      <trkpt lat="44.25138" lon="4.81122">
        <ele>164.9</ele>
        <time>2024-03-12T12:06:51Z</time>
      </trkpt>
      <trkpt lat="44.25137" lon="4.81125">
        <ele>164.8</ele>
        <time>2024-03-12T12:06:52Z</time>
      </trkpt>
      <trkpt lat="44.25137" lon="4.81128">
        <ele>164.6</ele>
        <time>2024-03-12T12:06:53Z</time>
      </trkpt>
      <trkpt lat="44.25137" lon="4.81128">
        <ele>164.6</ele>
        <time>2024-03-12T12:06:54Z</time>
      </trkpt>
      <trkpt lat="44.25137" lon="4.81132">
        <ele>164.4</ele>
        <time>2024-03-12T12:06:55Z</time>
      </trkpt>
      <trkpt lat="44.25137" lon="4.81132">
        <ele>164.4</ele>
        <time>2024-03-12T12:06:56Z</time>
      </trkpt>
      <trkpt lat="44.25137" lon="4.81132">
        <ele>164.4</ele>
        <time>2024-03-12T12:06:57Z</time>
      </trkpt>
      <trkpt lat="44.25139" lon="4.81132">
        <ele>164.3</ele>
        <time>2024-03-12T12:06:58Z</time>
      </trkpt>
      <trkpt lat="44.25139" lon="4.81132">
        <ele>164.3</ele>
        <time>2024-03-12T12:06:59Z</time>
      </trkpt>
      <trkpt lat="44.25143" lon="4.8113">
        <ele>164</ele>
        <time>2024-03-12T12:07:00Z</time>
      </trkpt>
      <trkpt lat="44.25145" lon="4.8113">
        <ele>163.9</ele>
        <time>2024-03-12T12:07:01Z</time>
      </trkpt>
      <trkpt lat="44.25147" lon="4.8113">
        <ele>163.7</ele>
        <time>2024-03-12T12:07:02Z</time>
      </trkpt>
      <trkpt lat="44.2515" lon="4.81131">
        <ele>163.5</ele>
        <time>2024-03-12T12:07:03Z</time>
      </trkpt>
      <trkpt lat="44.25152" lon="4.81133">
        <ele>163.4</ele>
        <time>2024-03-12T12:07:04Z</time>
      </trkpt>
      <trkpt lat="44.25153" lon="4.81137">
        <ele>163.2</ele>
        <time>2024-03-12T12:07:05Z</time>
      </trkpt>
      <trkpt lat="44.25154" lon="4.8114">
        <ele>163</ele>
        <time>2024-03-12T12:07:06Z</time>
      </trkpt>
      <trkpt lat="44.25155" lon="4.81144">
        <ele>162.8</ele>
        <time>2024-03-12T12:07:07Z</time>
      </trkpt>
      <trkpt lat="44.25155" lon="4.81147">
        <ele>162.6</ele>
        <time>2024-03-12T12:07:08Z</time>
      </trkpt>
      <trkpt lat="44.25156" lon="4.81151">
        <ele>162.3</ele>
        <time>2024-03-12T12:07:09Z</time>
      </trkpt>
      <trkpt lat="44.25157" lon="4.81154">
        <ele>162.1</ele>
        <time>2024-03-12T12:07:10Z</time>
      </trkpt>
      <trkpt lat="44.25158" lon="4.81156">
        <ele>161.9</ele>
        <time>2024-03-12T12:07:11Z</time>
      </trkpt>
      <trkpt lat="44.25159" lon="4.81159">
        <ele>161.6</ele>
        <time>2024-03-12T12:07:12Z</time>
      </trkpt>
      <trkpt lat="44.2516" lon="4.81162">
        <ele>161.4</ele>
        <time>2024-03-12T12:07:13Z</time>
      </trkpt>
      <trkpt lat="44.2516" lon="4.81165">
        <ele>161.1</ele>
        <time>2024-03-12T12:07:14Z</time>
      </trkpt>
      <trkpt lat="44.2516" lon="4.81169">
        <ele>160.8</ele>
        <time>2024-03-12T12:07:15Z</time>
      </trkpt>
      <trkpt lat="44.25159" lon="4.81173">
        <ele>160.5</ele>
        <time>2024-03-12T12:07:16Z</time>
      </trkpt>
      <trkpt lat="44.25159" lon="4.81178">
        <ele>160.2</ele>
        <time>2024-03-12T12:07:17Z</time>
      </trkpt>
      <trkpt lat="44.25159" lon="4.81182">
        <ele>159.8</ele>
        <time>2024-03-12T12:07:18Z</time>
      </trkpt>
      <trkpt lat="44.25159" lon="4.81187">
        <ele>159.6</ele>
        <time>2024-03-12T12:07:19Z</time>
      </trkpt>
      <trkpt lat="44.25159" lon="4.81191">
        <ele>159.3</ele>
        <time>2024-03-12T12:07:20Z</time>
      </trkpt>
      <trkpt lat="44.25159" lon="4.81195">
        <ele>159.1</ele>
        <time>2024-03-12T12:07:21Z</time>
      </trkpt>
      <trkpt lat="44.2516" lon="4.81198">
        <ele>159</ele>
        <time>2024-03-12T12:07:22Z</time>
      </trkpt>
      <trkpt lat="44.25162" lon="4.812">
        <ele>158.9</ele>
        <time>2024-03-12T12:07:23Z</time>
      </trkpt>
      <trkpt lat="44.25164" lon="4.81202">
        <ele>158.9</ele>
        <time>2024-03-12T12:07:24Z</time>
      </trkpt>
      <trkpt lat="44.25166" lon="4.81204">
        <ele>158.8</ele>
        <time>2024-03-12T12:07:25Z</time>
      </trkpt>
      <trkpt lat="44.25169" lon="4.81205">
        <ele>158.7</ele>
        <time>2024-03-12T12:07:26Z</time>
      </trkpt>
      <trkpt lat="44.25172" lon="4.81205">
        <ele>158.7</ele>
        <time>2024-03-12T12:07:27Z</time>
      </trkpt>
      <trkpt lat="44.25174" lon="4.81204">
        <ele>158.7</ele>
        <time>2024-03-12T12:07:28Z</time>
      </trkpt>
      <trkpt lat="44.25176" lon="4.81203">
        <ele>158.8</ele>
        <time>2024-03-12T12:07:29Z</time>
      </trkpt>
      <trkpt lat="44.25178" lon="4.812">
        <ele>158.9</ele>
        <time>2024-03-12T12:07:30Z</time>
      </trkpt>
      <trkpt lat="44.2518" lon="4.81198">
        <ele>159.1</ele>
        <time>2024-03-12T12:07:31Z</time>
      </trkpt>
      <trkpt lat="44.25181" lon="4.81195">
        <ele>159.3</ele>
        <time>2024-03-12T12:07:32Z</time>
      </trkpt>
      <trkpt lat="44.25182" lon="4.81191">
        <ele>159.5</ele>
        <time>2024-03-12T12:07:33Z</time>
      </trkpt>
      <trkpt lat="44.25183" lon="4.81188">
        <ele>159.8</ele>
        <time>2024-03-12T12:07:34Z</time>
      </trkpt>
      <trkpt lat="44.25183" lon="4.81184">
        <ele>160.2</ele>
        <time>2024-03-12T12:07:35Z</time>
      </trkpt>
      <trkpt lat="44.25185" lon="4.81181">
        <ele>160.5</ele>
        <time>2024-03-12T12:07:36Z</time>
      </trkpt>
      <trkpt lat="44.25185" lon="4.81178">
        <ele>160.9</ele>
        <time>2024-03-12T12:07:37Z</time>
      </trkpt>
      <trkpt lat="44.25187" lon="4.81176">
        <ele>161.2</ele>
        <time>2024-03-12T12:07:38Z</time>
      </trkpt>
      <trkpt lat="44.25188" lon="4.81174">
        <ele>161.6</ele>
        <time>2024-03-12T12:07:39Z</time>
      </trkpt>
      <trkpt lat="44.2519" lon="4.81173">
        <ele>161.9</ele>
        <time>2024-03-12T12:07:40Z</time>
      </trkpt>
      <trkpt lat="44.25192" lon="4.81172">
        <ele>161.8</ele>
        <time>2024-03-12T12:07:41Z</time>
      </trkpt>
      <trkpt lat="44.25194" lon="4.81171">
        <ele>161.6</ele>
        <time>2024-03-12T12:07:42Z</time>
      </trkpt>
      <trkpt lat="44.25196" lon="4.81172">
        <ele>161.3</ele>
        <time>2024-03-12T12:07:43Z</time>
      </trkpt>
      <trkpt lat="44.25198" lon="4.81173">
        <ele>161</ele>
        <time>2024-03-12T12:07:44Z</time>
      </trkpt>
      <trkpt lat="44.25198" lon="4.81173">
        <ele>161</ele>
        <time>2024-03-12T12:07:45Z</time>
      </trkpt>
      <trkpt lat="44.25201" lon="4.81177">
        <ele>160.5</ele>
        <time>2024-03-12T12:07:46Z</time>
      </trkpt>
      <trkpt lat="44.25203" lon="4.81181">
        <ele>159.9</ele>
        <time>2024-03-12T12:07:47Z</time>
      </trkpt>
      <trkpt lat="44.25203" lon="4.81182">
        <ele>159.8</ele>
        <time>2024-03-12T12:07:48Z</time>
      </trkpt>
      <trkpt lat="44.25204" lon="4.81186">
        <ele>159.3</ele>
        <time>2024-03-12T12:07:49Z</time>
      </trkpt>
      <trkpt lat="44.25204" lon="4.8119">
        <ele>158.9</ele>
        <time>2024-03-12T12:07:50Z</time>
      </trkpt>
      <trkpt lat="44.25204" lon="4.81194">
        <ele>158.4</ele>
        <time>2024-03-12T12:07:51Z</time>
      </trkpt>
      <trkpt lat="44.25204" lon="4.81199">
        <ele>158</ele>
        <time>2024-03-12T12:07:52Z</time>
      </trkpt>
      <trkpt lat="44.25204" lon="4.81203">
        <ele>157.5</ele>
        <time>2024-03-12T12:07:53Z</time>
      </trkpt>
      <trkpt lat="44.25204" lon="4.81208">
        <ele>157.1</ele>
        <time>2024-03-12T12:07:54Z</time>
      </trkpt>
      <trkpt lat="44.25205" lon="4.81212">
        <ele>156.8</ele>
        <time>2024-03-12T12:07:55Z</time>
      </trkpt>
      <trkpt lat="44.25206" lon="4.81215">
        <ele>156.5</ele>
        <time>2024-03-12T12:07:56Z</time>
      </trkpt>
      <trkpt lat="44.25208" lon="4.81218">
        <ele>156.2</ele>
        <time>2024-03-12T12:07:57Z</time>
      </trkpt>
      <trkpt lat="44.2521" lon="4.81221">
        <ele>156</ele>
        <time>2024-03-12T12:07:58Z</time>
      </trkpt>
      <trkpt lat="44.25213" lon="4.81223">
        <ele>155.7</ele>
        <time>2024-03-12T12:07:59Z</time>
      </trkpt>
      <trkpt lat="44.25215" lon="4.81226">
        <ele>155.4</ele>
        <time>2024-03-12T12:08:00Z</time>
      </trkpt>
      <trkpt lat="44.25217" lon="4.81229">
        <ele>155.2</ele>
        <time>2024-03-12T12:08:01Z</time>
      </trkpt>
      <trkpt lat="44.2522" lon="4.81233">
        <ele>154.9</ele>
        <time>2024-03-12T12:08:02Z</time>
      </trkpt>
      <trkpt lat="44.25222" lon="4.81236">
        <ele>154.7</ele>
        <time>2024-03-12T12:08:03Z</time>
      </trkpt>
      <trkpt lat="44.25223" lon="4.8124">
        <ele>154.5</ele>
        <time>2024-03-12T12:08:04Z</time>
      </trkpt>
      <trkpt lat="44.25224" lon="4.81244">
        <ele>154.9</ele>
        <time>2024-03-12T12:08:05Z</time>
      </trkpt>
      <trkpt lat="44.25225" lon="4.81248">
        <ele>154.5</ele>
        <time>2024-03-12T12:08:06Z</time>
      </trkpt>
      <trkpt lat="44.25226" lon="4.81252">
        <ele>154.2</ele>
        <time>2024-03-12T12:08:07Z</time>
      </trkpt>
      <trkpt lat="44.25227" lon="4.81257">
        <ele>153.1</ele>
        <time>2024-03-12T12:08:08Z</time>
      </trkpt>
      <trkpt lat="44.25227" lon="4.81262">
        <ele>152.9</ele>
        <time>2024-03-12T12:08:09Z</time>
      </trkpt>
      <trkpt lat="44.25228" lon="4.81267">
        <ele>152.6</ele>
        <time>2024-03-12T12:08:10Z</time>
      </trkpt>
      <trkpt lat="44.25229" lon="4.81271">
        <ele>152.4</ele>
        <time>2024-03-12T12:08:11Z</time>
      </trkpt>
      <trkpt lat="44.25229" lon="4.81276">
        <ele>152.2</ele>
        <time>2024-03-12T12:08:12Z</time>
      </trkpt>
      <trkpt lat="44.2523" lon="4.81281">
        <ele>152.1</ele>
        <time>2024-03-12T12:08:13Z</time>
      </trkpt>
      <trkpt lat="44.2523" lon="4.81286">
        <ele>152.1</ele>
        <time>2024-03-12T12:08:14Z</time>
      </trkpt>
      <trkpt lat="44.25229" lon="4.81291">
        <ele>152.2</ele>
        <time>2024-03-12T12:08:15Z</time>
      </trkpt>
      <trkpt lat="44.25228" lon="4.81295">
        <ele>152.3</ele>
        <time>2024-03-12T12:08:16Z</time>
      </trkpt>
      <trkpt lat="44.25227" lon="4.81299">
        <ele>152.5</ele>
        <time>2024-03-12T12:08:17Z</time>
      </trkpt>
      <trkpt lat="44.25225" lon="4.81303">
        <ele>152.8</ele>
        <time>2024-03-12T12:08:18Z</time>
      </trkpt>
      <trkpt lat="44.25223" lon="4.81306">
        <ele>153.2</ele>
        <time>2024-03-12T12:08:19Z</time>
      </trkpt>
      <trkpt lat="44.25221" lon="4.81309">
        <ele>153.6</ele>
        <time>2024-03-12T12:08:20Z</time>
      </trkpt>
      <trkpt lat="44.25218" lon="4.8131">
        <ele>153.7</ele>
        <time>2024-03-12T12:08:21Z</time>
      </trkpt>
      <trkpt lat="44.25216" lon="4.81311">
        <ele>153.9</ele>
        <time>2024-03-12T12:08:22Z</time>
      </trkpt>
      <trkpt lat="44.25213" lon="4.81312">
        <ele>154</ele>
        <time>2024-03-12T12:08:23Z</time>
      </trkpt>
      <trkpt lat="44.2521" lon="4.81311">
        <ele>154.1</ele>
        <time>2024-03-12T12:08:24Z</time>
      </trkpt>
      <trkpt lat="44.25207" lon="4.8131">
        <ele>154.3</ele>
        <time>2024-03-12T12:08:25Z</time>
      </trkpt>
      <trkpt lat="44.25205" lon="4.81309">
        <ele>154.4</ele>
        <time>2024-03-12T12:08:26Z</time>
      </trkpt>
      <trkpt lat="44.25202" lon="4.81306">
        <ele>154.5</ele>
        <time>2024-03-12T12:08:27Z</time>
      </trkpt>
      <trkpt lat="44.25199" lon="4.81304">
        <ele>154.6</ele>
        <time>2024-03-12T12:08:28Z</time>
      </trkpt>
      <trkpt lat="44.25197" lon="4.81302">
        <ele>154.8</ele>
        <time>2024-03-12T12:08:29Z</time>
      </trkpt>
      <trkpt lat="44.25194" lon="4.81299">
        <ele>154.9</ele>
        <time>2024-03-12T12:08:30Z</time>
      </trkpt>
      <trkpt lat="44.25192" lon="4.81296">
        <ele>155.1</ele>
        <time>2024-03-12T12:08:31Z</time>
      </trkpt>
      <trkpt lat="44.25189" lon="4.81294">
        <ele>155.3</ele>
        <time>2024-03-12T12:08:32Z</time>
      </trkpt>
      <trkpt lat="44.25187" lon="4.81291">
        <ele>155.4</ele>
        <time>2024-03-12T12:08:33Z</time>
      </trkpt>
      <trkpt lat="44.25185" lon="4.81289">
        <ele>155.6</ele>
        <time>2024-03-12T12:08:34Z</time>
      </trkpt>
      <trkpt lat="44.25182" lon="4.81287">
        <ele>155.8</ele>
        <time>2024-03-12T12:08:35Z</time>
      </trkpt>
      <trkpt lat="44.2518" lon="4.81286">
        <ele>156</ele>
        <time>2024-03-12T12:08:36Z</time>
      </trkpt>
      <trkpt lat="44.25178" lon="4.81285">
        <ele>156.2</ele>
        <time>2024-03-12T12:08:37Z</time>
      </trkpt>
      <trkpt lat="44.25175" lon="4.81284">
        <ele>156.4</ele>
        <time>2024-03-12T12:08:38Z</time>
      </trkpt>
      <trkpt lat="44.25173" lon="4.81284">
        <ele>156.6</ele>
        <time>2024-03-12T12:08:39Z</time>
      </trkpt>
      <trkpt lat="44.25171" lon="4.81284">
        <ele>156.7</ele>
        <time>2024-03-12T12:08:40Z</time>
      </trkpt>
      <trkpt lat="44.25169" lon="4.81284">
        <ele>156.9</ele>
        <time>2024-03-12T12:08:41Z</time>
      </trkpt>
      <trkpt lat="44.25166" lon="4.81284">
        <ele>157.1</ele>
        <time>2024-03-12T12:08:42Z</time>
      </trkpt>
      <trkpt lat="44.25164" lon="4.81284">
        <ele>157.3</ele>
        <time>2024-03-12T12:08:43Z</time>
      </trkpt>
      <trkpt lat="44.25162" lon="4.81285">
        <ele>157.5</ele>
        <time>2024-03-12T12:08:44Z</time>
      </trkpt>
      <trkpt lat="44.25159" lon="4.81285">
        <ele>157.7</ele>
        <time>2024-03-12T12:08:45Z</time>
      </trkpt>
      <trkpt lat="44.25157" lon="4.81286">
        <ele>157.9</ele>
        <time>2024-03-12T12:08:46Z</time>
      </trkpt>
      <trkpt lat="44.25155" lon="4.81287">
        <ele>158.1</ele>
        <time>2024-03-12T12:08:47Z</time>
      </trkpt>
      <trkpt lat="44.25153" lon="4.81287">
        <ele>158.3</ele>
        <time>2024-03-12T12:08:48Z</time>
      </trkpt>
      <trkpt lat="44.2515" lon="4.81289">
        <ele>158.5</ele>
        <time>2024-03-12T12:08:49Z</time>
      </trkpt>
      <trkpt lat="44.25148" lon="4.8129">
        <ele>158.7</ele>
        <time>2024-03-12T12:08:50Z</time>
      </trkpt>
      <trkpt lat="44.25146" lon="4.81292">
        <ele>158.9</ele>
        <time>2024-03-12T12:08:51Z</time>
      </trkpt>
      <trkpt lat="44.25143" lon="4.81294">
        <ele>159.1</ele>
        <time>2024-03-12T12:08:52Z</time>
      </trkpt>
      <trkpt lat="44.25141" lon="4.81296">
        <ele>159.3</ele>
        <time>2024-03-12T12:08:53Z</time>
      </trkpt>
      <trkpt lat="44.25138" lon="4.81298">
        <ele>159.5</ele>
        <time>2024-03-12T12:08:54Z</time>
      </trkpt>
      <trkpt lat="44.25136" lon="4.813">
        <ele>159.6</ele>
        <time>2024-03-12T12:08:55Z</time>
      </trkpt>
      <trkpt lat="44.25133" lon="4.81302">
        <ele>159.8</ele>
        <time>2024-03-12T12:08:56Z</time>
      </trkpt>
      <trkpt lat="44.25131" lon="4.81304">
        <ele>159.9</ele>
        <time>2024-03-12T12:08:57Z</time>
      </trkpt>
      <trkpt lat="44.25129" lon="4.81306">
        <ele>160</ele>
        <time>2024-03-12T12:08:58Z</time>
      </trkpt>
      <trkpt lat="44.25127" lon="4.81308">
        <ele>160.1</ele>
        <time>2024-03-12T12:08:59Z</time>
      </trkpt>
      <trkpt lat="44.25125" lon="4.81311">
        <ele>160.2</ele>
        <time>2024-03-12T12:09:00Z</time>
      </trkpt>
      <trkpt lat="44.25125" lon="4.81314">
        <ele>160.3</ele>
        <time>2024-03-12T12:09:01Z</time>
      </trkpt>
      <trkpt lat="44.25124" lon="4.81317">
        <ele>160.2</ele>
        <time>2024-03-12T12:09:02Z</time>
      </trkpt>
      <trkpt lat="44.25123" lon="4.8132">
        <ele>160</ele>
        <time>2024-03-12T12:09:03Z</time>
      </trkpt>
      <trkpt lat="44.25123" lon="4.81324">
        <ele>159.8</ele>
        <time>2024-03-12T12:09:04Z</time>
      </trkpt>
      <trkpt lat="44.25123" lon="4.81328">
        <ele>159.6</ele>
        <time>2024-03-12T12:09:05Z</time>
      </trkpt>
      <trkpt lat="44.25123" lon="4.81332">
        <ele>159.3</ele>
        <time>2024-03-12T12:09:06Z</time>
      </trkpt>
      <trkpt lat="44.25123" lon="4.81336">
        <ele>159</ele>
        <time>2024-03-12T12:09:07Z</time>
      </trkpt>
      <trkpt lat="44.25123" lon="4.81341">
        <ele>158.7</ele>
        <time>2024-03-12T12:09:08Z</time>
      </trkpt>
      <trkpt lat="44.25123" lon="4.81346">
        <ele>158.3</ele>
        <time>2024-03-12T12:09:09Z</time>
      </trkpt>
      <trkpt lat="44.25123" lon="4.81351">
        <ele>157.9</ele>
        <time>2024-03-12T12:09:10Z</time>
      </trkpt>
      <trkpt lat="44.25123" lon="4.81355">
        <ele>157.5</ele>
        <time>2024-03-12T12:09:11Z</time>
      </trkpt>
      <trkpt lat="44.25122" lon="4.8136">
        <ele>157</ele>
        <time>2024-03-12T12:09:12Z</time>
      </trkpt>
      <trkpt lat="44.25121" lon="4.81365">
        <ele>156.6</ele>
        <time>2024-03-12T12:09:13Z</time>
      </trkpt>
      <trkpt lat="44.25119" lon="4.81369">
        <ele>156.1</ele>
        <time>2024-03-12T12:09:14Z</time>
      </trkpt>
      <trkpt lat="44.25117" lon="4.81373">
        <ele>155.6</ele>
        <time>2024-03-12T12:09:15Z</time>
      </trkpt>
      <trkpt lat="44.25115" lon="4.81376">
        <ele>155.1</ele>
        <time>2024-03-12T12:09:16Z</time>
      </trkpt>
      <trkpt lat="44.25113" lon="4.8138">
        <ele>154.6</ele>
        <time>2024-03-12T12:09:17Z</time>
      </trkpt>
      <trkpt lat="44.2511" lon="4.81383">
        <ele>154.1</ele>
        <time>2024-03-12T12:09:18Z</time>
      </trkpt>
      <trkpt lat="44.25108" lon="4.81386">
        <ele>153.7</ele>
        <time>2024-03-12T12:09:19Z</time>
      </trkpt>
      <trkpt lat="44.25106" lon="4.8139">
        <ele>153.2</ele>
        <time>2024-03-12T12:09:20Z</time>
      </trkpt>
      <trkpt lat="44.25104" lon="4.81393">
        <ele>152.8</ele>
        <time>2024-03-12T12:09:21Z</time>
      </trkpt>
      <trkpt lat="44.25102" lon="4.81397">
        <ele>152.4</ele>
        <time>2024-03-12T12:09:22Z</time>
      </trkpt>
      <trkpt lat="44.25101" lon="4.81401">
        <ele>152</ele>
        <time>2024-03-12T12:09:23Z</time>
      </trkpt>
      <trkpt lat="44.251" lon="4.81405">
        <ele>151.6</ele>
        <time>2024-03-12T12:09:24Z</time>
      </trkpt>
      <trkpt lat="44.25099" lon="4.81409">
        <ele>151.1</ele>
        <time>2024-03-12T12:09:25Z</time>
      </trkpt>
      <trkpt lat="44.25097" lon="4.81414">
        <ele>150.7</ele>
        <time>2024-03-12T12:09:26Z</time>
      </trkpt>
      <trkpt lat="44.25097" lon="4.81418">
        <ele>150.4</ele>
        <time>2024-03-12T12:09:27Z</time>
      </trkpt>
      <trkpt lat="44.25096" lon="4.81422">
        <ele>150</ele>
        <time>2024-03-12T12:09:28Z</time>
      </trkpt>
      <trkpt lat="44.25096" lon="4.81427">
        <ele>149.8</ele>
        <time>2024-03-12T12:09:29Z</time>
      </trkpt>
      <trkpt lat="44.25096" lon="4.81431">
        <ele>149.2</ele>
        <time>2024-03-12T12:09:30Z</time>
      </trkpt>
      <trkpt lat="44.25097" lon="4.81435">
        <ele>148.6</ele>
        <time>2024-03-12T12:09:31Z</time>
      </trkpt>
      <trkpt lat="44.25098" lon="4.81439">
        <ele>148.1</ele>
        <time>2024-03-12T12:09:32Z</time>
      </trkpt>
      <trkpt lat="44.25099" lon="4.81443">
        <ele>147.7</ele>
        <time>2024-03-12T12:09:33Z</time>
      </trkpt>
      <trkpt lat="44.25101" lon="4.81446">
        <ele>147.4</ele>
        <time>2024-03-12T12:09:34Z</time>
      </trkpt>
      <trkpt lat="44.25101" lon="4.81449">
        <ele>147.3</ele>
        <time>2024-03-12T12:09:35Z</time>
      </trkpt>
      <trkpt lat="44.25103" lon="4.81452">
        <ele>147.1</ele>
        <time>2024-03-12T12:09:36Z</time>
      </trkpt>
      <trkpt lat="44.25103" lon="4.81456">
        <ele>147.1</ele>
        <time>2024-03-12T12:09:37Z</time>
      </trkpt>
      <trkpt lat="44.25105" lon="4.81459">
        <ele>147.1</ele>
        <time>2024-03-12T12:09:38Z</time>
      </trkpt>
      <trkpt lat="44.25106" lon="4.81462">
        <ele>147.1</ele>
        <time>2024-03-12T12:09:39Z</time>
      </trkpt>
      <trkpt lat="44.25107" lon="4.81465">
        <ele>147</ele>
        <time>2024-03-12T12:09:40Z</time>
      </trkpt>
      <trkpt lat="44.25109" lon="4.81467">
        <ele>146.8</ele>
        <time>2024-03-12T12:09:41Z</time>
      </trkpt>
      <trkpt lat="44.25111" lon="4.8147">
        <ele>146.7</ele>
        <time>2024-03-12T12:09:42Z</time>
      </trkpt>
      <trkpt lat="44.25114" lon="4.81472">
        <ele>146.6</ele>
        <time>2024-03-12T12:09:43Z</time>
      </trkpt>
      <trkpt lat="44.25117" lon="4.81473">
        <ele>146.4</ele>
        <time>2024-03-12T12:09:44Z</time>
      </trkpt>
      <trkpt lat="44.25119" lon="4.81474">
        <ele>146.3</ele>
        <time>2024-03-12T12:09:45Z</time>
      </trkpt>
      <trkpt lat="44.25123" lon="4.81475">
        <ele>146.1</ele>
        <time>2024-03-12T12:09:46Z</time>
      </trkpt>
      <trkpt lat="44.25125" lon="4.81475">
        <ele>145.9</ele>
        <time>2024-03-12T12:09:47Z</time>
      </trkpt>
      <trkpt lat="44.25129" lon="4.81475">
        <ele>145.7</ele>
        <time>2024-03-12T12:09:48Z</time>
      </trkpt>
      <trkpt lat="44.25133" lon="4.81476">
        <ele>145.6</ele>
        <time>2024-03-12T12:09:49Z</time>
      </trkpt>
      <trkpt lat="44.25136" lon="4.81476">
        <ele>145.4</ele>
        <time>2024-03-12T12:09:50Z</time>
      </trkpt>
      <trkpt lat="44.25139" lon="4.81477">
        <ele>145.2</ele>
        <time>2024-03-12T12:09:51Z</time>
      </trkpt>
      <trkpt lat="44.25142" lon="4.81478">
        <ele>145</ele>
        <time>2024-03-12T12:09:52Z</time>
      </trkpt>
      <trkpt lat="44.25146" lon="4.81479">
        <ele>144.9</ele>
        <time>2024-03-12T12:09:53Z</time>
      </trkpt>
      <trkpt lat="44.25149" lon="4.8148">
        <ele>144.7</ele>
        <time>2024-03-12T12:09:54Z</time>
      </trkpt>
      <trkpt lat="44.25152" lon="4.81481">
        <ele>144.6</ele>
        <time>2024-03-12T12:09:55Z</time>
      </trkpt>
      <trkpt lat="44.25155" lon="4.81481">
        <ele>144.4</ele>
        <time>2024-03-12T12:09:56Z</time>
      </trkpt>
      <trkpt lat="44.25158" lon="4.81482">
        <ele>144.2</ele>
        <time>2024-03-12T12:09:57Z</time>
      </trkpt>
      <trkpt lat="44.25161" lon="4.81483">
        <ele>144.1</ele>
        <time>2024-03-12T12:09:58Z</time>
      </trkpt>
      <trkpt lat="44.25165" lon="4.81484">
        <ele>143.9</ele>
        <time>2024-03-12T12:09:59Z</time>
      </trkpt>
      <trkpt lat="44.25169" lon="4.81485">
        <ele>143.7</ele>
        <time>2024-03-12T12:10:00Z</time>
      </trkpt>
      <trkpt lat="44.25172" lon="4.81486">
        <ele>143.5</ele>
        <time>2024-03-12T12:10:01Z</time>
      </trkpt>
      <trkpt lat="44.25175" lon="4.81487">
        <ele>143.3</ele>
        <time>2024-03-12T12:10:02Z</time>
      </trkpt>
      <trkpt lat="44.25178" lon="4.81488">
        <ele>143.2</ele>
        <time>2024-03-12T12:10:03Z</time>
      </trkpt>
      <trkpt lat="44.25181" lon="4.81489">
        <ele>143.2</ele>
        <time>2024-03-12T12:10:04Z</time>
      </trkpt>
      <trkpt lat="44.25181" lon="4.81489">
        <ele>143.2</ele>
        <time>2024-03-12T12:10:05Z</time>
      </trkpt>
      <trkpt lat="44.25183" lon="4.81491">
        <ele>143.2</ele>
        <time>2024-03-12T12:10:06Z</time>
      </trkpt>
      <trkpt lat="44.25183" lon="4.81491">
        <ele>143.2</ele>
        <time>2024-03-12T12:10:07Z</time>
      </trkpt>
      <trkpt lat="44.25183" lon="4.81495">
        <ele>143.3</ele>
        <time>2024-03-12T12:10:08Z</time>
      </trkpt>
      <trkpt lat="44.25183" lon="4.81495">
        <ele>143.3</ele>
        <time>2024-03-12T12:10:09Z</time>
      </trkpt>
      <trkpt lat="44.25183" lon="4.81499">
        <ele>143.5</ele>
        <time>2024-03-12T12:10:10Z</time>
      </trkpt>
      <trkpt lat="44.25183" lon="4.81499">
        <ele>143.5</ele>
        <time>2024-03-12T12:10:11Z</time>
      </trkpt>
      <trkpt lat="44.25182" lon="4.81504">
        <ele>143.7</ele>
        <time>2024-03-12T12:10:12Z</time>
      </trkpt>
      <trkpt lat="44.25182" lon="4.81504">
        <ele>143.7</ele>
        <time>2024-03-12T12:10:13Z</time>
      </trkpt>
      <trkpt lat="44.25181" lon="4.81507">
        <ele>143.9</ele>
        <time>2024-03-12T12:10:14Z</time>
      </trkpt>
      <trkpt lat="44.25181" lon="4.81507">
        <ele>143.9</ele>
        <time>2024-03-12T12:10:15Z</time>
      </trkpt>
      <trkpt lat="44.25181" lon="4.8151">
        <ele>144</ele>
        <time>2024-03-12T12:10:16Z</time>
      </trkpt>
      <trkpt lat="44.25181" lon="4.8151">
        <ele>144</ele>
        <time>2024-03-12T12:10:17Z</time>
      </trkpt>
      <trkpt lat="44.25179" lon="4.81512">
        <ele>144.2</ele>
        <time>2024-03-12T12:10:18Z</time>
      </trkpt>
      <trkpt lat="44.25179" lon="4.81512">
        <ele>144.2</ele>
        <time>2024-03-12T12:10:19Z</time>
      </trkpt>
      <trkpt lat="44.25177" lon="4.81513">
        <ele>144.3</ele>
        <time>2024-03-12T12:10:20Z</time>
      </trkpt>
      <trkpt lat="44.25177" lon="4.81513">
        <ele>144.3</ele>
        <time>2024-03-12T12:10:21Z</time>
      </trkpt>
      <trkpt lat="44.25174" lon="4.81512">
        <ele>144.5</ele>
        <time>2024-03-12T12:10:22Z</time>
      </trkpt>
      <trkpt lat="44.25172" lon="4.81512">
        <ele>144.7</ele>
        <time>2024-03-12T12:10:23Z</time>
      </trkpt>
      <trkpt lat="44.2517" lon="4.81511">
        <ele>144.8</ele>
        <time>2024-03-12T12:10:24Z</time>
      </trkpt>
      <trkpt lat="44.2517" lon="4.81511">
        <ele>144.8</ele>
        <time>2024-03-12T12:10:25Z</time>
      </trkpt>
      <trkpt lat="44.25166" lon="4.81512">
        <ele>145</ele>
        <time>2024-03-12T12:10:26Z</time>
      </trkpt>
      <trkpt lat="44.25166" lon="4.81512">
        <ele>145</ele>
        <time>2024-03-12T12:10:27Z</time>
      </trkpt>
      <trkpt lat="44.25165" lon="4.81515">
        <ele>145.2</ele>
        <time>2024-03-12T12:10:28Z</time>
      </trkpt>
      <trkpt lat="44.25165" lon="4.81515">
        <ele>145.2</ele>
        <time>2024-03-12T12:10:29Z</time>
      </trkpt>
      <trkpt lat="44.25165" lon="4.81518">
        <ele>145.3</ele>
        <time>2024-03-12T12:10:30Z</time>
      </trkpt>
      <trkpt lat="44.25165" lon="4.81518">
        <ele>145.3</ele>
        <time>2024-03-12T12:10:31Z</time>
      </trkpt>
      <trkpt lat="44.25165" lon="4.81522">
        <ele>145.5</ele>
        <time>2024-03-12T12:10:32Z</time>
      </trkpt>
      <trkpt lat="44.25165" lon="4.81522">
        <ele>145.5</ele>
        <time>2024-03-12T12:10:33Z</time>
      </trkpt>
      <trkpt lat="44.25164" lon="4.81526">
        <ele>145.7</ele>
        <time>2024-03-12T12:10:34Z</time>
      </trkpt>
      <trkpt lat="44.25164" lon="4.81526">
        <ele>145.7</ele>
        <time>2024-03-12T12:10:35Z</time>
      </trkpt>
      <trkpt lat="44.25164" lon="4.81529">
        <ele>145.8</ele>
        <time>2024-03-12T12:10:36Z</time>
      </trkpt>
      <trkpt lat="44.25164" lon="4.81529">
        <ele>145.8</ele>
        <time>2024-03-12T12:10:37Z</time>
      </trkpt>
      <trkpt lat="44.25164" lon="4.81529">
        <ele>145.8</ele>
        <time>2024-03-12T12:10:38Z</time>
      </trkpt>
      <trkpt lat="44.25165" lon="4.81532">
        <ele>146</ele>
        <time>2024-03-12T12:10:39Z</time>
      </trkpt>
      <trkpt lat="44.25165" lon="4.81532">
        <ele>146</ele>
        <time>2024-03-12T12:10:40Z</time>
      </trkpt>
      <trkpt lat="44.25166" lon="4.81534">
        <ele>146.2</ele>
        <time>2024-03-12T12:10:41Z</time>
      </trkpt>
      <trkpt lat="44.25166" lon="4.81534">
        <ele>146.2</ele>
        <time>2024-03-12T12:10:42Z</time>
      </trkpt>
      <trkpt lat="44.25168" lon="4.81536">
        <ele>146.3</ele>
        <time>2024-03-12T12:10:43Z</time>
      </trkpt>
      <trkpt lat="44.25168" lon="4.81536">
        <ele>146.3</ele>
        <time>2024-03-12T12:10:44Z</time>
      </trkpt>
      <trkpt lat="44.25168" lon="4.81536">
        <ele>146.3</ele>
        <time>2024-03-12T12:10:45Z</time>
      </trkpt>
      <trkpt lat="44.2517" lon="4.81539">
        <ele>146.5</ele>
        <time>2024-03-12T12:10:46Z</time>
      </trkpt>
      <trkpt lat="44.2517" lon="4.81539">
        <ele>146.5</ele>
        <time>2024-03-12T12:10:47Z</time>
      </trkpt>
      <trkpt lat="44.25169" lon="4.81542">
        <ele>146.5</ele>
        <time>2024-03-12T12:10:48Z</time>
      </trkpt>
      <trkpt lat="44.25169" lon="4.81542">
        <ele>146.5</ele>
        <time>2024-03-12T12:10:49Z</time>
      </trkpt>
      <trkpt lat="44.25167" lon="4.81545">
        <ele>147.3</ele>
        <time>2024-03-12T12:10:50Z</time>
      </trkpt>
      <trkpt lat="44.25167" lon="4.81545">
        <ele>147.3</ele>
        <time>2024-03-12T12:10:51Z</time>
      </trkpt>
      <trkpt lat="44.25164" lon="4.81547">
        <ele>148</ele>
        <time>2024-03-12T12:10:52Z</time>
      </trkpt>
      <trkpt lat="44.25164" lon="4.81547">
        <ele>148</ele>
        <time>2024-03-12T12:10:53Z</time>
      </trkpt>
      <trkpt lat="44.25161" lon="4.81548">
        <ele>148.8</ele>
        <time>2024-03-12T12:10:54Z</time>
      </trkpt>
      <trkpt lat="44.25161" lon="4.81548">
        <ele>148.8</ele>
        <time>2024-03-12T12:10:55Z</time>
      </trkpt>
      <trkpt lat="44.25159" lon="4.81549">
        <ele>149.5</ele>
        <time>2024-03-12T12:10:56Z</time>
      </trkpt>
      <trkpt lat="44.25157" lon="4.8155">
        <ele>149.9</ele>
        <time>2024-03-12T12:10:57Z</time>
      </trkpt>
      <trkpt lat="44.25157" lon="4.8155">
        <ele>149.9</ele>
        <time>2024-03-12T12:10:58Z</time>
      </trkpt>
      <trkpt lat="44.25155" lon="4.81553">
        <ele>150.7</ele>
        <time>2024-03-12T12:10:59Z</time>
      </trkpt>
      <trkpt lat="44.25155" lon="4.81553">
        <ele>150.7</ele>
        <time>2024-03-12T12:11:00Z</time>
      </trkpt>
      <trkpt lat="44.25153" lon="4.81556">
        <ele>151.5</ele>
        <time>2024-03-12T12:11:01Z</time>
      </trkpt>
      <trkpt lat="44.25153" lon="4.81556">
        <ele>151.5</ele>
        <time>2024-03-12T12:11:02Z</time>
      </trkpt>
      <trkpt lat="44.25151" lon="4.81559">
        <ele>152.1</ele>
        <time>2024-03-12T12:11:03Z</time>
      </trkpt>
      <trkpt lat="44.25151" lon="4.81559">
        <ele>152.1</ele>
        <time>2024-03-12T12:11:04Z</time>
      </trkpt>
      <trkpt lat="44.25149" lon="4.81561">
        <ele>152.6</ele>
        <time>2024-03-12T12:11:05Z</time>
      </trkpt>
      <trkpt lat="44.25149" lon="4.81561">
        <ele>152.6</ele>
        <time>2024-03-12T12:11:06Z</time>
      </trkpt>
      <trkpt lat="44.25148" lon="4.81562">
        <ele>153.1</ele>
        <time>2024-03-12T12:11:07Z</time>
      </trkpt>
      <trkpt lat="44.25148" lon="4.81562">
        <ele>153.1</ele>
        <time>2024-03-12T12:11:08Z</time>
      </trkpt>
      <trkpt lat="44.25145" lon="4.81562">
        <ele>153.8</ele>
        <time>2024-03-12T12:11:09Z</time>
      </trkpt>
      <trkpt lat="44.25145" lon="4.81562">
        <ele>153.8</ele>
        <time>2024-03-12T12:11:10Z</time>
      </trkpt>
      <trkpt lat="44.25141" lon="4.81562">
        <ele>154.5</ele>
        <time>2024-03-12T12:11:11Z</time>
      </trkpt>
      <trkpt lat="44.25139" lon="4.81562">
        <ele>154.9</ele>
        <time>2024-03-12T12:11:12Z</time>
      </trkpt>
      <trkpt lat="44.25137" lon="4.81563">
        <ele>155.3</ele>
        <time>2024-03-12T12:11:13Z</time>
      </trkpt>
      <trkpt lat="44.25135" lon="4.81564">
        <ele>155.7</ele>
        <time>2024-03-12T12:11:14Z</time>
      </trkpt>
      <trkpt lat="44.25133" lon="4.81565">
        <ele>156.2</ele>
        <time>2024-03-12T12:11:15Z</time>
      </trkpt>
      <trkpt lat="44.25132" lon="4.81567">
        <ele>156.6</ele>
        <time>2024-03-12T12:11:16Z</time>
      </trkpt>
      <trkpt lat="44.25132" lon="4.81567">
        <ele>156.6</ele>
        <time>2024-03-12T12:11:17Z</time>
      </trkpt>
      <trkpt lat="44.2513" lon="4.81571">
        <ele>157.2</ele>
        <time>2024-03-12T12:11:18Z</time>
      </trkpt>
      <trkpt lat="44.2513" lon="4.81571">
        <ele>157.2</ele>
        <time>2024-03-12T12:11:19Z</time>
      </trkpt>
      <trkpt lat="44.25128" lon="4.81574">
        <ele>157.8</ele>
        <time>2024-03-12T12:11:20Z</time>
      </trkpt>
      <trkpt lat="44.25128" lon="4.81574">
        <ele>157.8</ele>
        <time>2024-03-12T12:11:21Z</time>
      </trkpt>
      <trkpt lat="44.25125" lon="4.81577">
        <ele>158.3</ele>
        <time>2024-03-12T12:11:22Z</time>
      </trkpt>
      <trkpt lat="44.25125" lon="4.81577">
        <ele>158.3</ele>
        <time>2024-03-12T12:11:23Z</time>
      </trkpt>
      <trkpt lat="44.25123" lon="4.81579">
        <ele>158.7</ele>
        <time>2024-03-12T12:11:24Z</time>
      </trkpt>
      <trkpt lat="44.25123" lon="4.81579">
        <ele>158.7</ele>
        <time>2024-03-12T12:11:25Z</time>
      </trkpt>
      <trkpt lat="44.25121" lon="4.81582">
        <ele>159.2</ele>
        <time>2024-03-12T12:11:26Z</time>
      </trkpt>
      <trkpt lat="44.25121" lon="4.81582">
        <ele>159.2</ele>
        <time>2024-03-12T12:11:27Z</time>
      </trkpt>
      <trkpt lat="44.25119" lon="4.81585">
        <ele>159.7</ele>
        <time>2024-03-12T12:11:28Z</time>
      </trkpt>
      <trkpt lat="44.25119" lon="4.81585">
        <ele>159.7</ele>
        <time>2024-03-12T12:11:29Z</time>
      </trkpt>
      <trkpt lat="44.25117" lon="4.81588">
        <ele>160.2</ele>
        <time>2024-03-12T12:11:30Z</time>
      </trkpt>
      <trkpt lat="44.25117" lon="4.81588">
        <ele>160.2</ele>
        <time>2024-03-12T12:11:31Z</time>
      </trkpt>
      <trkpt lat="44.25116" lon="4.8159">
        <ele>160.5</ele>
        <time>2024-03-12T12:11:32Z</time>
      </trkpt>
      <trkpt lat="44.25116" lon="4.8159">
        <ele>160.5</ele>
        <time>2024-03-12T12:11:33Z</time>
      </trkpt>
      <trkpt lat="44.25113" lon="4.81593">
        <ele>161</ele>
        <time>2024-03-12T12:11:34Z</time>
      </trkpt>
      <trkpt lat="44.25112" lon="4.81594">
        <ele>161.3</ele>
        <time>2024-03-12T12:11:35Z</time>
      </trkpt>
      <trkpt lat="44.25112" lon="4.81594">
        <ele>161.3</ele>
        <time>2024-03-12T12:11:36Z</time>
      </trkpt>
      <trkpt lat="44.25109" lon="4.81597">
        <ele>161.8</ele>
        <time>2024-03-12T12:11:37Z</time>
      </trkpt>
      <trkpt lat="44.25108" lon="4.81598">
        <ele>162.1</ele>
        <time>2024-03-12T12:11:38Z</time>
      </trkpt>
      <trkpt lat="44.25108" lon="4.81598">
        <ele>162.1</ele>
        <time>2024-03-12T12:11:39Z</time>
      </trkpt>
      <trkpt lat="44.25105" lon="4.81601">
        <ele>162.6</ele>
        <time>2024-03-12T12:11:40Z</time>
      </trkpt>
      <trkpt lat="44.25103" lon="4.81602">
        <ele>162.9</ele>
        <time>2024-03-12T12:11:41Z</time>
      </trkpt>
      <trkpt lat="44.25103" lon="4.81602">
        <ele>162.9</ele>
        <time>2024-03-12T12:11:42Z</time>
      </trkpt>
      <trkpt lat="44.25101" lon="4.81605">
        <ele>163.3</ele>
        <time>2024-03-12T12:11:43Z</time>
      </trkpt>
      <trkpt lat="44.25101" lon="4.81605">
        <ele>163.3</ele>
        <time>2024-03-12T12:11:44Z</time>
      </trkpt>
      <trkpt lat="44.25098" lon="4.81607">
        <ele>163.8</ele>
        <time>2024-03-12T12:11:45Z</time>
      </trkpt>
      <trkpt lat="44.25098" lon="4.81607">
        <ele>163.8</ele>
        <time>2024-03-12T12:11:46Z</time>
      </trkpt>
      <trkpt lat="44.25095" lon="4.8161">
        <ele>164.3</ele>
        <time>2024-03-12T12:11:47Z</time>
      </trkpt>
      <trkpt lat="44.25093" lon="4.81612">
        <ele>164.5</ele>
        <time>2024-03-12T12:11:48Z</time>
      </trkpt>
      <trkpt lat="44.25092" lon="4.81613">
        <ele>164.8</ele>
        <time>2024-03-12T12:11:49Z</time>
      </trkpt>
      <trkpt lat="44.2509" lon="4.81615">
        <ele>165.1</ele>
        <time>2024-03-12T12:11:50Z</time>
      </trkpt>
      <trkpt lat="44.25088" lon="4.81617">
        <ele>165.4</ele>
        <time>2024-03-12T12:11:51Z</time>
      </trkpt>
      <trkpt lat="44.25086" lon="4.81618">
        <ele>165.7</ele>
        <time>2024-03-12T12:11:52Z</time>
      </trkpt>
      <trkpt lat="44.25086" lon="4.81618">
        <ele>165.7</ele>
        <time>2024-03-12T12:11:53Z</time>
      </trkpt>
      <trkpt lat="44.25083" lon="4.81622">
        <ele>166.1</ele>
        <time>2024-03-12T12:11:54Z</time>
      </trkpt>
      <trkpt lat="44.25083" lon="4.81622">
        <ele>166.1</ele>
        <time>2024-03-12T12:11:55Z</time>
      </trkpt>
      <trkpt lat="44.25081" lon="4.81625">
        <ele>166.5</ele>
        <time>2024-03-12T12:11:56Z</time>
      </trkpt>
      <trkpt lat="44.25081" lon="4.81625">
        <ele>166.5</ele>
        <time>2024-03-12T12:11:57Z</time>
      </trkpt>
      <trkpt lat="44.25079" lon="4.81628">
        <ele>166.9</ele>
        <time>2024-03-12T12:11:58Z</time>
      </trkpt>
      <trkpt lat="44.25079" lon="4.81628">
        <ele>166.9</ele>
        <time>2024-03-12T12:11:59Z</time>
      </trkpt>
      <trkpt lat="44.25076" lon="4.81632">
        <ele>167.3</ele>
        <time>2024-03-12T12:12:00Z</time>
      </trkpt>
      <trkpt lat="44.25076" lon="4.81632">
        <ele>167.3</ele>
        <time>2024-03-12T12:12:01Z</time>
      </trkpt>
      <trkpt lat="44.25073" lon="4.81635">
        <ele>167.8</ele>
        <time>2024-03-12T12:12:02Z</time>
      </trkpt>
      <trkpt lat="44.2507" lon="4.81637">
        <ele>168.2</ele>
        <time>2024-03-12T12:12:03Z</time>
      </trkpt>
      <trkpt lat="44.25069" lon="4.81638">
        <ele>168.3</ele>
        <time>2024-03-12T12:12:04Z</time>
      </trkpt>
      <trkpt lat="44.25068" lon="4.8164">
        <ele>168.6</ele>
        <time>2024-03-12T12:12:05Z</time>
      </trkpt>
      <trkpt lat="44.25065" lon="4.81641">
        <ele>168.9</ele>
        <time>2024-03-12T12:12:06Z</time>
      </trkpt>
      <trkpt lat="44.25063" lon="4.81642">
        <ele>169.1</ele>
        <time>2024-03-12T12:12:07Z</time>
      </trkpt>
      <trkpt lat="44.25061" lon="4.81644">
        <ele>169.4</ele>
        <time>2024-03-12T12:12:08Z</time>
      </trkpt>
      <trkpt lat="44.2506" lon="4.81646">
        <ele>169.6</ele>
        <time>2024-03-12T12:12:09Z</time>
      </trkpt>
      <trkpt lat="44.25058" lon="4.81647">
        <ele>169.9</ele>
        <time>2024-03-12T12:12:10Z</time>
      </trkpt>
      <trkpt lat="44.25056" lon="4.81649">
        <ele>170.2</ele>
        <time>2024-03-12T12:12:11Z</time>
      </trkpt>
      <trkpt lat="44.25054" lon="4.8165">
        <ele>170.4</ele>
        <time>2024-03-12T12:12:12Z</time>
      </trkpt>
      <trkpt lat="44.25052" lon="4.81651">
        <ele>170.7</ele>
        <time>2024-03-12T12:12:13Z</time>
      </trkpt>
      <trkpt lat="44.2505" lon="4.81652">
        <ele>171.1</ele>
        <time>2024-03-12T12:12:14Z</time>
      </trkpt>
      <trkpt lat="44.25048" lon="4.81653">
        <ele>171.3</ele>
        <time>2024-03-12T12:12:15Z</time>
      </trkpt>
      <trkpt lat="44.25046" lon="4.81654">
        <ele>171.7</ele>
        <time>2024-03-12T12:12:16Z</time>
      </trkpt>
      <trkpt lat="44.25044" lon="4.81655">
        <ele>172</ele>
        <time>2024-03-12T12:12:17Z</time>
      </trkpt>
      <trkpt lat="44.25042" lon="4.81656">
        <ele>172.2</ele>
        <time>2024-03-12T12:12:18Z</time>
      </trkpt>
      <trkpt lat="44.2504" lon="4.81657">
        <ele>172.5</ele>
        <time>2024-03-12T12:12:19Z</time>
      </trkpt>
      <trkpt lat="44.2504" lon="4.81657">
        <ele>172.5</ele>
        <time>2024-03-12T12:12:20Z</time>
      </trkpt>
      <trkpt lat="44.25037" lon="4.81659">
        <ele>172.9</ele>
        <time>2024-03-12T12:12:21Z</time>
      </trkpt>
      <trkpt lat="44.25037" lon="4.81659">
        <ele>172.9</ele>
        <time>2024-03-12T12:12:22Z</time>
      </trkpt>
      <trkpt lat="44.25034" lon="4.81661">
        <ele>173.3</ele>
        <time>2024-03-12T12:12:23Z</time>
      </trkpt>
      <trkpt lat="44.25034" lon="4.81661">
        <ele>173.3</ele>
        <time>2024-03-12T12:12:24Z</time>
      </trkpt>
      <trkpt lat="44.25032" lon="4.81664">
        <ele>173.7</ele>
        <time>2024-03-12T12:12:25Z</time>
      </trkpt>
      <trkpt lat="44.2503" lon="4.81665">
        <ele>174</ele>
        <time>2024-03-12T12:12:26Z</time>
      </trkpt>
      <trkpt lat="44.25029" lon="4.81667">
        <ele>174.2</ele>
        <time>2024-03-12T12:12:27Z</time>
      </trkpt>
      <trkpt lat="44.25029" lon="4.81667">
        <ele>174.2</ele>
        <time>2024-03-12T12:12:28Z</time>
      </trkpt>
      <trkpt lat="44.25026" lon="4.8167">
        <ele>174.6</ele>
        <time>2024-03-12T12:12:29Z</time>
      </trkpt>
      <trkpt lat="44.25025" lon="4.81672">
        <ele>174.8</ele>
        <time>2024-03-12T12:12:30Z</time>
      </trkpt>
      <trkpt lat="44.25023" lon="4.81674">
        <ele>175</ele>
        <time>2024-03-12T12:12:31Z</time>
      </trkpt>
      <trkpt lat="44.25021" lon="4.81676">
        <ele>175.3</ele>
        <time>2024-03-12T12:12:32Z</time>
      </trkpt>
      <trkpt lat="44.25019" lon="4.81678">
        <ele>175.6</ele>
        <time>2024-03-12T12:12:33Z</time>
      </trkpt>
      <trkpt lat="44.25017" lon="4.8168">
        <ele>175.9</ele>
        <time>2024-03-12T12:12:34Z</time>
      </trkpt>
      <trkpt lat="44.25015" lon="4.81681">
        <ele>176.2</ele>
        <time>2024-03-12T12:12:35Z</time>
      </trkpt>
      <trkpt lat="44.25013" lon="4.81683">
        <ele>176.5</ele>
        <time>2024-03-12T12:12:36Z</time>
      </trkpt>
      <trkpt lat="44.25011" lon="4.81685">
        <ele>176.8</ele>
        <time>2024-03-12T12:12:37Z</time>
      </trkpt>
      <trkpt lat="44.25009" lon="4.81687">
        <ele>177</ele>
        <time>2024-03-12T12:12:38Z</time>
      </trkpt>
      <trkpt lat="44.25008" lon="4.81689">
        <ele>177.3</ele>
        <time>2024-03-12T12:12:39Z</time>
      </trkpt>
      <trkpt lat="44.25006" lon="4.81691">
        <ele>177.5</ele>
        <time>2024-03-12T12:12:40Z</time>
      </trkpt>
      <trkpt lat="44.25006" lon="4.81691">
        <ele>177.5</ele>
        <time>2024-03-12T12:12:41Z</time>
      </trkpt>
      <trkpt lat="44.25004" lon="4.81694">
        <ele>177.9</ele>
        <time>2024-03-12T12:12:42Z</time>
      </trkpt>
      <trkpt lat="44.25002" lon="4.81696">
        <ele>178.2</ele>
        <time>2024-03-12T12:12:43Z</time>
      </trkpt>
      <trkpt lat="44.25" lon="4.81697">
        <ele>178.4</ele>
        <time>2024-03-12T12:12:44Z</time>
      </trkpt>
      <trkpt lat="44.24998" lon="4.81699">
        <ele>178.7</ele>
        <time>2024-03-12T12:12:45Z</time>
      </trkpt>
      <trkpt lat="44.24996" lon="4.81701">
        <ele>179.1</ele>
        <time>2024-03-12T12:12:46Z</time>
      </trkpt>
      <trkpt lat="44.24993" lon="4.81703">
        <ele>179.4</ele>
        <time>2024-03-12T12:12:47Z</time>
      </trkpt>
      <trkpt lat="44.24991" lon="4.81705">
        <ele>179.7</ele>
        <time>2024-03-12T12:12:48Z</time>
      </trkpt>
      <trkpt lat="44.24989" lon="4.81707">
        <ele>180</ele>
        <time>2024-03-12T12:12:49Z</time>
      </trkpt>
      <trkpt lat="44.24987" lon="4.81709">
        <ele>180.2</ele>
        <time>2024-03-12T12:12:50Z</time>
      </trkpt>
      <trkpt lat="44.24985" lon="4.8171">
        <ele>180.4</ele>
        <time>2024-03-12T12:12:51Z</time>
      </trkpt>
      <trkpt lat="44.24983" lon="4.81712">
        <ele>180.7</ele>
        <time>2024-03-12T12:12:52Z</time>
      </trkpt>
      <trkpt lat="44.24982" lon="4.81714">
        <ele>180.9</ele>
        <time>2024-03-12T12:12:53Z</time>
      </trkpt>
      <trkpt lat="44.2498" lon="4.81716">
        <ele>181.1</ele>
        <time>2024-03-12T12:12:54Z</time>
      </trkpt>
      <trkpt lat="44.24978" lon="4.81717">
        <ele>181.3</ele>
        <time>2024-03-12T12:12:55Z</time>
      </trkpt>
      <trkpt lat="44.24976" lon="4.81719">
        <ele>181.6</ele>
        <time>2024-03-12T12:12:56Z</time>
      </trkpt>
      <trkpt lat="44.24974" lon="4.81721">
        <ele>181.7</ele>
        <time>2024-03-12T12:12:57Z</time>
      </trkpt>
      <trkpt lat="44.24973" lon="4.81723">
        <ele>182</ele>
        <time>2024-03-12T12:12:58Z</time>
      </trkpt>
      <trkpt lat="44.24971" lon="4.81725">
        <ele>182.2</ele>
        <time>2024-03-12T12:12:59Z</time>
      </trkpt>
      <trkpt lat="44.2497" lon="4.81728">
        <ele>182.4</ele>
        <time>2024-03-12T12:13:00Z</time>
      </trkpt>
      <trkpt lat="44.24968" lon="4.8173">
        <ele>182.6</ele>
        <time>2024-03-12T12:13:01Z</time>
      </trkpt>
      <trkpt lat="44.24967" lon="4.81733">
        <ele>182.8</ele>
        <time>2024-03-12T12:13:02Z</time>
      </trkpt>
      <trkpt lat="44.24967" lon="4.81733">
        <ele>182.8</ele>
        <time>2024-03-12T12:13:03Z</time>
      </trkpt>
      <trkpt lat="44.24965" lon="4.81736">
        <ele>183</ele>
        <time>2024-03-12T12:13:04Z</time>
      </trkpt>
      <trkpt lat="44.24962" lon="4.81738">
        <ele>183.3</ele>
        <time>2024-03-12T12:13:05Z</time>
      </trkpt>
      <trkpt lat="44.24961" lon="4.81739">
        <ele>183.3</ele>
        <time>2024-03-12T12:13:06Z</time>
      </trkpt>
      <trkpt lat="44.24959" lon="4.8174">
        <ele>183.5</ele>
        <time>2024-03-12T12:13:07Z</time>
      </trkpt>
      <trkpt lat="44.24957" lon="4.81742">
        <ele>183.6</ele>
        <time>2024-03-12T12:13:08Z</time>
      </trkpt>
      <trkpt lat="44.24955" lon="4.81743">
        <ele>183.8</ele>
        <time>2024-03-12T12:13:09Z</time>
      </trkpt>
      <trkpt lat="44.24952" lon="4.81744">
        <ele>184</ele>
        <time>2024-03-12T12:13:10Z</time>
      </trkpt>
      <trkpt lat="44.2495" lon="4.81746">
        <ele>184.1</ele>
        <time>2024-03-12T12:13:11Z</time>
      </trkpt>
      <trkpt lat="44.24947" lon="4.81747">
        <ele>184.3</ele>
        <time>2024-03-12T12:13:12Z</time>
      </trkpt>
      <trkpt lat="44.24945" lon="4.81748">
        <ele>184.4</ele>
        <time>2024-03-12T12:13:13Z</time>
      </trkpt>
      <trkpt lat="44.24942" lon="4.8175">
        <ele>184.6</ele>
        <time>2024-03-12T12:13:14Z</time>
      </trkpt>
      <trkpt lat="44.2494" lon="4.81751">
        <ele>184.7</ele>
        <time>2024-03-12T12:13:15Z</time>
      </trkpt>
      <trkpt lat="44.24937" lon="4.81752">
        <ele>184.9</ele>
        <time>2024-03-12T12:13:16Z</time>
      </trkpt>
      <trkpt lat="44.24935" lon="4.81753">
        <ele>185</ele>
        <time>2024-03-12T12:13:17Z</time>
      </trkpt>
      <trkpt lat="44.24932" lon="4.81755">
        <ele>185.1</ele>
        <time>2024-03-12T12:13:18Z</time>
      </trkpt>
      <trkpt lat="44.2493" lon="4.81756">
        <ele>185.3</ele>
        <time>2024-03-12T12:13:19Z</time>
      </trkpt>
      <trkpt lat="44.24928" lon="4.81758">
        <ele>185.4</ele>
        <time>2024-03-12T12:13:20Z</time>
      </trkpt>
      <trkpt lat="44.24925" lon="4.81759">
        <ele>185.6</ele>
        <time>2024-03-12T12:13:21Z</time>
      </trkpt>
      <trkpt lat="44.24923" lon="4.8176">
        <ele>185.7</ele>
        <time>2024-03-12T12:13:22Z</time>
      </trkpt>
      <trkpt lat="44.2492" lon="4.81761">
        <ele>185.8</ele>
        <time>2024-03-12T12:13:23Z</time>
      </trkpt>
      <trkpt lat="44.24918" lon="4.81761">
        <ele>185.9</ele>
        <time>2024-03-12T12:13:24Z</time>
      </trkpt>
      <trkpt lat="44.24916" lon="4.81762">
        <ele>186</ele>
        <time>2024-03-12T12:13:25Z</time>
      </trkpt>
      <trkpt lat="44.24913" lon="4.81763">
        <ele>186.1</ele>
        <time>2024-03-12T12:13:26Z</time>
      </trkpt>
      <trkpt lat="44.24911" lon="4.81763">
        <ele>186.2</ele>
        <time>2024-03-12T12:13:27Z</time>
      </trkpt>
      <trkpt lat="44.24908" lon="4.81764">
        <ele>186.3</ele>
        <time>2024-03-12T12:13:28Z</time>
      </trkpt>
      <trkpt lat="44.24905" lon="4.81764">
        <ele>186.3</ele>
        <time>2024-03-12T12:13:29Z</time>
      </trkpt>
      <trkpt lat="44.24902" lon="4.81765">
        <ele>186.4</ele>
        <time>2024-03-12T12:13:30Z</time>
      </trkpt>
      <trkpt lat="44.24899" lon="4.81765">
        <ele>186.4</ele>
        <time>2024-03-12T12:13:31Z</time>
      </trkpt>
      <trkpt lat="44.24896" lon="4.81766">
        <ele>186.4</ele>
        <time>2024-03-12T12:13:32Z</time>
      </trkpt>
      <trkpt lat="44.24893" lon="4.81766">
        <ele>186.4</ele>
        <time>2024-03-12T12:13:33Z</time>
      </trkpt>
      <trkpt lat="44.2489" lon="4.81767">
        <ele>186.3</ele>
        <time>2024-03-12T12:13:34Z</time>
      </trkpt>
      <trkpt lat="44.24887" lon="4.81767">
        <ele>186.2</ele>
        <time>2024-03-12T12:13:35Z</time>
      </trkpt>
      <trkpt lat="44.24884" lon="4.81768">
        <ele>186.1</ele>
        <time>2024-03-12T12:13:36Z</time>
      </trkpt>
      <trkpt lat="44.24881" lon="4.81769">
        <ele>185.9</ele>
        <time>2024-03-12T12:13:37Z</time>
      </trkpt>
      <trkpt lat="44.24877" lon="4.81769">
        <ele>185.7</ele>
        <time>2024-03-12T12:13:38Z</time>
      </trkpt>
      <trkpt lat="44.24874" lon="4.8177">
        <ele>185.5</ele>
        <time>2024-03-12T12:13:39Z</time>
      </trkpt>
      <trkpt lat="44.24871" lon="4.8177">
        <ele>185.3</ele>
        <time>2024-03-12T12:13:40Z</time>
      </trkpt>
      <trkpt lat="44.24868" lon="4.81771">
        <ele>185</ele>
        <time>2024-03-12T12:13:41Z</time>
      </trkpt>
      <trkpt lat="44.24864" lon="4.81772">
        <ele>184.8</ele>
        <time>2024-03-12T12:13:42Z</time>
      </trkpt>
      <trkpt lat="44.24861" lon="4.81773">
        <ele>184.5</ele>
        <time>2024-03-12T12:13:43Z</time>
      </trkpt>
      <trkpt lat="44.24857" lon="4.81774">
        <ele>184.1</ele>
        <time>2024-03-12T12:13:44Z</time>
      </trkpt>
      <trkpt lat="44.24854" lon="4.81776">
        <ele>183.9</ele>
        <time>2024-03-12T12:13:45Z</time>
      </trkpt>
      <trkpt lat="44.24851" lon="4.81778">
        <ele>183.6</ele>
        <time>2024-03-12T12:13:46Z</time>
      </trkpt>
      <trkpt lat="44.24847" lon="4.81779">
        <ele>183.3</ele>
        <time>2024-03-12T12:13:47Z</time>
      </trkpt>
      <trkpt lat="44.24843" lon="4.8178">
        <ele>183</ele>
        <time>2024-03-12T12:13:48Z</time>
      </trkpt>
      <trkpt lat="44.24839" lon="4.81781">
        <ele>182.7</ele>
        <time>2024-03-12T12:13:49Z</time>
      </trkpt>
      <trkpt lat="44.24836" lon="4.81782">
        <ele>182.4</ele>
        <time>2024-03-12T12:13:50Z</time>
      </trkpt>
      <trkpt lat="44.24832" lon="4.81782">
        <ele>182.1</ele>
        <time>2024-03-12T12:13:51Z</time>
      </trkpt>
      <trkpt lat="44.24829" lon="4.81783">
        <ele>181.8</ele>
        <time>2024-03-12T12:13:52Z</time>
      </trkpt>
      <trkpt lat="44.24825" lon="4.81783">
        <ele>181.5</ele>
        <time>2024-03-12T12:13:53Z</time>
      </trkpt>
      <trkpt lat="44.24822" lon="4.81783">
        <ele>181.2</ele>
        <time>2024-03-12T12:13:54Z</time>
      </trkpt>
      <trkpt lat="44.24819" lon="4.81783">
        <ele>181</ele>
        <time>2024-03-12T12:13:55Z</time>
      </trkpt>
      <trkpt lat="44.24816" lon="4.81784">
        <ele>180.7</ele>
        <time>2024-03-12T12:13:56Z</time>
      </trkpt>
      <trkpt lat="44.24814" lon="4.81785">
        <ele>180.5</ele>
        <time>2024-03-12T12:13:57Z</time>
      </trkpt>
      <trkpt lat="44.24812" lon="4.81786">
        <ele>180.3</ele>
        <time>2024-03-12T12:13:58Z</time>
      </trkpt>
      <trkpt lat="44.24812" lon="4.81786">
        <ele>180.3</ele>
        <time>2024-03-12T12:13:59Z</time>
      </trkpt>
      <trkpt lat="44.2481" lon="4.81791">
        <ele>180.3</ele>
        <time>2024-03-12T12:14:00Z</time>
      </trkpt>
      <trkpt lat="44.2481" lon="4.81794">
        <ele>180.3</ele>
        <time>2024-03-12T12:14:01Z</time>
      </trkpt>
      <trkpt lat="44.2481" lon="4.81797">
        <ele>180.4</ele>
        <time>2024-03-12T12:14:02Z</time>
      </trkpt>
      <trkpt lat="44.2481" lon="4.81801">
        <ele>180.4</ele>
        <time>2024-03-12T12:14:03Z</time>
      </trkpt>
      <trkpt lat="44.2481" lon="4.81805">
        <ele>180.3</ele>
        <time>2024-03-12T12:14:04Z</time>
      </trkpt>
      <trkpt lat="44.2481" lon="4.81809">
        <ele>180.2</ele>
        <time>2024-03-12T12:14:05Z</time>
      </trkpt>
      <trkpt lat="44.2481" lon="4.81814">
        <ele>180.1</ele>
        <time>2024-03-12T12:14:06Z</time>
      </trkpt>
      <trkpt lat="44.2481" lon="4.81818">
        <ele>179.9</ele>
        <time>2024-03-12T12:14:07Z</time>
      </trkpt>
      <trkpt lat="44.2481" lon="4.81822">
        <ele>179.7</ele>
        <time>2024-03-12T12:14:08Z</time>
      </trkpt>
      <trkpt lat="44.2481" lon="4.81826">
        <ele>179.4</ele>
        <time>2024-03-12T12:14:09Z</time>
      </trkpt>
      <trkpt lat="44.24811" lon="4.81831">
        <ele>179.1</ele>
        <time>2024-03-12T12:14:10Z</time>
      </trkpt>
      <trkpt lat="44.24811" lon="4.81835">
        <ele>178.8</ele>
        <time>2024-03-12T12:14:11Z</time>
      </trkpt>
      <trkpt lat="44.2481" lon="4.81839">
        <ele>178.4</ele>
        <time>2024-03-12T12:14:12Z</time>
      </trkpt>
      <trkpt lat="44.24809" lon="4.81844">
        <ele>178</ele>
        <time>2024-03-12T12:14:13Z</time>
      </trkpt>
      <trkpt lat="44.24808" lon="4.81848">
        <ele>177.6</ele>
        <time>2024-03-12T12:14:14Z</time>
      </trkpt>
      <trkpt lat="44.24807" lon="4.81852">
        <ele>177.2</ele>
        <time>2024-03-12T12:14:15Z</time>
      </trkpt>
      <trkpt lat="44.24806" lon="4.81856">
        <ele>176.9</ele>
        <time>2024-03-12T12:14:16Z</time>
      </trkpt>
      <trkpt lat="44.24805" lon="4.8186">
        <ele>176.5</ele>
        <time>2024-03-12T12:14:17Z</time>
      </trkpt>
      <trkpt lat="44.24805" lon="4.81865">
        <ele>176.3</ele>
        <time>2024-03-12T12:14:18Z</time>
      </trkpt>
      <trkpt lat="44.24804" lon="4.81869">
        <ele>176</ele>
        <time>2024-03-12T12:14:19Z</time>
      </trkpt>
      <trkpt lat="44.24804" lon="4.81873">
        <ele>175.9</ele>
        <time>2024-03-12T12:14:20Z</time>
      </trkpt>
      <trkpt lat="44.24804" lon="4.81877">
        <ele>175.8</ele>
        <time>2024-03-12T12:14:21Z</time>
      </trkpt>
      <trkpt lat="44.24804" lon="4.81881">
        <ele>175.7</ele>
        <time>2024-03-12T12:14:22Z</time>
      </trkpt>
      <trkpt lat="44.24805" lon="4.81884">
        <ele>175.7</ele>
        <time>2024-03-12T12:14:23Z</time>
      </trkpt>
      <trkpt lat="44.24805" lon="4.81888">
        <ele>175.7</ele>
        <time>2024-03-12T12:14:24Z</time>
      </trkpt>
      <trkpt lat="44.24806" lon="4.81891">
        <ele>175.8</ele>
        <time>2024-03-12T12:14:25Z</time>
      </trkpt>
      <trkpt lat="44.24806" lon="4.81895">
        <ele>175.8</ele>
        <time>2024-03-12T12:14:26Z</time>
      </trkpt>
      <trkpt lat="44.24806" lon="4.81898">
        <ele>175.9</ele>
        <time>2024-03-12T12:14:27Z</time>
      </trkpt>
      <trkpt lat="44.24806" lon="4.81901">
        <ele>176</ele>
        <time>2024-03-12T12:14:28Z</time>
      </trkpt>
      <trkpt lat="44.24806" lon="4.81901">
        <ele>176</ele>
        <time>2024-03-12T12:14:29Z</time>
      </trkpt>
      <trkpt lat="44.24804" lon="4.81904">
        <ele>176.1</ele>
        <time>2024-03-12T12:14:30Z</time>
      </trkpt>
      <trkpt lat="44.24804" lon="4.81904">
        <ele>176.1</ele>
        <time>2024-03-12T12:14:31Z</time>
      </trkpt>
      <trkpt lat="44.248" lon="4.81903">
        <ele>176.3</ele>
        <time>2024-03-12T12:14:32Z</time>
      </trkpt>
      <trkpt lat="44.24798" lon="4.81901">
        <ele>176.3</ele>
        <time>2024-03-12T12:14:33Z</time>
      </trkpt>
      <trkpt lat="44.24796" lon="4.81899">
        <ele>176.3</ele>
        <time>2024-03-12T12:14:34Z</time>
      </trkpt>
      <trkpt lat="44.24794" lon="4.81895">
        <ele>176.3</ele>
        <time>2024-03-12T12:14:35Z</time>
      </trkpt>
      <trkpt lat="44.24793" lon="4.81892">
        <ele>176.2</ele>
        <time>2024-03-12T12:14:36Z</time>
      </trkpt>
      <trkpt lat="44.24791" lon="4.81888">
        <ele>176.1</ele>
        <time>2024-03-12T12:14:37Z</time>
      </trkpt>
      <trkpt lat="44.24788" lon="4.81885">
        <ele>176</ele>
        <time>2024-03-12T12:14:38Z</time>
      </trkpt>
      <trkpt lat="44.24786" lon="4.81883">
        <ele>175.9</ele>
        <time>2024-03-12T12:14:39Z</time>
      </trkpt>
      <trkpt lat="44.24783" lon="4.81882">
        <ele>175.9</ele>
        <time>2024-03-12T12:14:40Z</time>
      </trkpt>
      <trkpt lat="44.24781" lon="4.81882">
        <ele>175.8</ele>
        <time>2024-03-12T12:14:41Z</time>
      </trkpt>
      <trkpt lat="44.24778" lon="4.81882">
        <ele>175.7</ele>
        <time>2024-03-12T12:14:42Z</time>
      </trkpt>
      <trkpt lat="44.24776" lon="4.81883">
        <ele>175.6</ele>
        <time>2024-03-12T12:14:43Z</time>
      </trkpt>
      <trkpt lat="44.24774" lon="4.81883">
        <ele>175.6</ele>
        <time>2024-03-12T12:14:44Z</time>
      </trkpt>
      <trkpt lat="44.24771" lon="4.81885">
        <ele>175.5</ele>
        <time>2024-03-12T12:14:45Z</time>
      </trkpt>
      <trkpt lat="44.24769" lon="4.81886">
        <ele>175.4</ele>
        <time>2024-03-12T12:14:46Z</time>
      </trkpt>
      <trkpt lat="44.24767" lon="4.81888">
        <ele>175.4</ele>
        <time>2024-03-12T12:14:47Z</time>
      </trkpt>
      <trkpt lat="44.24765" lon="4.8189">
        <ele>175.3</ele>
        <time>2024-03-12T12:14:48Z</time>
      </trkpt>
      <trkpt lat="44.24763" lon="4.81892">
        <ele>175.3</ele>
        <time>2024-03-12T12:14:49Z</time>
      </trkpt>
      <trkpt lat="44.24762" lon="4.81894">
        <ele>175.3</ele>
        <time>2024-03-12T12:14:50Z</time>
      </trkpt>
      <trkpt lat="44.24761" lon="4.81897">
        <ele>175.3</ele>
        <time>2024-03-12T12:14:51Z</time>
      </trkpt>
      <trkpt lat="44.2476" lon="4.81899">
        <ele>175.3</ele>
        <time>2024-03-12T12:14:52Z</time>
      </trkpt>
      <trkpt lat="44.2476" lon="4.81899">
        <ele>175.3</ele>
        <time>2024-03-12T12:14:53Z</time>
      </trkpt>
      <trkpt lat="44.2476" lon="4.81904">
        <ele>175.4</ele>
        <time>2024-03-12T12:14:54Z</time>
      </trkpt>
      <trkpt lat="44.2476" lon="4.81907">
        <ele>175.5</ele>
        <time>2024-03-12T12:14:55Z</time>
      </trkpt>
      <trkpt lat="44.24761" lon="4.81909">
        <ele>175.6</ele>
        <time>2024-03-12T12:14:56Z</time>
      </trkpt>
      <trkpt lat="44.24762" lon="4.81912">
        <ele>175.6</ele>
        <time>2024-03-12T12:14:57Z</time>
      </trkpt>
      <trkpt lat="44.24763" lon="4.81915">
        <ele>175.8</ele>
        <time>2024-03-12T12:14:58Z</time>
      </trkpt>
      <trkpt lat="44.24764" lon="4.81918">
        <ele>175.8</ele>
        <time>2024-03-12T12:14:59Z</time>
      </trkpt>
      <trkpt lat="44.24765" lon="4.81921">
        <ele>176</ele>
        <time>2024-03-12T12:15:00Z</time>
      </trkpt>
      <trkpt lat="44.24766" lon="4.81923">
        <ele>176.1</ele>
        <time>2024-03-12T12:15:01Z</time>
      </trkpt>
      <trkpt lat="44.24768" lon="4.81926">
        <ele>176.2</ele>
        <time>2024-03-12T12:15:02Z</time>
      </trkpt>
      <trkpt lat="44.24771" lon="4.81929">
        <ele>176.3</ele>
        <time>2024-03-12T12:15:03Z</time>
      </trkpt>
      <trkpt lat="44.24773" lon="4.81932">
        <ele>176.5</ele>
        <time>2024-03-12T12:15:04Z</time>
      </trkpt>
      <trkpt lat="44.24775" lon="4.81936">
        <ele>176.6</ele>
        <time>2024-03-12T12:15:05Z</time>
      </trkpt>
      <trkpt lat="44.24777" lon="4.81939">
        <ele>176.7</ele>
        <time>2024-03-12T12:15:06Z</time>
      </trkpt>
      <trkpt lat="44.24779" lon="4.81942">
        <ele>176.7</ele>
        <time>2024-03-12T12:15:07Z</time>
      </trkpt>
      <trkpt lat="44.24781" lon="4.81945">
        <ele>176.8</ele>
        <time>2024-03-12T12:15:08Z</time>
      </trkpt>
      <trkpt lat="44.24783" lon="4.81948">
        <ele>176.8</ele>
        <time>2024-03-12T12:15:09Z</time>
      </trkpt>
      <trkpt lat="44.24784" lon="4.81952">
        <ele>176.8</ele>
        <time>2024-03-12T12:15:10Z</time>
      </trkpt>
      <trkpt lat="44.24786" lon="4.81955">
        <ele>176.8</ele>
        <time>2024-03-12T12:15:11Z</time>
      </trkpt>
      <trkpt lat="44.24786" lon="4.81958">
        <ele>176.7</ele>
        <time>2024-03-12T12:15:12Z</time>
      </trkpt>
      <trkpt lat="44.24787" lon="4.81962">
        <ele>176.6</ele>
        <time>2024-03-12T12:15:13Z</time>
      </trkpt>
      <trkpt lat="44.24786" lon="4.81966">
        <ele>176.5</ele>
        <time>2024-03-12T12:15:14Z</time>
      </trkpt>
      <trkpt lat="44.24786" lon="4.8197">
        <ele>176.3</ele>
        <time>2024-03-12T12:15:15Z</time>
      </trkpt>
      <trkpt lat="44.24785" lon="4.81975">
        <ele>176</ele>
        <time>2024-03-12T12:15:16Z</time>
      </trkpt>
      <trkpt lat="44.24784" lon="4.81979">
        <ele>175.8</ele>
        <time>2024-03-12T12:15:17Z</time>
      </trkpt>
      <trkpt lat="44.24783" lon="4.81983">
        <ele>175.5</ele>
        <time>2024-03-12T12:15:18Z</time>
      </trkpt>
      <trkpt lat="44.24783" lon="4.81987">
        <ele>175.3</ele>
        <time>2024-03-12T12:15:19Z</time>
      </trkpt>
      <trkpt lat="44.24782" lon="4.8199">
        <ele>175.1</ele>
        <time>2024-03-12T12:15:20Z</time>
      </trkpt>
      <trkpt lat="44.24781" lon="4.81993">
        <ele>174.7</ele>
        <time>2024-03-12T12:15:21Z</time>
      </trkpt>
      <trkpt lat="44.24781" lon="4.81996">
        <ele>174.3</ele>
        <time>2024-03-12T12:15:22Z</time>
      </trkpt>
      <trkpt lat="44.2478" lon="4.81999">
        <ele>173.8</ele>
        <time>2024-03-12T12:15:23Z</time>
      </trkpt>
      <trkpt lat="44.2478" lon="4.82002">
        <ele>173.3</ele>
        <time>2024-03-12T12:15:24Z</time>
      </trkpt>
      <trkpt lat="44.24779" lon="4.82004">
        <ele>172.8</ele>
        <time>2024-03-12T12:15:25Z</time>
      </trkpt>
      <trkpt lat="44.24779" lon="4.82007">
        <ele>172.3</ele>
        <time>2024-03-12T12:15:26Z</time>
      </trkpt>
      <trkpt lat="44.24778" lon="4.82011">
        <ele>171.6</ele>
        <time>2024-03-12T12:15:27Z</time>
      </trkpt>
      <trkpt lat="44.24778" lon="4.82014">
        <ele>170.9</ele>
        <time>2024-03-12T12:15:28Z</time>
      </trkpt>
      <trkpt lat="44.24777" lon="4.82018">
        <ele>170.2</ele>
        <time>2024-03-12T12:15:29Z</time>
      </trkpt>
      <trkpt lat="44.24776" lon="4.82021">
        <ele>169.4</ele>
        <time>2024-03-12T12:15:30Z</time>
      </trkpt>
      <trkpt lat="44.24775" lon="4.82024">
        <ele>168.7</ele>
        <time>2024-03-12T12:15:31Z</time>
      </trkpt>
      <trkpt lat="44.24773" lon="4.82027">
        <ele>167.8</ele>
        <time>2024-03-12T12:15:32Z</time>
      </trkpt>
      <trkpt lat="44.24772" lon="4.82029">
        <ele>167</ele>
        <time>2024-03-12T12:15:33Z</time>
      </trkpt>
      <trkpt lat="44.2477" lon="4.82031">
        <ele>166.2</ele>
        <time>2024-03-12T12:15:34Z</time>
      </trkpt>
      <trkpt lat="44.24768" lon="4.82034">
        <ele>165.4</ele>
        <time>2024-03-12T12:15:35Z</time>
      </trkpt>
      <trkpt lat="44.24766" lon="4.82036">
        <ele>164.6</ele>
        <time>2024-03-12T12:15:36Z</time>
      </trkpt>
      <trkpt lat="44.24765" lon="4.82038">
        <ele>164</ele>
        <time>2024-03-12T12:15:37Z</time>
      </trkpt>
      <trkpt lat="44.24765" lon="4.82041">
        <ele>163.4</ele>
        <time>2024-03-12T12:15:38Z</time>
      </trkpt>
      <trkpt lat="44.24764" lon="4.82044">
        <ele>162.7</ele>
        <time>2024-03-12T12:15:39Z</time>
      </trkpt>
      <trkpt lat="44.24764" lon="4.82047">
        <ele>162</ele>
        <time>2024-03-12T12:15:40Z</time>
      </trkpt>
      <trkpt lat="44.24764" lon="4.8205">
        <ele>161.3</ele>
        <time>2024-03-12T12:15:41Z</time>
      </trkpt>
      <trkpt lat="44.24764" lon="4.82053">
        <ele>160.5</ele>
        <time>2024-03-12T12:15:42Z</time>
      </trkpt>
      <trkpt lat="44.24764" lon="4.82057">
        <ele>159.8</ele>
        <time>2024-03-12T12:15:43Z</time>
      </trkpt>
      <trkpt lat="44.24764" lon="4.8206">
        <ele>159.1</ele>
        <time>2024-03-12T12:15:44Z</time>
      </trkpt>
      <trkpt lat="44.24764" lon="4.82064">
        <ele>158.4</ele>
        <time>2024-03-12T12:15:45Z</time>
      </trkpt>
      <trkpt lat="44.24764" lon="4.82067">
        <ele>157.8</ele>
        <time>2024-03-12T12:15:46Z</time>
      </trkpt>
      <trkpt lat="44.24763" lon="4.8207">
        <ele>157.2</ele>
        <time>2024-03-12T12:15:47Z</time>
      </trkpt>
      <trkpt lat="44.24762" lon="4.82073">
        <ele>156.6</ele>
        <time>2024-03-12T12:15:48Z</time>
      </trkpt>
      <trkpt lat="44.24762" lon="4.82076">
        <ele>156</ele>
        <time>2024-03-12T12:15:49Z</time>
      </trkpt>
      <trkpt lat="44.24762" lon="4.82079">
        <ele>155.6</ele>
        <time>2024-03-12T12:15:50Z</time>
      </trkpt>
      <trkpt lat="44.24762" lon="4.82083">
        <ele>155.5</ele>
        <time>2024-03-12T12:15:51Z</time>
      </trkpt>
      <trkpt lat="44.24762" lon="4.82086">
        <ele>155.4</ele>
        <time>2024-03-12T12:15:52Z</time>
      </trkpt>
      <trkpt lat="44.24764" lon="4.82089">
        <ele>155.2</ele>
        <time>2024-03-12T12:15:53Z</time>
      </trkpt>
      <trkpt lat="44.24765" lon="4.82092">
        <ele>155.1</ele>
        <time>2024-03-12T12:15:54Z</time>
      </trkpt>
      <trkpt lat="44.24767" lon="4.82095">
        <ele>155</ele>
        <time>2024-03-12T12:15:55Z</time>
      </trkpt>
      <trkpt lat="44.24769" lon="4.82097">
        <ele>154.8</ele>
        <time>2024-03-12T12:15:56Z</time>
      </trkpt>
      <trkpt lat="44.24772" lon="4.82099">
        <ele>154.7</ele>
        <time>2024-03-12T12:15:57Z</time>
      </trkpt>
      <trkpt lat="44.24775" lon="4.82101">
        <ele>154.5</ele>
        <time>2024-03-12T12:15:58Z</time>
      </trkpt>
      <trkpt lat="44.24778" lon="4.82103">
        <ele>154.4</ele>
        <time>2024-03-12T12:15:59Z</time>
      </trkpt>
      <trkpt lat="44.24781" lon="4.82105">
        <ele>154.2</ele>
        <time>2024-03-12T12:16:00Z</time>
      </trkpt>
      <trkpt lat="44.24784" lon="4.82108">
        <ele>154.1</ele>
        <time>2024-03-12T12:16:01Z</time>
      </trkpt>
      <trkpt lat="44.24788" lon="4.82111">
        <ele>153.9</ele>
        <time>2024-03-12T12:16:02Z</time>
      </trkpt>
      <trkpt lat="44.24792" lon="4.82114">
        <ele>153.8</ele>
        <time>2024-03-12T12:16:03Z</time>
      </trkpt>
      <trkpt lat="44.24796" lon="4.82117">
        <ele>153.6</ele>
        <time>2024-03-12T12:16:04Z</time>
      </trkpt>
      <trkpt lat="44.24799" lon="4.82121">
        <ele>153.4</ele>
        <time>2024-03-12T12:16:05Z</time>
      </trkpt>
      <trkpt lat="44.24803" lon="4.82124">
        <ele>153.3</ele>
        <time>2024-03-12T12:16:06Z</time>
      </trkpt>
      <trkpt lat="44.24806" lon="4.82128">
        <ele>153.1</ele>
        <time>2024-03-12T12:16:07Z</time>
      </trkpt>
      <trkpt lat="44.24809" lon="4.82132">
        <ele>153</ele>
        <time>2024-03-12T12:16:08Z</time>
      </trkpt>
      <trkpt lat="44.24811" lon="4.82135">
        <ele>153</ele>
        <time>2024-03-12T12:16:09Z</time>
      </trkpt>
      <trkpt lat="44.24813" lon="4.82138">
        <ele>153</ele>
        <time>2024-03-12T12:16:10Z</time>
      </trkpt>
      <trkpt lat="44.24816" lon="4.82141">
        <ele>153</ele>
        <time>2024-03-12T12:16:11Z</time>
      </trkpt>
      <trkpt lat="44.24818" lon="4.82144">
        <ele>153</ele>
        <time>2024-03-12T12:16:12Z</time>
      </trkpt>
      <trkpt lat="44.24821" lon="4.82146">
        <ele>153</ele>
        <time>2024-03-12T12:16:13Z</time>
      </trkpt>
      <trkpt lat="44.24823" lon="4.82148">
        <ele>153</ele>
        <time>2024-03-12T12:16:14Z</time>
      </trkpt>
      <trkpt lat="44.24827" lon="4.8215">
        <ele>152.9</ele>
        <time>2024-03-12T12:16:15Z</time>
      </trkpt>
      <trkpt lat="44.24829" lon="4.82152">
        <ele>152.9</ele>
        <time>2024-03-12T12:16:16Z</time>
      </trkpt>
      <trkpt lat="44.24833" lon="4.82154">
        <ele>152.9</ele>
        <time>2024-03-12T12:16:17Z</time>
      </trkpt>
      <trkpt lat="44.24836" lon="4.82157">
        <ele>152.9</ele>
        <time>2024-03-12T12:16:18Z</time>
      </trkpt>
      <trkpt lat="44.24839" lon="4.82159">
        <ele>152.9</ele>
        <time>2024-03-12T12:16:19Z</time>
      </trkpt>
      <trkpt lat="44.24842" lon="4.8216">
        <ele>152.8</ele>
        <time>2024-03-12T12:16:20Z</time>
      </trkpt>
      <trkpt lat="44.24845" lon="4.82162">
        <ele>152.8</ele>
        <time>2024-03-12T12:16:21Z</time>
      </trkpt>
      <trkpt lat="44.24847" lon="4.82163">
        <ele>152.8</ele>
        <time>2024-03-12T12:16:22Z</time>
      </trkpt>
      <trkpt lat="44.2485" lon="4.82165">
        <ele>152.8</ele>
        <time>2024-03-12T12:16:23Z</time>
      </trkpt>
      <trkpt lat="44.24853" lon="4.82166">
        <ele>152.7</ele>
        <time>2024-03-12T12:16:24Z</time>
      </trkpt>
      <trkpt lat="44.24855" lon="4.82169">
        <ele>152.7</ele>
        <time>2024-03-12T12:16:25Z</time>
      </trkpt>
      <trkpt lat="44.24858" lon="4.82171">
        <ele>152.6</ele>
        <time>2024-03-12T12:16:26Z</time>
      </trkpt>
      <trkpt lat="44.24861" lon="4.82174">
        <ele>152.6</ele>
        <time>2024-03-12T12:16:27Z</time>
      </trkpt>
      <trkpt lat="44.24863" lon="4.82177">
        <ele>152.5</ele>
        <time>2024-03-12T12:16:28Z</time>
      </trkpt>
      <trkpt lat="44.24866" lon="4.82181">
        <ele>152.5</ele>
        <time>2024-03-12T12:16:29Z</time>
      </trkpt>
      <trkpt lat="44.24869" lon="4.82185">
        <ele>152.4</ele>
        <time>2024-03-12T12:16:30Z</time>
      </trkpt>
      <trkpt lat="44.24871" lon="4.8219">
        <ele>152.3</ele>
        <time>2024-03-12T12:16:31Z</time>
      </trkpt>
      <trkpt lat="44.24873" lon="4.82195">
        <ele>152.3</ele>
        <time>2024-03-12T12:16:32Z</time>
      </trkpt>
      <trkpt lat="44.24874" lon="4.82201">
        <ele>152.2</ele>
        <time>2024-03-12T12:16:33Z</time>
      </trkpt>
      <trkpt lat="44.24875" lon="4.82206">
        <ele>152.1</ele>
        <time>2024-03-12T12:16:34Z</time>
      </trkpt>
      <trkpt lat="44.24876" lon="4.82212">
        <ele>152</ele>
        <time>2024-03-12T12:16:35Z</time>
      </trkpt>
      <trkpt lat="44.24876" lon="4.82217">
        <ele>152</ele>
        <time>2024-03-12T12:16:36Z</time>
      </trkpt>
      <trkpt lat="44.24876" lon="4.82222">
        <ele>151.9</ele>
        <time>2024-03-12T12:16:37Z</time>
      </trkpt>
      <trkpt lat="44.24875" lon="4.82226">
        <ele>151.9</ele>
        <time>2024-03-12T12:16:38Z</time>
      </trkpt>
      <trkpt lat="44.24874" lon="4.82231">
        <ele>151.8</ele>
        <time>2024-03-12T12:16:39Z</time>
      </trkpt>
      <trkpt lat="44.24873" lon="4.82235">
        <ele>151.8</ele>
        <time>2024-03-12T12:16:40Z</time>
      </trkpt>
      <trkpt lat="44.24872" lon="4.82239">
        <ele>151.7</ele>
        <time>2024-03-12T12:16:41Z</time>
      </trkpt>
      <trkpt lat="44.2487" lon="4.82243">
        <ele>151.6</ele>
        <time>2024-03-12T12:16:42Z</time>
      </trkpt>
      <trkpt lat="44.24868" lon="4.82247">
        <ele>151.6</ele>
        <time>2024-03-12T12:16:43Z</time>
      </trkpt>
      <trkpt lat="44.24866" lon="4.82251">
        <ele>151.5</ele>
        <time>2024-03-12T12:16:44Z</time>
      </trkpt>
      <trkpt lat="44.24864" lon="4.82255">
        <ele>151.4</ele>
        <time>2024-03-12T12:16:45Z</time>
      </trkpt>
      <trkpt lat="44.24861" lon="4.82259">
        <ele>151.4</ele>
        <time>2024-03-12T12:16:46Z</time>
      </trkpt>
      <trkpt lat="44.24859" lon="4.82263">
        <ele>151.3</ele>
        <time>2024-03-12T12:16:47Z</time>
      </trkpt>
      <trkpt lat="44.24856" lon="4.82267">
        <ele>151.2</ele>
        <time>2024-03-12T12:16:48Z</time>
      </trkpt>
      <trkpt lat="44.24853" lon="4.82272">
        <ele>151.1</ele>
        <time>2024-03-12T12:16:49Z</time>
      </trkpt>
      <trkpt lat="44.24851" lon="4.82274">
        <ele>151.1</ele>
        <time>2024-03-12T12:16:50Z</time>
      </trkpt>
      <trkpt lat="44.24849" lon="4.82278">
        <ele>151</ele>
        <time>2024-03-12T12:16:51Z</time>
      </trkpt>
      <trkpt lat="44.24846" lon="4.82282">
        <ele>151</ele>
        <time>2024-03-12T12:16:52Z</time>
      </trkpt>
      <trkpt lat="44.24844" lon="4.82286">
        <ele>150.9</ele>
        <time>2024-03-12T12:16:53Z</time>
      </trkpt>
      <trkpt lat="44.24842" lon="4.8229">
        <ele>150.8</ele>
        <time>2024-03-12T12:16:54Z</time>
      </trkpt>
      <trkpt lat="44.2484" lon="4.82295">
        <ele>150.8</ele>
        <time>2024-03-12T12:16:55Z</time>
      </trkpt>
      <trkpt lat="44.24839" lon="4.82299">
        <ele>150.7</ele>
        <time>2024-03-12T12:16:56Z</time>
      </trkpt>
      <trkpt lat="44.24837" lon="4.82304">
        <ele>150.6</ele>
        <time>2024-03-12T12:16:57Z</time>
      </trkpt>
      <trkpt lat="44.24836" lon="4.82308">
        <ele>150.6</ele>
        <time>2024-03-12T12:16:58Z</time>
      </trkpt>
      <trkpt lat="44.24834" lon="4.82312">
        <ele>150.5</ele>
        <time>2024-03-12T12:16:59Z</time>
      </trkpt>
      <trkpt lat="44.24833" lon="4.82316">
        <ele>150.5</ele>
        <time>2024-03-12T12:17:00Z</time>
      </trkpt>
      <trkpt lat="44.24831" lon="4.8232">
        <ele>150.4</ele>
        <time>2024-03-12T12:17:01Z</time>
      </trkpt>
      <trkpt lat="44.24829" lon="4.82324">
        <ele>150.4</ele>
        <time>2024-03-12T12:17:02Z</time>
      </trkpt>
      <trkpt lat="44.24827" lon="4.82328">
        <ele>150.3</ele>
        <time>2024-03-12T12:17:03Z</time>
      </trkpt>
      <trkpt lat="44.24825" lon="4.82332">
        <ele>150.3</ele>
        <time>2024-03-12T12:17:04Z</time>
      </trkpt>
      <trkpt lat="44.24823" lon="4.82336">
        <ele>150.2</ele>
        <time>2024-03-12T12:17:05Z</time>
      </trkpt>
      <trkpt lat="44.24821" lon="4.8234">
        <ele>150.2</ele>
        <time>2024-03-12T12:17:06Z</time>
      </trkpt>
      <trkpt lat="44.24819" lon="4.82343">
        <ele>150.2</ele>
        <time>2024-03-12T12:17:07Z</time>
      </trkpt>
      <trkpt lat="44.24817" lon="4.82347">
        <ele>150.1</ele>
        <time>2024-03-12T12:17:08Z</time>
      </trkpt>
      <trkpt lat="44.24816" lon="4.82351">
        <ele>150.1</ele>
        <time>2024-03-12T12:17:09Z</time>
      </trkpt>
      <trkpt lat="44.24814" lon="4.82355">
        <ele>150</ele>
        <time>2024-03-12T12:17:10Z</time>
      </trkpt>
      <trkpt lat="44.24813" lon="4.82359">
        <ele>150</ele>
        <time>2024-03-12T12:17:11Z</time>
      </trkpt>
      <trkpt lat="44.24811" lon="4.82363">
        <ele>150</ele>
        <time>2024-03-12T12:17:12Z</time>
      </trkpt>
      <trkpt lat="44.2481" lon="4.82367">
        <ele>149.9</ele>
        <time>2024-03-12T12:17:13Z</time>
      </trkpt>
      <trkpt lat="44.24808" lon="4.82371">
        <ele>149.9</ele>
        <time>2024-03-12T12:17:14Z</time>
      </trkpt>
      <trkpt lat="44.24806" lon="4.82374">
        <ele>149.8</ele>
        <time>2024-03-12T12:17:15Z</time>
      </trkpt>
      <trkpt lat="44.24804" lon="4.82378">
        <ele>149.8</ele>
        <time>2024-03-12T12:17:16Z</time>
      </trkpt>
      <trkpt lat="44.24802" lon="4.82382">
        <ele>149.7</ele>
        <time>2024-03-12T12:17:17Z</time>
      </trkpt>
      <trkpt lat="44.248" lon="4.82385">
        <ele>149.7</ele>
        <time>2024-03-12T12:17:18Z</time>
      </trkpt>
      <trkpt lat="44.24799" lon="4.82389">
        <ele>149.6</ele>
        <time>2024-03-12T12:17:19Z</time>
      </trkpt>
      <trkpt lat="44.24797" lon="4.82393">
        <ele>149.5</ele>
        <time>2024-03-12T12:17:20Z</time>
      </trkpt>
      <trkpt lat="44.24795" lon="4.82396">
        <ele>149.4</ele>
        <time>2024-03-12T12:17:21Z</time>
      </trkpt>
      <trkpt lat="44.24793" lon="4.824">
        <ele>149.3</ele>
        <time>2024-03-12T12:17:22Z</time>
      </trkpt>
      <trkpt lat="44.24791" lon="4.82404">
        <ele>149.2</ele>
        <time>2024-03-12T12:17:23Z</time>
      </trkpt>
      <trkpt lat="44.24788" lon="4.82408">
        <ele>149.1</ele>
        <time>2024-03-12T12:17:24Z</time>
      </trkpt>
      <trkpt lat="44.24786" lon="4.82412">
        <ele>149</ele>
        <time>2024-03-12T12:17:25Z</time>
      </trkpt>
      <trkpt lat="44.24783" lon="4.82417">
        <ele>148.8</ele>
        <time>2024-03-12T12:17:26Z</time>
      </trkpt>
      <trkpt lat="44.24781" lon="4.82421">
        <ele>148.7</ele>
        <time>2024-03-12T12:17:27Z</time>
      </trkpt>
      <trkpt lat="44.24778" lon="4.82425">
        <ele>148.6</ele>
        <time>2024-03-12T12:17:28Z</time>
      </trkpt>
      <trkpt lat="44.24776" lon="4.82429">
        <ele>148.5</ele>
        <time>2024-03-12T12:17:29Z</time>
      </trkpt>
      <trkpt lat="44.24774" lon="4.82433">
        <ele>148.3</ele>
        <time>2024-03-12T12:17:30Z</time>
      </trkpt>
      <trkpt lat="44.24773" lon="4.82437">
        <ele>148.2</ele>
        <time>2024-03-12T12:17:31Z</time>
      </trkpt>
      <trkpt lat="44.24772" lon="4.82442">
        <ele>148.1</ele>
        <time>2024-03-12T12:17:32Z</time>
      </trkpt>
      <trkpt lat="44.2477" lon="4.82446">
        <ele>147.9</ele>
        <time>2024-03-12T12:17:33Z</time>
      </trkpt>
      <trkpt lat="44.24768" lon="4.82451">
        <ele>147.7</ele>
        <time>2024-03-12T12:17:34Z</time>
      </trkpt>
      <trkpt lat="44.24767" lon="4.82457">
        <ele>147.6</ele>
        <time>2024-03-12T12:17:35Z</time>
      </trkpt>
      <trkpt lat="44.24766" lon="4.82462">
        <ele>147.4</ele>
        <time>2024-03-12T12:17:36Z</time>
      </trkpt>
      <trkpt lat="44.24766" lon="4.82467">
        <ele>147.3</ele>
        <time>2024-03-12T12:17:37Z</time>
      </trkpt>
      <trkpt lat="44.24767" lon="4.82473">
        <ele>147.1</ele>
        <time>2024-03-12T12:17:38Z</time>
      </trkpt>
      <trkpt lat="44.24768" lon="4.82478">
        <ele>147</ele>
        <time>2024-03-12T12:17:39Z</time>
      </trkpt>
      <trkpt lat="44.2477" lon="4.82483">
        <ele>146.8</ele>
        <time>2024-03-12T12:17:40Z</time>
      </trkpt>
      <trkpt lat="44.24771" lon="4.82488">
        <ele>146.7</ele>
        <time>2024-03-12T12:17:41Z</time>
      </trkpt>
      <trkpt lat="44.24773" lon="4.82493">
        <ele>146.6</ele>
        <time>2024-03-12T12:17:42Z</time>
      </trkpt>
      <trkpt lat="44.24775" lon="4.82497">
        <ele>146.5</ele>
        <time>2024-03-12T12:17:43Z</time>
      </trkpt>
      <trkpt lat="44.24777" lon="4.82502">
        <ele>146.4</ele>
        <time>2024-03-12T12:17:44Z</time>
      </trkpt>
      <trkpt lat="44.24779" lon="4.82506">
        <ele>146.3</ele>
        <time>2024-03-12T12:17:45Z</time>
      </trkpt>
      <trkpt lat="44.2478" lon="4.82511">
        <ele>146.2</ele>
        <time>2024-03-12T12:17:46Z</time>
      </trkpt>
      <trkpt lat="44.24781" lon="4.82516">
        <ele>146.1</ele>
        <time>2024-03-12T12:17:47Z</time>
      </trkpt>
      <trkpt lat="44.24781" lon="4.82521">
        <ele>145.9</ele>
        <time>2024-03-12T12:17:48Z</time>
      </trkpt>
      <trkpt lat="44.24781" lon="4.82527">
        <ele>145.8</ele>
        <time>2024-03-12T12:17:49Z</time>
      </trkpt>
      <trkpt lat="44.2478" lon="4.82532">
        <ele>145.6</ele>
        <time>2024-03-12T12:17:50Z</time>
      </trkpt>
      <trkpt lat="44.24778" lon="4.82537">
        <ele>145.4</ele>
        <time>2024-03-12T12:17:51Z</time>
      </trkpt>
      <trkpt lat="44.24777" lon="4.82542">
        <ele>145.2</ele>
        <time>2024-03-12T12:17:52Z</time>
      </trkpt>
      <trkpt lat="44.24775" lon="4.82547">
        <ele>145.1</ele>
        <time>2024-03-12T12:17:53Z</time>
      </trkpt>
      <trkpt lat="44.24774" lon="4.82551">
        <ele>144.9</ele>
        <time>2024-03-12T12:17:54Z</time>
      </trkpt>
      <trkpt lat="44.24772" lon="4.82555">
        <ele>144.8</ele>
        <time>2024-03-12T12:17:55Z</time>
      </trkpt>
      <trkpt lat="44.24769" lon="4.82559">
        <ele>144.6</ele>
        <time>2024-03-12T12:17:56Z</time>
      </trkpt>
      <trkpt lat="44.24767" lon="4.82562">
        <ele>144.5</ele>
        <time>2024-03-12T12:17:57Z</time>
      </trkpt>
      <trkpt lat="44.24764" lon="4.82565">
        <ele>144.4</ele>
        <time>2024-03-12T12:17:58Z</time>
      </trkpt>
      <trkpt lat="44.24761" lon="4.82568">
        <ele>144.2</ele>
        <time>2024-03-12T12:17:59Z</time>
      </trkpt>
      <trkpt lat="44.24758" lon="4.82571">
        <ele>144.1</ele>
        <time>2024-03-12T12:18:00Z</time>
      </trkpt>
      <trkpt lat="44.24756" lon="4.82575">
        <ele>143.9</ele>
        <time>2024-03-12T12:18:01Z</time>
      </trkpt>
      <trkpt lat="44.24753" lon="4.82578">
        <ele>143.8</ele>
        <time>2024-03-12T12:18:02Z</time>
      </trkpt>
      <trkpt lat="44.24751" lon="4.82581">
        <ele>143.7</ele>
        <time>2024-03-12T12:18:03Z</time>
      </trkpt>
      <trkpt lat="44.24749" lon="4.82584">
        <ele>143.6</ele>
        <time>2024-03-12T12:18:04Z</time>
      </trkpt>
      <trkpt lat="44.24746" lon="4.82587">
        <ele>143.4</ele>
        <time>2024-03-12T12:18:05Z</time>
      </trkpt>
      <trkpt lat="44.24744" lon="4.82591">
        <ele>143.3</ele>
        <time>2024-03-12T12:18:06Z</time>
      </trkpt>
      <trkpt lat="44.24741" lon="4.82594">
        <ele>143.2</ele>
        <time>2024-03-12T12:18:07Z</time>
      </trkpt>
      <trkpt lat="44.24738" lon="4.82598">
        <ele>143.1</ele>
        <time>2024-03-12T12:18:08Z</time>
      </trkpt>
      <trkpt lat="44.24736" lon="4.82602">
        <ele>143</ele>
        <time>2024-03-12T12:18:09Z</time>
      </trkpt>
      <trkpt lat="44.24733" lon="4.82605">
        <ele>142.9</ele>
        <time>2024-03-12T12:18:10Z</time>
      </trkpt>
      <trkpt lat="44.24731" lon="4.82608">
        <ele>142.8</ele>
        <time>2024-03-12T12:18:11Z</time>
      </trkpt>
      <trkpt lat="44.24728" lon="4.82611">
        <ele>142.7</ele>
        <time>2024-03-12T12:18:12Z</time>
      </trkpt>
      <trkpt lat="44.24726" lon="4.82615">
        <ele>142.6</ele>
        <time>2024-03-12T12:18:13Z</time>
      </trkpt>
      <trkpt lat="44.24723" lon="4.82618">
        <ele>142.5</ele>
        <time>2024-03-12T12:18:14Z</time>
      </trkpt>
      <trkpt lat="44.2472" lon="4.82621">
        <ele>142.4</ele>
        <time>2024-03-12T12:18:15Z</time>
      </trkpt>
      <trkpt lat="44.24717" lon="4.82624">
        <ele>142.3</ele>
        <time>2024-03-12T12:18:16Z</time>
      </trkpt>
      <trkpt lat="44.24715" lon="4.82627">
        <ele>142.2</ele>
        <time>2024-03-12T12:18:17Z</time>
      </trkpt>
      <trkpt lat="44.24712" lon="4.82631">
        <ele>142.1</ele>
        <time>2024-03-12T12:18:18Z</time>
      </trkpt>
      <trkpt lat="44.2471" lon="4.82636">
        <ele>142</ele>
        <time>2024-03-12T12:18:19Z</time>
      </trkpt>
      <trkpt lat="44.24709" lon="4.82641">
        <ele>141.9</ele>
        <time>2024-03-12T12:18:20Z</time>
      </trkpt>
      <trkpt lat="44.24708" lon="4.82646">
        <ele>141.8</ele>
        <time>2024-03-12T12:18:21Z</time>
      </trkpt>
      <trkpt lat="44.24707" lon="4.82651">
        <ele>141.7</ele>
        <time>2024-03-12T12:18:22Z</time>
      </trkpt>
      <trkpt lat="44.24707" lon="4.82656">
        <ele>141.6</ele>
        <time>2024-03-12T12:18:23Z</time>
      </trkpt>
      <trkpt lat="44.24708" lon="4.8266">
        <ele>141.5</ele>
        <time>2024-03-12T12:18:24Z</time>
      </trkpt>
      <trkpt lat="44.24709" lon="4.82665">
        <ele>141.4</ele>
        <time>2024-03-12T12:18:25Z</time>
      </trkpt>
      <trkpt lat="44.2471" lon="4.82669">
        <ele>141.3</ele>
        <time>2024-03-12T12:18:26Z</time>
      </trkpt>
      <trkpt lat="44.24712" lon="4.82672">
        <ele>141.2</ele>
        <time>2024-03-12T12:18:27Z</time>
      </trkpt>
      <trkpt lat="44.24714" lon="4.82676">
        <ele>141.1</ele>
        <time>2024-03-12T12:18:28Z</time>
      </trkpt>
      <trkpt lat="44.24717" lon="4.82679">
        <ele>140.9</ele>
        <time>2024-03-12T12:18:29Z</time>
      </trkpt>
      <trkpt lat="44.2472" lon="4.82683">
        <ele>140.8</ele>
        <time>2024-03-12T12:18:30Z</time>
      </trkpt>
      <trkpt lat="44.24723" lon="4.82686">
        <ele>140.7</ele>
        <time>2024-03-12T12:18:31Z</time>
      </trkpt>
      <trkpt lat="44.24725" lon="4.82689">
        <ele>140.5</ele>
        <time>2024-03-12T12:18:32Z</time>
      </trkpt>
      <trkpt lat="44.24728" lon="4.82692">
        <ele>140.4</ele>
        <time>2024-03-12T12:18:33Z</time>
      </trkpt>
      <trkpt lat="44.2473" lon="4.82695">
        <ele>140.3</ele>
        <time>2024-03-12T12:18:34Z</time>
      </trkpt>
      <trkpt lat="44.24732" lon="4.82698">
        <ele>140.2</ele>
        <time>2024-03-12T12:18:35Z</time>
      </trkpt>
      <trkpt lat="44.24734" lon="4.82701">
        <ele>140.1</ele>
        <time>2024-03-12T12:18:36Z</time>
      </trkpt>
      <trkpt lat="44.24735" lon="4.82704">
        <ele>140.1</ele>
        <time>2024-03-12T12:18:37Z</time>
      </trkpt>
      <trkpt lat="44.24736" lon="4.82708">
        <ele>140</ele>
        <time>2024-03-12T12:18:38Z</time>
      </trkpt>
      <trkpt lat="44.24738" lon="4.82711">
        <ele>139.9</ele>
        <time>2024-03-12T12:18:39Z</time>
      </trkpt>
      <trkpt lat="44.2474" lon="4.82715">
        <ele>139.8</ele>
        <time>2024-03-12T12:18:40Z</time>
      </trkpt>
      <trkpt lat="44.24741" lon="4.82719">
        <ele>139.7</ele>
        <time>2024-03-12T12:18:41Z</time>
      </trkpt>
      <trkpt lat="44.24741" lon="4.82724">
        <ele>139.6</ele>
        <time>2024-03-12T12:18:42Z</time>
      </trkpt>
      <trkpt lat="44.24742" lon="4.82729">
        <ele>139.5</ele>
        <time>2024-03-12T12:18:43Z</time>
      </trkpt>
      <trkpt lat="44.24742" lon="4.82734">
        <ele>139.4</ele>
        <time>2024-03-12T12:18:44Z</time>
      </trkpt>
      <trkpt lat="44.24742" lon="4.82739">
        <ele>139.3</ele>
        <time>2024-03-12T12:18:45Z</time>
      </trkpt>
      <trkpt lat="44.24741" lon="4.82743">
        <ele>139.2</ele>
        <time>2024-03-12T12:18:46Z</time>
      </trkpt>
      <trkpt lat="44.24739" lon="4.82748">
        <ele>139.1</ele>
        <time>2024-03-12T12:18:47Z</time>
      </trkpt>
      <trkpt lat="44.24737" lon="4.82752">
        <ele>139</ele>
        <time>2024-03-12T12:18:48Z</time>
      </trkpt>
      <trkpt lat="44.24735" lon="4.82756">
        <ele>138.9</ele>
        <time>2024-03-12T12:18:49Z</time>
      </trkpt>
      <trkpt lat="44.24732" lon="4.8276">
        <ele>138.8</ele>
        <time>2024-03-12T12:18:50Z</time>
      </trkpt>
      <trkpt lat="44.24729" lon="4.82764">
        <ele>138.7</ele>
        <time>2024-03-12T12:18:51Z</time>
      </trkpt>
      <trkpt lat="44.24726" lon="4.82767">
        <ele>138.7</ele>
        <time>2024-03-12T12:18:52Z</time>
      </trkpt>
      <trkpt lat="44.24723" lon="4.82771">
        <ele>138.6</ele>
        <time>2024-03-12T12:18:53Z</time>
      </trkpt>
      <trkpt lat="44.2472" lon="4.82775">
        <ele>138.5</ele>
        <time>2024-03-12T12:18:54Z</time>
      </trkpt>
      <trkpt lat="44.24718" lon="4.82779">
        <ele>138.5</ele>
        <time>2024-03-12T12:18:55Z</time>
      </trkpt>
      <trkpt lat="44.24718" lon="4.82783">
        <ele>138.4</ele>
        <time>2024-03-12T12:18:56Z</time>
      </trkpt>
      <trkpt lat="44.24719" lon="4.82788">
        <ele>138.4</ele>
        <time>2024-03-12T12:18:57Z</time>
      </trkpt>
      <trkpt lat="44.2472" lon="4.82793">
        <ele>138.3</ele>
        <time>2024-03-12T12:18:58Z</time>
      </trkpt>
      <trkpt lat="44.24722" lon="4.82799">
        <ele>138.2</ele>
        <time>2024-03-12T12:18:59Z</time>
      </trkpt>
      <trkpt lat="44.24724" lon="4.82803">
        <ele>138.2</ele>
        <time>2024-03-12T12:19:00Z</time>
      </trkpt>
      <trkpt lat="44.24725" lon="4.82808">
        <ele>138.1</ele>
        <time>2024-03-12T12:19:01Z</time>
      </trkpt>
      <trkpt lat="44.24724" lon="4.82812">
        <ele>138</ele>
        <time>2024-03-12T12:19:02Z</time>
      </trkpt>
      <trkpt lat="44.24724" lon="4.82815">
        <ele>137.8</ele>
        <time>2024-03-12T12:19:03Z</time>
      </trkpt>
      <trkpt lat="44.24722" lon="4.82819">
        <ele>137.7</ele>
        <time>2024-03-12T12:19:04Z</time>
      </trkpt>
      <trkpt lat="44.24719" lon="4.82822">
        <ele>137.5</ele>
        <time>2024-03-12T12:19:05Z</time>
      </trkpt>
      <trkpt lat="44.24717" lon="4.82826">
        <ele>137.4</ele>
        <time>2024-03-12T12:19:06Z</time>
      </trkpt>
      <trkpt lat="44.24714" lon="4.82829">
        <ele>137.2</ele>
        <time>2024-03-12T12:19:07Z</time>
      </trkpt>
      <trkpt lat="44.24711" lon="4.82832">
        <ele>137.1</ele>
        <time>2024-03-12T12:19:08Z</time>
      </trkpt>
      <trkpt lat="44.24709" lon="4.82836">
        <ele>137</ele>
        <time>2024-03-12T12:19:09Z</time>
      </trkpt>
      <trkpt lat="44.24706" lon="4.8284">
        <ele>136.8</ele>
        <time>2024-03-12T12:19:10Z</time>
      </trkpt>
      <trkpt lat="44.24704" lon="4.82844">
        <ele>136.7</ele>
        <time>2024-03-12T12:19:11Z</time>
      </trkpt>
      <trkpt lat="44.24703" lon="4.82849">
        <ele>136.6</ele>
        <time>2024-03-12T12:19:12Z</time>
      </trkpt>
      <trkpt lat="44.24702" lon="4.82854">
        <ele>136.7</ele>
        <time>2024-03-12T12:19:13Z</time>
      </trkpt>
      <trkpt lat="44.24701" lon="4.82859">
        <ele>136.9</ele>
        <time>2024-03-12T12:19:14Z</time>
      </trkpt>
      <trkpt lat="44.24699" lon="4.82863">
        <ele>137.1</ele>
        <time>2024-03-12T12:19:15Z</time>
      </trkpt>
      <trkpt lat="44.24698" lon="4.82867">
        <ele>137.2</ele>
        <time>2024-03-12T12:19:16Z</time>
      </trkpt>
      <trkpt lat="44.24697" lon="4.82871">
        <ele>137.5</ele>
        <time>2024-03-12T12:19:17Z</time>
      </trkpt>
      <trkpt lat="44.24696" lon="4.82874">
        <ele>137.6</ele>
        <time>2024-03-12T12:19:18Z</time>
      </trkpt>
      <trkpt lat="44.24696" lon="4.82877">
        <ele>137.8</ele>
        <time>2024-03-12T12:19:19Z</time>
      </trkpt>
      <trkpt lat="44.24696" lon="4.8288">
        <ele>137.9</ele>
        <time>2024-03-12T12:19:20Z</time>
      </trkpt>
      <trkpt lat="44.24696" lon="4.8288">
        <ele>137.9</ele>
        <time>2024-03-12T12:19:21Z</time>
      </trkpt>
      <trkpt lat="44.24697" lon="4.82884">
        <ele>138.1</ele>
        <time>2024-03-12T12:19:22Z</time>
      </trkpt>
      <trkpt lat="44.24699" lon="4.82886">
        <ele>138.3</ele>
        <time>2024-03-12T12:19:23Z</time>
      </trkpt>
      <trkpt lat="44.24701" lon="4.82888">
        <ele>138.5</ele>
        <time>2024-03-12T12:19:24Z</time>
      </trkpt>
      <trkpt lat="44.24704" lon="4.8289">
        <ele>138.6</ele>
        <time>2024-03-12T12:19:25Z</time>
      </trkpt>
      <trkpt lat="44.24708" lon="4.82893">
        <ele>138.8</ele>
        <time>2024-03-12T12:19:26Z</time>
      </trkpt>
      <trkpt lat="44.2471" lon="4.82895">
        <ele>139</ele>
        <time>2024-03-12T12:19:27Z</time>
      </trkpt>
      <trkpt lat="44.24713" lon="4.82898">
        <ele>139.2</ele>
        <time>2024-03-12T12:19:28Z</time>
      </trkpt>
      <trkpt lat="44.24716" lon="4.829">
        <ele>139.3</ele>
        <time>2024-03-12T12:19:29Z</time>
      </trkpt>
      <trkpt lat="44.24718" lon="4.82902">
        <ele>139.4</ele>
        <time>2024-03-12T12:19:30Z</time>
      </trkpt>
      <trkpt lat="44.2472" lon="4.82903">
        <ele>139.5</ele>
        <time>2024-03-12T12:19:31Z</time>
      </trkpt>
      <trkpt lat="44.24722" lon="4.82903">
        <ele>139.6</ele>
        <time>2024-03-12T12:19:32Z</time>
      </trkpt>
      <trkpt lat="44.24724" lon="4.82902">
        <ele>139.7</ele>
        <time>2024-03-12T12:19:33Z</time>
      </trkpt>
      <trkpt lat="44.24727" lon="4.82901">
        <ele>139.9</ele>
        <time>2024-03-12T12:19:34Z</time>
      </trkpt>
      <trkpt lat="44.2473" lon="4.829">
        <ele>140</ele>
        <time>2024-03-12T12:19:35Z</time>
      </trkpt>
      <trkpt lat="44.24733" lon="4.829">
        <ele>140.2</ele>
        <time>2024-03-12T12:19:36Z</time>
      </trkpt>
      <trkpt lat="44.24737" lon="4.82901">
        <ele>140.2</ele>
        <time>2024-03-12T12:19:37Z</time>
      </trkpt>
      <trkpt lat="44.24741" lon="4.82903">
        <ele>140.1</ele>
        <time>2024-03-12T12:19:38Z</time>
      </trkpt>
      <trkpt lat="44.24744" lon="4.82906">
        <ele>139.8</ele>
        <time>2024-03-12T12:19:39Z</time>
      </trkpt>
      <trkpt lat="44.24747" lon="4.8291">
        <ele>139.5</ele>
        <time>2024-03-12T12:19:40Z</time>
      </trkpt>
      <trkpt lat="44.24749" lon="4.82913">
        <ele>138.9</ele>
        <time>2024-03-12T12:19:41Z</time>
      </trkpt>
      <trkpt lat="44.2475" lon="4.82917">
        <ele>138.4</ele>
        <time>2024-03-12T12:19:42Z</time>
      </trkpt>
      <trkpt lat="44.24752" lon="4.82921">
        <ele>137.8</ele>
        <time>2024-03-12T12:19:43Z</time>
      </trkpt>
      <trkpt lat="44.24752" lon="4.82925">
        <ele>137.1</ele>
        <time>2024-03-12T12:19:44Z</time>
      </trkpt>
      <trkpt lat="44.24753" lon="4.82929">
        <ele>136.4</ele>
        <time>2024-03-12T12:19:45Z</time>
      </trkpt>
      <trkpt lat="44.24753" lon="4.82933">
        <ele>135.8</ele>
        <time>2024-03-12T12:19:46Z</time>
      </trkpt>
      <trkpt lat="44.24753" lon="4.82937">
        <ele>135.4</ele>
        <time>2024-03-12T12:19:47Z</time>
      </trkpt>
      <trkpt lat="44.24754" lon="4.82941">
        <ele>134.9</ele>
        <time>2024-03-12T12:19:48Z</time>
      </trkpt>
      <trkpt lat="44.24755" lon="4.82945">
        <ele>134.4</ele>
        <time>2024-03-12T12:19:49Z</time>
      </trkpt>
      <trkpt lat="44.24756" lon="4.82949">
        <ele>134</ele>
        <time>2024-03-12T12:19:50Z</time>
      </trkpt>
      <trkpt lat="44.24757" lon="4.82953">
        <ele>133.4</ele>
        <time>2024-03-12T12:19:51Z</time>
      </trkpt>
      <trkpt lat="44.24758" lon="4.82957">
        <ele>133</ele>
        <time>2024-03-12T12:19:52Z</time>
      </trkpt>
      <trkpt lat="44.24759" lon="4.82962">
        <ele>132.5</ele>
        <time>2024-03-12T12:19:53Z</time>
      </trkpt>
      <trkpt lat="44.2476" lon="4.82966">
        <ele>132</ele>
        <time>2024-03-12T12:19:54Z</time>
      </trkpt>
      <trkpt lat="44.24759" lon="4.82971">
        <ele>131.7</ele>
        <time>2024-03-12T12:19:55Z</time>
      </trkpt>
      <trkpt lat="44.24757" lon="4.82976">
        <ele>131.3</ele>
        <time>2024-03-12T12:19:56Z</time>
      </trkpt>
      <trkpt lat="44.24755" lon="4.8298">
        <ele>130.9</ele>
        <time>2024-03-12T12:19:57Z</time>
      </trkpt>
      <trkpt lat="44.24752" lon="4.82985">
        <ele>130.5</ele>
        <time>2024-03-12T12:19:58Z</time>
      </trkpt>
      <trkpt lat="44.24748" lon="4.82989">
        <ele>130.1</ele>
        <time>2024-03-12T12:19:59Z</time>
      </trkpt>
      <trkpt lat="44.24745" lon="4.82994">
        <ele>129.6</ele>
        <time>2024-03-12T12:20:00Z</time>
      </trkpt>
      <trkpt lat="44.24741" lon="4.82998">
        <ele>129.4</ele>
        <time>2024-03-12T12:20:01Z</time>
      </trkpt>
      <trkpt lat="44.24738" lon="4.83003">
        <ele>129.3</ele>
        <time>2024-03-12T12:20:02Z</time>
      </trkpt>
      <trkpt lat="44.24735" lon="4.83006">
        <ele>129.3</ele>
        <time>2024-03-12T12:20:03Z</time>
      </trkpt>
      <trkpt lat="44.24732" lon="4.8301">
        <ele>129.4</ele>
        <time>2024-03-12T12:20:04Z</time>
      </trkpt>
      <trkpt lat="44.2473" lon="4.83013">
        <ele>129.4</ele>
        <time>2024-03-12T12:20:05Z</time>
      </trkpt>
      <trkpt lat="44.24727" lon="4.83016">
        <ele>129.4</ele>
        <time>2024-03-12T12:20:06Z</time>
      </trkpt>
      <trkpt lat="44.24725" lon="4.8302">
        <ele>129.5</ele>
        <time>2024-03-12T12:20:07Z</time>
      </trkpt>
      <trkpt lat="44.24723" lon="4.83023">
        <ele>129.5</ele>
        <time>2024-03-12T12:20:08Z</time>
      </trkpt>
      <trkpt lat="44.24721" lon="4.83027">
        <ele>129.5</ele>
        <time>2024-03-12T12:20:09Z</time>
      </trkpt>
      <trkpt lat="44.24721" lon="4.83027">
        <ele>129.5</ele>
        <time>2024-03-12T12:20:10Z</time>
      </trkpt>
      <trkpt lat="44.24721" lon="4.83027">
        <ele>129.5</ele>
        <time>2024-03-12T12:20:11Z</time>
      </trkpt>
    </trkseg>
  </trk>
</gpx>